<?xml version="1.0" encoding="UTF-8" standalone="no" ?>
<gpx xmlns="http://www.topografix.com/GPX/1/1" xmlns:xsi="http://www.w3.org/2001/XMLSchema-instance" xsi:schemaLocation="http://www.topografix.com/GPX/1/1 http://www.topografix.com/GPX/1/1/gpx.xsd" version="1.1" creator="VisuGPX - https://www.visugpx.com">
  <metadata>
    <name>saulnes differdange</name>
    <desc><![CDATA[sortie avec depart de saulnes et grosse partie au luxembourg. pas mal de zone technique]]></desc>
  </metadata>
  <trk>
    <name><![CDATA[2018-07-01 12:21:21]]></name>
    <trkseg>
      <trkpt lat="49.53263" lon="5.82657">
        <ele>327.99</ele>
        <time>2018-07-01T06:30:18Z</time>
      </trkpt>
      <trkpt lat="49.53261" lon="5.82651">
        <ele>328.37</ele>
        <time>2018-07-01T06:30:20Z</time>
      </trkpt>
      <trkpt lat="49.53259" lon="5.82648">
        <ele>328.26</ele>
        <time>2018-07-01T06:30:21Z</time>
      </trkpt>
      <trkpt lat="49.53256" lon="5.82644">
        <ele>328.25</ele>
        <time>2018-07-01T06:30:22Z</time>
      </trkpt>
      <trkpt lat="49.53252" lon="5.82641">
        <ele>328.41</ele>
        <time>2018-07-01T06:30:23Z</time>
      </trkpt>
      <trkpt lat="49.53249" lon="5.82638">
        <ele>328.17</ele>
        <time>2018-07-01T06:30:24Z</time>
      </trkpt>
      <trkpt lat="49.53247" lon="5.82635">
        <ele>327.95</ele>
        <time>2018-07-01T06:30:25Z</time>
      </trkpt>
      <trkpt lat="49.53245" lon="5.82633">
        <ele>327.91</ele>
        <time>2018-07-01T06:30:26Z</time>
      </trkpt>
      <trkpt lat="49.53243" lon="5.82633">
        <ele>327.88</ele>
        <time>2018-07-01T06:30:27Z</time>
      </trkpt>
      <trkpt lat="49.53238" lon="5.82637">
        <ele>327.27</ele>
        <time>2018-07-01T06:30:29Z</time>
      </trkpt>
      <trkpt lat="49.53231" lon="5.82643">
        <ele>326.83</ele>
        <time>2018-07-01T06:30:31Z</time>
      </trkpt>
      <trkpt lat="49.53208" lon="5.82656">
        <ele>324.79</ele>
        <time>2018-07-01T06:30:35Z</time>
      </trkpt>
      <trkpt lat="49.53191" lon="5.82666">
        <ele>323.57</ele>
        <time>2018-07-01T06:30:39Z</time>
      </trkpt>
      <trkpt lat="49.53189" lon="5.82669">
        <ele>323.5</ele>
        <time>2018-07-01T06:30:40Z</time>
      </trkpt>
      <trkpt lat="49.53188" lon="5.82672">
        <ele>323.26</ele>
        <time>2018-07-01T06:30:41Z</time>
      </trkpt>
      <trkpt lat="49.53187" lon="5.82678">
        <ele>322.95</ele>
        <time>2018-07-01T06:30:42Z</time>
      </trkpt>
      <trkpt lat="49.53186" lon="5.82684">
        <ele>322.73</ele>
        <time>2018-07-01T06:30:43Z</time>
      </trkpt>
      <trkpt lat="49.53187" lon="5.82689">
        <ele>322.41</ele>
        <time>2018-07-01T06:30:44Z</time>
      </trkpt>
      <trkpt lat="49.53188" lon="5.82694">
        <ele>322.28</ele>
        <time>2018-07-01T06:30:45Z</time>
      </trkpt>
      <trkpt lat="49.53194" lon="5.82731">
        <ele>319.84</ele>
        <time>2018-07-01T06:30:54Z</time>
      </trkpt>
      <trkpt lat="49.53195" lon="5.82767">
        <ele>316.59</ele>
        <time>2018-07-01T06:31:03Z</time>
      </trkpt>
      <trkpt lat="49.53192" lon="5.82795">
        <ele>312.26</ele>
        <time>2018-07-01T06:31:11Z</time>
      </trkpt>
      <trkpt lat="49.53188" lon="5.82816">
        <ele>308.78</ele>
        <time>2018-07-01T06:31:18Z</time>
      </trkpt>
      <trkpt lat="49.5318" lon="5.82834">
        <ele>307.11</ele>
        <time>2018-07-01T06:31:24Z</time>
      </trkpt>
      <trkpt lat="49.53169" lon="5.82834">
        <ele>303.76</ele>
        <time>2018-07-01T06:31:29Z</time>
      </trkpt>
      <trkpt lat="49.53159" lon="5.82835">
        <ele>303.94</ele>
        <time>2018-07-01T06:31:33Z</time>
      </trkpt>
      <trkpt lat="49.53146" lon="5.82873">
        <ele>300.69</ele>
        <time>2018-07-01T06:31:43Z</time>
      </trkpt>
      <trkpt lat="49.53144" lon="5.82909">
        <ele>287.97</ele>
        <time>2018-07-01T06:31:51Z</time>
      </trkpt>
      <trkpt lat="49.53132" lon="5.82947">
        <ele>284.19</ele>
        <time>2018-07-01T06:32:01Z</time>
      </trkpt>
      <trkpt lat="49.53114" lon="5.82986">
        <ele>284.44</ele>
        <time>2018-07-01T06:32:13Z</time>
      </trkpt>
      <trkpt lat="49.53103" lon="5.83015">
        <ele>283.66</ele>
        <time>2018-07-01T06:32:20Z</time>
      </trkpt>
      <trkpt lat="49.53094" lon="5.83039">
        <ele>283.79</ele>
        <time>2018-07-01T06:32:25Z</time>
      </trkpt>
      <trkpt lat="49.53079" lon="5.83069">
        <ele>284.31</ele>
        <time>2018-07-01T06:32:33Z</time>
      </trkpt>
      <trkpt lat="49.53066" lon="5.83096">
        <ele>285.13</ele>
        <time>2018-07-01T06:32:41Z</time>
      </trkpt>
      <trkpt lat="49.53056" lon="5.83114">
        <ele>285.22</ele>
        <time>2018-07-01T06:32:47Z</time>
      </trkpt>
      <trkpt lat="49.53039" lon="5.8314">
        <ele>284.81</ele>
        <time>2018-07-01T06:32:57Z</time>
      </trkpt>
      <trkpt lat="49.53028" lon="5.83156">
        <ele>284.43</ele>
        <time>2018-07-01T06:33:03Z</time>
      </trkpt>
      <trkpt lat="49.53016" lon="5.83174">
        <ele>284.56</ele>
        <time>2018-07-01T06:33:09Z</time>
      </trkpt>
      <trkpt lat="49.53008" lon="5.83187">
        <ele>284.96</ele>
        <time>2018-07-01T06:33:13Z</time>
      </trkpt>
      <trkpt lat="49.52992" lon="5.83208">
        <ele>284.98</ele>
        <time>2018-07-01T06:33:19Z</time>
      </trkpt>
      <trkpt lat="49.52976" lon="5.83224">
        <ele>285.83</ele>
        <time>2018-07-01T06:33:25Z</time>
      </trkpt>
      <trkpt lat="49.5296" lon="5.83243">
        <ele>288.44</ele>
        <time>2018-07-01T06:33:32Z</time>
      </trkpt>
      <trkpt lat="49.52946" lon="5.83258">
        <ele>289.73</ele>
        <time>2018-07-01T06:33:37Z</time>
      </trkpt>
      <trkpt lat="49.5293" lon="5.83273">
        <ele>291.87</ele>
        <time>2018-07-01T06:33:43Z</time>
      </trkpt>
      <trkpt lat="49.5291" lon="5.83291">
        <ele>295.71</ele>
        <time>2018-07-01T06:33:51Z</time>
      </trkpt>
      <trkpt lat="49.52891" lon="5.83306">
        <ele>298.04</ele>
        <time>2018-07-01T06:33:58Z</time>
      </trkpt>
      <trkpt lat="49.52869" lon="5.83317">
        <ele>300.11</ele>
        <time>2018-07-01T06:34:04Z</time>
      </trkpt>
      <trkpt lat="49.52852" lon="5.83322">
        <ele>300.16</ele>
        <time>2018-07-01T06:34:09Z</time>
      </trkpt>
      <trkpt lat="49.52833" lon="5.8333">
        <ele>301.48</ele>
        <time>2018-07-01T06:34:15Z</time>
      </trkpt>
      <trkpt lat="49.52805" lon="5.83342">
        <ele>301.57</ele>
        <time>2018-07-01T06:34:23Z</time>
      </trkpt>
      <trkpt lat="49.52789" lon="5.83344">
        <ele>301.61</ele>
        <time>2018-07-01T06:34:28Z</time>
      </trkpt>
      <trkpt lat="49.52776" lon="5.83356">
        <ele>299.72</ele>
        <time>2018-07-01T06:34:33Z</time>
      </trkpt>
      <trkpt lat="49.52764" lon="5.83355">
        <ele>299.84</ele>
        <time>2018-07-01T06:34:37Z</time>
      </trkpt>
      <trkpt lat="49.52748" lon="5.8336">
        <ele>299.96</ele>
        <time>2018-07-01T06:34:45Z</time>
      </trkpt>
      <trkpt lat="49.5273" lon="5.83368">
        <ele>301.06</ele>
        <time>2018-07-01T06:34:54Z</time>
      </trkpt>
      <trkpt lat="49.52727" lon="5.83369">
        <ele>301.25</ele>
        <time>2018-07-01T06:34:55Z</time>
      </trkpt>
      <trkpt lat="49.5272" lon="5.83371">
        <ele>302.54</ele>
        <time>2018-07-01T06:34:59Z</time>
      </trkpt>
      <trkpt lat="49.52705" lon="5.83377">
        <ele>305.08</ele>
        <time>2018-07-01T06:35:08Z</time>
      </trkpt>
      <trkpt lat="49.52692" lon="5.83383">
        <ele>310.39</ele>
        <time>2018-07-01T06:35:18Z</time>
      </trkpt>
      <trkpt lat="49.52675" lon="5.83395">
        <ele>310.78</ele>
        <time>2018-07-01T06:35:25Z</time>
      </trkpt>
      <trkpt lat="49.52673" lon="5.83395">
        <ele>311.01</ele>
        <time>2018-07-01T06:35:26Z</time>
      </trkpt>
      <trkpt lat="49.5267" lon="5.83396">
        <ele>310.7</ele>
        <time>2018-07-01T06:35:27Z</time>
      </trkpt>
      <trkpt lat="49.52651" lon="5.83401">
        <ele>312.13</ele>
        <time>2018-07-01T06:35:34Z</time>
      </trkpt>
      <trkpt lat="49.52638" lon="5.83403">
        <ele>314.5</ele>
        <time>2018-07-01T06:35:40Z</time>
      </trkpt>
      <trkpt lat="49.5262" lon="5.83412">
        <ele>317.02</ele>
        <time>2018-07-01T06:35:48Z</time>
      </trkpt>
      <trkpt lat="49.52618" lon="5.83413">
        <ele>317.45</ele>
        <time>2018-07-01T06:35:49Z</time>
      </trkpt>
      <trkpt lat="49.52616" lon="5.83413">
        <ele>317.73</ele>
        <time>2018-07-01T06:35:50Z</time>
      </trkpt>
      <trkpt lat="49.52615" lon="5.83413">
        <ele>317.37</ele>
        <time>2018-07-01T06:35:51Z</time>
      </trkpt>
      <trkpt lat="49.52597" lon="5.8342">
        <ele>319.29</ele>
        <time>2018-07-01T06:35:58Z</time>
      </trkpt>
      <trkpt lat="49.52577" lon="5.83428">
        <ele>317.87</ele>
        <time>2018-07-01T06:36:03Z</time>
      </trkpt>
      <trkpt lat="49.52561" lon="5.83434">
        <ele>315.36</ele>
        <time>2018-07-01T06:36:09Z</time>
      </trkpt>
      <trkpt lat="49.52558" lon="5.83435">
        <ele>314.94</ele>
        <time>2018-07-01T06:36:10Z</time>
      </trkpt>
      <trkpt lat="49.5254" lon="5.83435">
        <ele>311.16</ele>
        <time>2018-07-01T06:36:17Z</time>
      </trkpt>
      <trkpt lat="49.5252" lon="5.83433">
        <ele>308.34</ele>
        <time>2018-07-01T06:36:24Z</time>
      </trkpt>
      <trkpt lat="49.52517" lon="5.83433">
        <ele>307.53</ele>
        <time>2018-07-01T06:36:26Z</time>
      </trkpt>
      <trkpt lat="49.52515" lon="5.83434">
        <ele>307.23</ele>
        <time>2018-07-01T06:36:27Z</time>
      </trkpt>
      <trkpt lat="49.52513" lon="5.83434">
        <ele>306.97</ele>
        <time>2018-07-01T06:36:28Z</time>
      </trkpt>
      <trkpt lat="49.525" lon="5.83437">
        <ele>305.58</ele>
        <time>2018-07-01T06:36:35Z</time>
      </trkpt>
      <trkpt lat="49.52489" lon="5.8344">
        <ele>304.27</ele>
        <time>2018-07-01T06:36:42Z</time>
      </trkpt>
      <trkpt lat="49.52481" lon="5.83435">
        <ele>303.57</ele>
        <time>2018-07-01T06:36:49Z</time>
      </trkpt>
      <trkpt lat="49.52469" lon="5.83428">
        <ele>304.07</ele>
        <time>2018-07-01T06:36:57Z</time>
      </trkpt>
      <trkpt lat="49.52464" lon="5.83428">
        <ele>304.49</ele>
        <time>2018-07-01T06:37:00Z</time>
      </trkpt>
      <trkpt lat="49.52462" lon="5.83427">
        <ele>304.84</ele>
        <time>2018-07-01T06:37:01Z</time>
      </trkpt>
      <trkpt lat="49.5246" lon="5.83427">
        <ele>304.86</ele>
        <time>2018-07-01T06:37:02Z</time>
      </trkpt>
      <trkpt lat="49.52441" lon="5.83428">
        <ele>304.16</ele>
        <time>2018-07-01T06:37:09Z</time>
      </trkpt>
      <trkpt lat="49.52424" lon="5.83429">
        <ele>303.08</ele>
        <time>2018-07-01T06:37:15Z</time>
      </trkpt>
      <trkpt lat="49.52403" lon="5.83432">
        <ele>300.72</ele>
        <time>2018-07-01T06:37:22Z</time>
      </trkpt>
      <trkpt lat="49.52392" lon="5.83427">
        <ele>301.11</ele>
        <time>2018-07-01T06:37:28Z</time>
      </trkpt>
      <trkpt lat="49.52376" lon="5.83426">
        <ele>302.13</ele>
        <time>2018-07-01T06:37:36Z</time>
      </trkpt>
      <trkpt lat="49.52364" lon="5.83428">
        <ele>303.36</ele>
        <time>2018-07-01T06:37:42Z</time>
      </trkpt>
      <trkpt lat="49.52346" lon="5.83432">
        <ele>303.57</ele>
        <time>2018-07-01T06:37:49Z</time>
      </trkpt>
      <trkpt lat="49.52322" lon="5.83434">
        <ele>303.64</ele>
        <time>2018-07-01T06:37:56Z</time>
      </trkpt>
      <trkpt lat="49.523" lon="5.8344">
        <ele>304.59</ele>
        <time>2018-07-01T06:38:04Z</time>
      </trkpt>
      <trkpt lat="49.5229" lon="5.83441">
        <ele>304.18</ele>
        <time>2018-07-01T06:38:08Z</time>
      </trkpt>
      <trkpt lat="49.52288" lon="5.83442">
        <ele>304.21</ele>
        <time>2018-07-01T06:38:09Z</time>
      </trkpt>
      <trkpt lat="49.52285" lon="5.83443">
        <ele>304.2</ele>
        <time>2018-07-01T06:38:10Z</time>
      </trkpt>
      <trkpt lat="49.52283" lon="5.83443">
        <ele>304.18</ele>
        <time>2018-07-01T06:38:11Z</time>
      </trkpt>
      <trkpt lat="49.5228" lon="5.83443">
        <ele>304.2</ele>
        <time>2018-07-01T06:38:12Z</time>
      </trkpt>
      <trkpt lat="49.52277" lon="5.83445">
        <ele>303.97</ele>
        <time>2018-07-01T06:38:13Z</time>
      </trkpt>
      <trkpt lat="49.52274" lon="5.83445">
        <ele>304.11</ele>
        <time>2018-07-01T06:38:14Z</time>
      </trkpt>
      <trkpt lat="49.52272" lon="5.83445">
        <ele>304.2</ele>
        <time>2018-07-01T06:38:15Z</time>
      </trkpt>
      <trkpt lat="49.52257" lon="5.83449">
        <ele>303.04</ele>
        <time>2018-07-01T06:38:21Z</time>
      </trkpt>
      <trkpt lat="49.52234" lon="5.83451">
        <ele>302.23</ele>
        <time>2018-07-01T06:38:27Z</time>
      </trkpt>
      <trkpt lat="49.52219" lon="5.83456">
        <ele>301.46</ele>
        <time>2018-07-01T06:38:33Z</time>
      </trkpt>
      <trkpt lat="49.52207" lon="5.83457">
        <ele>301.12</ele>
        <time>2018-07-01T06:38:38Z</time>
      </trkpt>
      <trkpt lat="49.52189" lon="5.83461">
        <ele>301.4</ele>
        <time>2018-07-01T06:38:45Z</time>
      </trkpt>
      <trkpt lat="49.52173" lon="5.83468">
        <ele>300.19</ele>
        <time>2018-07-01T06:38:51Z</time>
      </trkpt>
      <trkpt lat="49.5217" lon="5.83469">
        <ele>300.1</ele>
        <time>2018-07-01T06:38:52Z</time>
      </trkpt>
      <trkpt lat="49.52167" lon="5.83469">
        <ele>300.04</ele>
        <time>2018-07-01T06:38:53Z</time>
      </trkpt>
      <trkpt lat="49.52149" lon="5.83471">
        <ele>300.49</ele>
        <time>2018-07-01T06:38:59Z</time>
      </trkpt>
      <trkpt lat="49.52134" lon="5.83476">
        <ele>301.38</ele>
        <time>2018-07-01T06:39:06Z</time>
      </trkpt>
      <trkpt lat="49.52116" lon="5.83482">
        <ele>302.93</ele>
        <time>2018-07-01T06:39:13Z</time>
      </trkpt>
      <trkpt lat="49.52101" lon="5.83487">
        <ele>304.52</ele>
        <time>2018-07-01T06:39:19Z</time>
      </trkpt>
      <trkpt lat="49.52084" lon="5.83499">
        <ele>307.52</ele>
        <time>2018-07-01T06:39:26Z</time>
      </trkpt>
      <trkpt lat="49.52069" lon="5.83511">
        <ele>310.58</ele>
        <time>2018-07-01T06:39:33Z</time>
      </trkpt>
      <trkpt lat="49.5205" lon="5.83529">
        <ele>315.5</ele>
        <time>2018-07-01T06:39:42Z</time>
      </trkpt>
      <trkpt lat="49.52029" lon="5.83552">
        <ele>320.92</ele>
        <time>2018-07-01T06:39:51Z</time>
      </trkpt>
      <trkpt lat="49.52013" lon="5.83576">
        <ele>326.36</ele>
        <time>2018-07-01T06:39:59Z</time>
      </trkpt>
      <trkpt lat="49.51998" lon="5.83604">
        <ele>332.74</ele>
        <time>2018-07-01T06:40:08Z</time>
      </trkpt>
      <trkpt lat="49.51985" lon="5.83636">
        <ele>338.69</ele>
        <time>2018-07-01T06:40:17Z</time>
      </trkpt>
      <trkpt lat="49.51972" lon="5.83673">
        <ele>344.65</ele>
        <time>2018-07-01T06:40:27Z</time>
      </trkpt>
      <trkpt lat="49.51966" lon="5.83695">
        <ele>348.85</ele>
        <time>2018-07-01T06:40:33Z</time>
      </trkpt>
      <trkpt lat="49.51961" lon="5.83711">
        <ele>351</ele>
        <time>2018-07-01T06:40:37Z</time>
      </trkpt>
      <trkpt lat="49.51953" lon="5.83732">
        <ele>354.21</ele>
        <time>2018-07-01T06:40:42Z</time>
      </trkpt>
      <trkpt lat="49.51945" lon="5.83757">
        <ele>357.93</ele>
        <time>2018-07-01T06:40:49Z</time>
      </trkpt>
      <trkpt lat="49.51936" lon="5.83783">
        <ele>361.43</ele>
        <time>2018-07-01T06:40:56Z</time>
      </trkpt>
      <trkpt lat="49.5193" lon="5.83801">
        <ele>364.06</ele>
        <time>2018-07-01T06:41:02Z</time>
      </trkpt>
      <trkpt lat="49.5193" lon="5.83805">
        <ele>364.88</ele>
        <time>2018-07-01T06:41:04Z</time>
      </trkpt>
      <trkpt lat="49.51936" lon="5.83803">
        <ele>364.48</ele>
        <time>2018-07-01T06:41:07Z</time>
      </trkpt>
      <trkpt lat="49.51949" lon="5.8379">
        <ele>364.72</ele>
        <time>2018-07-01T06:41:10Z</time>
      </trkpt>
      <trkpt lat="49.51963" lon="5.83785">
        <ele>364.78</ele>
        <time>2018-07-01T06:41:12Z</time>
      </trkpt>
      <trkpt lat="49.51968" lon="5.83786">
        <ele>364.12</ele>
        <time>2018-07-01T06:41:13Z</time>
      </trkpt>
      <trkpt lat="49.51972" lon="5.83788">
        <ele>363.18</ele>
        <time>2018-07-01T06:41:14Z</time>
      </trkpt>
      <trkpt lat="49.51977" lon="5.83785">
        <ele>359.33</ele>
        <time>2018-07-01T06:41:15Z</time>
      </trkpt>
      <trkpt lat="49.51979" lon="5.83781">
        <ele>351.37</ele>
        <time>2018-07-01T06:41:16Z</time>
      </trkpt>
      <trkpt lat="49.51981" lon="5.83783">
        <ele>348.21</ele>
        <time>2018-07-01T06:41:17Z</time>
      </trkpt>
      <trkpt lat="49.51983" lon="5.83788">
        <ele>347.81</ele>
        <time>2018-07-01T06:41:18Z</time>
      </trkpt>
      <trkpt lat="49.51983" lon="5.83793">
        <ele>345.61</ele>
        <time>2018-07-01T06:41:19Z</time>
      </trkpt>
      <trkpt lat="49.51977" lon="5.83805">
        <ele>340.8</ele>
        <time>2018-07-01T06:41:21Z</time>
      </trkpt>
      <trkpt lat="49.51963" lon="5.83836">
        <ele>338.06</ele>
        <time>2018-07-01T06:41:28Z</time>
      </trkpt>
      <trkpt lat="49.51951" lon="5.83847">
        <ele>334.81</ele>
        <time>2018-07-01T06:41:30Z</time>
      </trkpt>
      <trkpt lat="49.51935" lon="5.8387">
        <ele>330.76</ele>
        <time>2018-07-01T06:41:36Z</time>
      </trkpt>
      <trkpt lat="49.51924" lon="5.83891">
        <ele>328.09</ele>
        <time>2018-07-01T06:41:42Z</time>
      </trkpt>
      <trkpt lat="49.51915" lon="5.83909">
        <ele>324.94</ele>
        <time>2018-07-01T06:41:48Z</time>
      </trkpt>
      <trkpt lat="49.519" lon="5.83933">
        <ele>323.73</ele>
        <time>2018-07-01T06:41:55Z</time>
      </trkpt>
      <trkpt lat="49.5189" lon="5.83947">
        <ele>324.09</ele>
        <time>2018-07-01T06:42:00Z</time>
      </trkpt>
      <trkpt lat="49.51878" lon="5.83965">
        <ele>325.43</ele>
        <time>2018-07-01T06:42:06Z</time>
      </trkpt>
      <trkpt lat="49.5186" lon="5.83984">
        <ele>327.07</ele>
        <time>2018-07-01T06:42:13Z</time>
      </trkpt>
      <trkpt lat="49.51842" lon="5.83995">
        <ele>329.54</ele>
        <time>2018-07-01T06:42:21Z</time>
      </trkpt>
      <trkpt lat="49.51827" lon="5.84005">
        <ele>333.84</ele>
        <time>2018-07-01T06:42:29Z</time>
      </trkpt>
      <trkpt lat="49.51814" lon="5.84015">
        <ele>336.17</ele>
        <time>2018-07-01T06:42:35Z</time>
      </trkpt>
      <trkpt lat="49.51795" lon="5.84037">
        <ele>339.94</ele>
        <time>2018-07-01T06:42:43Z</time>
      </trkpt>
      <trkpt lat="49.51778" lon="5.8406">
        <ele>343.74</ele>
        <time>2018-07-01T06:42:50Z</time>
      </trkpt>
      <trkpt lat="49.51767" lon="5.84079">
        <ele>346.3</ele>
        <time>2018-07-01T06:42:56Z</time>
      </trkpt>
      <trkpt lat="49.51755" lon="5.84099">
        <ele>349.39</ele>
        <time>2018-07-01T06:43:02Z</time>
      </trkpt>
      <trkpt lat="49.51736" lon="5.8413">
        <ele>352.14</ele>
        <time>2018-07-01T06:43:10Z</time>
      </trkpt>
      <trkpt lat="49.5173" lon="5.84147">
        <ele>354.67</ele>
        <time>2018-07-01T06:43:15Z</time>
      </trkpt>
      <trkpt lat="49.51728" lon="5.84165">
        <ele>355.9</ele>
        <time>2018-07-01T06:43:20Z</time>
      </trkpt>
      <trkpt lat="49.51721" lon="5.84178">
        <ele>357.57</ele>
        <time>2018-07-01T06:43:23Z</time>
      </trkpt>
      <trkpt lat="49.51715" lon="5.84195">
        <ele>357.77</ele>
        <time>2018-07-01T06:43:28Z</time>
      </trkpt>
      <trkpt lat="49.51704" lon="5.84223">
        <ele>359.81</ele>
        <time>2018-07-01T06:43:36Z</time>
      </trkpt>
      <trkpt lat="49.51695" lon="5.84254">
        <ele>361.37</ele>
        <time>2018-07-01T06:43:45Z</time>
      </trkpt>
      <trkpt lat="49.51692" lon="5.84292">
        <ele>364.3</ele>
        <time>2018-07-01T06:43:55Z</time>
      </trkpt>
      <trkpt lat="49.5169" lon="5.84312">
        <ele>366.2</ele>
        <time>2018-07-01T06:44:01Z</time>
      </trkpt>
      <trkpt lat="49.51683" lon="5.84336">
        <ele>365.22</ele>
        <time>2018-07-01T06:44:09Z</time>
      </trkpt>
      <trkpt lat="49.51676" lon="5.84353">
        <ele>364.25</ele>
        <time>2018-07-01T06:44:16Z</time>
      </trkpt>
      <trkpt lat="49.51669" lon="5.84372">
        <ele>365.01</ele>
        <time>2018-07-01T06:44:22Z</time>
      </trkpt>
      <trkpt lat="49.51659" lon="5.84389">
        <ele>365.91</ele>
        <time>2018-07-01T06:44:28Z</time>
      </trkpt>
      <trkpt lat="49.51657" lon="5.84409">
        <ele>366.08</ele>
        <time>2018-07-01T06:44:35Z</time>
      </trkpt>
      <trkpt lat="49.51653" lon="5.84426">
        <ele>367.32</ele>
        <time>2018-07-01T06:44:40Z</time>
      </trkpt>
      <trkpt lat="49.5165" lon="5.8445">
        <ele>368.22</ele>
        <time>2018-07-01T06:44:47Z</time>
      </trkpt>
      <trkpt lat="49.51642" lon="5.84477">
        <ele>368.82</ele>
        <time>2018-07-01T06:44:54Z</time>
      </trkpt>
      <trkpt lat="49.51641" lon="5.84495">
        <ele>370.52</ele>
        <time>2018-07-01T06:45:00Z</time>
      </trkpt>
      <trkpt lat="49.51637" lon="5.84515">
        <ele>370.86</ele>
        <time>2018-07-01T06:45:07Z</time>
      </trkpt>
      <trkpt lat="49.51638" lon="5.84539">
        <ele>370.46</ele>
        <time>2018-07-01T06:45:14Z</time>
      </trkpt>
      <trkpt lat="49.51639" lon="5.84566">
        <ele>370.79</ele>
        <time>2018-07-01T06:45:21Z</time>
      </trkpt>
      <trkpt lat="49.51636" lon="5.84597">
        <ele>370.99</ele>
        <time>2018-07-01T06:45:29Z</time>
      </trkpt>
      <trkpt lat="49.51629" lon="5.84625">
        <ele>370.15</ele>
        <time>2018-07-01T06:45:37Z</time>
      </trkpt>
      <trkpt lat="49.51622" lon="5.84645">
        <ele>370.15</ele>
        <time>2018-07-01T06:45:44Z</time>
      </trkpt>
      <trkpt lat="49.51612" lon="5.84674">
        <ele>370.8</ele>
        <time>2018-07-01T06:45:52Z</time>
      </trkpt>
      <trkpt lat="49.51604" lon="5.847">
        <ele>372.95</ele>
        <time>2018-07-01T06:46:00Z</time>
      </trkpt>
      <trkpt lat="49.51601" lon="5.84725">
        <ele>373.59</ele>
        <time>2018-07-01T06:46:07Z</time>
      </trkpt>
      <trkpt lat="49.51594" lon="5.84752">
        <ele>374.72</ele>
        <time>2018-07-01T06:46:15Z</time>
      </trkpt>
      <trkpt lat="49.51593" lon="5.84775">
        <ele>375.7</ele>
        <time>2018-07-01T06:46:21Z</time>
      </trkpt>
      <trkpt lat="49.51589" lon="5.84801">
        <ele>375.51</ele>
        <time>2018-07-01T06:46:28Z</time>
      </trkpt>
      <trkpt lat="49.51583" lon="5.84821">
        <ele>375.04</ele>
        <time>2018-07-01T06:46:34Z</time>
      </trkpt>
      <trkpt lat="49.51572" lon="5.84839">
        <ele>376.41</ele>
        <time>2018-07-01T06:46:41Z</time>
      </trkpt>
      <trkpt lat="49.51552" lon="5.84855">
        <ele>371.91</ele>
        <time>2018-07-01T06:46:46Z</time>
      </trkpt>
      <trkpt lat="49.5154" lon="5.84854">
        <ele>370.01</ele>
        <time>2018-07-01T06:46:50Z</time>
      </trkpt>
      <trkpt lat="49.51526" lon="5.84857">
        <ele>371.29</ele>
        <time>2018-07-01T06:46:58Z</time>
      </trkpt>
      <trkpt lat="49.51512" lon="5.84861">
        <ele>373.5</ele>
        <time>2018-07-01T06:47:05Z</time>
      </trkpt>
      <trkpt lat="49.515" lon="5.8487">
        <ele>375.31</ele>
        <time>2018-07-01T06:47:12Z</time>
      </trkpt>
      <trkpt lat="49.51487" lon="5.84879">
        <ele>375.7</ele>
        <time>2018-07-01T06:47:18Z</time>
      </trkpt>
      <trkpt lat="49.51472" lon="5.84884">
        <ele>373.53</ele>
        <time>2018-07-01T06:47:24Z</time>
      </trkpt>
      <trkpt lat="49.51459" lon="5.84893">
        <ele>373.67</ele>
        <time>2018-07-01T06:47:30Z</time>
      </trkpt>
      <trkpt lat="49.51442" lon="5.84902">
        <ele>371.87</ele>
        <time>2018-07-01T06:47:37Z</time>
      </trkpt>
      <trkpt lat="49.51427" lon="5.84909">
        <ele>371.62</ele>
        <time>2018-07-01T06:47:43Z</time>
      </trkpt>
      <trkpt lat="49.51414" lon="5.84922">
        <ele>373.31</ele>
        <time>2018-07-01T06:47:49Z</time>
      </trkpt>
      <trkpt lat="49.5141" lon="5.84926">
        <ele>374.08</ele>
        <time>2018-07-01T06:47:51Z</time>
      </trkpt>
      <trkpt lat="49.51385" lon="5.84927">
        <ele>376.6</ele>
        <time>2018-07-01T06:47:58Z</time>
      </trkpt>
      <trkpt lat="49.51382" lon="5.84929">
        <ele>377.17</ele>
        <time>2018-07-01T06:47:59Z</time>
      </trkpt>
      <trkpt lat="49.51357" lon="5.84937">
        <ele>376.86</ele>
        <time>2018-07-01T06:48:07Z</time>
      </trkpt>
      <trkpt lat="49.51331" lon="5.84938">
        <ele>375.03</ele>
        <time>2018-07-01T06:48:14Z</time>
      </trkpt>
      <trkpt lat="49.51314" lon="5.84936">
        <ele>376.23</ele>
        <time>2018-07-01T06:48:20Z</time>
      </trkpt>
      <trkpt lat="49.51309" lon="5.84936">
        <ele>376.7</ele>
        <time>2018-07-01T06:48:22Z</time>
      </trkpt>
      <trkpt lat="49.51293" lon="5.84936">
        <ele>376.43</ele>
        <time>2018-07-01T06:48:28Z</time>
      </trkpt>
      <trkpt lat="49.51281" lon="5.84936">
        <ele>377.38</ele>
        <time>2018-07-01T06:48:32Z</time>
      </trkpt>
      <trkpt lat="49.51261" lon="5.84936">
        <ele>380.93</ele>
        <time>2018-07-01T06:48:39Z</time>
      </trkpt>
      <trkpt lat="49.5125" lon="5.84937">
        <ele>382.47</ele>
        <time>2018-07-01T06:48:43Z</time>
      </trkpt>
      <trkpt lat="49.51235" lon="5.84943">
        <ele>383.38</ele>
        <time>2018-07-01T06:48:48Z</time>
      </trkpt>
      <trkpt lat="49.51218" lon="5.84943">
        <ele>384.49</ele>
        <time>2018-07-01T06:48:54Z</time>
      </trkpt>
      <trkpt lat="49.51196" lon="5.84938">
        <ele>384.78</ele>
        <time>2018-07-01T06:49:00Z</time>
      </trkpt>
      <trkpt lat="49.51182" lon="5.84936">
        <ele>387.12</ele>
        <time>2018-07-01T06:49:05Z</time>
      </trkpt>
      <trkpt lat="49.51169" lon="5.84932">
        <ele>387.86</ele>
        <time>2018-07-01T06:49:10Z</time>
      </trkpt>
      <trkpt lat="49.51153" lon="5.84943">
        <ele>388.75</ele>
        <time>2018-07-01T06:49:15Z</time>
      </trkpt>
      <trkpt lat="49.51123" lon="5.84957">
        <ele>386.24</ele>
        <time>2018-07-01T06:49:23Z</time>
      </trkpt>
      <trkpt lat="49.511" lon="5.8497">
        <ele>389.48</ele>
        <time>2018-07-01T06:49:30Z</time>
      </trkpt>
      <trkpt lat="49.51084" lon="5.84986">
        <ele>391.31</ele>
        <time>2018-07-01T06:49:35Z</time>
      </trkpt>
      <trkpt lat="49.51062" lon="5.85">
        <ele>393.98</ele>
        <time>2018-07-01T06:49:41Z</time>
      </trkpt>
      <trkpt lat="49.51044" lon="5.85007">
        <ele>396</ele>
        <time>2018-07-01T06:49:46Z</time>
      </trkpt>
      <trkpt lat="49.51023" lon="5.85011">
        <ele>398.38</ele>
        <time>2018-07-01T06:49:52Z</time>
      </trkpt>
      <trkpt lat="49.51008" lon="5.85016">
        <ele>401.23</ele>
        <time>2018-07-01T06:49:58Z</time>
      </trkpt>
      <trkpt lat="49.50985" lon="5.85031">
        <ele>403.43</ele>
        <time>2018-07-01T06:50:05Z</time>
      </trkpt>
      <trkpt lat="49.50965" lon="5.85045">
        <ele>404.32</ele>
        <time>2018-07-01T06:50:11Z</time>
      </trkpt>
      <trkpt lat="49.50944" lon="5.85062">
        <ele>403.27</ele>
        <time>2018-07-01T06:50:18Z</time>
      </trkpt>
      <trkpt lat="49.50922" lon="5.85085">
        <ele>402.51</ele>
        <time>2018-07-01T06:50:27Z</time>
      </trkpt>
      <trkpt lat="49.50907" lon="5.85097">
        <ele>401.01</ele>
        <time>2018-07-01T06:50:34Z</time>
      </trkpt>
      <trkpt lat="49.50888" lon="5.85116">
        <ele>398.26</ele>
        <time>2018-07-01T06:50:43Z</time>
      </trkpt>
      <trkpt lat="49.5087" lon="5.85131">
        <ele>394.11</ele>
        <time>2018-07-01T06:50:51Z</time>
      </trkpt>
      <trkpt lat="49.50863" lon="5.85149">
        <ele>390.98</ele>
        <time>2018-07-01T06:50:58Z</time>
      </trkpt>
      <trkpt lat="49.50854" lon="5.85162">
        <ele>383.08</ele>
        <time>2018-07-01T06:51:06Z</time>
      </trkpt>
      <trkpt lat="49.50845" lon="5.85185">
        <ele>375.87</ele>
        <time>2018-07-01T06:51:15Z</time>
      </trkpt>
      <trkpt lat="49.50838" lon="5.852">
        <ele>371.1</ele>
        <time>2018-07-01T06:51:21Z</time>
      </trkpt>
      <trkpt lat="49.50831" lon="5.85216">
        <ele>365.29</ele>
        <time>2018-07-01T06:51:29Z</time>
      </trkpt>
      <trkpt lat="49.50823" lon="5.85233">
        <ele>360.41</ele>
        <time>2018-07-01T06:51:37Z</time>
      </trkpt>
      <trkpt lat="49.50813" lon="5.85252">
        <ele>354.54</ele>
        <time>2018-07-01T06:51:46Z</time>
      </trkpt>
      <trkpt lat="49.50805" lon="5.85266">
        <ele>350.24</ele>
        <time>2018-07-01T06:51:54Z</time>
      </trkpt>
      <trkpt lat="49.50804" lon="5.85279">
        <ele>347.58</ele>
        <time>2018-07-01T06:52:02Z</time>
      </trkpt>
      <trkpt lat="49.50801" lon="5.85291">
        <ele>346.28</ele>
        <time>2018-07-01T06:52:07Z</time>
      </trkpt>
      <trkpt lat="49.50801" lon="5.85301">
        <ele>344.56</ele>
        <time>2018-07-01T06:52:11Z</time>
      </trkpt>
      <trkpt lat="49.50799" lon="5.85327">
        <ele>340.57</ele>
        <time>2018-07-01T06:52:21Z</time>
      </trkpt>
      <trkpt lat="49.50796" lon="5.85348">
        <ele>335.99</ele>
        <time>2018-07-01T06:52:34Z</time>
      </trkpt>
      <trkpt lat="49.50795" lon="5.85366">
        <ele>333.04</ele>
        <time>2018-07-01T06:52:43Z</time>
      </trkpt>
      <trkpt lat="49.50788" lon="5.85393">
        <ele>330.75</ele>
        <time>2018-07-01T06:52:54Z</time>
      </trkpt>
      <trkpt lat="49.50785" lon="5.8541">
        <ele>329.31</ele>
        <time>2018-07-01T06:53:02Z</time>
      </trkpt>
      <trkpt lat="49.50784" lon="5.85412">
        <ele>329.22</ele>
        <time>2018-07-01T06:53:03Z</time>
      </trkpt>
      <trkpt lat="49.50784" lon="5.85424">
        <ele>328.95</ele>
        <time>2018-07-01T06:53:08Z</time>
      </trkpt>
      <trkpt lat="49.50779" lon="5.85443">
        <ele>327.55</ele>
        <time>2018-07-01T06:53:18Z</time>
      </trkpt>
      <trkpt lat="49.50776" lon="5.85473">
        <ele>326.24</ele>
        <time>2018-07-01T06:53:29Z</time>
      </trkpt>
      <trkpt lat="49.50767" lon="5.85487">
        <ele>326.56</ele>
        <time>2018-07-01T06:53:36Z</time>
      </trkpt>
      <trkpt lat="49.50761" lon="5.85503">
        <ele>326.76</ele>
        <time>2018-07-01T06:53:42Z</time>
      </trkpt>
      <trkpt lat="49.50755" lon="5.85524">
        <ele>327.03</ele>
        <time>2018-07-01T06:53:48Z</time>
      </trkpt>
      <trkpt lat="49.50752" lon="5.85541">
        <ele>327.53</ele>
        <time>2018-07-01T06:53:54Z</time>
      </trkpt>
      <trkpt lat="49.50749" lon="5.8556">
        <ele>328.15</ele>
        <time>2018-07-01T06:54:00Z</time>
      </trkpt>
      <trkpt lat="49.50741" lon="5.85582">
        <ele>329.2</ele>
        <time>2018-07-01T06:54:07Z</time>
      </trkpt>
      <trkpt lat="49.50736" lon="5.85604">
        <ele>331.99</ele>
        <time>2018-07-01T06:54:14Z</time>
      </trkpt>
      <trkpt lat="49.50732" lon="5.85621">
        <ele>333.29</ele>
        <time>2018-07-01T06:54:19Z</time>
      </trkpt>
      <trkpt lat="49.50727" lon="5.85644">
        <ele>335.07</ele>
        <time>2018-07-01T06:54:26Z</time>
      </trkpt>
      <trkpt lat="49.50727" lon="5.85653">
        <ele>335.8</ele>
        <time>2018-07-01T06:54:29Z</time>
      </trkpt>
      <trkpt lat="49.50723" lon="5.8567">
        <ele>338.05</ele>
        <time>2018-07-01T06:54:36Z</time>
      </trkpt>
      <trkpt lat="49.50724" lon="5.85685">
        <ele>341.27</ele>
        <time>2018-07-01T06:54:43Z</time>
      </trkpt>
      <trkpt lat="49.50725" lon="5.85698">
        <ele>343.58</ele>
        <time>2018-07-01T06:54:48Z</time>
      </trkpt>
      <trkpt lat="49.5073" lon="5.85716">
        <ele>348.14</ele>
        <time>2018-07-01T06:54:57Z</time>
      </trkpt>
      <trkpt lat="49.50735" lon="5.85739">
        <ele>351.65</ele>
        <time>2018-07-01T06:55:05Z</time>
      </trkpt>
      <trkpt lat="49.50737" lon="5.85749">
        <ele>353.93</ele>
        <time>2018-07-01T06:55:10Z</time>
      </trkpt>
      <trkpt lat="49.50739" lon="5.8577">
        <ele>356.87</ele>
        <time>2018-07-01T06:55:19Z</time>
      </trkpt>
      <trkpt lat="49.50739" lon="5.85772">
        <ele>357.06</ele>
        <time>2018-07-01T06:55:20Z</time>
      </trkpt>
      <trkpt lat="49.50738" lon="5.8578">
        <ele>357.85</ele>
        <time>2018-07-01T06:55:24Z</time>
      </trkpt>
      <trkpt lat="49.50736" lon="5.85797">
        <ele>358.63</ele>
        <time>2018-07-01T06:55:31Z</time>
      </trkpt>
      <trkpt lat="49.50734" lon="5.85816">
        <ele>359.2</ele>
        <time>2018-07-01T06:55:37Z</time>
      </trkpt>
      <trkpt lat="49.5073" lon="5.85839">
        <ele>359.9</ele>
        <time>2018-07-01T06:55:45Z</time>
      </trkpt>
      <trkpt lat="49.50724" lon="5.85872">
        <ele>358.94</ele>
        <time>2018-07-01T06:55:53Z</time>
      </trkpt>
      <trkpt lat="49.50709" lon="5.85903">
        <ele>357.48</ele>
        <time>2018-07-01T06:56:02Z</time>
      </trkpt>
      <trkpt lat="49.50695" lon="5.85922">
        <ele>356.77</ele>
        <time>2018-07-01T06:56:09Z</time>
      </trkpt>
      <trkpt lat="49.50679" lon="5.85941">
        <ele>356.65</ele>
        <time>2018-07-01T06:56:16Z</time>
      </trkpt>
      <trkpt lat="49.50664" lon="5.85961">
        <ele>356.53</ele>
        <time>2018-07-01T06:56:22Z</time>
      </trkpt>
      <trkpt lat="49.50646" lon="5.85991">
        <ele>355.19</ele>
        <time>2018-07-01T06:56:29Z</time>
      </trkpt>
      <trkpt lat="49.50621" lon="5.8602">
        <ele>353.83</ele>
        <time>2018-07-01T06:56:37Z</time>
      </trkpt>
      <trkpt lat="49.5061" lon="5.86026">
        <ele>353.41</ele>
        <time>2018-07-01T06:56:40Z</time>
      </trkpt>
      <trkpt lat="49.50578" lon="5.86029">
        <ele>350.51</ele>
        <time>2018-07-01T06:56:48Z</time>
      </trkpt>
      <trkpt lat="49.50554" lon="5.86039">
        <ele>347.2</ele>
        <time>2018-07-01T06:56:55Z</time>
      </trkpt>
      <trkpt lat="49.50524" lon="5.86055">
        <ele>342.29</ele>
        <time>2018-07-01T06:57:04Z</time>
      </trkpt>
      <trkpt lat="49.50508" lon="5.86066">
        <ele>339.7</ele>
        <time>2018-07-01T06:57:09Z</time>
      </trkpt>
      <trkpt lat="49.50487" lon="5.86085">
        <ele>336.3</ele>
        <time>2018-07-01T06:57:16Z</time>
      </trkpt>
      <trkpt lat="49.50459" lon="5.86118">
        <ele>331.43</ele>
        <time>2018-07-01T06:57:25Z</time>
      </trkpt>
      <trkpt lat="49.50441" lon="5.86153">
        <ele>326.63</ele>
        <time>2018-07-01T06:57:34Z</time>
      </trkpt>
      <trkpt lat="49.50428" lon="5.8618">
        <ele>323.6</ele>
        <time>2018-07-01T06:57:41Z</time>
      </trkpt>
      <trkpt lat="49.5041" lon="5.8621">
        <ele>321.02</ele>
        <time>2018-07-01T06:57:49Z</time>
      </trkpt>
      <trkpt lat="49.50404" lon="5.86229">
        <ele>319.45</ele>
        <time>2018-07-01T06:57:53Z</time>
      </trkpt>
      <trkpt lat="49.50396" lon="5.86244">
        <ele>319.89</ele>
        <time>2018-07-01T06:57:56Z</time>
      </trkpt>
      <trkpt lat="49.50387" lon="5.86258">
        <ele>318.89</ele>
        <time>2018-07-01T06:57:59Z</time>
      </trkpt>
      <trkpt lat="49.50372" lon="5.86288">
        <ele>319.35</ele>
        <time>2018-07-01T06:58:07Z</time>
      </trkpt>
      <trkpt lat="49.50351" lon="5.86299">
        <ele>322.62</ele>
        <time>2018-07-01T06:58:13Z</time>
      </trkpt>
      <trkpt lat="49.50341" lon="5.86319">
        <ele>323.86</ele>
        <time>2018-07-01T06:58:20Z</time>
      </trkpt>
      <trkpt lat="49.5033" lon="5.86337">
        <ele>323.07</ele>
        <time>2018-07-01T06:58:27Z</time>
      </trkpt>
      <trkpt lat="49.50323" lon="5.86348">
        <ele>323.07</ele>
        <time>2018-07-01T06:58:31Z</time>
      </trkpt>
      <trkpt lat="49.50308" lon="5.86358">
        <ele>322.97</ele>
        <time>2018-07-01T06:58:37Z</time>
      </trkpt>
      <trkpt lat="49.50287" lon="5.86365">
        <ele>322.43</ele>
        <time>2018-07-01T06:58:43Z</time>
      </trkpt>
      <trkpt lat="49.50248" lon="5.86366">
        <ele>333.36</ele>
        <time>2018-07-01T06:58:51Z</time>
      </trkpt>
      <trkpt lat="49.50215" lon="5.86379">
        <ele>345.34</ele>
        <time>2018-07-01T06:58:59Z</time>
      </trkpt>
      <trkpt lat="49.50201" lon="5.86404">
        <ele>349.05</ele>
        <time>2018-07-01T06:59:04Z</time>
      </trkpt>
      <trkpt lat="49.50193" lon="5.86425">
        <ele>351.84</ele>
        <time>2018-07-01T06:59:08Z</time>
      </trkpt>
      <trkpt lat="49.50176" lon="5.86454">
        <ele>355.58</ele>
        <time>2018-07-01T06:59:15Z</time>
      </trkpt>
      <trkpt lat="49.50159" lon="5.86474">
        <ele>359.38</ele>
        <time>2018-07-01T06:59:21Z</time>
      </trkpt>
      <trkpt lat="49.50142" lon="5.86495">
        <ele>363.56</ele>
        <time>2018-07-01T06:59:27Z</time>
      </trkpt>
      <trkpt lat="49.50123" lon="5.8652">
        <ele>368.3</ele>
        <time>2018-07-01T06:59:34Z</time>
      </trkpt>
      <trkpt lat="49.50107" lon="5.86543">
        <ele>371.66</ele>
        <time>2018-07-01T06:59:40Z</time>
      </trkpt>
      <trkpt lat="49.50088" lon="5.86577">
        <ele>376.26</ele>
        <time>2018-07-01T06:59:48Z</time>
      </trkpt>
      <trkpt lat="49.50065" lon="5.86606">
        <ele>380.26</ele>
        <time>2018-07-01T06:59:56Z</time>
      </trkpt>
      <trkpt lat="49.5005" lon="5.86647">
        <ele>381.69</ele>
        <time>2018-07-01T07:00:04Z</time>
      </trkpt>
      <trkpt lat="49.50038" lon="5.86669">
        <ele>382.72</ele>
        <time>2018-07-01T07:00:08Z</time>
      </trkpt>
      <trkpt lat="49.50019" lon="5.8668">
        <ele>382.93</ele>
        <time>2018-07-01T07:00:13Z</time>
      </trkpt>
      <trkpt lat="49.50005" lon="5.86691">
        <ele>382.36</ele>
        <time>2018-07-01T07:00:17Z</time>
      </trkpt>
      <trkpt lat="49.49991" lon="5.86718">
        <ele>382.51</ele>
        <time>2018-07-01T07:00:21Z</time>
      </trkpt>
      <trkpt lat="49.49971" lon="5.86761">
        <ele>383.02</ele>
        <time>2018-07-01T07:00:26Z</time>
      </trkpt>
      <trkpt lat="49.49954" lon="5.86785">
        <ele>383.3</ele>
        <time>2018-07-01T07:00:29Z</time>
      </trkpt>
      <trkpt lat="49.49932" lon="5.86821">
        <ele>383.61</ele>
        <time>2018-07-01T07:00:35Z</time>
      </trkpt>
      <trkpt lat="49.49921" lon="5.86842">
        <ele>384.2</ele>
        <time>2018-07-01T07:00:39Z</time>
      </trkpt>
      <trkpt lat="49.49901" lon="5.86869">
        <ele>384.62</ele>
        <time>2018-07-01T07:00:45Z</time>
      </trkpt>
      <trkpt lat="49.49872" lon="5.86913">
        <ele>384.57</ele>
        <time>2018-07-01T07:00:55Z</time>
      </trkpt>
      <trkpt lat="49.49851" lon="5.86949">
        <ele>386.57</ele>
        <time>2018-07-01T07:01:03Z</time>
      </trkpt>
      <trkpt lat="49.4984" lon="5.86974">
        <ele>387.36</ele>
        <time>2018-07-01T07:01:08Z</time>
      </trkpt>
      <trkpt lat="49.49825" lon="5.87021">
        <ele>386.41</ele>
        <time>2018-07-01T07:01:17Z</time>
      </trkpt>
      <trkpt lat="49.49801" lon="5.8706">
        <ele>387.02</ele>
        <time>2018-07-01T07:01:26Z</time>
      </trkpt>
      <trkpt lat="49.49775" lon="5.87098">
        <ele>385.18</ele>
        <time>2018-07-01T07:01:36Z</time>
      </trkpt>
      <trkpt lat="49.4977" lon="5.87099">
        <ele>384.96</ele>
        <time>2018-07-01T07:01:37Z</time>
      </trkpt>
      <trkpt lat="49.49768" lon="5.871">
        <ele>383.33</ele>
        <time>2018-07-01T07:01:38Z</time>
      </trkpt>
      <trkpt lat="49.49755" lon="5.87102">
        <ele>372.39</ele>
        <time>2018-07-01T07:01:44Z</time>
      </trkpt>
      <trkpt lat="49.49747" lon="5.87119">
        <ele>368.95</ele>
        <time>2018-07-01T07:01:49Z</time>
      </trkpt>
      <trkpt lat="49.49741" lon="5.87136">
        <ele>366.18</ele>
        <time>2018-07-01T07:01:56Z</time>
      </trkpt>
      <trkpt lat="49.49736" lon="5.87153">
        <ele>365.32</ele>
        <time>2018-07-01T07:02:04Z</time>
      </trkpt>
      <trkpt lat="49.49733" lon="5.8717">
        <ele>366.04</ele>
        <time>2018-07-01T07:02:12Z</time>
      </trkpt>
      <trkpt lat="49.49732" lon="5.87172">
        <ele>366.12</ele>
        <time>2018-07-01T07:02:13Z</time>
      </trkpt>
      <trkpt lat="49.49725" lon="5.87204">
        <ele>363.97</ele>
        <time>2018-07-01T07:02:21Z</time>
      </trkpt>
      <trkpt lat="49.49716" lon="5.87237">
        <ele>364.71</ele>
        <time>2018-07-01T07:02:30Z</time>
      </trkpt>
      <trkpt lat="49.49711" lon="5.87263">
        <ele>364.97</ele>
        <time>2018-07-01T07:02:37Z</time>
      </trkpt>
      <trkpt lat="49.49701" lon="5.87288">
        <ele>364.75</ele>
        <time>2018-07-01T07:02:43Z</time>
      </trkpt>
      <trkpt lat="49.49694" lon="5.87318">
        <ele>364.69</ele>
        <time>2018-07-01T07:02:50Z</time>
      </trkpt>
      <trkpt lat="49.49689" lon="5.87355">
        <ele>363.9</ele>
        <time>2018-07-01T07:02:57Z</time>
      </trkpt>
      <trkpt lat="49.49686" lon="5.87382">
        <ele>364.06</ele>
        <time>2018-07-01T07:03:03Z</time>
      </trkpt>
      <trkpt lat="49.49681" lon="5.87412">
        <ele>363.29</ele>
        <time>2018-07-01T07:03:10Z</time>
      </trkpt>
      <trkpt lat="49.49678" lon="5.87439">
        <ele>362.98</ele>
        <time>2018-07-01T07:03:16Z</time>
      </trkpt>
      <trkpt lat="49.49674" lon="5.87469">
        <ele>362.85</ele>
        <time>2018-07-01T07:03:23Z</time>
      </trkpt>
      <trkpt lat="49.49677" lon="5.8751">
        <ele>362.16</ele>
        <time>2018-07-01T07:03:31Z</time>
      </trkpt>
      <trkpt lat="49.49682" lon="5.87528">
        <ele>362.07</ele>
        <time>2018-07-01T07:03:36Z</time>
      </trkpt>
      <trkpt lat="49.49691" lon="5.87546">
        <ele>361.57</ele>
        <time>2018-07-01T07:03:43Z</time>
      </trkpt>
      <trkpt lat="49.49692" lon="5.87547">
        <ele>361.46</ele>
        <time>2018-07-01T07:03:44Z</time>
      </trkpt>
      <trkpt lat="49.49697" lon="5.8756">
        <ele>360.81</ele>
        <time>2018-07-01T07:03:51Z</time>
      </trkpt>
      <trkpt lat="49.49701" lon="5.87586">
        <ele>361.25</ele>
        <time>2018-07-01T07:04:00Z</time>
      </trkpt>
      <trkpt lat="49.49706" lon="5.87604">
        <ele>360.09</ele>
        <time>2018-07-01T07:04:06Z</time>
      </trkpt>
      <trkpt lat="49.4971" lon="5.87619">
        <ele>358.3</ele>
        <time>2018-07-01T07:04:12Z</time>
      </trkpt>
      <trkpt lat="49.49713" lon="5.87638">
        <ele>357.37</ele>
        <time>2018-07-01T07:04:18Z</time>
      </trkpt>
      <trkpt lat="49.49719" lon="5.87662">
        <ele>355.86</ele>
        <time>2018-07-01T07:04:25Z</time>
      </trkpt>
      <trkpt lat="49.49727" lon="5.87678">
        <ele>353.74</ele>
        <time>2018-07-01T07:04:30Z</time>
      </trkpt>
      <trkpt lat="49.49735" lon="5.87694">
        <ele>351.06</ele>
        <time>2018-07-01T07:04:37Z</time>
      </trkpt>
      <trkpt lat="49.49741" lon="5.8771">
        <ele>348.58</ele>
        <time>2018-07-01T07:04:43Z</time>
      </trkpt>
      <trkpt lat="49.49748" lon="5.87733">
        <ele>345.5</ele>
        <time>2018-07-01T07:04:52Z</time>
      </trkpt>
      <trkpt lat="49.49749" lon="5.8774">
        <ele>347.75</ele>
        <time>2018-07-01T07:04:59Z</time>
      </trkpt>
      <trkpt lat="49.49758" lon="5.87763">
        <ele>350.11</ele>
        <time>2018-07-01T07:05:08Z</time>
      </trkpt>
      <trkpt lat="49.49768" lon="5.87788">
        <ele>349.86</ele>
        <time>2018-07-01T07:05:17Z</time>
      </trkpt>
      <trkpt lat="49.4977" lon="5.87794">
        <ele>349.65</ele>
        <time>2018-07-01T07:05:19Z</time>
      </trkpt>
      <trkpt lat="49.49772" lon="5.87796">
        <ele>349.51</ele>
        <time>2018-07-01T07:05:20Z</time>
      </trkpt>
      <trkpt lat="49.49773" lon="5.87799">
        <ele>349.34</ele>
        <time>2018-07-01T07:05:21Z</time>
      </trkpt>
      <trkpt lat="49.49774" lon="5.87802">
        <ele>349.13</ele>
        <time>2018-07-01T07:05:22Z</time>
      </trkpt>
      <trkpt lat="49.49775" lon="5.87806">
        <ele>348.97</ele>
        <time>2018-07-01T07:05:23Z</time>
      </trkpt>
      <trkpt lat="49.49777" lon="5.87809">
        <ele>348.83</ele>
        <time>2018-07-01T07:05:24Z</time>
      </trkpt>
      <trkpt lat="49.49778" lon="5.87812">
        <ele>348.65</ele>
        <time>2018-07-01T07:05:25Z</time>
      </trkpt>
      <trkpt lat="49.49788" lon="5.87834">
        <ele>348.66</ele>
        <time>2018-07-01T07:05:32Z</time>
      </trkpt>
      <trkpt lat="49.49789" lon="5.87837">
        <ele>348.45</ele>
        <time>2018-07-01T07:05:33Z</time>
      </trkpt>
      <trkpt lat="49.49798" lon="5.8785">
        <ele>347.65</ele>
        <time>2018-07-01T07:05:38Z</time>
      </trkpt>
      <trkpt lat="49.49801" lon="5.87853">
        <ele>347.6</ele>
        <time>2018-07-01T07:05:39Z</time>
      </trkpt>
      <trkpt lat="49.49807" lon="5.87862">
        <ele>348.54</ele>
        <time>2018-07-01T07:05:43Z</time>
      </trkpt>
      <trkpt lat="49.49808" lon="5.87864">
        <ele>348.56</ele>
        <time>2018-07-01T07:05:44Z</time>
      </trkpt>
      <trkpt lat="49.49809" lon="5.87868">
        <ele>349</ele>
        <time>2018-07-01T07:05:45Z</time>
      </trkpt>
      <trkpt lat="49.4981" lon="5.8787">
        <ele>349.64</ele>
        <time>2018-07-01T07:05:46Z</time>
      </trkpt>
      <trkpt lat="49.49812" lon="5.87871">
        <ele>349.74</ele>
        <time>2018-07-01T07:05:47Z</time>
      </trkpt>
      <trkpt lat="49.49812" lon="5.87873">
        <ele>349.69</ele>
        <time>2018-07-01T07:05:48Z</time>
      </trkpt>
      <trkpt lat="49.49813" lon="5.87875">
        <ele>349.63</ele>
        <time>2018-07-01T07:05:49Z</time>
      </trkpt>
      <trkpt lat="49.49815" lon="5.87892">
        <ele>351.05</ele>
        <time>2018-07-01T07:05:56Z</time>
      </trkpt>
      <trkpt lat="49.49821" lon="5.87906">
        <ele>351.57</ele>
        <time>2018-07-01T07:06:03Z</time>
      </trkpt>
      <trkpt lat="49.49822" lon="5.8791">
        <ele>351.35</ele>
        <time>2018-07-01T07:06:04Z</time>
      </trkpt>
      <trkpt lat="49.49824" lon="5.87914">
        <ele>351.13</ele>
        <time>2018-07-01T07:06:05Z</time>
      </trkpt>
      <trkpt lat="49.49825" lon="5.87919">
        <ele>350.88</ele>
        <time>2018-07-01T07:06:06Z</time>
      </trkpt>
      <trkpt lat="49.49827" lon="5.87924">
        <ele>350.63</ele>
        <time>2018-07-01T07:06:07Z</time>
      </trkpt>
      <trkpt lat="49.49828" lon="5.87929">
        <ele>350.45</ele>
        <time>2018-07-01T07:06:08Z</time>
      </trkpt>
      <trkpt lat="49.4983" lon="5.87935">
        <ele>350.76</ele>
        <time>2018-07-01T07:06:09Z</time>
      </trkpt>
      <trkpt lat="49.4983" lon="5.87939">
        <ele>350.61</ele>
        <time>2018-07-01T07:06:10Z</time>
      </trkpt>
      <trkpt lat="49.4983" lon="5.87945">
        <ele>350.57</ele>
        <time>2018-07-01T07:06:11Z</time>
      </trkpt>
      <trkpt lat="49.4983" lon="5.8795">
        <ele>350.7</ele>
        <time>2018-07-01T07:06:12Z</time>
      </trkpt>
      <trkpt lat="49.49832" lon="5.87974">
        <ele>350.26</ele>
        <time>2018-07-01T07:06:17Z</time>
      </trkpt>
      <trkpt lat="49.49834" lon="5.87987">
        <ele>349.19</ele>
        <time>2018-07-01T07:06:21Z</time>
      </trkpt>
      <trkpt lat="49.49835" lon="5.87991">
        <ele>349.28</ele>
        <time>2018-07-01T07:06:22Z</time>
      </trkpt>
      <trkpt lat="49.49839" lon="5.88025">
        <ele>347.73</ele>
        <time>2018-07-01T07:06:28Z</time>
      </trkpt>
      <trkpt lat="49.49842" lon="5.88037">
        <ele>347.16</ele>
        <time>2018-07-01T07:06:31Z</time>
      </trkpt>
      <trkpt lat="49.49845" lon="5.88063">
        <ele>345.82</ele>
        <time>2018-07-01T07:06:37Z</time>
      </trkpt>
      <trkpt lat="49.49849" lon="5.88084">
        <ele>344.94</ele>
        <time>2018-07-01T07:06:42Z</time>
      </trkpt>
      <trkpt lat="49.49849" lon="5.88113">
        <ele>344.68</ele>
        <time>2018-07-01T07:06:48Z</time>
      </trkpt>
      <trkpt lat="49.4985" lon="5.88129">
        <ele>345.12</ele>
        <time>2018-07-01T07:06:51Z</time>
      </trkpt>
      <trkpt lat="49.49849" lon="5.88133">
        <ele>345.01</ele>
        <time>2018-07-01T07:06:52Z</time>
      </trkpt>
      <trkpt lat="49.49849" lon="5.88139">
        <ele>345.63</ele>
        <time>2018-07-01T07:06:54Z</time>
      </trkpt>
      <trkpt lat="49.4985" lon="5.88142">
        <ele>345.48</ele>
        <time>2018-07-01T07:06:55Z</time>
      </trkpt>
      <trkpt lat="49.4985" lon="5.88146">
        <ele>345.74</ele>
        <time>2018-07-01T07:06:56Z</time>
      </trkpt>
      <trkpt lat="49.4985" lon="5.8815">
        <ele>345.68</ele>
        <time>2018-07-01T07:06:57Z</time>
      </trkpt>
      <trkpt lat="49.49852" lon="5.88153">
        <ele>345.63</ele>
        <time>2018-07-01T07:06:58Z</time>
      </trkpt>
      <trkpt lat="49.49853" lon="5.88156">
        <ele>345.33</ele>
        <time>2018-07-01T07:06:59Z</time>
      </trkpt>
      <trkpt lat="49.49854" lon="5.88158">
        <ele>345.2</ele>
        <time>2018-07-01T07:07:00Z</time>
      </trkpt>
      <trkpt lat="49.49855" lon="5.88164">
        <ele>346.47</ele>
        <time>2018-07-01T07:07:07Z</time>
      </trkpt>
      <trkpt lat="49.49856" lon="5.88189">
        <ele>346.26</ele>
        <time>2018-07-01T07:07:14Z</time>
      </trkpt>
      <trkpt lat="49.49855" lon="5.88217">
        <ele>345.17</ele>
        <time>2018-07-01T07:07:21Z</time>
      </trkpt>
      <trkpt lat="49.49857" lon="5.88234">
        <ele>343.87</ele>
        <time>2018-07-01T07:07:26Z</time>
      </trkpt>
      <trkpt lat="49.49856" lon="5.88237">
        <ele>343.6</ele>
        <time>2018-07-01T07:07:27Z</time>
      </trkpt>
      <trkpt lat="49.49855" lon="5.88241">
        <ele>343.37</ele>
        <time>2018-07-01T07:07:28Z</time>
      </trkpt>
      <trkpt lat="49.49856" lon="5.88245">
        <ele>343.3</ele>
        <time>2018-07-01T07:07:29Z</time>
      </trkpt>
      <trkpt lat="49.49856" lon="5.88249">
        <ele>342.96</ele>
        <time>2018-07-01T07:07:30Z</time>
      </trkpt>
      <trkpt lat="49.49856" lon="5.88252">
        <ele>342.68</ele>
        <time>2018-07-01T07:07:31Z</time>
      </trkpt>
      <trkpt lat="49.49857" lon="5.88264">
        <ele>341.74</ele>
        <time>2018-07-01T07:07:34Z</time>
      </trkpt>
      <trkpt lat="49.49853" lon="5.88283">
        <ele>340.71</ele>
        <time>2018-07-01T07:07:42Z</time>
      </trkpt>
      <trkpt lat="49.49854" lon="5.88299">
        <ele>341.36</ele>
        <time>2018-07-01T07:07:54Z</time>
      </trkpt>
      <trkpt lat="49.49855" lon="5.88305">
        <ele>341.42</ele>
        <time>2018-07-01T07:07:55Z</time>
      </trkpt>
      <trkpt lat="49.49857" lon="5.8831">
        <ele>341.52</ele>
        <time>2018-07-01T07:07:56Z</time>
      </trkpt>
      <trkpt lat="49.49858" lon="5.88313">
        <ele>341.57</ele>
        <time>2018-07-01T07:07:57Z</time>
      </trkpt>
      <trkpt lat="49.49859" lon="5.88315">
        <ele>341.76</ele>
        <time>2018-07-01T07:07:58Z</time>
      </trkpt>
      <trkpt lat="49.4986" lon="5.8832">
        <ele>342.5</ele>
        <time>2018-07-01T07:08:03Z</time>
      </trkpt>
      <trkpt lat="49.4986" lon="5.88326">
        <ele>342.98</ele>
        <time>2018-07-01T07:08:05Z</time>
      </trkpt>
      <trkpt lat="49.49861" lon="5.8833">
        <ele>343.1</ele>
        <time>2018-07-01T07:08:06Z</time>
      </trkpt>
      <trkpt lat="49.49861" lon="5.88334">
        <ele>343.16</ele>
        <time>2018-07-01T07:08:07Z</time>
      </trkpt>
      <trkpt lat="49.49862" lon="5.88338">
        <ele>343.25</ele>
        <time>2018-07-01T07:08:08Z</time>
      </trkpt>
      <trkpt lat="49.49862" lon="5.88341">
        <ele>343.22</ele>
        <time>2018-07-01T07:08:09Z</time>
      </trkpt>
      <trkpt lat="49.49864" lon="5.88344">
        <ele>343.16</ele>
        <time>2018-07-01T07:08:10Z</time>
      </trkpt>
      <trkpt lat="49.49864" lon="5.88348">
        <ele>343.02</ele>
        <time>2018-07-01T07:08:11Z</time>
      </trkpt>
      <trkpt lat="49.49866" lon="5.88352">
        <ele>342.88</ele>
        <time>2018-07-01T07:08:12Z</time>
      </trkpt>
      <trkpt lat="49.49867" lon="5.88355">
        <ele>342.79</ele>
        <time>2018-07-01T07:08:13Z</time>
      </trkpt>
      <trkpt lat="49.49868" lon="5.88358">
        <ele>342.62</ele>
        <time>2018-07-01T07:08:14Z</time>
      </trkpt>
      <trkpt lat="49.49869" lon="5.88361">
        <ele>342.45</ele>
        <time>2018-07-01T07:08:15Z</time>
      </trkpt>
      <trkpt lat="49.4987" lon="5.88365">
        <ele>342.52</ele>
        <time>2018-07-01T07:08:16Z</time>
      </trkpt>
      <trkpt lat="49.49871" lon="5.88367">
        <ele>342.38</ele>
        <time>2018-07-01T07:08:17Z</time>
      </trkpt>
      <trkpt lat="49.49872" lon="5.8837">
        <ele>342.1</ele>
        <time>2018-07-01T07:08:18Z</time>
      </trkpt>
      <trkpt lat="49.49872" lon="5.88374">
        <ele>342.04</ele>
        <time>2018-07-01T07:08:20Z</time>
      </trkpt>
      <trkpt lat="49.49871" lon="5.88377">
        <ele>342.03</ele>
        <time>2018-07-01T07:08:21Z</time>
      </trkpt>
      <trkpt lat="49.49869" lon="5.8838">
        <ele>341.97</ele>
        <time>2018-07-01T07:08:22Z</time>
      </trkpt>
      <trkpt lat="49.49868" lon="5.88384">
        <ele>342.05</ele>
        <time>2018-07-01T07:08:23Z</time>
      </trkpt>
      <trkpt lat="49.49867" lon="5.88389">
        <ele>341.88</ele>
        <time>2018-07-01T07:08:24Z</time>
      </trkpt>
      <trkpt lat="49.49864" lon="5.88408">
        <ele>341.88</ele>
        <time>2018-07-01T07:08:30Z</time>
      </trkpt>
      <trkpt lat="49.49868" lon="5.88414">
        <ele>345.59</ele>
        <time>2018-07-01T07:08:37Z</time>
      </trkpt>
      <trkpt lat="49.49869" lon="5.88424">
        <ele>362.55</ele>
        <time>2018-07-01T07:09:28Z</time>
      </trkpt>
      <trkpt lat="49.4987" lon="5.88424">
        <ele>362.46</ele>
        <time>2018-07-01T07:09:29Z</time>
      </trkpt>
      <trkpt lat="49.49872" lon="5.88423">
        <ele>362.43</ele>
        <time>2018-07-01T07:09:30Z</time>
      </trkpt>
      <trkpt lat="49.49874" lon="5.88423">
        <ele>362.29</ele>
        <time>2018-07-01T07:09:31Z</time>
      </trkpt>
      <trkpt lat="49.49875" lon="5.88422">
        <ele>362.03</ele>
        <time>2018-07-01T07:09:32Z</time>
      </trkpt>
      <trkpt lat="49.49877" lon="5.88422">
        <ele>361.81</ele>
        <time>2018-07-01T07:09:33Z</time>
      </trkpt>
      <trkpt lat="49.49878" lon="5.88423">
        <ele>361.7</ele>
        <time>2018-07-01T07:09:34Z</time>
      </trkpt>
      <trkpt lat="49.4988" lon="5.88423">
        <ele>361.8</ele>
        <time>2018-07-01T07:09:36Z</time>
      </trkpt>
      <trkpt lat="49.49881" lon="5.88425">
        <ele>361.78</ele>
        <time>2018-07-01T07:09:37Z</time>
      </trkpt>
      <trkpt lat="49.49889" lon="5.88435">
        <ele>361.87</ele>
        <time>2018-07-01T07:09:43Z</time>
      </trkpt>
      <trkpt lat="49.49891" lon="5.88435">
        <ele>361.65</ele>
        <time>2018-07-01T07:09:44Z</time>
      </trkpt>
      <trkpt lat="49.49894" lon="5.88436">
        <ele>361.47</ele>
        <time>2018-07-01T07:09:46Z</time>
      </trkpt>
      <trkpt lat="49.49902" lon="5.88437">
        <ele>361.38</ele>
        <time>2018-07-01T07:09:52Z</time>
      </trkpt>
      <trkpt lat="49.49916" lon="5.88436">
        <ele>360.93</ele>
        <time>2018-07-01T07:10:00Z</time>
      </trkpt>
      <trkpt lat="49.49922" lon="5.88437">
        <ele>360.83</ele>
        <time>2018-07-01T07:10:02Z</time>
      </trkpt>
      <trkpt lat="49.49974" lon="5.88414">
        <ele>360.61</ele>
        <time>2018-07-01T07:10:40Z</time>
      </trkpt>
      <trkpt lat="49.49995" lon="5.88402">
        <ele>361.57</ele>
        <time>2018-07-01T07:11:01Z</time>
      </trkpt>
      <trkpt lat="49.50017" lon="5.88392">
        <ele>362.87</ele>
        <time>2018-07-01T07:11:16Z</time>
      </trkpt>
      <trkpt lat="49.50025" lon="5.88388">
        <ele>363.49</ele>
        <time>2018-07-01T07:11:23Z</time>
      </trkpt>
      <trkpt lat="49.50037" lon="5.88382">
        <ele>364.43</ele>
        <time>2018-07-01T07:11:34Z</time>
      </trkpt>
      <trkpt lat="49.50046" lon="5.88375">
        <ele>366.67</ele>
        <time>2018-07-01T07:11:43Z</time>
      </trkpt>
      <trkpt lat="49.50055" lon="5.8837">
        <ele>368.31</ele>
        <time>2018-07-01T07:11:49Z</time>
      </trkpt>
      <trkpt lat="49.50057" lon="5.88369">
        <ele>368.6</ele>
        <time>2018-07-01T07:11:50Z</time>
      </trkpt>
      <trkpt lat="49.50058" lon="5.88367">
        <ele>368.8</ele>
        <time>2018-07-01T07:11:51Z</time>
      </trkpt>
      <trkpt lat="49.5006" lon="5.88366">
        <ele>369.14</ele>
        <time>2018-07-01T07:11:52Z</time>
      </trkpt>
      <trkpt lat="49.50061" lon="5.88365">
        <ele>369.41</ele>
        <time>2018-07-01T07:11:53Z</time>
      </trkpt>
      <trkpt lat="49.5007" lon="5.88355">
        <ele>372.2</ele>
        <time>2018-07-01T07:12:03Z</time>
      </trkpt>
      <trkpt lat="49.5008" lon="5.88344">
        <ele>375.93</ele>
        <time>2018-07-01T07:12:11Z</time>
      </trkpt>
      <trkpt lat="49.50085" lon="5.8834">
        <ele>380.07</ele>
        <time>2018-07-01T07:12:20Z</time>
      </trkpt>
      <trkpt lat="49.50087" lon="5.88343">
        <ele>380.28</ele>
        <time>2018-07-01T07:12:21Z</time>
      </trkpt>
      <trkpt lat="49.50089" lon="5.88344">
        <ele>380.56</ele>
        <time>2018-07-01T07:12:22Z</time>
      </trkpt>
      <trkpt lat="49.50093" lon="5.88347">
        <ele>381.52</ele>
        <time>2018-07-01T07:12:25Z</time>
      </trkpt>
      <trkpt lat="49.50092" lon="5.88359">
        <ele>382.63</ele>
        <time>2018-07-01T07:12:30Z</time>
      </trkpt>
      <trkpt lat="49.50086" lon="5.8837">
        <ele>384.76</ele>
        <time>2018-07-01T07:12:37Z</time>
      </trkpt>
      <trkpt lat="49.50084" lon="5.88374">
        <ele>385.21</ele>
        <time>2018-07-01T07:12:39Z</time>
      </trkpt>
      <trkpt lat="49.50076" lon="5.88389">
        <ele>385.87</ele>
        <time>2018-07-01T07:12:46Z</time>
      </trkpt>
      <trkpt lat="49.50069" lon="5.88406">
        <ele>385.88</ele>
        <time>2018-07-01T07:12:54Z</time>
      </trkpt>
      <trkpt lat="49.50065" lon="5.88414">
        <ele>385.68</ele>
        <time>2018-07-01T07:12:58Z</time>
      </trkpt>
      <trkpt lat="49.50062" lon="5.88423">
        <ele>385.34</ele>
        <time>2018-07-01T07:13:02Z</time>
      </trkpt>
      <trkpt lat="49.50055" lon="5.8844">
        <ele>384.89</ele>
        <time>2018-07-01T07:13:10Z</time>
      </trkpt>
      <trkpt lat="49.50044" lon="5.88462">
        <ele>385.86</ele>
        <time>2018-07-01T07:13:20Z</time>
      </trkpt>
      <trkpt lat="49.50041" lon="5.88464">
        <ele>386.57</ele>
        <time>2018-07-01T07:13:22Z</time>
      </trkpt>
      <trkpt lat="49.50037" lon="5.8847">
        <ele>387.46</ele>
        <time>2018-07-01T07:13:26Z</time>
      </trkpt>
      <trkpt lat="49.5003" lon="5.88478">
        <ele>388.43</ele>
        <time>2018-07-01T07:13:32Z</time>
      </trkpt>
      <trkpt lat="49.50021" lon="5.88489">
        <ele>389.14</ele>
        <time>2018-07-01T07:13:39Z</time>
      </trkpt>
      <trkpt lat="49.50016" lon="5.88496">
        <ele>388.97</ele>
        <time>2018-07-01T07:13:43Z</time>
      </trkpt>
      <trkpt lat="49.50006" lon="5.8851">
        <ele>388.86</ele>
        <time>2018-07-01T07:13:51Z</time>
      </trkpt>
      <trkpt lat="49.50001" lon="5.88524">
        <ele>387.5</ele>
        <time>2018-07-01T07:13:58Z</time>
      </trkpt>
      <trkpt lat="49.49999" lon="5.88529">
        <ele>387.34</ele>
        <time>2018-07-01T07:14:00Z</time>
      </trkpt>
      <trkpt lat="49.49996" lon="5.8855">
        <ele>386.17</ele>
        <time>2018-07-01T07:14:07Z</time>
      </trkpt>
      <trkpt lat="49.49986" lon="5.88582">
        <ele>384.9</ele>
        <time>2018-07-01T07:14:18Z</time>
      </trkpt>
      <trkpt lat="49.49979" lon="5.88593">
        <ele>384.6</ele>
        <time>2018-07-01T07:14:23Z</time>
      </trkpt>
      <trkpt lat="49.49967" lon="5.88611">
        <ele>383.96</ele>
        <time>2018-07-01T07:14:30Z</time>
      </trkpt>
      <trkpt lat="49.49953" lon="5.88631">
        <ele>381.56</ele>
        <time>2018-07-01T07:14:37Z</time>
      </trkpt>
      <trkpt lat="49.49951" lon="5.88634">
        <ele>381.14</ele>
        <time>2018-07-01T07:14:38Z</time>
      </trkpt>
      <trkpt lat="49.49937" lon="5.88666">
        <ele>379.52</ele>
        <time>2018-07-01T07:14:46Z</time>
      </trkpt>
      <trkpt lat="49.49921" lon="5.88693">
        <ele>379.98</ele>
        <time>2018-07-01T07:14:53Z</time>
      </trkpt>
      <trkpt lat="49.499" lon="5.88715">
        <ele>379.49</ele>
        <time>2018-07-01T07:15:02Z</time>
      </trkpt>
      <trkpt lat="49.49886" lon="5.88727">
        <ele>380.4</ele>
        <time>2018-07-01T07:15:09Z</time>
      </trkpt>
      <trkpt lat="49.49877" lon="5.88741">
        <ele>382.1</ele>
        <time>2018-07-01T07:15:16Z</time>
      </trkpt>
      <trkpt lat="49.49872" lon="5.88757">
        <ele>383.25</ele>
        <time>2018-07-01T07:15:23Z</time>
      </trkpt>
      <trkpt lat="49.49865" lon="5.88772">
        <ele>383.79</ele>
        <time>2018-07-01T07:15:29Z</time>
      </trkpt>
      <trkpt lat="49.49856" lon="5.88792">
        <ele>384.01</ele>
        <time>2018-07-01T07:15:37Z</time>
      </trkpt>
      <trkpt lat="49.49845" lon="5.88814">
        <ele>382.39</ele>
        <time>2018-07-01T07:15:44Z</time>
      </trkpt>
      <trkpt lat="49.49834" lon="5.88842">
        <ele>380.93</ele>
        <time>2018-07-01T07:15:52Z</time>
      </trkpt>
      <trkpt lat="49.4982" lon="5.88871">
        <ele>380.65</ele>
        <time>2018-07-01T07:16:00Z</time>
      </trkpt>
      <trkpt lat="49.4981" lon="5.88899">
        <ele>380.29</ele>
        <time>2018-07-01T07:16:07Z</time>
      </trkpt>
      <trkpt lat="49.49799" lon="5.88923">
        <ele>379.91</ele>
        <time>2018-07-01T07:16:14Z</time>
      </trkpt>
      <trkpt lat="49.49788" lon="5.88949">
        <ele>378.8</ele>
        <time>2018-07-01T07:16:21Z</time>
      </trkpt>
      <trkpt lat="49.49786" lon="5.8897">
        <ele>377.78</ele>
        <time>2018-07-01T07:16:26Z</time>
      </trkpt>
      <trkpt lat="49.49772" lon="5.89005">
        <ele>376.26</ele>
        <time>2018-07-01T07:16:34Z</time>
      </trkpt>
      <trkpt lat="49.49765" lon="5.89041">
        <ele>377.03</ele>
        <time>2018-07-01T07:16:41Z</time>
      </trkpt>
      <trkpt lat="49.49754" lon="5.89065">
        <ele>379.62</ele>
        <time>2018-07-01T07:16:46Z</time>
      </trkpt>
      <trkpt lat="49.4974" lon="5.8909">
        <ele>380.26</ele>
        <time>2018-07-01T07:16:53Z</time>
      </trkpt>
      <trkpt lat="49.4973" lon="5.89118">
        <ele>381.47</ele>
        <time>2018-07-01T07:17:00Z</time>
      </trkpt>
      <trkpt lat="49.49721" lon="5.89146">
        <ele>382.28</ele>
        <time>2018-07-01T07:17:06Z</time>
      </trkpt>
      <trkpt lat="49.49712" lon="5.89182">
        <ele>383.4</ele>
        <time>2018-07-01T07:17:14Z</time>
      </trkpt>
      <trkpt lat="49.49711" lon="5.89222">
        <ele>382.89</ele>
        <time>2018-07-01T07:17:21Z</time>
      </trkpt>
      <trkpt lat="49.49718" lon="5.89253">
        <ele>383.94</ele>
        <time>2018-07-01T07:17:27Z</time>
      </trkpt>
      <trkpt lat="49.49735" lon="5.8929">
        <ele>387.8</ele>
        <time>2018-07-01T07:17:35Z</time>
      </trkpt>
      <trkpt lat="49.49741" lon="5.89332">
        <ele>390.9</ele>
        <time>2018-07-01T07:17:44Z</time>
      </trkpt>
      <trkpt lat="49.49748" lon="5.89367">
        <ele>390.56</ele>
        <time>2018-07-01T07:17:52Z</time>
      </trkpt>
      <trkpt lat="49.4975" lon="5.89378">
        <ele>390.42</ele>
        <time>2018-07-01T07:17:55Z</time>
      </trkpt>
      <trkpt lat="49.49752" lon="5.89394">
        <ele>390.34</ele>
        <time>2018-07-01T07:17:59Z</time>
      </trkpt>
      <trkpt lat="49.49754" lon="5.89408">
        <ele>390.1</ele>
        <time>2018-07-01T07:18:03Z</time>
      </trkpt>
      <trkpt lat="49.49753" lon="5.89429">
        <ele>388.65</ele>
        <time>2018-07-01T07:18:08Z</time>
      </trkpt>
      <trkpt lat="49.49751" lon="5.89438">
        <ele>387.82</ele>
        <time>2018-07-01T07:18:10Z</time>
      </trkpt>
      <trkpt lat="49.49751" lon="5.89457">
        <ele>386.92</ele>
        <time>2018-07-01T07:18:14Z</time>
      </trkpt>
      <trkpt lat="49.49749" lon="5.89478">
        <ele>386.8</ele>
        <time>2018-07-01T07:18:18Z</time>
      </trkpt>
      <trkpt lat="49.4975" lon="5.89518">
        <ele>386.51</ele>
        <time>2018-07-01T07:18:26Z</time>
      </trkpt>
      <trkpt lat="49.49751" lon="5.89527">
        <ele>387.66</ele>
        <time>2018-07-01T07:18:28Z</time>
      </trkpt>
      <trkpt lat="49.49742" lon="5.89555">
        <ele>387.97</ele>
        <time>2018-07-01T07:18:35Z</time>
      </trkpt>
      <trkpt lat="49.49737" lon="5.89577">
        <ele>388.32</ele>
        <time>2018-07-01T07:18:41Z</time>
      </trkpt>
      <trkpt lat="49.49732" lon="5.89605">
        <ele>389.9</ele>
        <time>2018-07-01T07:18:49Z</time>
      </trkpt>
      <trkpt lat="49.49731" lon="5.89643">
        <ele>392.79</ele>
        <time>2018-07-01T07:19:00Z</time>
      </trkpt>
      <trkpt lat="49.49732" lon="5.89681">
        <ele>394.74</ele>
        <time>2018-07-01T07:19:11Z</time>
      </trkpt>
      <trkpt lat="49.49735" lon="5.89702">
        <ele>395.24</ele>
        <time>2018-07-01T07:19:17Z</time>
      </trkpt>
      <trkpt lat="49.4974" lon="5.89731">
        <ele>397.18</ele>
        <time>2018-07-01T07:19:26Z</time>
      </trkpt>
      <trkpt lat="49.49745" lon="5.89763">
        <ele>399.41</ele>
        <time>2018-07-01T07:19:37Z</time>
      </trkpt>
      <trkpt lat="49.49749" lon="5.89794">
        <ele>400.92</ele>
        <time>2018-07-01T07:19:49Z</time>
      </trkpt>
      <trkpt lat="49.49752" lon="5.89819">
        <ele>402.84</ele>
        <time>2018-07-01T07:19:58Z</time>
      </trkpt>
      <trkpt lat="49.49756" lon="5.89842">
        <ele>403.59</ele>
        <time>2018-07-01T07:20:09Z</time>
      </trkpt>
      <trkpt lat="49.49762" lon="5.89858">
        <ele>404.57</ele>
        <time>2018-07-01T07:20:17Z</time>
      </trkpt>
      <trkpt lat="49.49769" lon="5.89877">
        <ele>404.03</ele>
        <time>2018-07-01T07:20:25Z</time>
      </trkpt>
      <trkpt lat="49.49775" lon="5.89897">
        <ele>401.79</ele>
        <time>2018-07-01T07:20:33Z</time>
      </trkpt>
      <trkpt lat="49.49782" lon="5.89918">
        <ele>401.41</ele>
        <time>2018-07-01T07:20:40Z</time>
      </trkpt>
      <trkpt lat="49.49783" lon="5.89921">
        <ele>401.28</ele>
        <time>2018-07-01T07:20:41Z</time>
      </trkpt>
      <trkpt lat="49.49784" lon="5.89928">
        <ele>400.99</ele>
        <time>2018-07-01T07:20:44Z</time>
      </trkpt>
      <trkpt lat="49.49786" lon="5.8994">
        <ele>400.59</ele>
        <time>2018-07-01T07:20:48Z</time>
      </trkpt>
      <trkpt lat="49.49795" lon="5.89963">
        <ele>399.97</ele>
        <time>2018-07-01T07:20:55Z</time>
      </trkpt>
      <trkpt lat="49.49804" lon="5.89985">
        <ele>399.96</ele>
        <time>2018-07-01T07:21:01Z</time>
      </trkpt>
      <trkpt lat="49.4981" lon="5.90004">
        <ele>399.37</ele>
        <time>2018-07-01T07:21:06Z</time>
      </trkpt>
      <trkpt lat="49.49816" lon="5.90022">
        <ele>400.34</ele>
        <time>2018-07-01T07:21:11Z</time>
      </trkpt>
      <trkpt lat="49.49823" lon="5.90059">
        <ele>401.68</ele>
        <time>2018-07-01T07:21:19Z</time>
      </trkpt>
      <trkpt lat="49.4983" lon="5.90091">
        <ele>402.52</ele>
        <time>2018-07-01T07:21:26Z</time>
      </trkpt>
      <trkpt lat="49.49837" lon="5.90122">
        <ele>403.3</ele>
        <time>2018-07-01T07:21:33Z</time>
      </trkpt>
      <trkpt lat="49.49843" lon="5.90156">
        <ele>404.93</ele>
        <time>2018-07-01T07:21:41Z</time>
      </trkpt>
      <trkpt lat="49.4985" lon="5.902">
        <ele>405.74</ele>
        <time>2018-07-01T07:21:50Z</time>
      </trkpt>
      <trkpt lat="49.49852" lon="5.90234">
        <ele>404.63</ele>
        <time>2018-07-01T07:21:58Z</time>
      </trkpt>
      <trkpt lat="49.49855" lon="5.90264">
        <ele>405.66</ele>
        <time>2018-07-01T07:22:04Z</time>
      </trkpt>
      <trkpt lat="49.49862" lon="5.90308">
        <ele>406.02</ele>
        <time>2018-07-01T07:22:13Z</time>
      </trkpt>
      <trkpt lat="49.49872" lon="5.90328">
        <ele>404.68</ele>
        <time>2018-07-01T07:22:18Z</time>
      </trkpt>
      <trkpt lat="49.49891" lon="5.90343">
        <ele>404.87</ele>
        <time>2018-07-01T07:22:25Z</time>
      </trkpt>
      <trkpt lat="49.4991" lon="5.90357">
        <ele>407.24</ele>
        <time>2018-07-01T07:22:33Z</time>
      </trkpt>
      <trkpt lat="49.49917" lon="5.90395">
        <ele>405.64</ele>
        <time>2018-07-01T07:22:42Z</time>
      </trkpt>
      <trkpt lat="49.49922" lon="5.90418">
        <ele>404.94</ele>
        <time>2018-07-01T07:22:49Z</time>
      </trkpt>
      <trkpt lat="49.49933" lon="5.90439">
        <ele>404.97</ele>
        <time>2018-07-01T07:22:56Z</time>
      </trkpt>
      <trkpt lat="49.49936" lon="5.90444">
        <ele>404.67</ele>
        <time>2018-07-01T07:22:59Z</time>
      </trkpt>
      <trkpt lat="49.49931" lon="5.90454">
        <ele>401.85</ele>
        <time>2018-07-01T07:23:08Z</time>
      </trkpt>
      <trkpt lat="49.4993" lon="5.90454">
        <ele>401.18</ele>
        <time>2018-07-01T07:23:09Z</time>
      </trkpt>
      <trkpt lat="49.49915" lon="5.90451">
        <ele>396.37</ele>
        <time>2018-07-01T07:23:17Z</time>
      </trkpt>
      <trkpt lat="49.49912" lon="5.90448">
        <ele>395.83</ele>
        <time>2018-07-01T07:23:19Z</time>
      </trkpt>
      <trkpt lat="49.49905" lon="5.90451">
        <ele>394.3</ele>
        <time>2018-07-01T07:23:23Z</time>
      </trkpt>
      <trkpt lat="49.49893" lon="5.90455">
        <ele>392.5</ele>
        <time>2018-07-01T07:23:29Z</time>
      </trkpt>
      <trkpt lat="49.49894" lon="5.90456">
        <ele>393.07</ele>
        <time>2018-07-01T07:23:32Z</time>
      </trkpt>
      <trkpt lat="49.49887" lon="5.9045">
        <ele>393.34</ele>
        <time>2018-07-01T07:24:10Z</time>
      </trkpt>
      <trkpt lat="49.49882" lon="5.90454">
        <ele>393.57</ele>
        <time>2018-07-01T07:24:14Z</time>
      </trkpt>
      <trkpt lat="49.4988" lon="5.90462">
        <ele>392.83</ele>
        <time>2018-07-01T07:24:17Z</time>
      </trkpt>
      <trkpt lat="49.49895" lon="5.90477">
        <ele>392.28</ele>
        <time>2018-07-01T07:24:23Z</time>
      </trkpt>
      <trkpt lat="49.49896" lon="5.90478">
        <ele>393.05</ele>
        <time>2018-07-01T07:24:27Z</time>
      </trkpt>
      <trkpt lat="49.49896" lon="5.90478">
        <ele>393.24</ele>
        <time>2018-07-01T07:24:28Z</time>
      </trkpt>
      <trkpt lat="49.49901" lon="5.9048">
        <ele>394.47</ele>
        <time>2018-07-01T07:24:45Z</time>
      </trkpt>
      <trkpt lat="49.49905" lon="5.9049">
        <ele>394.26</ele>
        <time>2018-07-01T07:24:50Z</time>
      </trkpt>
      <trkpt lat="49.49905" lon="5.90514">
        <ele>394.66</ele>
        <time>2018-07-01T07:25:00Z</time>
      </trkpt>
      <trkpt lat="49.49906" lon="5.90534">
        <ele>395.76</ele>
        <time>2018-07-01T07:25:07Z</time>
      </trkpt>
      <trkpt lat="49.49909" lon="5.90559">
        <ele>397.42</ele>
        <time>2018-07-01T07:25:13Z</time>
      </trkpt>
      <trkpt lat="49.49917" lon="5.90588">
        <ele>398.4</ele>
        <time>2018-07-01T07:25:21Z</time>
      </trkpt>
      <trkpt lat="49.49919" lon="5.90591">
        <ele>398.46</ele>
        <time>2018-07-01T07:25:22Z</time>
      </trkpt>
      <trkpt lat="49.49927" lon="5.906">
        <ele>398.28</ele>
        <time>2018-07-01T07:25:27Z</time>
      </trkpt>
      <trkpt lat="49.4994" lon="5.90619">
        <ele>399.13</ele>
        <time>2018-07-01T07:25:34Z</time>
      </trkpt>
      <trkpt lat="49.49944" lon="5.90629">
        <ele>399.65</ele>
        <time>2018-07-01T07:25:38Z</time>
      </trkpt>
      <trkpt lat="49.49964" lon="5.90659">
        <ele>395.91</ele>
        <time>2018-07-01T07:25:45Z</time>
      </trkpt>
      <trkpt lat="49.49976" lon="5.90682">
        <ele>392.57</ele>
        <time>2018-07-01T07:25:50Z</time>
      </trkpt>
      <trkpt lat="49.49986" lon="5.9071">
        <ele>390.78</ele>
        <time>2018-07-01T07:25:55Z</time>
      </trkpt>
      <trkpt lat="49.49989" lon="5.90719">
        <ele>390.54</ele>
        <time>2018-07-01T07:25:58Z</time>
      </trkpt>
      <trkpt lat="49.49999" lon="5.90739">
        <ele>390.77</ele>
        <time>2018-07-01T07:26:04Z</time>
      </trkpt>
      <trkpt lat="49.50001" lon="5.90741">
        <ele>390.98</ele>
        <time>2018-07-01T07:26:05Z</time>
      </trkpt>
      <trkpt lat="49.50015" lon="5.90751">
        <ele>392.29</ele>
        <time>2018-07-01T07:26:12Z</time>
      </trkpt>
      <trkpt lat="49.50039" lon="5.90764">
        <ele>394.11</ele>
        <time>2018-07-01T07:26:18Z</time>
      </trkpt>
      <trkpt lat="49.50059" lon="5.90767">
        <ele>395.13</ele>
        <time>2018-07-01T07:26:23Z</time>
      </trkpt>
      <trkpt lat="49.50072" lon="5.90772">
        <ele>396.71</ele>
        <time>2018-07-01T07:26:27Z</time>
      </trkpt>
      <trkpt lat="49.50085" lon="5.90775">
        <ele>396.64</ele>
        <time>2018-07-01T07:26:32Z</time>
      </trkpt>
      <trkpt lat="49.50104" lon="5.90775">
        <ele>395.61</ele>
        <time>2018-07-01T07:26:38Z</time>
      </trkpt>
      <trkpt lat="49.5012" lon="5.90782">
        <ele>396.15</ele>
        <time>2018-07-01T07:26:43Z</time>
      </trkpt>
      <trkpt lat="49.50122" lon="5.90795">
        <ele>394.57</ele>
        <time>2018-07-01T07:26:47Z</time>
      </trkpt>
      <trkpt lat="49.50124" lon="5.90802">
        <ele>394.88</ele>
        <time>2018-07-01T07:26:50Z</time>
      </trkpt>
      <trkpt lat="49.50129" lon="5.90823">
        <ele>396.3</ele>
        <time>2018-07-01T07:26:55Z</time>
      </trkpt>
      <trkpt lat="49.50138" lon="5.90852">
        <ele>394.82</ele>
        <time>2018-07-01T07:27:01Z</time>
      </trkpt>
      <trkpt lat="49.5014" lon="5.90853">
        <ele>395.17</ele>
        <time>2018-07-01T07:27:02Z</time>
      </trkpt>
      <trkpt lat="49.50142" lon="5.90853">
        <ele>395.4</ele>
        <time>2018-07-01T07:27:03Z</time>
      </trkpt>
      <trkpt lat="49.50144" lon="5.90852">
        <ele>395.48</ele>
        <time>2018-07-01T07:27:04Z</time>
      </trkpt>
      <trkpt lat="49.50145" lon="5.90851">
        <ele>395.43</ele>
        <time>2018-07-01T07:27:05Z</time>
      </trkpt>
      <trkpt lat="49.50146" lon="5.9085">
        <ele>394.93</ele>
        <time>2018-07-01T07:27:06Z</time>
      </trkpt>
      <trkpt lat="49.50148" lon="5.90849">
        <ele>394.73</ele>
        <time>2018-07-01T07:27:07Z</time>
      </trkpt>
      <trkpt lat="49.5015" lon="5.90848">
        <ele>394.95</ele>
        <time>2018-07-01T07:27:08Z</time>
      </trkpt>
      <trkpt lat="49.50152" lon="5.90847">
        <ele>394.73</ele>
        <time>2018-07-01T07:27:09Z</time>
      </trkpt>
      <trkpt lat="49.50154" lon="5.90845">
        <ele>395.21</ele>
        <time>2018-07-01T07:27:10Z</time>
      </trkpt>
      <trkpt lat="49.50156" lon="5.90844">
        <ele>395.55</ele>
        <time>2018-07-01T07:27:11Z</time>
      </trkpt>
      <trkpt lat="49.50158" lon="5.90844">
        <ele>395.85</ele>
        <time>2018-07-01T07:27:12Z</time>
      </trkpt>
      <trkpt lat="49.50172" lon="5.90854">
        <ele>396.11</ele>
        <time>2018-07-01T07:27:17Z</time>
      </trkpt>
      <trkpt lat="49.5019" lon="5.90871">
        <ele>394.19</ele>
        <time>2018-07-01T07:27:24Z</time>
      </trkpt>
      <trkpt lat="49.50192" lon="5.90871">
        <ele>393.14</ele>
        <time>2018-07-01T07:27:28Z</time>
      </trkpt>
      <trkpt lat="49.50199" lon="5.90884">
        <ele>393.82</ele>
        <time>2018-07-01T07:30:58Z</time>
      </trkpt>
      <trkpt lat="49.50206" lon="5.9091">
        <ele>391.7</ele>
        <time>2018-07-01T07:31:05Z</time>
      </trkpt>
      <trkpt lat="49.50212" lon="5.90925">
        <ele>389.48</ele>
        <time>2018-07-01T07:31:10Z</time>
      </trkpt>
      <trkpt lat="49.5022" lon="5.90941">
        <ele>387.22</ele>
        <time>2018-07-01T07:31:17Z</time>
      </trkpt>
      <trkpt lat="49.50225" lon="5.90953">
        <ele>384.94</ele>
        <time>2018-07-01T07:31:24Z</time>
      </trkpt>
      <trkpt lat="49.5023" lon="5.9097">
        <ele>383.05</ele>
        <time>2018-07-01T07:31:31Z</time>
      </trkpt>
      <trkpt lat="49.50233" lon="5.90981">
        <ele>380.79</ele>
        <time>2018-07-01T07:31:36Z</time>
      </trkpt>
      <trkpt lat="49.50236" lon="5.90984">
        <ele>380.52</ele>
        <time>2018-07-01T07:31:37Z</time>
      </trkpt>
      <trkpt lat="49.50244" lon="5.91013">
        <ele>380.42</ele>
        <time>2018-07-01T07:31:49Z</time>
      </trkpt>
      <trkpt lat="49.50245" lon="5.91016">
        <ele>380.41</ele>
        <time>2018-07-01T07:31:50Z</time>
      </trkpt>
      <trkpt lat="49.50248" lon="5.91023">
        <ele>380.46</ele>
        <time>2018-07-01T07:31:53Z</time>
      </trkpt>
      <trkpt lat="49.50256" lon="5.91044">
        <ele>380.64</ele>
        <time>2018-07-01T07:32:01Z</time>
      </trkpt>
      <trkpt lat="49.50258" lon="5.91049">
        <ele>381.41</ele>
        <time>2018-07-01T07:32:03Z</time>
      </trkpt>
      <trkpt lat="49.50259" lon="5.91052">
        <ele>381.57</ele>
        <time>2018-07-01T07:32:04Z</time>
      </trkpt>
      <trkpt lat="49.50266" lon="5.91069">
        <ele>383.09</ele>
        <time>2018-07-01T07:32:11Z</time>
      </trkpt>
      <trkpt lat="49.50272" lon="5.91089">
        <ele>385.08</ele>
        <time>2018-07-01T07:32:18Z</time>
      </trkpt>
      <trkpt lat="49.50277" lon="5.91107">
        <ele>386.87</ele>
        <time>2018-07-01T07:32:25Z</time>
      </trkpt>
      <trkpt lat="49.50282" lon="5.91128">
        <ele>388.85</ele>
        <time>2018-07-01T07:32:32Z</time>
      </trkpt>
      <trkpt lat="49.50289" lon="5.91148">
        <ele>391.64</ele>
        <time>2018-07-01T07:32:39Z</time>
      </trkpt>
      <trkpt lat="49.50298" lon="5.91163">
        <ele>393.22</ele>
        <time>2018-07-01T07:32:45Z</time>
      </trkpt>
      <trkpt lat="49.5031" lon="5.9118">
        <ele>394.27</ele>
        <time>2018-07-01T07:32:52Z</time>
      </trkpt>
      <trkpt lat="49.50326" lon="5.91201">
        <ele>395.27</ele>
        <time>2018-07-01T07:32:59Z</time>
      </trkpt>
      <trkpt lat="49.50345" lon="5.91228">
        <ele>396.17</ele>
        <time>2018-07-01T07:33:06Z</time>
      </trkpt>
      <trkpt lat="49.50349" lon="5.91231">
        <ele>396.41</ele>
        <time>2018-07-01T07:33:07Z</time>
      </trkpt>
      <trkpt lat="49.50353" lon="5.91234">
        <ele>396.2</ele>
        <time>2018-07-01T07:33:08Z</time>
      </trkpt>
      <trkpt lat="49.50357" lon="5.91236">
        <ele>396.19</ele>
        <time>2018-07-01T07:33:09Z</time>
      </trkpt>
      <trkpt lat="49.50362" lon="5.91238">
        <ele>396.21</ele>
        <time>2018-07-01T07:33:10Z</time>
      </trkpt>
      <trkpt lat="49.50367" lon="5.91239">
        <ele>396.51</ele>
        <time>2018-07-01T07:33:11Z</time>
      </trkpt>
      <trkpt lat="49.50382" lon="5.9124">
        <ele>396.62</ele>
        <time>2018-07-01T07:33:14Z</time>
      </trkpt>
      <trkpt lat="49.50413" lon="5.91251">
        <ele>396.82</ele>
        <time>2018-07-01T07:33:22Z</time>
      </trkpt>
      <trkpt lat="49.50422" lon="5.91261">
        <ele>397.39</ele>
        <time>2018-07-01T07:33:27Z</time>
      </trkpt>
      <trkpt lat="49.50427" lon="5.91265">
        <ele>397.66</ele>
        <time>2018-07-01T07:33:31Z</time>
      </trkpt>
      <trkpt lat="49.5043" lon="5.91266">
        <ele>397.78</ele>
        <time>2018-07-01T07:33:32Z</time>
      </trkpt>
      <trkpt lat="49.50442" lon="5.91273">
        <ele>398.33</ele>
        <time>2018-07-01T07:33:39Z</time>
      </trkpt>
      <trkpt lat="49.50444" lon="5.91273">
        <ele>398.35</ele>
        <time>2018-07-01T07:33:40Z</time>
      </trkpt>
      <trkpt lat="49.50446" lon="5.91272">
        <ele>398.34</ele>
        <time>2018-07-01T07:33:41Z</time>
      </trkpt>
      <trkpt lat="49.50449" lon="5.9127">
        <ele>398.3</ele>
        <time>2018-07-01T07:33:42Z</time>
      </trkpt>
      <trkpt lat="49.50451" lon="5.91268">
        <ele>398.38</ele>
        <time>2018-07-01T07:33:43Z</time>
      </trkpt>
      <trkpt lat="49.50452" lon="5.91266">
        <ele>398.44</ele>
        <time>2018-07-01T07:33:44Z</time>
      </trkpt>
      <trkpt lat="49.50454" lon="5.91265">
        <ele>398.5</ele>
        <time>2018-07-01T07:33:45Z</time>
      </trkpt>
      <trkpt lat="49.50456" lon="5.91264">
        <ele>398.51</ele>
        <time>2018-07-01T07:33:46Z</time>
      </trkpt>
      <trkpt lat="49.50472" lon="5.91256">
        <ele>398.26</ele>
        <time>2018-07-01T07:33:53Z</time>
      </trkpt>
      <trkpt lat="49.50493" lon="5.91248">
        <ele>398.46</ele>
        <time>2018-07-01T07:34:01Z</time>
      </trkpt>
      <trkpt lat="49.50497" lon="5.91247">
        <ele>398.84</ele>
        <time>2018-07-01T07:34:03Z</time>
      </trkpt>
      <trkpt lat="49.50507" lon="5.91242">
        <ele>399.32</ele>
        <time>2018-07-01T07:34:07Z</time>
      </trkpt>
      <trkpt lat="49.50531" lon="5.91237">
        <ele>402.2</ele>
        <time>2018-07-01T07:34:15Z</time>
      </trkpt>
      <trkpt lat="49.5055" lon="5.91236">
        <ele>403.99</ele>
        <time>2018-07-01T07:34:21Z</time>
      </trkpt>
      <trkpt lat="49.50574" lon="5.91241">
        <ele>405.47</ele>
        <time>2018-07-01T07:34:26Z</time>
      </trkpt>
      <trkpt lat="49.50592" lon="5.91248">
        <ele>407.9</ele>
        <time>2018-07-01T07:34:33Z</time>
      </trkpt>
      <trkpt lat="49.50612" lon="5.91253">
        <ele>410.46</ele>
        <time>2018-07-01T07:34:40Z</time>
      </trkpt>
      <trkpt lat="49.50633" lon="5.91264">
        <ele>412.42</ele>
        <time>2018-07-01T07:34:47Z</time>
      </trkpt>
      <trkpt lat="49.50661" lon="5.9129">
        <ele>415.25</ele>
        <time>2018-07-01T07:34:55Z</time>
      </trkpt>
      <trkpt lat="49.50686" lon="5.91311">
        <ele>416.33</ele>
        <time>2018-07-01T07:35:02Z</time>
      </trkpt>
      <trkpt lat="49.50705" lon="5.91335">
        <ele>418.25</ele>
        <time>2018-07-01T07:35:10Z</time>
      </trkpt>
      <trkpt lat="49.50718" lon="5.91353">
        <ele>421.13</ele>
        <time>2018-07-01T07:35:16Z</time>
      </trkpt>
      <trkpt lat="49.5072" lon="5.91361">
        <ele>420.65</ele>
        <time>2018-07-01T07:35:18Z</time>
      </trkpt>
      <trkpt lat="49.50723" lon="5.91388">
        <ele>418.68</ele>
        <time>2018-07-01T07:35:25Z</time>
      </trkpt>
      <trkpt lat="49.50721" lon="5.91411">
        <ele>412.63</ele>
        <time>2018-07-01T07:35:30Z</time>
      </trkpt>
      <trkpt lat="49.50731" lon="5.91428">
        <ele>412.22</ele>
        <time>2018-07-01T07:35:36Z</time>
      </trkpt>
      <trkpt lat="49.50732" lon="5.91442">
        <ele>412.58</ele>
        <time>2018-07-01T07:35:41Z</time>
      </trkpt>
      <trkpt lat="49.50733" lon="5.91445">
        <ele>413.12</ele>
        <time>2018-07-01T07:35:42Z</time>
      </trkpt>
      <trkpt lat="49.50737" lon="5.91457">
        <ele>414.68</ele>
        <time>2018-07-01T07:35:47Z</time>
      </trkpt>
      <trkpt lat="49.5075" lon="5.91472">
        <ele>417.14</ele>
        <time>2018-07-01T07:35:54Z</time>
      </trkpt>
      <trkpt lat="49.50765" lon="5.91491">
        <ele>419.33</ele>
        <time>2018-07-01T07:36:00Z</time>
      </trkpt>
      <trkpt lat="49.50768" lon="5.91494">
        <ele>419.55</ele>
        <time>2018-07-01T07:36:01Z</time>
      </trkpt>
      <trkpt lat="49.50776" lon="5.91522">
        <ele>418.62</ele>
        <time>2018-07-01T07:36:07Z</time>
      </trkpt>
      <trkpt lat="49.5078" lon="5.91546">
        <ele>421.61</ele>
        <time>2018-07-01T07:36:14Z</time>
      </trkpt>
      <trkpt lat="49.50782" lon="5.91557">
        <ele>423.1</ele>
        <time>2018-07-01T07:36:17Z</time>
      </trkpt>
      <trkpt lat="49.50788" lon="5.91591">
        <ele>424.33</ele>
        <time>2018-07-01T07:36:25Z</time>
      </trkpt>
      <trkpt lat="49.50791" lon="5.91619">
        <ele>424.21</ele>
        <time>2018-07-01T07:36:31Z</time>
      </trkpt>
      <trkpt lat="49.50796" lon="5.91644">
        <ele>423.8</ele>
        <time>2018-07-01T07:36:36Z</time>
      </trkpt>
      <trkpt lat="49.50804" lon="5.91671">
        <ele>422.72</ele>
        <time>2018-07-01T07:36:42Z</time>
      </trkpt>
      <trkpt lat="49.50809" lon="5.91688">
        <ele>423.38</ele>
        <time>2018-07-01T07:36:48Z</time>
      </trkpt>
      <trkpt lat="49.50808" lon="5.91704">
        <ele>423.67</ele>
        <time>2018-07-01T07:36:54Z</time>
      </trkpt>
      <trkpt lat="49.50811" lon="5.91726">
        <ele>423.42</ele>
        <time>2018-07-01T07:37:00Z</time>
      </trkpt>
      <trkpt lat="49.50818" lon="5.91742">
        <ele>423.2</ele>
        <time>2018-07-01T07:37:06Z</time>
      </trkpt>
      <trkpt lat="49.5084" lon="5.9174">
        <ele>422.41</ele>
        <time>2018-07-01T07:37:12Z</time>
      </trkpt>
      <trkpt lat="49.50856" lon="5.91734">
        <ele>420.28</ele>
        <time>2018-07-01T07:37:17Z</time>
      </trkpt>
      <trkpt lat="49.50859" lon="5.9173">
        <ele>418.57</ele>
        <time>2018-07-01T07:37:18Z</time>
      </trkpt>
      <trkpt lat="49.50864" lon="5.91726">
        <ele>417.95</ele>
        <time>2018-07-01T07:37:19Z</time>
      </trkpt>
      <trkpt lat="49.50871" lon="5.91718">
        <ele>416.29</ele>
        <time>2018-07-01T07:37:21Z</time>
      </trkpt>
      <trkpt lat="49.50879" lon="5.91719">
        <ele>413.51</ele>
        <time>2018-07-01T07:37:25Z</time>
      </trkpt>
      <trkpt lat="49.50898" lon="5.9171">
        <ele>410.5</ele>
        <time>2018-07-01T07:37:29Z</time>
      </trkpt>
      <trkpt lat="49.50906" lon="5.91689">
        <ele>408.87</ele>
        <time>2018-07-01T07:37:33Z</time>
      </trkpt>
      <trkpt lat="49.50908" lon="5.91686">
        <ele>408.68</ele>
        <time>2018-07-01T07:37:34Z</time>
      </trkpt>
      <trkpt lat="49.50924" lon="5.91661">
        <ele>407.99</ele>
        <time>2018-07-01T07:37:42Z</time>
      </trkpt>
      <trkpt lat="49.50938" lon="5.9166">
        <ele>404.83</ele>
        <time>2018-07-01T07:37:47Z</time>
      </trkpt>
      <trkpt lat="49.50954" lon="5.91664">
        <ele>403.14</ele>
        <time>2018-07-01T07:37:53Z</time>
      </trkpt>
      <trkpt lat="49.50972" lon="5.91669">
        <ele>403.3</ele>
        <time>2018-07-01T07:38:00Z</time>
      </trkpt>
      <trkpt lat="49.50986" lon="5.91671">
        <ele>402.37</ele>
        <time>2018-07-01T07:38:06Z</time>
      </trkpt>
      <trkpt lat="49.51005" lon="5.91675">
        <ele>404.12</ele>
        <time>2018-07-01T07:38:14Z</time>
      </trkpt>
      <trkpt lat="49.51012" lon="5.91675">
        <ele>403.81</ele>
        <time>2018-07-01T07:38:18Z</time>
      </trkpt>
      <trkpt lat="49.51028" lon="5.91679">
        <ele>403.94</ele>
        <time>2018-07-01T07:38:25Z</time>
      </trkpt>
      <trkpt lat="49.51049" lon="5.91686">
        <ele>406.93</ele>
        <time>2018-07-01T07:38:37Z</time>
      </trkpt>
      <trkpt lat="49.51072" lon="5.91698">
        <ele>408.53</ele>
        <time>2018-07-01T07:38:46Z</time>
      </trkpt>
      <trkpt lat="49.51082" lon="5.91706">
        <ele>410.24</ele>
        <time>2018-07-01T07:38:50Z</time>
      </trkpt>
      <trkpt lat="49.51085" lon="5.91712">
        <ele>411.32</ele>
        <time>2018-07-01T07:38:53Z</time>
      </trkpt>
      <trkpt lat="49.51088" lon="5.9173">
        <ele>415.13</ele>
        <time>2018-07-01T07:38:59Z</time>
      </trkpt>
      <trkpt lat="49.51104" lon="5.91755">
        <ele>414.35</ele>
        <time>2018-07-01T07:39:05Z</time>
      </trkpt>
      <trkpt lat="49.51104" lon="5.91772">
        <ele>415.05</ele>
        <time>2018-07-01T07:39:09Z</time>
      </trkpt>
      <trkpt lat="49.51102" lon="5.91774">
        <ele>415.13</ele>
        <time>2018-07-01T07:39:10Z</time>
      </trkpt>
      <trkpt lat="49.511" lon="5.91789">
        <ele>416.7</ele>
        <time>2018-07-01T07:39:14Z</time>
      </trkpt>
      <trkpt lat="49.5111" lon="5.91799">
        <ele>417.4</ele>
        <time>2018-07-01T07:39:22Z</time>
      </trkpt>
      <trkpt lat="49.51119" lon="5.91805">
        <ele>417.9</ele>
        <time>2018-07-01T07:39:27Z</time>
      </trkpt>
      <trkpt lat="49.51126" lon="5.91809">
        <ele>418.46</ele>
        <time>2018-07-01T07:39:34Z</time>
      </trkpt>
      <trkpt lat="49.51135" lon="5.91824">
        <ele>417.67</ele>
        <time>2018-07-01T07:39:40Z</time>
      </trkpt>
      <trkpt lat="49.51151" lon="5.91836">
        <ele>415.99</ele>
        <time>2018-07-01T07:39:49Z</time>
      </trkpt>
      <trkpt lat="49.51159" lon="5.91837">
        <ele>414.95</ele>
        <time>2018-07-01T07:39:53Z</time>
      </trkpt>
      <trkpt lat="49.51171" lon="5.91846">
        <ele>412.85</ele>
        <time>2018-07-01T07:39:57Z</time>
      </trkpt>
      <trkpt lat="49.51174" lon="5.91853">
        <ele>413.05</ele>
        <time>2018-07-01T07:39:59Z</time>
      </trkpt>
      <trkpt lat="49.51185" lon="5.91873">
        <ele>413.2</ele>
        <time>2018-07-01T07:40:06Z</time>
      </trkpt>
      <trkpt lat="49.51192" lon="5.91876">
        <ele>413.2</ele>
        <time>2018-07-01T07:40:08Z</time>
      </trkpt>
      <trkpt lat="49.5121" lon="5.91897">
        <ele>414.29</ele>
        <time>2018-07-01T07:40:13Z</time>
      </trkpt>
      <trkpt lat="49.51213" lon="5.91904">
        <ele>414.69</ele>
        <time>2018-07-01T07:40:15Z</time>
      </trkpt>
      <trkpt lat="49.51224" lon="5.91927">
        <ele>414.19</ele>
        <time>2018-07-01T07:40:22Z</time>
      </trkpt>
      <trkpt lat="49.51229" lon="5.9195">
        <ele>412.76</ele>
        <time>2018-07-01T07:40:29Z</time>
      </trkpt>
      <trkpt lat="49.51229" lon="5.91957">
        <ele>411.77</ele>
        <time>2018-07-01T07:40:31Z</time>
      </trkpt>
      <trkpt lat="49.51238" lon="5.91978">
        <ele>411.25</ele>
        <time>2018-07-01T07:40:38Z</time>
      </trkpt>
      <trkpt lat="49.51247" lon="5.91994">
        <ele>409.45</ele>
        <time>2018-07-01T07:40:43Z</time>
      </trkpt>
      <trkpt lat="49.51245" lon="5.92018">
        <ele>407.05</ele>
        <time>2018-07-01T07:40:48Z</time>
      </trkpt>
      <trkpt lat="49.51244" lon="5.92028">
        <ele>406.37</ele>
        <time>2018-07-01T07:40:50Z</time>
      </trkpt>
      <trkpt lat="49.51236" lon="5.92048">
        <ele>405.49</ele>
        <time>2018-07-01T07:40:55Z</time>
      </trkpt>
      <trkpt lat="49.51237" lon="5.92053">
        <ele>405.52</ele>
        <time>2018-07-01T07:40:56Z</time>
      </trkpt>
      <trkpt lat="49.51244" lon="5.92075">
        <ele>403.72</ele>
        <time>2018-07-01T07:41:00Z</time>
      </trkpt>
      <trkpt lat="49.51249" lon="5.92117">
        <ele>402.19</ele>
        <time>2018-07-01T07:41:06Z</time>
      </trkpt>
      <trkpt lat="49.51244" lon="5.92142">
        <ele>401.07</ele>
        <time>2018-07-01T07:41:10Z</time>
      </trkpt>
      <trkpt lat="49.5124" lon="5.92154">
        <ele>400.61</ele>
        <time>2018-07-01T07:41:12Z</time>
      </trkpt>
      <trkpt lat="49.51242" lon="5.92173">
        <ele>401.25</ele>
        <time>2018-07-01T07:41:16Z</time>
      </trkpt>
      <trkpt lat="49.51245" lon="5.92182">
        <ele>400.96</ele>
        <time>2018-07-01T07:41:18Z</time>
      </trkpt>
      <trkpt lat="49.51253" lon="5.92196">
        <ele>402.43</ele>
        <time>2018-07-01T07:41:22Z</time>
      </trkpt>
      <trkpt lat="49.51254" lon="5.92211">
        <ele>403.27</ele>
        <time>2018-07-01T07:41:28Z</time>
      </trkpt>
      <trkpt lat="49.51259" lon="5.92238">
        <ele>404.61</ele>
        <time>2018-07-01T07:41:35Z</time>
      </trkpt>
      <trkpt lat="49.51266" lon="5.92255">
        <ele>404.81</ele>
        <time>2018-07-01T07:41:41Z</time>
      </trkpt>
      <trkpt lat="49.51275" lon="5.92265">
        <ele>406.48</ele>
        <time>2018-07-01T07:41:45Z</time>
      </trkpt>
      <trkpt lat="49.51276" lon="5.92284">
        <ele>406.34</ele>
        <time>2018-07-01T07:41:48Z</time>
      </trkpt>
      <trkpt lat="49.51273" lon="5.92304">
        <ele>408.35</ele>
        <time>2018-07-01T07:41:53Z</time>
      </trkpt>
      <trkpt lat="49.51273" lon="5.9231">
        <ele>409.53</ele>
        <time>2018-07-01T07:41:55Z</time>
      </trkpt>
      <trkpt lat="49.51273" lon="5.92324">
        <ele>411.42</ele>
        <time>2018-07-01T07:41:59Z</time>
      </trkpt>
      <trkpt lat="49.5127" lon="5.92331">
        <ele>413.6</ele>
        <time>2018-07-01T07:42:06Z</time>
      </trkpt>
      <trkpt lat="49.51269" lon="5.9233">
        <ele>413.69</ele>
        <time>2018-07-01T07:42:07Z</time>
      </trkpt>
      <trkpt lat="49.51255" lon="5.92327">
        <ele>416.04</ele>
        <time>2018-07-01T07:45:19Z</time>
      </trkpt>
      <trkpt lat="49.51253" lon="5.92331">
        <ele>416</ele>
        <time>2018-07-01T07:45:20Z</time>
      </trkpt>
      <trkpt lat="49.51249" lon="5.92348">
        <ele>415.85</ele>
        <time>2018-07-01T07:45:27Z</time>
      </trkpt>
      <trkpt lat="49.51248" lon="5.92351">
        <ele>415.67</ele>
        <time>2018-07-01T07:45:28Z</time>
      </trkpt>
      <trkpt lat="49.5125" lon="5.92366">
        <ele>414.59</ele>
        <time>2018-07-01T07:45:33Z</time>
      </trkpt>
      <trkpt lat="49.51251" lon="5.92368">
        <ele>413.98</ele>
        <time>2018-07-01T07:45:34Z</time>
      </trkpt>
      <trkpt lat="49.51255" lon="5.92377">
        <ele>413.43</ele>
        <time>2018-07-01T07:45:38Z</time>
      </trkpt>
      <trkpt lat="49.51259" lon="5.92399">
        <ele>412.86</ele>
        <time>2018-07-01T07:45:45Z</time>
      </trkpt>
      <trkpt lat="49.51259" lon="5.92414">
        <ele>412.87</ele>
        <time>2018-07-01T07:45:49Z</time>
      </trkpt>
      <trkpt lat="49.5126" lon="5.92417">
        <ele>413.12</ele>
        <time>2018-07-01T07:45:50Z</time>
      </trkpt>
      <trkpt lat="49.51264" lon="5.92422">
        <ele>414.66</ele>
        <time>2018-07-01T07:45:58Z</time>
      </trkpt>
      <trkpt lat="49.51269" lon="5.92416">
        <ele>414.74</ele>
        <time>2018-07-01T07:46:10Z</time>
      </trkpt>
      <trkpt lat="49.51274" lon="5.9241">
        <ele>414.47</ele>
        <time>2018-07-01T07:46:12Z</time>
      </trkpt>
      <trkpt lat="49.51284" lon="5.92388">
        <ele>412.75</ele>
        <time>2018-07-01T07:46:18Z</time>
      </trkpt>
      <trkpt lat="49.5129" lon="5.92374">
        <ele>411.28</ele>
        <time>2018-07-01T07:46:21Z</time>
      </trkpt>
      <trkpt lat="49.51291" lon="5.92354">
        <ele>410.03</ele>
        <time>2018-07-01T07:46:26Z</time>
      </trkpt>
      <trkpt lat="49.51287" lon="5.92349">
        <ele>407.82</ele>
        <time>2018-07-01T07:46:30Z</time>
      </trkpt>
      <trkpt lat="49.51286" lon="5.92332">
        <ele>405.52</ele>
        <time>2018-07-01T07:46:36Z</time>
      </trkpt>
      <trkpt lat="49.51291" lon="5.92306">
        <ele>403.34</ele>
        <time>2018-07-01T07:46:41Z</time>
      </trkpt>
      <trkpt lat="49.51292" lon="5.92299">
        <ele>402.94</ele>
        <time>2018-07-01T07:46:42Z</time>
      </trkpt>
      <trkpt lat="49.51301" lon="5.92283">
        <ele>397.8</ele>
        <time>2018-07-01T07:46:48Z</time>
      </trkpt>
      <trkpt lat="49.51306" lon="5.92269">
        <ele>396.04</ele>
        <time>2018-07-01T07:46:51Z</time>
      </trkpt>
      <trkpt lat="49.51299" lon="5.92244">
        <ele>393.03</ele>
        <time>2018-07-01T07:46:56Z</time>
      </trkpt>
      <trkpt lat="49.51299" lon="5.92235">
        <ele>392.94</ele>
        <time>2018-07-01T07:46:57Z</time>
      </trkpt>
      <trkpt lat="49.51297" lon="5.922">
        <ele>394.24</ele>
        <time>2018-07-01T07:47:04Z</time>
      </trkpt>
      <trkpt lat="49.51297" lon="5.92178">
        <ele>395.51</ele>
        <time>2018-07-01T07:47:10Z</time>
      </trkpt>
      <trkpt lat="49.51291" lon="5.92154">
        <ele>395.99</ele>
        <time>2018-07-01T07:47:17Z</time>
      </trkpt>
      <trkpt lat="49.51288" lon="5.92125">
        <ele>396.01</ele>
        <time>2018-07-01T07:47:23Z</time>
      </trkpt>
      <trkpt lat="49.5128" lon="5.92092">
        <ele>397.81</ele>
        <time>2018-07-01T07:47:30Z</time>
      </trkpt>
      <trkpt lat="49.5127" lon="5.92073">
        <ele>397.56</ele>
        <time>2018-07-01T07:47:36Z</time>
      </trkpt>
      <trkpt lat="49.5127" lon="5.92069">
        <ele>397.47</ele>
        <time>2018-07-01T07:47:37Z</time>
      </trkpt>
      <trkpt lat="49.51271" lon="5.92064">
        <ele>397.67</ele>
        <time>2018-07-01T07:47:39Z</time>
      </trkpt>
      <trkpt lat="49.51279" lon="5.92058">
        <ele>399.39</ele>
        <time>2018-07-01T07:47:44Z</time>
      </trkpt>
      <trkpt lat="49.51282" lon="5.92047">
        <ele>402.16</ele>
        <time>2018-07-01T07:47:49Z</time>
      </trkpt>
      <trkpt lat="49.51284" lon="5.92026">
        <ele>403.8</ele>
        <time>2018-07-01T07:47:53Z</time>
      </trkpt>
      <trkpt lat="49.51289" lon="5.92014">
        <ele>403.44</ele>
        <time>2018-07-01T07:47:57Z</time>
      </trkpt>
      <trkpt lat="49.5129" lon="5.92002">
        <ele>403.47</ele>
        <time>2018-07-01T07:48:00Z</time>
      </trkpt>
      <trkpt lat="49.51287" lon="5.91989">
        <ele>404.76</ele>
        <time>2018-07-01T07:48:05Z</time>
      </trkpt>
      <trkpt lat="49.51284" lon="5.9198">
        <ele>404.96</ele>
        <time>2018-07-01T07:48:09Z</time>
      </trkpt>
      <trkpt lat="49.51282" lon="5.91968">
        <ele>404.75</ele>
        <time>2018-07-01T07:48:13Z</time>
      </trkpt>
      <trkpt lat="49.5128" lon="5.9195">
        <ele>403.9</ele>
        <time>2018-07-01T07:48:19Z</time>
      </trkpt>
      <trkpt lat="49.51278" lon="5.91946">
        <ele>404.07</ele>
        <time>2018-07-01T07:48:21Z</time>
      </trkpt>
      <trkpt lat="49.51278" lon="5.91936">
        <ele>403.51</ele>
        <time>2018-07-01T07:48:24Z</time>
      </trkpt>
      <trkpt lat="49.51272" lon="5.91909">
        <ele>402.98</ele>
        <time>2018-07-01T07:48:29Z</time>
      </trkpt>
      <trkpt lat="49.51272" lon="5.91895">
        <ele>402.83</ele>
        <time>2018-07-01T07:48:33Z</time>
      </trkpt>
      <trkpt lat="49.51266" lon="5.91881">
        <ele>402.83</ele>
        <time>2018-07-01T07:48:37Z</time>
      </trkpt>
      <trkpt lat="49.51264" lon="5.91878">
        <ele>403.26</ele>
        <time>2018-07-01T07:48:38Z</time>
      </trkpt>
      <trkpt lat="49.51261" lon="5.91872">
        <ele>403.64</ele>
        <time>2018-07-01T07:48:41Z</time>
      </trkpt>
      <trkpt lat="49.51256" lon="5.91865">
        <ele>403.34</ele>
        <time>2018-07-01T07:48:44Z</time>
      </trkpt>
      <trkpt lat="49.51255" lon="5.91848">
        <ele>401.59</ele>
        <time>2018-07-01T07:48:48Z</time>
      </trkpt>
      <trkpt lat="49.51249" lon="5.91835">
        <ele>401.69</ele>
        <time>2018-07-01T07:48:52Z</time>
      </trkpt>
      <trkpt lat="49.51239" lon="5.91815">
        <ele>401.84</ele>
        <time>2018-07-01T07:49:00Z</time>
      </trkpt>
      <trkpt lat="49.51235" lon="5.91801">
        <ele>402.11</ele>
        <time>2018-07-01T07:49:05Z</time>
      </trkpt>
      <trkpt lat="49.51224" lon="5.91775">
        <ele>401.01</ele>
        <time>2018-07-01T07:49:10Z</time>
      </trkpt>
      <trkpt lat="49.51221" lon="5.91767">
        <ele>401.22</ele>
        <time>2018-07-01T07:49:13Z</time>
      </trkpt>
      <trkpt lat="49.5122" lon="5.91747">
        <ele>401.81</ele>
        <time>2018-07-01T07:49:19Z</time>
      </trkpt>
      <trkpt lat="49.51215" lon="5.91736">
        <ele>401.5</ele>
        <time>2018-07-01T07:49:24Z</time>
      </trkpt>
      <trkpt lat="49.51215" lon="5.91733">
        <ele>401.51</ele>
        <time>2018-07-01T07:49:25Z</time>
      </trkpt>
      <trkpt lat="49.51214" lon="5.91717">
        <ele>401.02</ele>
        <time>2018-07-01T07:49:28Z</time>
      </trkpt>
      <trkpt lat="49.51211" lon="5.91689">
        <ele>400.78</ele>
        <time>2018-07-01T07:49:33Z</time>
      </trkpt>
      <trkpt lat="49.51205" lon="5.91662">
        <ele>401.68</ele>
        <time>2018-07-01T07:49:39Z</time>
      </trkpt>
      <trkpt lat="49.51205" lon="5.91659">
        <ele>402.63</ele>
        <time>2018-07-01T07:49:44Z</time>
      </trkpt>
      <trkpt lat="49.51202" lon="5.91633">
        <ele>404.42</ele>
        <time>2018-07-01T07:49:53Z</time>
      </trkpt>
      <trkpt lat="49.51195" lon="5.91621">
        <ele>406.32</ele>
        <time>2018-07-01T07:49:59Z</time>
      </trkpt>
      <trkpt lat="49.51193" lon="5.91618">
        <ele>406.79</ele>
        <time>2018-07-01T07:50:05Z</time>
      </trkpt>
      <trkpt lat="49.51178" lon="5.91621">
        <ele>405.28</ele>
        <time>2018-07-01T07:51:28Z</time>
      </trkpt>
      <trkpt lat="49.51171" lon="5.91622">
        <ele>405.74</ele>
        <time>2018-07-01T07:51:31Z</time>
      </trkpt>
      <trkpt lat="49.51167" lon="5.9162">
        <ele>405.97</ele>
        <time>2018-07-01T07:51:34Z</time>
      </trkpt>
      <trkpt lat="49.51157" lon="5.91606">
        <ele>406.02</ele>
        <time>2018-07-01T07:51:42Z</time>
      </trkpt>
      <trkpt lat="49.51157" lon="5.916">
        <ele>405.78</ele>
        <time>2018-07-01T07:51:44Z</time>
      </trkpt>
      <trkpt lat="49.51156" lon="5.9158">
        <ele>404.86</ele>
        <time>2018-07-01T07:51:51Z</time>
      </trkpt>
      <trkpt lat="49.51155" lon="5.91574">
        <ele>404.33</ele>
        <time>2018-07-01T07:51:53Z</time>
      </trkpt>
      <trkpt lat="49.51154" lon="5.9157">
        <ele>403.48</ele>
        <time>2018-07-01T07:51:55Z</time>
      </trkpt>
      <trkpt lat="49.51151" lon="5.91554">
        <ele>402.03</ele>
        <time>2018-07-01T07:52:01Z</time>
      </trkpt>
      <trkpt lat="49.51148" lon="5.91538">
        <ele>401.35</ele>
        <time>2018-07-01T07:52:07Z</time>
      </trkpt>
      <trkpt lat="49.51147" lon="5.91526">
        <ele>400.95</ele>
        <time>2018-07-01T07:52:11Z</time>
      </trkpt>
      <trkpt lat="49.51146" lon="5.91524">
        <ele>400.94</ele>
        <time>2018-07-01T07:52:12Z</time>
      </trkpt>
      <trkpt lat="49.51141" lon="5.91521">
        <ele>400.79</ele>
        <time>2018-07-01T07:52:15Z</time>
      </trkpt>
      <trkpt lat="49.51131" lon="5.9151">
        <ele>399.52</ele>
        <time>2018-07-01T07:52:21Z</time>
      </trkpt>
      <trkpt lat="49.51126" lon="5.91505">
        <ele>398.99</ele>
        <time>2018-07-01T07:52:23Z</time>
      </trkpt>
      <trkpt lat="49.51121" lon="5.91498">
        <ele>397.69</ele>
        <time>2018-07-01T07:52:27Z</time>
      </trkpt>
      <trkpt lat="49.51103" lon="5.91474">
        <ele>394.57</ele>
        <time>2018-07-01T07:52:32Z</time>
      </trkpt>
      <trkpt lat="49.51088" lon="5.91463">
        <ele>392.44</ele>
        <time>2018-07-01T07:52:36Z</time>
      </trkpt>
      <trkpt lat="49.5107" lon="5.91452">
        <ele>389.92</ele>
        <time>2018-07-01T07:52:44Z</time>
      </trkpt>
      <trkpt lat="49.51062" lon="5.91453">
        <ele>388.52</ele>
        <time>2018-07-01T07:52:47Z</time>
      </trkpt>
      <trkpt lat="49.51048" lon="5.9147">
        <ele>386.4</ele>
        <time>2018-07-01T07:52:52Z</time>
      </trkpt>
      <trkpt lat="49.51041" lon="5.91486">
        <ele>385.63</ele>
        <time>2018-07-01T07:52:56Z</time>
      </trkpt>
      <trkpt lat="49.5104" lon="5.91488">
        <ele>385.59</ele>
        <time>2018-07-01T07:52:57Z</time>
      </trkpt>
      <trkpt lat="49.51031" lon="5.91485">
        <ele>384.48</ele>
        <time>2018-07-01T07:53:03Z</time>
      </trkpt>
      <trkpt lat="49.51028" lon="5.91491">
        <ele>384.24</ele>
        <time>2018-07-01T07:53:06Z</time>
      </trkpt>
      <trkpt lat="49.51022" lon="5.91501">
        <ele>385.32</ele>
        <time>2018-07-01T07:53:10Z</time>
      </trkpt>
      <trkpt lat="49.51009" lon="5.91519">
        <ele>388.9</ele>
        <time>2018-07-01T07:53:17Z</time>
      </trkpt>
      <trkpt lat="49.51006" lon="5.91526">
        <ele>390.68</ele>
        <time>2018-07-01T07:53:20Z</time>
      </trkpt>
      <trkpt lat="49.51003" lon="5.91526">
        <ele>392.35</ele>
        <time>2018-07-01T07:53:22Z</time>
      </trkpt>
      <trkpt lat="49.51001" lon="5.91526">
        <ele>392.45</ele>
        <time>2018-07-01T07:53:23Z</time>
      </trkpt>
      <trkpt lat="49.50994" lon="5.91522">
        <ele>395.38</ele>
        <time>2018-07-01T07:53:29Z</time>
      </trkpt>
      <trkpt lat="49.50993" lon="5.91521">
        <ele>395.91</ele>
        <time>2018-07-01T07:53:30Z</time>
      </trkpt>
      <trkpt lat="49.50992" lon="5.91507">
        <ele>399.27</ele>
        <time>2018-07-01T07:53:37Z</time>
      </trkpt>
      <trkpt lat="49.50992" lon="5.91503">
        <ele>400.92</ele>
        <time>2018-07-01T07:53:41Z</time>
      </trkpt>
      <trkpt lat="49.50995" lon="5.91499">
        <ele>401.89</ele>
        <time>2018-07-01T07:53:44Z</time>
      </trkpt>
      <trkpt lat="49.51002" lon="5.91487">
        <ele>402.59</ele>
        <time>2018-07-01T07:53:48Z</time>
      </trkpt>
      <trkpt lat="49.51009" lon="5.91469">
        <ele>402.81</ele>
        <time>2018-07-01T07:53:55Z</time>
      </trkpt>
      <trkpt lat="49.51011" lon="5.91465">
        <ele>402.47</ele>
        <time>2018-07-01T07:53:56Z</time>
      </trkpt>
      <trkpt lat="49.51011" lon="5.91462">
        <ele>402.51</ele>
        <time>2018-07-01T07:53:57Z</time>
      </trkpt>
      <trkpt lat="49.5101" lon="5.91457">
        <ele>402.72</ele>
        <time>2018-07-01T07:53:59Z</time>
      </trkpt>
      <trkpt lat="49.51007" lon="5.91454">
        <ele>403.14</ele>
        <time>2018-07-01T07:54:05Z</time>
      </trkpt>
      <trkpt lat="49.51001" lon="5.91454">
        <ele>402.88</ele>
        <time>2018-07-01T07:54:09Z</time>
      </trkpt>
      <trkpt lat="49.50986" lon="5.91445">
        <ele>401.95</ele>
        <time>2018-07-01T07:54:18Z</time>
      </trkpt>
      <trkpt lat="49.50983" lon="5.91444">
        <ele>401.81</ele>
        <time>2018-07-01T07:54:20Z</time>
      </trkpt>
      <trkpt lat="49.50974" lon="5.91435">
        <ele>400.93</ele>
        <time>2018-07-01T07:54:28Z</time>
      </trkpt>
      <trkpt lat="49.50962" lon="5.9142">
        <ele>397.99</ele>
        <time>2018-07-01T07:54:34Z</time>
      </trkpt>
      <trkpt lat="49.50952" lon="5.91404">
        <ele>395.39</ele>
        <time>2018-07-01T07:54:38Z</time>
      </trkpt>
      <trkpt lat="49.50944" lon="5.91392">
        <ele>394.31</ele>
        <time>2018-07-01T07:54:40Z</time>
      </trkpt>
      <trkpt lat="49.50925" lon="5.91385">
        <ele>392.18</ele>
        <time>2018-07-01T07:54:45Z</time>
      </trkpt>
      <trkpt lat="49.50914" lon="5.91379">
        <ele>390.25</ele>
        <time>2018-07-01T07:54:49Z</time>
      </trkpt>
      <trkpt lat="49.50898" lon="5.91372">
        <ele>388.51</ele>
        <time>2018-07-01T07:54:54Z</time>
      </trkpt>
      <trkpt lat="49.50886" lon="5.9138">
        <ele>387.81</ele>
        <time>2018-07-01T07:54:59Z</time>
      </trkpt>
      <trkpt lat="49.50883" lon="5.9138">
        <ele>387.41</ele>
        <time>2018-07-01T07:55:01Z</time>
      </trkpt>
      <trkpt lat="49.50876" lon="5.91377">
        <ele>387</ele>
        <time>2018-07-01T07:55:04Z</time>
      </trkpt>
      <trkpt lat="49.50869" lon="5.91372">
        <ele>385.31</ele>
        <time>2018-07-01T07:55:08Z</time>
      </trkpt>
      <trkpt lat="49.50857" lon="5.91364">
        <ele>384.09</ele>
        <time>2018-07-01T07:55:12Z</time>
      </trkpt>
      <trkpt lat="49.50849" lon="5.91355">
        <ele>384.35</ele>
        <time>2018-07-01T07:55:16Z</time>
      </trkpt>
      <trkpt lat="49.50826" lon="5.9134">
        <ele>384.07</ele>
        <time>2018-07-01T07:55:23Z</time>
      </trkpt>
      <trkpt lat="49.50816" lon="5.91328">
        <ele>382.39</ele>
        <time>2018-07-01T07:55:29Z</time>
      </trkpt>
      <trkpt lat="49.50813" lon="5.91324">
        <ele>381.74</ele>
        <time>2018-07-01T07:55:31Z</time>
      </trkpt>
      <trkpt lat="49.50813" lon="5.91313">
        <ele>380.77</ele>
        <time>2018-07-01T07:55:35Z</time>
      </trkpt>
      <trkpt lat="49.5081" lon="5.91303">
        <ele>380.83</ele>
        <time>2018-07-01T07:55:38Z</time>
      </trkpt>
      <trkpt lat="49.50804" lon="5.91293">
        <ele>380.09</ele>
        <time>2018-07-01T07:55:41Z</time>
      </trkpt>
      <trkpt lat="49.50801" lon="5.9129">
        <ele>379.63</ele>
        <time>2018-07-01T07:55:42Z</time>
      </trkpt>
      <trkpt lat="49.50799" lon="5.91286">
        <ele>379.39</ele>
        <time>2018-07-01T07:55:43Z</time>
      </trkpt>
      <trkpt lat="49.50797" lon="5.91283">
        <ele>379.27</ele>
        <time>2018-07-01T07:55:44Z</time>
      </trkpt>
      <trkpt lat="49.50795" lon="5.91279">
        <ele>379.24</ele>
        <time>2018-07-01T07:55:45Z</time>
      </trkpt>
      <trkpt lat="49.50795" lon="5.91275">
        <ele>379.18</ele>
        <time>2018-07-01T07:55:46Z</time>
      </trkpt>
      <trkpt lat="49.50794" lon="5.9127">
        <ele>378.87</ele>
        <time>2018-07-01T07:55:47Z</time>
      </trkpt>
      <trkpt lat="49.50789" lon="5.91232">
        <ele>378.21</ele>
        <time>2018-07-01T07:55:54Z</time>
      </trkpt>
      <trkpt lat="49.50788" lon="5.91223">
        <ele>377.81</ele>
        <time>2018-07-01T07:55:56Z</time>
      </trkpt>
      <trkpt lat="49.50787" lon="5.91218">
        <ele>377.69</ele>
        <time>2018-07-01T07:55:57Z</time>
      </trkpt>
      <trkpt lat="49.50782" lon="5.91202">
        <ele>377.88</ele>
        <time>2018-07-01T07:56:00Z</time>
      </trkpt>
      <trkpt lat="49.50782" lon="5.91195">
        <ele>378.17</ele>
        <time>2018-07-01T07:56:01Z</time>
      </trkpt>
      <trkpt lat="49.50782" lon="5.91188">
        <ele>378.07</ele>
        <time>2018-07-01T07:56:02Z</time>
      </trkpt>
      <trkpt lat="49.50783" lon="5.91182">
        <ele>378.18</ele>
        <time>2018-07-01T07:56:03Z</time>
      </trkpt>
      <trkpt lat="49.50784" lon="5.91177">
        <ele>378.6</ele>
        <time>2018-07-01T07:56:04Z</time>
      </trkpt>
      <trkpt lat="49.50785" lon="5.91172">
        <ele>378.94</ele>
        <time>2018-07-01T07:56:05Z</time>
      </trkpt>
      <trkpt lat="49.50786" lon="5.91168">
        <ele>379.74</ele>
        <time>2018-07-01T07:56:06Z</time>
      </trkpt>
      <trkpt lat="49.50788" lon="5.91144">
        <ele>381.27</ele>
        <time>2018-07-01T07:56:11Z</time>
      </trkpt>
      <trkpt lat="49.50787" lon="5.91139">
        <ele>381.88</ele>
        <time>2018-07-01T07:56:12Z</time>
      </trkpt>
      <trkpt lat="49.50788" lon="5.91134">
        <ele>382.18</ele>
        <time>2018-07-01T07:56:13Z</time>
      </trkpt>
      <trkpt lat="49.50788" lon="5.91129">
        <ele>382.25</ele>
        <time>2018-07-01T07:56:14Z</time>
      </trkpt>
      <trkpt lat="49.50789" lon="5.91124">
        <ele>382.63</ele>
        <time>2018-07-01T07:56:15Z</time>
      </trkpt>
      <trkpt lat="49.50789" lon="5.9112">
        <ele>383.22</ele>
        <time>2018-07-01T07:56:16Z</time>
      </trkpt>
      <trkpt lat="49.5079" lon="5.91116">
        <ele>383.57</ele>
        <time>2018-07-01T07:56:17Z</time>
      </trkpt>
      <trkpt lat="49.50795" lon="5.91092">
        <ele>385.32</ele>
        <time>2018-07-01T07:56:23Z</time>
      </trkpt>
      <trkpt lat="49.50802" lon="5.91073">
        <ele>385.65</ele>
        <time>2018-07-01T07:56:28Z</time>
      </trkpt>
      <trkpt lat="49.50817" lon="5.91043">
        <ele>385.84</ele>
        <time>2018-07-01T07:56:35Z</time>
      </trkpt>
      <trkpt lat="49.50828" lon="5.91024">
        <ele>387.18</ele>
        <time>2018-07-01T07:56:40Z</time>
      </trkpt>
      <trkpt lat="49.50839" lon="5.91013">
        <ele>385.88</ele>
        <time>2018-07-01T07:56:43Z</time>
      </trkpt>
      <trkpt lat="49.50854" lon="5.90978">
        <ele>386.01</ele>
        <time>2018-07-01T07:56:50Z</time>
      </trkpt>
      <trkpt lat="49.50855" lon="5.90971">
        <ele>386.29</ele>
        <time>2018-07-01T07:56:51Z</time>
      </trkpt>
      <trkpt lat="49.50846" lon="5.90939">
        <ele>386.97</ele>
        <time>2018-07-01T07:56:58Z</time>
      </trkpt>
      <trkpt lat="49.50831" lon="5.90923">
        <ele>386.05</ele>
        <time>2018-07-01T07:57:04Z</time>
      </trkpt>
      <trkpt lat="49.50814" lon="5.90914">
        <ele>386.29</ele>
        <time>2018-07-01T07:57:09Z</time>
      </trkpt>
      <trkpt lat="49.50806" lon="5.90907">
        <ele>385.46</ele>
        <time>2018-07-01T07:57:13Z</time>
      </trkpt>
      <trkpt lat="49.50792" lon="5.90893">
        <ele>385.49</ele>
        <time>2018-07-01T07:57:19Z</time>
      </trkpt>
      <trkpt lat="49.50783" lon="5.90879">
        <ele>384.53</ele>
        <time>2018-07-01T07:57:23Z</time>
      </trkpt>
      <trkpt lat="49.50764" lon="5.9086">
        <ele>381.99</ele>
        <time>2018-07-01T07:57:28Z</time>
      </trkpt>
      <trkpt lat="49.50748" lon="5.90871">
        <ele>382.34</ele>
        <time>2018-07-01T07:57:31Z</time>
      </trkpt>
      <trkpt lat="49.50728" lon="5.9089">
        <ele>382.54</ele>
        <time>2018-07-01T07:57:35Z</time>
      </trkpt>
      <trkpt lat="49.50718" lon="5.90903">
        <ele>382.4</ele>
        <time>2018-07-01T07:57:38Z</time>
      </trkpt>
      <trkpt lat="49.50709" lon="5.90902">
        <ele>380.84</ele>
        <time>2018-07-01T07:57:43Z</time>
      </trkpt>
      <trkpt lat="49.50698" lon="5.90904">
        <ele>381.56</ele>
        <time>2018-07-01T07:57:53Z</time>
      </trkpt>
      <trkpt lat="49.50685" lon="5.90912">
        <ele>381.64</ele>
        <time>2018-07-01T07:57:59Z</time>
      </trkpt>
      <trkpt lat="49.50666" lon="5.90919">
        <ele>381.84</ele>
        <time>2018-07-01T07:58:08Z</time>
      </trkpt>
      <trkpt lat="49.50656" lon="5.90925">
        <ele>383.11</ele>
        <time>2018-07-01T07:58:14Z</time>
      </trkpt>
      <trkpt lat="49.50653" lon="5.90926">
        <ele>383.32</ele>
        <time>2018-07-01T07:58:18Z</time>
      </trkpt>
      <trkpt lat="49.5065" lon="5.90929">
        <ele>383.43</ele>
        <time>2018-07-01T07:58:20Z</time>
      </trkpt>
      <trkpt lat="49.50634" lon="5.90935">
        <ele>383.43</ele>
        <time>2018-07-01T07:58:25Z</time>
      </trkpt>
      <trkpt lat="49.5062" lon="5.90961">
        <ele>385.32</ele>
        <time>2018-07-01T07:58:32Z</time>
      </trkpt>
      <trkpt lat="49.50609" lon="5.90978">
        <ele>386.93</ele>
        <time>2018-07-01T07:58:40Z</time>
      </trkpt>
      <trkpt lat="49.50598" lon="5.9099">
        <ele>388.21</ele>
        <time>2018-07-01T07:58:46Z</time>
      </trkpt>
      <trkpt lat="49.50586" lon="5.91009">
        <ele>390.75</ele>
        <time>2018-07-01T07:58:54Z</time>
      </trkpt>
      <trkpt lat="49.50584" lon="5.9101">
        <ele>391.06</ele>
        <time>2018-07-01T07:58:55Z</time>
      </trkpt>
      <trkpt lat="49.50569" lon="5.91028">
        <ele>393.27</ele>
        <time>2018-07-01T07:59:01Z</time>
      </trkpt>
      <trkpt lat="49.50564" lon="5.91028">
        <ele>393.99</ele>
        <time>2018-07-01T07:59:03Z</time>
      </trkpt>
      <trkpt lat="49.50554" lon="5.91019">
        <ele>395.94</ele>
        <time>2018-07-01T07:59:07Z</time>
      </trkpt>
      <trkpt lat="49.50539" lon="5.91004">
        <ele>398.03</ele>
        <time>2018-07-01T07:59:16Z</time>
      </trkpt>
      <trkpt lat="49.5053" lon="5.9099">
        <ele>397.95</ele>
        <time>2018-07-01T07:59:21Z</time>
      </trkpt>
      <trkpt lat="49.50523" lon="5.90974">
        <ele>398.14</ele>
        <time>2018-07-01T07:59:26Z</time>
      </trkpt>
      <trkpt lat="49.50519" lon="5.90969">
        <ele>398.11</ele>
        <time>2018-07-01T07:59:28Z</time>
      </trkpt>
      <trkpt lat="49.50513" lon="5.90971">
        <ele>398.68</ele>
        <time>2018-07-01T07:59:33Z</time>
      </trkpt>
      <trkpt lat="49.50504" lon="5.9098">
        <ele>399.94</ele>
        <time>2018-07-01T07:59:37Z</time>
      </trkpt>
      <trkpt lat="49.50498" lon="5.91">
        <ele>401.58</ele>
        <time>2018-07-01T07:59:44Z</time>
      </trkpt>
      <trkpt lat="49.50498" lon="5.91009">
        <ele>401.49</ele>
        <time>2018-07-01T07:59:47Z</time>
      </trkpt>
      <trkpt lat="49.505" lon="5.91023">
        <ele>402.38</ele>
        <time>2018-07-01T07:59:53Z</time>
      </trkpt>
      <trkpt lat="49.50501" lon="5.91043">
        <ele>403.61</ele>
        <time>2018-07-01T08:00:00Z</time>
      </trkpt>
      <trkpt lat="49.50502" lon="5.91054">
        <ele>404.55</ele>
        <time>2018-07-01T08:00:04Z</time>
      </trkpt>
      <trkpt lat="49.50499" lon="5.91086">
        <ele>402.68</ele>
        <time>2018-07-01T08:00:13Z</time>
      </trkpt>
      <trkpt lat="49.50499" lon="5.9109">
        <ele>402.58</ele>
        <time>2018-07-01T08:00:14Z</time>
      </trkpt>
      <trkpt lat="49.50496" lon="5.91102">
        <ele>402.36</ele>
        <time>2018-07-01T08:00:18Z</time>
      </trkpt>
      <trkpt lat="49.50485" lon="5.91116">
        <ele>402.41</ele>
        <time>2018-07-01T08:00:24Z</time>
      </trkpt>
      <trkpt lat="49.50473" lon="5.91122">
        <ele>403.16</ele>
        <time>2018-07-01T08:00:29Z</time>
      </trkpt>
      <trkpt lat="49.50459" lon="5.9113">
        <ele>403.37</ele>
        <time>2018-07-01T08:00:35Z</time>
      </trkpt>
      <trkpt lat="49.50446" lon="5.91139">
        <ele>402.37</ele>
        <time>2018-07-01T08:00:41Z</time>
      </trkpt>
      <trkpt lat="49.50433" lon="5.9115">
        <ele>401.41</ele>
        <time>2018-07-01T08:00:47Z</time>
      </trkpt>
      <trkpt lat="49.50416" lon="5.91159">
        <ele>400.38</ele>
        <time>2018-07-01T08:00:54Z</time>
      </trkpt>
      <trkpt lat="49.50393" lon="5.91169">
        <ele>397.62</ele>
        <time>2018-07-01T08:01:02Z</time>
      </trkpt>
      <trkpt lat="49.50382" lon="5.9117">
        <ele>396.23</ele>
        <time>2018-07-01T08:01:06Z</time>
      </trkpt>
      <trkpt lat="49.5038" lon="5.91158">
        <ele>394.13</ele>
        <time>2018-07-01T08:01:11Z</time>
      </trkpt>
      <trkpt lat="49.50386" lon="5.91145">
        <ele>392.75</ele>
        <time>2018-07-01T08:01:17Z</time>
      </trkpt>
      <trkpt lat="49.50395" lon="5.91135">
        <ele>392.71</ele>
        <time>2018-07-01T08:01:25Z</time>
      </trkpt>
      <trkpt lat="49.50411" lon="5.91121">
        <ele>393.01</ele>
        <time>2018-07-01T08:01:34Z</time>
      </trkpt>
      <trkpt lat="49.50424" lon="5.91105">
        <ele>393.11</ele>
        <time>2018-07-01T08:01:42Z</time>
      </trkpt>
      <trkpt lat="49.50428" lon="5.91101">
        <ele>393.23</ele>
        <time>2018-07-01T08:01:44Z</time>
      </trkpt>
      <trkpt lat="49.5044" lon="5.91088">
        <ele>393.86</ele>
        <time>2018-07-01T08:01:51Z</time>
      </trkpt>
      <trkpt lat="49.50448" lon="5.91076">
        <ele>394.39</ele>
        <time>2018-07-01T08:01:57Z</time>
      </trkpt>
      <trkpt lat="49.5045" lon="5.9107">
        <ele>394.3</ele>
        <time>2018-07-01T08:02:00Z</time>
      </trkpt>
      <trkpt lat="49.5046" lon="5.91051">
        <ele>393.85</ele>
        <time>2018-07-01T08:02:07Z</time>
      </trkpt>
      <trkpt lat="49.50461" lon="5.91032">
        <ele>393.91</ele>
        <time>2018-07-01T08:02:13Z</time>
      </trkpt>
      <trkpt lat="49.50461" lon="5.91024">
        <ele>393.54</ele>
        <time>2018-07-01T08:02:16Z</time>
      </trkpt>
      <trkpt lat="49.50459" lon="5.91012">
        <ele>393.74</ele>
        <time>2018-07-01T08:02:20Z</time>
      </trkpt>
      <trkpt lat="49.50451" lon="5.90998">
        <ele>391.72</ele>
        <time>2018-07-01T08:02:27Z</time>
      </trkpt>
      <trkpt lat="49.50441" lon="5.90982">
        <ele>388.37</ele>
        <time>2018-07-01T08:02:33Z</time>
      </trkpt>
      <trkpt lat="49.50431" lon="5.90964">
        <ele>385.72</ele>
        <time>2018-07-01T08:02:39Z</time>
      </trkpt>
      <trkpt lat="49.50428" lon="5.90958">
        <ele>385.07</ele>
        <time>2018-07-01T08:02:42Z</time>
      </trkpt>
      <trkpt lat="49.50426" lon="5.90954">
        <ele>384.76</ele>
        <time>2018-07-01T08:02:44Z</time>
      </trkpt>
      <trkpt lat="49.5042" lon="5.90945">
        <ele>383.21</ele>
        <time>2018-07-01T08:02:48Z</time>
      </trkpt>
      <trkpt lat="49.50412" lon="5.90936">
        <ele>380.19</ele>
        <time>2018-07-01T08:02:54Z</time>
      </trkpt>
      <trkpt lat="49.50406" lon="5.90929">
        <ele>379.46</ele>
        <time>2018-07-01T08:02:58Z</time>
      </trkpt>
      <trkpt lat="49.504" lon="5.90921">
        <ele>378.01</ele>
        <time>2018-07-01T08:03:02Z</time>
      </trkpt>
      <trkpt lat="49.50391" lon="5.90913">
        <ele>376.83</ele>
        <time>2018-07-01T08:03:06Z</time>
      </trkpt>
      <trkpt lat="49.50382" lon="5.90897">
        <ele>375.74</ele>
        <time>2018-07-01T08:03:16Z</time>
      </trkpt>
      <trkpt lat="49.50381" lon="5.90895">
        <ele>375.58</ele>
        <time>2018-07-01T08:03:17Z</time>
      </trkpt>
      <trkpt lat="49.50377" lon="5.90876">
        <ele>374.73</ele>
        <time>2018-07-01T08:03:26Z</time>
      </trkpt>
      <trkpt lat="49.50372" lon="5.90868">
        <ele>374.58</ele>
        <time>2018-07-01T08:03:31Z</time>
      </trkpt>
      <trkpt lat="49.50363" lon="5.90849">
        <ele>372.09</ele>
        <time>2018-07-01T08:03:36Z</time>
      </trkpt>
      <trkpt lat="49.50361" lon="5.90839">
        <ele>371.03</ele>
        <time>2018-07-01T08:03:38Z</time>
      </trkpt>
      <trkpt lat="49.50355" lon="5.90815">
        <ele>369.68</ele>
        <time>2018-07-01T08:03:45Z</time>
      </trkpt>
      <trkpt lat="49.50343" lon="5.90797">
        <ele>368.66</ele>
        <time>2018-07-01T08:03:53Z</time>
      </trkpt>
      <trkpt lat="49.50333" lon="5.90788">
        <ele>365.67</ele>
        <time>2018-07-01T08:03:58Z</time>
      </trkpt>
      <trkpt lat="49.50321" lon="5.9077">
        <ele>363.77</ele>
        <time>2018-07-01T08:04:03Z</time>
      </trkpt>
      <trkpt lat="49.50321" lon="5.90765">
        <ele>363.67</ele>
        <time>2018-07-01T08:04:04Z</time>
      </trkpt>
      <trkpt lat="49.50321" lon="5.90756">
        <ele>363.69</ele>
        <time>2018-07-01T08:04:08Z</time>
      </trkpt>
      <trkpt lat="49.50339" lon="5.90742">
        <ele>362.2</ele>
        <time>2018-07-01T08:04:16Z</time>
      </trkpt>
      <trkpt lat="49.50349" lon="5.90734">
        <ele>361.2</ele>
        <time>2018-07-01T08:04:18Z</time>
      </trkpt>
      <trkpt lat="49.5035" lon="5.90707">
        <ele>364.73</ele>
        <time>2018-07-01T08:04:22Z</time>
      </trkpt>
      <trkpt lat="49.50348" lon="5.90691">
        <ele>367.34</ele>
        <time>2018-07-01T08:04:26Z</time>
      </trkpt>
      <trkpt lat="49.5035" lon="5.90688">
        <ele>367.61</ele>
        <time>2018-07-01T08:04:27Z</time>
      </trkpt>
      <trkpt lat="49.50355" lon="5.90682">
        <ele>368.25</ele>
        <time>2018-07-01T08:04:29Z</time>
      </trkpt>
      <trkpt lat="49.50361" lon="5.90667">
        <ele>369.67</ele>
        <time>2018-07-01T08:04:33Z</time>
      </trkpt>
      <trkpt lat="49.50367" lon="5.90659">
        <ele>372.05</ele>
        <time>2018-07-01T08:04:38Z</time>
      </trkpt>
      <trkpt lat="49.50372" lon="5.90634">
        <ele>375.3</ele>
        <time>2018-07-01T08:04:45Z</time>
      </trkpt>
      <trkpt lat="49.50367" lon="5.90616">
        <ele>376.37</ele>
        <time>2018-07-01T08:04:49Z</time>
      </trkpt>
      <trkpt lat="49.50366" lon="5.90609">
        <ele>377.01</ele>
        <time>2018-07-01T08:04:51Z</time>
      </trkpt>
      <trkpt lat="49.50365" lon="5.90583">
        <ele>379.31</ele>
        <time>2018-07-01T08:04:58Z</time>
      </trkpt>
      <trkpt lat="49.50366" lon="5.90558">
        <ele>381.41</ele>
        <time>2018-07-01T08:05:03Z</time>
      </trkpt>
      <trkpt lat="49.5037" lon="5.90531">
        <ele>386.13</ele>
        <time>2018-07-01T08:05:10Z</time>
      </trkpt>
      <trkpt lat="49.50376" lon="5.90506">
        <ele>387.68</ele>
        <time>2018-07-01T08:05:15Z</time>
      </trkpt>
      <trkpt lat="49.50379" lon="5.90483">
        <ele>388.66</ele>
        <time>2018-07-01T08:05:20Z</time>
      </trkpt>
      <trkpt lat="49.50382" lon="5.90463">
        <ele>389.79</ele>
        <time>2018-07-01T08:05:25Z</time>
      </trkpt>
      <trkpt lat="49.50382" lon="5.90455">
        <ele>390.35</ele>
        <time>2018-07-01T08:05:27Z</time>
      </trkpt>
      <trkpt lat="49.50378" lon="5.90445">
        <ele>390.93</ele>
        <time>2018-07-01T08:05:30Z</time>
      </trkpt>
      <trkpt lat="49.50373" lon="5.90417">
        <ele>391.29</ele>
        <time>2018-07-01T08:05:37Z</time>
      </trkpt>
      <trkpt lat="49.50366" lon="5.9039">
        <ele>390.67</ele>
        <time>2018-07-01T08:05:43Z</time>
      </trkpt>
      <trkpt lat="49.50358" lon="5.90353">
        <ele>389.7</ele>
        <time>2018-07-01T08:05:49Z</time>
      </trkpt>
      <trkpt lat="49.5035" lon="5.90335">
        <ele>387.67</ele>
        <time>2018-07-01T08:05:54Z</time>
      </trkpt>
      <trkpt lat="49.50337" lon="5.90314">
        <ele>383.61</ele>
        <time>2018-07-01T08:06:01Z</time>
      </trkpt>
      <trkpt lat="49.50336" lon="5.90312">
        <ele>383.04</ele>
        <time>2018-07-01T08:06:02Z</time>
      </trkpt>
      <trkpt lat="49.50322" lon="5.90301">
        <ele>382.41</ele>
        <time>2018-07-01T08:06:07Z</time>
      </trkpt>
      <trkpt lat="49.50315" lon="5.90287">
        <ele>380.52</ele>
        <time>2018-07-01T08:06:10Z</time>
      </trkpt>
      <trkpt lat="49.50303" lon="5.9026">
        <ele>380.25</ele>
        <time>2018-07-01T08:06:14Z</time>
      </trkpt>
      <trkpt lat="49.50294" lon="5.90242">
        <ele>381.14</ele>
        <time>2018-07-01T08:06:17Z</time>
      </trkpt>
      <trkpt lat="49.50292" lon="5.90234">
        <ele>382.67</ele>
        <time>2018-07-01T08:06:19Z</time>
      </trkpt>
      <trkpt lat="49.50279" lon="5.90212">
        <ele>383.02</ele>
        <time>2018-07-01T08:06:25Z</time>
      </trkpt>
      <trkpt lat="49.50278" lon="5.90209">
        <ele>383.29</ele>
        <time>2018-07-01T08:06:26Z</time>
      </trkpt>
      <trkpt lat="49.50278" lon="5.90203">
        <ele>382.9</ele>
        <time>2018-07-01T08:06:28Z</time>
      </trkpt>
      <trkpt lat="49.50281" lon="5.90185">
        <ele>381.53</ele>
        <time>2018-07-01T08:06:34Z</time>
      </trkpt>
      <trkpt lat="49.50281" lon="5.90172">
        <ele>380.85</ele>
        <time>2018-07-01T08:06:37Z</time>
      </trkpt>
      <trkpt lat="49.50277" lon="5.90149">
        <ele>378.73</ele>
        <time>2018-07-01T08:06:41Z</time>
      </trkpt>
      <trkpt lat="49.50282" lon="5.9012">
        <ele>374.27</ele>
        <time>2018-07-01T08:06:46Z</time>
      </trkpt>
      <trkpt lat="49.50287" lon="5.90099">
        <ele>371.6</ele>
        <time>2018-07-01T08:06:50Z</time>
      </trkpt>
      <trkpt lat="49.50287" lon="5.90076">
        <ele>368.78</ele>
        <time>2018-07-01T08:06:54Z</time>
      </trkpt>
      <trkpt lat="49.50282" lon="5.90048">
        <ele>367.98</ele>
        <time>2018-07-01T08:06:58Z</time>
      </trkpt>
      <trkpt lat="49.50277" lon="5.90031">
        <ele>367.19</ele>
        <time>2018-07-01T08:07:03Z</time>
      </trkpt>
      <trkpt lat="49.50276" lon="5.90005">
        <ele>367.25</ele>
        <time>2018-07-01T08:07:08Z</time>
      </trkpt>
      <trkpt lat="49.50271" lon="5.89984">
        <ele>367.24</ele>
        <time>2018-07-01T08:07:11Z</time>
      </trkpt>
      <trkpt lat="49.50257" lon="5.89946">
        <ele>365.16</ele>
        <time>2018-07-01T08:07:17Z</time>
      </trkpt>
      <trkpt lat="49.50243" lon="5.89919">
        <ele>361.82</ele>
        <time>2018-07-01T08:07:23Z</time>
      </trkpt>
      <trkpt lat="49.50228" lon="5.89896">
        <ele>359.49</ele>
        <time>2018-07-01T08:07:28Z</time>
      </trkpt>
      <trkpt lat="49.50209" lon="5.89858">
        <ele>356.18</ele>
        <time>2018-07-01T08:07:33Z</time>
      </trkpt>
      <trkpt lat="49.50201" lon="5.89838">
        <ele>355.33</ele>
        <time>2018-07-01T08:07:35Z</time>
      </trkpt>
      <trkpt lat="49.50192" lon="5.89811">
        <ele>353.38</ele>
        <time>2018-07-01T08:07:38Z</time>
      </trkpt>
      <trkpt lat="49.50176" lon="5.89783">
        <ele>352.06</ele>
        <time>2018-07-01T08:07:43Z</time>
      </trkpt>
      <trkpt lat="49.50167" lon="5.89756">
        <ele>351.33</ele>
        <time>2018-07-01T08:07:49Z</time>
      </trkpt>
      <trkpt lat="49.50164" lon="5.89748">
        <ele>352.18</ele>
        <time>2018-07-01T08:07:51Z</time>
      </trkpt>
      <trkpt lat="49.50164" lon="5.89744">
        <ele>352.53</ele>
        <time>2018-07-01T08:07:52Z</time>
      </trkpt>
      <trkpt lat="49.50165" lon="5.8974">
        <ele>353.04</ele>
        <time>2018-07-01T08:07:53Z</time>
      </trkpt>
      <trkpt lat="49.50172" lon="5.8971">
        <ele>356.85</ele>
        <time>2018-07-01T08:08:02Z</time>
      </trkpt>
      <trkpt lat="49.50179" lon="5.89682">
        <ele>358.15</ele>
        <time>2018-07-01T08:08:11Z</time>
      </trkpt>
      <trkpt lat="49.50188" lon="5.89656">
        <ele>360.52</ele>
        <time>2018-07-01T08:08:19Z</time>
      </trkpt>
      <trkpt lat="49.50202" lon="5.89627">
        <ele>363.1</ele>
        <time>2018-07-01T08:08:28Z</time>
      </trkpt>
      <trkpt lat="49.50213" lon="5.89605">
        <ele>363.98</ele>
        <time>2018-07-01T08:08:35Z</time>
      </trkpt>
      <trkpt lat="49.50228" lon="5.89572">
        <ele>364.15</ele>
        <time>2018-07-01T08:08:43Z</time>
      </trkpt>
      <trkpt lat="49.50244" lon="5.89535">
        <ele>365.32</ele>
        <time>2018-07-01T08:08:52Z</time>
      </trkpt>
      <trkpt lat="49.50264" lon="5.89501">
        <ele>365.71</ele>
        <time>2018-07-01T08:09:01Z</time>
      </trkpt>
      <trkpt lat="49.50289" lon="5.89459">
        <ele>366.15</ele>
        <time>2018-07-01T08:09:12Z</time>
      </trkpt>
      <trkpt lat="49.50303" lon="5.89435">
        <ele>365.49</ele>
        <time>2018-07-01T08:09:18Z</time>
      </trkpt>
      <trkpt lat="49.50327" lon="5.89397">
        <ele>366.14</ele>
        <time>2018-07-01T08:09:27Z</time>
      </trkpt>
      <trkpt lat="49.5035" lon="5.89359">
        <ele>365.74</ele>
        <time>2018-07-01T08:09:36Z</time>
      </trkpt>
      <trkpt lat="49.5037" lon="5.89326">
        <ele>365.36</ele>
        <time>2018-07-01T08:09:44Z</time>
      </trkpt>
      <trkpt lat="49.50388" lon="5.89295">
        <ele>365.21</ele>
        <time>2018-07-01T08:09:51Z</time>
      </trkpt>
      <trkpt lat="49.50399" lon="5.89276">
        <ele>364.64</ele>
        <time>2018-07-01T08:09:55Z</time>
      </trkpt>
      <trkpt lat="49.50423" lon="5.89234">
        <ele>364.49</ele>
        <time>2018-07-01T08:10:04Z</time>
      </trkpt>
      <trkpt lat="49.50449" lon="5.89194">
        <ele>363.9</ele>
        <time>2018-07-01T08:10:13Z</time>
      </trkpt>
      <trkpt lat="49.50452" lon="5.8919">
        <ele>363.9</ele>
        <time>2018-07-01T08:10:14Z</time>
      </trkpt>
      <trkpt lat="49.50477" lon="5.89148">
        <ele>363.38</ele>
        <time>2018-07-01T08:10:23Z</time>
      </trkpt>
      <trkpt lat="49.50495" lon="5.8912">
        <ele>362.87</ele>
        <time>2018-07-01T08:10:30Z</time>
      </trkpt>
      <trkpt lat="49.50499" lon="5.8912">
        <ele>363.08</ele>
        <time>2018-07-01T08:10:31Z</time>
      </trkpt>
      <trkpt lat="49.50502" lon="5.89121">
        <ele>363.02</ele>
        <time>2018-07-01T08:10:32Z</time>
      </trkpt>
      <trkpt lat="49.50505" lon="5.89122">
        <ele>363.43</ele>
        <time>2018-07-01T08:10:33Z</time>
      </trkpt>
      <trkpt lat="49.50507" lon="5.89124">
        <ele>363.62</ele>
        <time>2018-07-01T08:10:34Z</time>
      </trkpt>
      <trkpt lat="49.50509" lon="5.89125">
        <ele>363.79</ele>
        <time>2018-07-01T08:10:35Z</time>
      </trkpt>
      <trkpt lat="49.50512" lon="5.89126">
        <ele>363.99</ele>
        <time>2018-07-01T08:10:36Z</time>
      </trkpt>
      <trkpt lat="49.50514" lon="5.89127">
        <ele>363.9</ele>
        <time>2018-07-01T08:10:37Z</time>
      </trkpt>
      <trkpt lat="49.50517" lon="5.89127">
        <ele>364.06</ele>
        <time>2018-07-01T08:10:38Z</time>
      </trkpt>
      <trkpt lat="49.5052" lon="5.89126">
        <ele>364.29</ele>
        <time>2018-07-01T08:10:39Z</time>
      </trkpt>
      <trkpt lat="49.50523" lon="5.89125">
        <ele>364.16</ele>
        <time>2018-07-01T08:10:40Z</time>
      </trkpt>
      <trkpt lat="49.50527" lon="5.89124">
        <ele>364.28</ele>
        <time>2018-07-01T08:10:41Z</time>
      </trkpt>
      <trkpt lat="49.50536" lon="5.89114">
        <ele>366.19</ele>
        <time>2018-07-01T08:10:46Z</time>
      </trkpt>
      <trkpt lat="49.50538" lon="5.89112">
        <ele>366.74</ele>
        <time>2018-07-01T08:10:47Z</time>
      </trkpt>
      <trkpt lat="49.5054" lon="5.89111">
        <ele>366.95</ele>
        <time>2018-07-01T08:10:48Z</time>
      </trkpt>
      <trkpt lat="49.50543" lon="5.89109">
        <ele>366.56</ele>
        <time>2018-07-01T08:10:49Z</time>
      </trkpt>
      <trkpt lat="49.50545" lon="5.89106">
        <ele>366</ele>
        <time>2018-07-01T08:10:50Z</time>
      </trkpt>
      <trkpt lat="49.50547" lon="5.89102">
        <ele>365.65</ele>
        <time>2018-07-01T08:10:51Z</time>
      </trkpt>
      <trkpt lat="49.50548" lon="5.89098">
        <ele>365.15</ele>
        <time>2018-07-01T08:10:52Z</time>
      </trkpt>
      <trkpt lat="49.5056" lon="5.89069">
        <ele>364.79</ele>
        <time>2018-07-01T08:10:59Z</time>
      </trkpt>
      <trkpt lat="49.50571" lon="5.8905">
        <ele>363.71</ele>
        <time>2018-07-01T08:11:05Z</time>
      </trkpt>
      <trkpt lat="49.50579" lon="5.89035">
        <ele>362.84</ele>
        <time>2018-07-01T08:11:09Z</time>
      </trkpt>
      <trkpt lat="49.50595" lon="5.89015">
        <ele>362.09</ele>
        <time>2018-07-01T08:11:16Z</time>
      </trkpt>
      <trkpt lat="49.50601" lon="5.89008">
        <ele>362.21</ele>
        <time>2018-07-01T08:11:19Z</time>
      </trkpt>
      <trkpt lat="49.50621" lon="5.88992">
        <ele>361.82</ele>
        <time>2018-07-01T08:11:26Z</time>
      </trkpt>
      <trkpt lat="49.50633" lon="5.88976">
        <ele>359.33</ele>
        <time>2018-07-01T08:11:31Z</time>
      </trkpt>
      <trkpt lat="49.50647" lon="5.88951">
        <ele>358.22</ele>
        <time>2018-07-01T08:11:38Z</time>
      </trkpt>
      <trkpt lat="49.50653" lon="5.88923">
        <ele>356.56</ele>
        <time>2018-07-01T08:11:43Z</time>
      </trkpt>
      <trkpt lat="49.50655" lon="5.88898">
        <ele>356.98</ele>
        <time>2018-07-01T08:11:47Z</time>
      </trkpt>
      <trkpt lat="49.50655" lon="5.88872">
        <ele>355.42</ele>
        <time>2018-07-01T08:11:53Z</time>
      </trkpt>
      <trkpt lat="49.50652" lon="5.88855">
        <ele>353.22</ele>
        <time>2018-07-01T08:11:56Z</time>
      </trkpt>
      <trkpt lat="49.50645" lon="5.88807">
        <ele>352.92</ele>
        <time>2018-07-01T08:12:04Z</time>
      </trkpt>
      <trkpt lat="49.50639" lon="5.88785">
        <ele>350.21</ele>
        <time>2018-07-01T08:12:08Z</time>
      </trkpt>
      <trkpt lat="49.50641" lon="5.88747">
        <ele>348.23</ele>
        <time>2018-07-01T08:12:13Z</time>
      </trkpt>
      <trkpt lat="49.50645" lon="5.8874">
        <ele>347.99</ele>
        <time>2018-07-01T08:12:14Z</time>
      </trkpt>
      <trkpt lat="49.5066" lon="5.88719">
        <ele>347.32</ele>
        <time>2018-07-01T08:12:17Z</time>
      </trkpt>
      <trkpt lat="49.50678" lon="5.88702">
        <ele>347.4</ele>
        <time>2018-07-01T08:12:22Z</time>
      </trkpt>
      <trkpt lat="49.50698" lon="5.88683">
        <ele>348.43</ele>
        <time>2018-07-01T08:12:30Z</time>
      </trkpt>
      <trkpt lat="49.50711" lon="5.88656">
        <ele>348.26</ele>
        <time>2018-07-01T08:12:36Z</time>
      </trkpt>
      <trkpt lat="49.50732" lon="5.88639">
        <ele>348.56</ele>
        <time>2018-07-01T08:12:42Z</time>
      </trkpt>
      <trkpt lat="49.50752" lon="5.88624">
        <ele>350.25</ele>
        <time>2018-07-01T08:12:48Z</time>
      </trkpt>
      <trkpt lat="49.50772" lon="5.8861">
        <ele>350.81</ele>
        <time>2018-07-01T08:12:54Z</time>
      </trkpt>
      <trkpt lat="49.50777" lon="5.88607">
        <ele>350.92</ele>
        <time>2018-07-01T08:12:56Z</time>
      </trkpt>
      <trkpt lat="49.50814" lon="5.88595">
        <ele>354.64</ele>
        <time>2018-07-01T08:13:03Z</time>
      </trkpt>
      <trkpt lat="49.50838" lon="5.88596">
        <ele>357.88</ele>
        <time>2018-07-01T08:13:09Z</time>
      </trkpt>
      <trkpt lat="49.50856" lon="5.88596">
        <ele>359.06</ele>
        <time>2018-07-01T08:13:15Z</time>
      </trkpt>
      <trkpt lat="49.50877" lon="5.88598">
        <ele>361.93</ele>
        <time>2018-07-01T08:13:21Z</time>
      </trkpt>
      <trkpt lat="49.50899" lon="5.88602">
        <ele>362.64</ele>
        <time>2018-07-01T08:13:27Z</time>
      </trkpt>
      <trkpt lat="49.50923" lon="5.8861">
        <ele>361.27</ele>
        <time>2018-07-01T08:13:32Z</time>
      </trkpt>
      <trkpt lat="49.5094" lon="5.88614">
        <ele>360.74</ele>
        <time>2018-07-01T08:13:37Z</time>
      </trkpt>
      <trkpt lat="49.50964" lon="5.88619">
        <ele>366.06</ele>
        <time>2018-07-01T08:13:46Z</time>
      </trkpt>
      <trkpt lat="49.50976" lon="5.88623">
        <ele>369.3</ele>
        <time>2018-07-01T08:13:51Z</time>
      </trkpt>
      <trkpt lat="49.50987" lon="5.88623">
        <ele>373.26</ele>
        <time>2018-07-01T08:13:55Z</time>
      </trkpt>
      <trkpt lat="49.50989" lon="5.88622">
        <ele>374</ele>
        <time>2018-07-01T08:13:56Z</time>
      </trkpt>
      <trkpt lat="49.50993" lon="5.88621">
        <ele>375.1</ele>
        <time>2018-07-01T08:13:57Z</time>
      </trkpt>
      <trkpt lat="49.50996" lon="5.8862">
        <ele>375.83</ele>
        <time>2018-07-01T08:13:58Z</time>
      </trkpt>
      <trkpt lat="49.50999" lon="5.88619">
        <ele>375.93</ele>
        <time>2018-07-01T08:13:59Z</time>
      </trkpt>
      <trkpt lat="49.51007" lon="5.88618">
        <ele>377.11</ele>
        <time>2018-07-01T08:14:00Z</time>
      </trkpt>
      <trkpt lat="49.51012" lon="5.88616">
        <ele>378.07</ele>
        <time>2018-07-01T08:14:01Z</time>
      </trkpt>
      <trkpt lat="49.51017" lon="5.88615">
        <ele>378.36</ele>
        <time>2018-07-01T08:14:02Z</time>
      </trkpt>
      <trkpt lat="49.51022" lon="5.88615">
        <ele>379.82</ele>
        <time>2018-07-01T08:14:03Z</time>
      </trkpt>
      <trkpt lat="49.51025" lon="5.88614">
        <ele>380.87</ele>
        <time>2018-07-01T08:14:04Z</time>
      </trkpt>
      <trkpt lat="49.51043" lon="5.88611">
        <ele>385.73</ele>
        <time>2018-07-01T08:14:11Z</time>
      </trkpt>
      <trkpt lat="49.51047" lon="5.88611">
        <ele>385.74</ele>
        <time>2018-07-01T08:14:12Z</time>
      </trkpt>
      <trkpt lat="49.51072" lon="5.88606">
        <ele>386.02</ele>
        <time>2018-07-01T08:14:17Z</time>
      </trkpt>
      <trkpt lat="49.51092" lon="5.88599">
        <ele>388.94</ele>
        <time>2018-07-01T08:14:22Z</time>
      </trkpt>
      <trkpt lat="49.51116" lon="5.8859">
        <ele>385.91</ele>
        <time>2018-07-01T08:14:28Z</time>
      </trkpt>
      <trkpt lat="49.51144" lon="5.88575">
        <ele>388.12</ele>
        <time>2018-07-01T08:14:34Z</time>
      </trkpt>
      <trkpt lat="49.51163" lon="5.88564">
        <ele>387.51</ele>
        <time>2018-07-01T08:14:40Z</time>
      </trkpt>
      <trkpt lat="49.51182" lon="5.88559">
        <ele>386.6</ele>
        <time>2018-07-01T08:14:46Z</time>
      </trkpt>
      <trkpt lat="49.51193" lon="5.8856">
        <ele>387.09</ele>
        <time>2018-07-01T08:14:49Z</time>
      </trkpt>
      <trkpt lat="49.51209" lon="5.88557">
        <ele>385.56</ele>
        <time>2018-07-01T08:14:53Z</time>
      </trkpt>
      <trkpt lat="49.51232" lon="5.88545">
        <ele>387.7</ele>
        <time>2018-07-01T08:15:00Z</time>
      </trkpt>
      <trkpt lat="49.51257" lon="5.88537">
        <ele>386.69</ele>
        <time>2018-07-01T08:15:07Z</time>
      </trkpt>
      <trkpt lat="49.51281" lon="5.88524">
        <ele>386.81</ele>
        <time>2018-07-01T08:15:15Z</time>
      </trkpt>
      <trkpt lat="49.51305" lon="5.88506">
        <ele>388.94</ele>
        <time>2018-07-01T08:15:22Z</time>
      </trkpt>
      <trkpt lat="49.51326" lon="5.8849">
        <ele>390.45</ele>
        <time>2018-07-01T08:15:29Z</time>
      </trkpt>
      <trkpt lat="49.51354" lon="5.88474">
        <ele>392.62</ele>
        <time>2018-07-01T08:15:36Z</time>
      </trkpt>
      <trkpt lat="49.51374" lon="5.88466">
        <ele>393.3</ele>
        <time>2018-07-01T08:15:42Z</time>
      </trkpt>
      <trkpt lat="49.51396" lon="5.88457">
        <ele>389.53</ele>
        <time>2018-07-01T08:15:48Z</time>
      </trkpt>
      <trkpt lat="49.51416" lon="5.88448">
        <ele>388.99</ele>
        <time>2018-07-01T08:15:54Z</time>
      </trkpt>
      <trkpt lat="49.51442" lon="5.88446">
        <ele>387.11</ele>
        <time>2018-07-01T08:16:01Z</time>
      </trkpt>
      <trkpt lat="49.51467" lon="5.88446">
        <ele>383.94</ele>
        <time>2018-07-01T08:16:06Z</time>
      </trkpt>
      <trkpt lat="49.51494" lon="5.88443">
        <ele>383.68</ele>
        <time>2018-07-01T08:16:12Z</time>
      </trkpt>
      <trkpt lat="49.51514" lon="5.88438">
        <ele>384.49</ele>
        <time>2018-07-01T08:16:18Z</time>
      </trkpt>
      <trkpt lat="49.51517" lon="5.88437">
        <ele>384.83</ele>
        <time>2018-07-01T08:16:19Z</time>
      </trkpt>
      <trkpt lat="49.51518" lon="5.88423">
        <ele>384.22</ele>
        <time>2018-07-01T08:16:24Z</time>
      </trkpt>
      <trkpt lat="49.51517" lon="5.88423">
        <ele>383.85</ele>
        <time>2018-07-01T08:16:25Z</time>
      </trkpt>
      <trkpt lat="49.51513" lon="5.88419">
        <ele>381.97</ele>
        <time>2018-07-01T08:16:34Z</time>
      </trkpt>
      <trkpt lat="49.5151" lon="5.88419">
        <ele>382.82</ele>
        <time>2018-07-01T08:16:36Z</time>
      </trkpt>
      <trkpt lat="49.51506" lon="5.88417">
        <ele>382.74</ele>
        <time>2018-07-01T08:16:41Z</time>
      </trkpt>
      <trkpt lat="49.51492" lon="5.88415">
        <ele>381.14</ele>
        <time>2018-07-01T08:16:51Z</time>
      </trkpt>
      <trkpt lat="49.51478" lon="5.88412">
        <ele>380.04</ele>
        <time>2018-07-01T08:17:00Z</time>
      </trkpt>
      <trkpt lat="49.51458" lon="5.88409">
        <ele>381.35</ele>
        <time>2018-07-01T08:17:11Z</time>
      </trkpt>
      <trkpt lat="49.51453" lon="5.88407">
        <ele>381.21</ele>
        <time>2018-07-01T08:17:13Z</time>
      </trkpt>
      <trkpt lat="49.51441" lon="5.88406">
        <ele>381.71</ele>
        <time>2018-07-01T08:17:23Z</time>
      </trkpt>
      <trkpt lat="49.51436" lon="5.88407">
        <ele>381.56</ele>
        <time>2018-07-01T08:17:27Z</time>
      </trkpt>
      <trkpt lat="49.51428" lon="5.88408">
        <ele>381.74</ele>
        <time>2018-07-01T08:17:32Z</time>
      </trkpt>
      <trkpt lat="49.51413" lon="5.88411">
        <ele>381.76</ele>
        <time>2018-07-01T08:17:40Z</time>
      </trkpt>
      <trkpt lat="49.51397" lon="5.88413">
        <ele>381.17</ele>
        <time>2018-07-01T08:17:48Z</time>
      </trkpt>
      <trkpt lat="49.51385" lon="5.88413">
        <ele>380.44</ele>
        <time>2018-07-01T08:17:55Z</time>
      </trkpt>
      <trkpt lat="49.51373" lon="5.88409">
        <ele>379.57</ele>
        <time>2018-07-01T08:18:02Z</time>
      </trkpt>
      <trkpt lat="49.51371" lon="5.88403">
        <ele>379.43</ele>
        <time>2018-07-01T08:18:05Z</time>
      </trkpt>
      <trkpt lat="49.5137" lon="5.88378">
        <ele>377.4</ele>
        <time>2018-07-01T08:18:15Z</time>
      </trkpt>
      <trkpt lat="49.51364" lon="5.88349">
        <ele>375.77</ele>
        <time>2018-07-01T08:18:21Z</time>
      </trkpt>
      <trkpt lat="49.51362" lon="5.88336">
        <ele>375.35</ele>
        <time>2018-07-01T08:18:23Z</time>
      </trkpt>
      <trkpt lat="49.51361" lon="5.88323">
        <ele>375.11</ele>
        <time>2018-07-01T08:18:25Z</time>
      </trkpt>
      <trkpt lat="49.51366" lon="5.88294">
        <ele>373.29</ele>
        <time>2018-07-01T08:18:30Z</time>
      </trkpt>
      <trkpt lat="49.51376" lon="5.8827">
        <ele>371.1</ele>
        <time>2018-07-01T08:18:35Z</time>
      </trkpt>
      <trkpt lat="49.51378" lon="5.88241">
        <ele>369.62</ele>
        <time>2018-07-01T08:18:40Z</time>
      </trkpt>
      <trkpt lat="49.5139" lon="5.88214">
        <ele>368.61</ele>
        <time>2018-07-01T08:18:45Z</time>
      </trkpt>
      <trkpt lat="49.51398" lon="5.88206">
        <ele>368.12</ele>
        <time>2018-07-01T08:18:47Z</time>
      </trkpt>
      <trkpt lat="49.51412" lon="5.88195">
        <ele>367.57</ele>
        <time>2018-07-01T08:18:50Z</time>
      </trkpt>
      <trkpt lat="49.51437" lon="5.88168">
        <ele>365.9</ele>
        <time>2018-07-01T08:18:55Z</time>
      </trkpt>
      <trkpt lat="49.51446" lon="5.88141">
        <ele>364.49</ele>
        <time>2018-07-01T08:18:58Z</time>
      </trkpt>
      <trkpt lat="49.51453" lon="5.8809">
        <ele>362.89</ele>
        <time>2018-07-01T08:19:03Z</time>
      </trkpt>
      <trkpt lat="49.51452" lon="5.88071">
        <ele>362.24</ele>
        <time>2018-07-01T08:19:05Z</time>
      </trkpt>
      <trkpt lat="49.51457" lon="5.88042">
        <ele>360.35</ele>
        <time>2018-07-01T08:19:09Z</time>
      </trkpt>
      <trkpt lat="49.5146" lon="5.88034">
        <ele>359.62</ele>
        <time>2018-07-01T08:19:10Z</time>
      </trkpt>
      <trkpt lat="49.51461" lon="5.88026">
        <ele>359.1</ele>
        <time>2018-07-01T08:19:11Z</time>
      </trkpt>
      <trkpt lat="49.51461" lon="5.88017">
        <ele>358.69</ele>
        <time>2018-07-01T08:19:12Z</time>
      </trkpt>
      <trkpt lat="49.51462" lon="5.8801">
        <ele>358.39</ele>
        <time>2018-07-01T08:19:13Z</time>
      </trkpt>
      <trkpt lat="49.51463" lon="5.88004">
        <ele>358.35</ele>
        <time>2018-07-01T08:19:14Z</time>
      </trkpt>
      <trkpt lat="49.51465" lon="5.87999">
        <ele>358.08</ele>
        <time>2018-07-01T08:19:15Z</time>
      </trkpt>
      <trkpt lat="49.51467" lon="5.87995">
        <ele>358</ele>
        <time>2018-07-01T08:19:16Z</time>
      </trkpt>
      <trkpt lat="49.51469" lon="5.87994">
        <ele>358.18</ele>
        <time>2018-07-01T08:19:17Z</time>
      </trkpt>
      <trkpt lat="49.51471" lon="5.87992">
        <ele>358.11</ele>
        <time>2018-07-01T08:19:18Z</time>
      </trkpt>
      <trkpt lat="49.51485" lon="5.87983">
        <ele>357.16</ele>
        <time>2018-07-01T08:19:26Z</time>
      </trkpt>
      <trkpt lat="49.5149" lon="5.87978">
        <ele>357.03</ele>
        <time>2018-07-01T08:19:34Z</time>
      </trkpt>
      <trkpt lat="49.51491" lon="5.87978">
        <ele>356.75</ele>
        <time>2018-07-01T08:19:35Z</time>
      </trkpt>
      <trkpt lat="49.51492" lon="5.87983">
        <ele>358.24</ele>
        <time>2018-07-01T08:20:00Z</time>
      </trkpt>
      <trkpt lat="49.51492" lon="5.87977">
        <ele>358.38</ele>
        <time>2018-07-01T08:20:07Z</time>
      </trkpt>
      <trkpt lat="49.5149" lon="5.8798">
        <ele>357.82</ele>
        <time>2018-07-01T08:20:17Z</time>
      </trkpt>
      <trkpt lat="49.51491" lon="5.87979">
        <ele>358.15</ele>
        <time>2018-07-01T08:20:21Z</time>
      </trkpt>
      <trkpt lat="49.51494" lon="5.87971">
        <ele>355.85</ele>
        <time>2018-07-01T08:20:52Z</time>
      </trkpt>
      <trkpt lat="49.51496" lon="5.87949">
        <ele>354.65</ele>
        <time>2018-07-01T08:20:58Z</time>
      </trkpt>
      <trkpt lat="49.51501" lon="5.87911">
        <ele>351.81</ele>
        <time>2018-07-01T08:21:03Z</time>
      </trkpt>
      <trkpt lat="49.51503" lon="5.87894">
        <ele>350.7</ele>
        <time>2018-07-01T08:21:05Z</time>
      </trkpt>
      <trkpt lat="49.51504" lon="5.87884">
        <ele>349.94</ele>
        <time>2018-07-01T08:21:06Z</time>
      </trkpt>
      <trkpt lat="49.51507" lon="5.87863">
        <ele>348.45</ele>
        <time>2018-07-01T08:21:08Z</time>
      </trkpt>
      <trkpt lat="49.51509" lon="5.87853">
        <ele>347.6</ele>
        <time>2018-07-01T08:21:09Z</time>
      </trkpt>
      <trkpt lat="49.51512" lon="5.87844">
        <ele>346.88</ele>
        <time>2018-07-01T08:21:10Z</time>
      </trkpt>
      <trkpt lat="49.51516" lon="5.87836">
        <ele>346</ele>
        <time>2018-07-01T08:21:11Z</time>
      </trkpt>
      <trkpt lat="49.51519" lon="5.87829">
        <ele>345.31</ele>
        <time>2018-07-01T08:21:12Z</time>
      </trkpt>
      <trkpt lat="49.51522" lon="5.87824">
        <ele>345.35</ele>
        <time>2018-07-01T08:21:13Z</time>
      </trkpt>
      <trkpt lat="49.51532" lon="5.8781">
        <ele>344.61</ele>
        <time>2018-07-01T08:21:17Z</time>
      </trkpt>
      <trkpt lat="49.51536" lon="5.87808">
        <ele>344.27</ele>
        <time>2018-07-01T08:21:18Z</time>
      </trkpt>
      <trkpt lat="49.5154" lon="5.87808">
        <ele>343.95</ele>
        <time>2018-07-01T08:21:19Z</time>
      </trkpt>
      <trkpt lat="49.51557" lon="5.87808">
        <ele>343.83</ele>
        <time>2018-07-01T08:21:25Z</time>
      </trkpt>
      <trkpt lat="49.5157" lon="5.87805">
        <ele>344.34</ele>
        <time>2018-07-01T08:21:30Z</time>
      </trkpt>
      <trkpt lat="49.51582" lon="5.87784">
        <ele>343.39</ele>
        <time>2018-07-01T08:21:38Z</time>
      </trkpt>
      <trkpt lat="49.51587" lon="5.87773">
        <ele>342.66</ele>
        <time>2018-07-01T08:21:43Z</time>
      </trkpt>
      <trkpt lat="49.51589" lon="5.87768">
        <ele>342.29</ele>
        <time>2018-07-01T08:21:45Z</time>
      </trkpt>
      <trkpt lat="49.51591" lon="5.87766">
        <ele>341.99</ele>
        <time>2018-07-01T08:21:46Z</time>
      </trkpt>
      <trkpt lat="49.51593" lon="5.87764">
        <ele>342.05</ele>
        <time>2018-07-01T08:21:47Z</time>
      </trkpt>
      <trkpt lat="49.51595" lon="5.87764">
        <ele>342.12</ele>
        <time>2018-07-01T08:21:48Z</time>
      </trkpt>
      <trkpt lat="49.51597" lon="5.87765">
        <ele>342.18</ele>
        <time>2018-07-01T08:21:49Z</time>
      </trkpt>
      <trkpt lat="49.51599" lon="5.87766">
        <ele>342.19</ele>
        <time>2018-07-01T08:21:50Z</time>
      </trkpt>
      <trkpt lat="49.516" lon="5.87769">
        <ele>342.1</ele>
        <time>2018-07-01T08:21:51Z</time>
      </trkpt>
      <trkpt lat="49.51602" lon="5.87771">
        <ele>342.05</ele>
        <time>2018-07-01T08:21:52Z</time>
      </trkpt>
      <trkpt lat="49.51605" lon="5.87772">
        <ele>341.92</ele>
        <time>2018-07-01T08:21:53Z</time>
      </trkpt>
      <trkpt lat="49.51622" lon="5.87784">
        <ele>341.05</ele>
        <time>2018-07-01T08:22:00Z</time>
      </trkpt>
      <trkpt lat="49.51648" lon="5.87806">
        <ele>340.88</ele>
        <time>2018-07-01T08:22:06Z</time>
      </trkpt>
      <trkpt lat="49.5166" lon="5.87826">
        <ele>338.91</ele>
        <time>2018-07-01T08:22:12Z</time>
      </trkpt>
      <trkpt lat="49.51678" lon="5.87844">
        <ele>336.99</ele>
        <time>2018-07-01T08:22:18Z</time>
      </trkpt>
      <trkpt lat="49.51696" lon="5.87862">
        <ele>334.83</ele>
        <time>2018-07-01T08:22:24Z</time>
      </trkpt>
      <trkpt lat="49.5171" lon="5.87881">
        <ele>333.24</ele>
        <time>2018-07-01T08:22:30Z</time>
      </trkpt>
      <trkpt lat="49.51739" lon="5.87898">
        <ele>331.26</ele>
        <time>2018-07-01T08:22:36Z</time>
      </trkpt>
      <trkpt lat="49.51754" lon="5.87908">
        <ele>330.22</ele>
        <time>2018-07-01T08:22:40Z</time>
      </trkpt>
      <trkpt lat="49.51761" lon="5.87916">
        <ele>329.56</ele>
        <time>2018-07-01T08:22:42Z</time>
      </trkpt>
      <trkpt lat="49.51784" lon="5.87932">
        <ele>327.52</ele>
        <time>2018-07-01T08:22:48Z</time>
      </trkpt>
      <trkpt lat="49.5179" lon="5.87934">
        <ele>327.17</ele>
        <time>2018-07-01T08:22:49Z</time>
      </trkpt>
      <trkpt lat="49.51795" lon="5.87936">
        <ele>326.64</ele>
        <time>2018-07-01T08:22:50Z</time>
      </trkpt>
      <trkpt lat="49.518" lon="5.87941">
        <ele>326.37</ele>
        <time>2018-07-01T08:22:51Z</time>
      </trkpt>
      <trkpt lat="49.51804" lon="5.87946">
        <ele>326.15</ele>
        <time>2018-07-01T08:22:52Z</time>
      </trkpt>
      <trkpt lat="49.5183" lon="5.87973">
        <ele>325.77</ele>
        <time>2018-07-01T08:22:58Z</time>
      </trkpt>
      <trkpt lat="49.51844" lon="5.87986">
        <ele>325.34</ele>
        <time>2018-07-01T08:23:01Z</time>
      </trkpt>
      <trkpt lat="49.51857" lon="5.87997">
        <ele>325.44</ele>
        <time>2018-07-01T08:23:04Z</time>
      </trkpt>
      <trkpt lat="49.5188" lon="5.88017">
        <ele>325.63</ele>
        <time>2018-07-01T08:23:09Z</time>
      </trkpt>
      <trkpt lat="49.51889" lon="5.88023">
        <ele>325.84</ele>
        <time>2018-07-01T08:23:11Z</time>
      </trkpt>
      <trkpt lat="49.51892" lon="5.88028">
        <ele>326.28</ele>
        <time>2018-07-01T08:23:12Z</time>
      </trkpt>
      <trkpt lat="49.51903" lon="5.88049">
        <ele>325.84</ele>
        <time>2018-07-01T08:23:18Z</time>
      </trkpt>
      <trkpt lat="49.51904" lon="5.88052">
        <ele>325.75</ele>
        <time>2018-07-01T08:23:19Z</time>
      </trkpt>
      <trkpt lat="49.51906" lon="5.88053">
        <ele>325.97</ele>
        <time>2018-07-01T08:23:20Z</time>
      </trkpt>
      <trkpt lat="49.51908" lon="5.88056">
        <ele>326.62</ele>
        <time>2018-07-01T08:23:21Z</time>
      </trkpt>
      <trkpt lat="49.5191" lon="5.88059">
        <ele>327.03</ele>
        <time>2018-07-01T08:23:22Z</time>
      </trkpt>
      <trkpt lat="49.51913" lon="5.8806">
        <ele>327.52</ele>
        <time>2018-07-01T08:23:23Z</time>
      </trkpt>
      <trkpt lat="49.51916" lon="5.88062">
        <ele>327.94</ele>
        <time>2018-07-01T08:23:24Z</time>
      </trkpt>
      <trkpt lat="49.51918" lon="5.88064">
        <ele>329.01</ele>
        <time>2018-07-01T08:23:25Z</time>
      </trkpt>
      <trkpt lat="49.51937" lon="5.88071">
        <ele>332.32</ele>
        <time>2018-07-01T08:23:31Z</time>
      </trkpt>
      <trkpt lat="49.51969" lon="5.88072">
        <ele>335.71</ele>
        <time>2018-07-01T08:23:39Z</time>
      </trkpt>
      <trkpt lat="49.51994" lon="5.88074">
        <ele>337.04</ele>
        <time>2018-07-01T08:23:46Z</time>
      </trkpt>
      <trkpt lat="49.52024" lon="5.88069">
        <ele>338.74</ele>
        <time>2018-07-01T08:23:52Z</time>
      </trkpt>
      <trkpt lat="49.52046" lon="5.88068">
        <ele>342.63</ele>
        <time>2018-07-01T08:23:59Z</time>
      </trkpt>
      <trkpt lat="49.52071" lon="5.88067">
        <ele>344.58</ele>
        <time>2018-07-01T08:24:06Z</time>
      </trkpt>
      <trkpt lat="49.52099" lon="5.88065">
        <ele>345.08</ele>
        <time>2018-07-01T08:24:12Z</time>
      </trkpt>
      <trkpt lat="49.52133" lon="5.88057">
        <ele>346.35</ele>
        <time>2018-07-01T08:24:20Z</time>
      </trkpt>
      <trkpt lat="49.52153" lon="5.88049">
        <ele>346.43</ele>
        <time>2018-07-01T08:24:26Z</time>
      </trkpt>
      <trkpt lat="49.52161" lon="5.88045">
        <ele>345.17</ele>
        <time>2018-07-01T08:24:30Z</time>
      </trkpt>
      <trkpt lat="49.52154" lon="5.88035">
        <ele>347.37</ele>
        <time>2018-07-01T08:24:43Z</time>
      </trkpt>
      <trkpt lat="49.52151" lon="5.88025">
        <ele>351</ele>
        <time>2018-07-01T08:24:51Z</time>
      </trkpt>
      <trkpt lat="49.52153" lon="5.87995">
        <ele>357.89</ele>
        <time>2018-07-01T08:25:10Z</time>
      </trkpt>
      <trkpt lat="49.52159" lon="5.87965">
        <ele>360.41</ele>
        <time>2018-07-01T08:25:22Z</time>
      </trkpt>
      <trkpt lat="49.52162" lon="5.87944">
        <ele>363.43</ele>
        <time>2018-07-01T08:25:33Z</time>
      </trkpt>
      <trkpt lat="49.5216" lon="5.87924">
        <ele>364.86</ele>
        <time>2018-07-01T08:25:41Z</time>
      </trkpt>
      <trkpt lat="49.5216" lon="5.87903">
        <ele>366.36</ele>
        <time>2018-07-01T08:25:50Z</time>
      </trkpt>
      <trkpt lat="49.52154" lon="5.87885">
        <ele>368.08</ele>
        <time>2018-07-01T08:26:01Z</time>
      </trkpt>
      <trkpt lat="49.52152" lon="5.87878">
        <ele>369.39</ele>
        <time>2018-07-01T08:26:05Z</time>
      </trkpt>
      <trkpt lat="49.52145" lon="5.87857">
        <ele>372.91</ele>
        <time>2018-07-01T08:26:18Z</time>
      </trkpt>
      <trkpt lat="49.52144" lon="5.87844">
        <ele>374.74</ele>
        <time>2018-07-01T08:26:26Z</time>
      </trkpt>
      <trkpt lat="49.52136" lon="5.87826">
        <ele>375.1</ele>
        <time>2018-07-01T08:26:37Z</time>
      </trkpt>
      <trkpt lat="49.5213" lon="5.87814">
        <ele>375.61</ele>
        <time>2018-07-01T08:26:46Z</time>
      </trkpt>
      <trkpt lat="49.52128" lon="5.87809">
        <ele>375.62</ele>
        <time>2018-07-01T08:26:49Z</time>
      </trkpt>
      <trkpt lat="49.52127" lon="5.87806">
        <ele>375.41</ele>
        <time>2018-07-01T08:26:51Z</time>
      </trkpt>
      <trkpt lat="49.52115" lon="5.87787">
        <ele>374.81</ele>
        <time>2018-07-01T08:27:02Z</time>
      </trkpt>
      <trkpt lat="49.52107" lon="5.87772">
        <ele>372.99</ele>
        <time>2018-07-01T08:27:11Z</time>
      </trkpt>
      <trkpt lat="49.52099" lon="5.87753">
        <ele>371.38</ele>
        <time>2018-07-01T08:27:22Z</time>
      </trkpt>
      <trkpt lat="49.52088" lon="5.87739">
        <ele>371.08</ele>
        <time>2018-07-01T08:27:31Z</time>
      </trkpt>
      <trkpt lat="49.52074" lon="5.87718">
        <ele>371.02</ele>
        <time>2018-07-01T08:27:42Z</time>
      </trkpt>
      <trkpt lat="49.52062" lon="5.877">
        <ele>371.1</ele>
        <time>2018-07-01T08:27:52Z</time>
      </trkpt>
      <trkpt lat="49.52053" lon="5.87686">
        <ele>371.05</ele>
        <time>2018-07-01T08:28:00Z</time>
      </trkpt>
      <trkpt lat="49.52045" lon="5.8767">
        <ele>371.14</ele>
        <time>2018-07-01T08:28:08Z</time>
      </trkpt>
      <trkpt lat="49.52036" lon="5.87654">
        <ele>372.98</ele>
        <time>2018-07-01T08:28:17Z</time>
      </trkpt>
      <trkpt lat="49.52023" lon="5.87636">
        <ele>375.39</ele>
        <time>2018-07-01T08:28:27Z</time>
      </trkpt>
      <trkpt lat="49.52018" lon="5.87626">
        <ele>376.26</ele>
        <time>2018-07-01T08:28:33Z</time>
      </trkpt>
      <trkpt lat="49.52009" lon="5.87608">
        <ele>378.63</ele>
        <time>2018-07-01T08:28:43Z</time>
      </trkpt>
      <trkpt lat="49.52002" lon="5.876">
        <ele>380.34</ele>
        <time>2018-07-01T08:28:49Z</time>
      </trkpt>
      <trkpt lat="49.51995" lon="5.87585">
        <ele>382.47</ele>
        <time>2018-07-01T08:28:58Z</time>
      </trkpt>
      <trkpt lat="49.5199" lon="5.87583">
        <ele>383.12</ele>
        <time>2018-07-01T08:29:00Z</time>
      </trkpt>
      <trkpt lat="49.51978" lon="5.87571">
        <ele>385.78</ele>
        <time>2018-07-01T08:29:07Z</time>
      </trkpt>
      <trkpt lat="49.51972" lon="5.87566">
        <ele>387.13</ele>
        <time>2018-07-01T08:29:11Z</time>
      </trkpt>
      <trkpt lat="49.51969" lon="5.87563">
        <ele>387.54</ele>
        <time>2018-07-01T08:29:13Z</time>
      </trkpt>
      <trkpt lat="49.51965" lon="5.87551">
        <ele>389.22</ele>
        <time>2018-07-01T08:29:19Z</time>
      </trkpt>
      <trkpt lat="49.51965" lon="5.87543">
        <ele>390.49</ele>
        <time>2018-07-01T08:29:28Z</time>
      </trkpt>
      <trkpt lat="49.51967" lon="5.87542">
        <ele>391.42</ele>
        <time>2018-07-01T08:29:32Z</time>
      </trkpt>
      <trkpt lat="49.51966" lon="5.8753">
        <ele>393.54</ele>
        <time>2018-07-01T08:31:05Z</time>
      </trkpt>
      <trkpt lat="49.51965" lon="5.87527">
        <ele>393.44</ele>
        <time>2018-07-01T08:31:06Z</time>
      </trkpt>
      <trkpt lat="49.51966" lon="5.87512">
        <ele>391.83</ele>
        <time>2018-07-01T08:31:11Z</time>
      </trkpt>
      <trkpt lat="49.51965" lon="5.87503">
        <ele>390.48</ele>
        <time>2018-07-01T08:31:14Z</time>
      </trkpt>
      <trkpt lat="49.51959" lon="5.87488">
        <ele>388.8</ele>
        <time>2018-07-01T08:31:20Z</time>
      </trkpt>
      <trkpt lat="49.51954" lon="5.8747">
        <ele>387.6</ele>
        <time>2018-07-01T08:31:26Z</time>
      </trkpt>
      <trkpt lat="49.51945" lon="5.87443">
        <ele>387.37</ele>
        <time>2018-07-01T08:31:34Z</time>
      </trkpt>
      <trkpt lat="49.5194" lon="5.8742">
        <ele>386</ele>
        <time>2018-07-01T08:31:41Z</time>
      </trkpt>
      <trkpt lat="49.51938" lon="5.87393">
        <ele>385.31</ele>
        <time>2018-07-01T08:31:49Z</time>
      </trkpt>
      <trkpt lat="49.51935" lon="5.87367">
        <ele>383.8</ele>
        <time>2018-07-01T08:31:55Z</time>
      </trkpt>
      <trkpt lat="49.51932" lon="5.87334">
        <ele>382.03</ele>
        <time>2018-07-01T08:32:03Z</time>
      </trkpt>
      <trkpt lat="49.51936" lon="5.87309">
        <ele>381.44</ele>
        <time>2018-07-01T08:32:09Z</time>
      </trkpt>
      <trkpt lat="49.51937" lon="5.87299">
        <ele>381.62</ele>
        <time>2018-07-01T08:32:12Z</time>
      </trkpt>
      <trkpt lat="49.51941" lon="5.87272">
        <ele>382.39</ele>
        <time>2018-07-01T08:32:19Z</time>
      </trkpt>
      <trkpt lat="49.51944" lon="5.87248">
        <ele>383.31</ele>
        <time>2018-07-01T08:32:26Z</time>
      </trkpt>
      <trkpt lat="49.51944" lon="5.87232">
        <ele>384.2</ele>
        <time>2018-07-01T08:32:30Z</time>
      </trkpt>
      <trkpt lat="49.51943" lon="5.8722">
        <ele>384.74</ele>
        <time>2018-07-01T08:32:34Z</time>
      </trkpt>
      <trkpt lat="49.5194" lon="5.87192">
        <ele>386.55</ele>
        <time>2018-07-01T08:32:41Z</time>
      </trkpt>
      <trkpt lat="49.51941" lon="5.87169">
        <ele>388.22</ele>
        <time>2018-07-01T08:32:47Z</time>
      </trkpt>
      <trkpt lat="49.51939" lon="5.87159">
        <ele>389.37</ele>
        <time>2018-07-01T08:32:50Z</time>
      </trkpt>
      <trkpt lat="49.51943" lon="5.87147">
        <ele>391</ele>
        <time>2018-07-01T08:32:54Z</time>
      </trkpt>
      <trkpt lat="49.51943" lon="5.87135">
        <ele>391.75</ele>
        <time>2018-07-01T08:32:57Z</time>
      </trkpt>
      <trkpt lat="49.51944" lon="5.87115">
        <ele>393.03</ele>
        <time>2018-07-01T08:33:03Z</time>
      </trkpt>
      <trkpt lat="49.51944" lon="5.87112">
        <ele>393.42</ele>
        <time>2018-07-01T08:33:04Z</time>
      </trkpt>
      <trkpt lat="49.51943" lon="5.87103">
        <ele>394.52</ele>
        <time>2018-07-01T08:33:07Z</time>
      </trkpt>
      <trkpt lat="49.51933" lon="5.87079">
        <ele>396.68</ele>
        <time>2018-07-01T08:33:14Z</time>
      </trkpt>
      <trkpt lat="49.51925" lon="5.87061">
        <ele>398.15</ele>
        <time>2018-07-01T08:33:21Z</time>
      </trkpt>
      <trkpt lat="49.51919" lon="5.87053">
        <ele>398.54</ele>
        <time>2018-07-01T08:33:24Z</time>
      </trkpt>
      <trkpt lat="49.51911" lon="5.87039">
        <ele>399.27</ele>
        <time>2018-07-01T08:33:30Z</time>
      </trkpt>
      <trkpt lat="49.51909" lon="5.87038">
        <ele>399.4</ele>
        <time>2018-07-01T08:33:31Z</time>
      </trkpt>
      <trkpt lat="49.51894" lon="5.87024">
        <ele>401.64</ele>
        <time>2018-07-01T08:33:40Z</time>
      </trkpt>
      <trkpt lat="49.51892" lon="5.86995">
        <ele>402.77</ele>
        <time>2018-07-01T08:33:47Z</time>
      </trkpt>
      <trkpt lat="49.51888" lon="5.86979">
        <ele>403.45</ele>
        <time>2018-07-01T08:33:51Z</time>
      </trkpt>
      <trkpt lat="49.51882" lon="5.8696">
        <ele>402.63</ele>
        <time>2018-07-01T08:33:57Z</time>
      </trkpt>
      <trkpt lat="49.51883" lon="5.86954">
        <ele>402.38</ele>
        <time>2018-07-01T08:33:59Z</time>
      </trkpt>
      <trkpt lat="49.51894" lon="5.86955">
        <ele>401.06</ele>
        <time>2018-07-01T08:34:06Z</time>
      </trkpt>
      <trkpt lat="49.51896" lon="5.86955">
        <ele>401.06</ele>
        <time>2018-07-01T08:34:07Z</time>
      </trkpt>
      <trkpt lat="49.51899" lon="5.86955">
        <ele>400.96</ele>
        <time>2018-07-01T08:34:08Z</time>
      </trkpt>
      <trkpt lat="49.51914" lon="5.8696">
        <ele>400.93</ele>
        <time>2018-07-01T08:34:15Z</time>
      </trkpt>
      <trkpt lat="49.5193" lon="5.86963">
        <ele>401.09</ele>
        <time>2018-07-01T08:34:21Z</time>
      </trkpt>
      <trkpt lat="49.51942" lon="5.86968">
        <ele>401.04</ele>
        <time>2018-07-01T08:34:27Z</time>
      </trkpt>
      <trkpt lat="49.51957" lon="5.86975">
        <ele>402.59</ele>
        <time>2018-07-01T08:34:33Z</time>
      </trkpt>
      <trkpt lat="49.51975" lon="5.86985">
        <ele>401.75</ele>
        <time>2018-07-01T08:34:39Z</time>
      </trkpt>
      <trkpt lat="49.52" lon="5.86988">
        <ele>402.07</ele>
        <time>2018-07-01T08:34:47Z</time>
      </trkpt>
      <trkpt lat="49.52013" lon="5.86994">
        <ele>401.47</ele>
        <time>2018-07-01T08:34:54Z</time>
      </trkpt>
      <trkpt lat="49.52024" lon="5.86997">
        <ele>399.83</ele>
        <time>2018-07-01T08:35:00Z</time>
      </trkpt>
      <trkpt lat="49.52035" lon="5.86999">
        <ele>399.19</ele>
        <time>2018-07-01T08:35:07Z</time>
      </trkpt>
      <trkpt lat="49.52046" lon="5.86999">
        <ele>399.01</ele>
        <time>2018-07-01T08:35:13Z</time>
      </trkpt>
      <trkpt lat="49.52057" lon="5.86998">
        <ele>399.15</ele>
        <time>2018-07-01T08:35:21Z</time>
      </trkpt>
      <trkpt lat="49.5206" lon="5.86999">
        <ele>399.26</ele>
        <time>2018-07-01T08:35:23Z</time>
      </trkpt>
      <trkpt lat="49.52061" lon="5.86999">
        <ele>399.43</ele>
        <time>2018-07-01T08:35:24Z</time>
      </trkpt>
      <trkpt lat="49.52063" lon="5.86999">
        <ele>399.4</ele>
        <time>2018-07-01T08:35:25Z</time>
      </trkpt>
      <trkpt lat="49.52076" lon="5.87003">
        <ele>399.91</ele>
        <time>2018-07-01T08:35:33Z</time>
      </trkpt>
      <trkpt lat="49.52086" lon="5.87004">
        <ele>402.05</ele>
        <time>2018-07-01T08:35:40Z</time>
      </trkpt>
      <trkpt lat="49.52094" lon="5.8701">
        <ele>405.03</ele>
        <time>2018-07-01T08:35:48Z</time>
      </trkpt>
      <trkpt lat="49.52105" lon="5.87013">
        <ele>409.02</ele>
        <time>2018-07-01T08:35:56Z</time>
      </trkpt>
      <trkpt lat="49.52118" lon="5.87017">
        <ele>411.73</ele>
        <time>2018-07-01T08:36:05Z</time>
      </trkpt>
      <trkpt lat="49.52134" lon="5.87021">
        <ele>415.13</ele>
        <time>2018-07-01T08:36:16Z</time>
      </trkpt>
      <trkpt lat="49.52153" lon="5.87028">
        <ele>419.75</ele>
        <time>2018-07-01T08:36:30Z</time>
      </trkpt>
      <trkpt lat="49.52174" lon="5.87021">
        <ele>423.66</ele>
        <time>2018-07-01T08:36:43Z</time>
      </trkpt>
      <trkpt lat="49.52189" lon="5.87017">
        <ele>425.52</ele>
        <time>2018-07-01T08:36:49Z</time>
      </trkpt>
      <trkpt lat="49.52191" lon="5.87017">
        <ele>425.94</ele>
        <time>2018-07-01T08:36:50Z</time>
      </trkpt>
      <trkpt lat="49.52213" lon="5.87011">
        <ele>429.38</ele>
        <time>2018-07-01T08:37:04Z</time>
      </trkpt>
      <trkpt lat="49.52227" lon="5.87007">
        <ele>430.08</ele>
        <time>2018-07-01T08:37:10Z</time>
      </trkpt>
      <trkpt lat="49.52248" lon="5.86998">
        <ele>430.8</ele>
        <time>2018-07-01T08:37:18Z</time>
      </trkpt>
      <trkpt lat="49.52274" lon="5.86995">
        <ele>427.61</ele>
        <time>2018-07-01T08:37:23Z</time>
      </trkpt>
      <trkpt lat="49.52288" lon="5.86993">
        <ele>425.93</ele>
        <time>2018-07-01T08:37:25Z</time>
      </trkpt>
      <trkpt lat="49.52326" lon="5.86992">
        <ele>420.85</ele>
        <time>2018-07-01T08:37:30Z</time>
      </trkpt>
      <trkpt lat="49.52374" lon="5.87003">
        <ele>412.89</ele>
        <time>2018-07-01T08:37:37Z</time>
      </trkpt>
      <trkpt lat="49.52391" lon="5.87009">
        <ele>411.18</ele>
        <time>2018-07-01T08:37:40Z</time>
      </trkpt>
      <trkpt lat="49.52403" lon="5.87014">
        <ele>410.45</ele>
        <time>2018-07-01T08:37:42Z</time>
      </trkpt>
      <trkpt lat="49.52409" lon="5.87016">
        <ele>410.01</ele>
        <time>2018-07-01T08:37:43Z</time>
      </trkpt>
      <trkpt lat="49.52444" lon="5.87031">
        <ele>405.88</ele>
        <time>2018-07-01T08:37:48Z</time>
      </trkpt>
      <trkpt lat="49.52452" lon="5.87037">
        <ele>405.08</ele>
        <time>2018-07-01T08:37:49Z</time>
      </trkpt>
      <trkpt lat="49.52459" lon="5.87043">
        <ele>404.5</ele>
        <time>2018-07-01T08:37:50Z</time>
      </trkpt>
      <trkpt lat="49.52475" lon="5.87062">
        <ele>404.91</ele>
        <time>2018-07-01T08:37:53Z</time>
      </trkpt>
      <trkpt lat="49.52479" lon="5.87069">
        <ele>404.8</ele>
        <time>2018-07-01T08:37:54Z</time>
      </trkpt>
      <trkpt lat="49.52491" lon="5.87089">
        <ele>404.89</ele>
        <time>2018-07-01T08:37:59Z</time>
      </trkpt>
      <trkpt lat="49.52505" lon="5.87115">
        <ele>405.26</ele>
        <time>2018-07-01T08:38:06Z</time>
      </trkpt>
      <trkpt lat="49.52514" lon="5.87141">
        <ele>405.28</ele>
        <time>2018-07-01T08:38:12Z</time>
      </trkpt>
      <trkpt lat="49.52522" lon="5.87165">
        <ele>405.88</ele>
        <time>2018-07-01T08:38:17Z</time>
      </trkpt>
      <trkpt lat="49.5253" lon="5.8719">
        <ele>406.54</ele>
        <time>2018-07-01T08:38:22Z</time>
      </trkpt>
      <trkpt lat="49.52542" lon="5.87221">
        <ele>407.27</ele>
        <time>2018-07-01T08:38:28Z</time>
      </trkpt>
      <trkpt lat="49.52553" lon="5.87241">
        <ele>408.46</ele>
        <time>2018-07-01T08:38:33Z</time>
      </trkpt>
      <trkpt lat="49.52566" lon="5.87257">
        <ele>410.66</ele>
        <time>2018-07-01T08:38:39Z</time>
      </trkpt>
      <trkpt lat="49.52586" lon="5.87271">
        <ele>413.67</ele>
        <time>2018-07-01T08:38:45Z</time>
      </trkpt>
      <trkpt lat="49.52596" lon="5.87277">
        <ele>415.69</ele>
        <time>2018-07-01T08:38:49Z</time>
      </trkpt>
      <trkpt lat="49.52616" lon="5.87284">
        <ele>418.61</ele>
        <time>2018-07-01T08:38:56Z</time>
      </trkpt>
      <trkpt lat="49.52638" lon="5.87287">
        <ele>417.54</ele>
        <time>2018-07-01T08:39:03Z</time>
      </trkpt>
      <trkpt lat="49.52656" lon="5.87297">
        <ele>417.17</ele>
        <time>2018-07-01T08:39:09Z</time>
      </trkpt>
      <trkpt lat="49.52674" lon="5.87313">
        <ele>418.16</ele>
        <time>2018-07-01T08:39:16Z</time>
      </trkpt>
      <trkpt lat="49.52689" lon="5.87329">
        <ele>417.91</ele>
        <time>2018-07-01T08:39:22Z</time>
      </trkpt>
      <trkpt lat="49.52709" lon="5.87348">
        <ele>416.87</ele>
        <time>2018-07-01T08:39:28Z</time>
      </trkpt>
      <trkpt lat="49.5273" lon="5.87373">
        <ele>413.5</ele>
        <time>2018-07-01T08:39:35Z</time>
      </trkpt>
      <trkpt lat="49.52754" lon="5.87403">
        <ele>409.77</ele>
        <time>2018-07-01T08:39:42Z</time>
      </trkpt>
      <trkpt lat="49.52771" lon="5.87427">
        <ele>408.21</ele>
        <time>2018-07-01T08:39:47Z</time>
      </trkpt>
      <trkpt lat="49.52777" lon="5.87438">
        <ele>407.6</ele>
        <time>2018-07-01T08:39:49Z</time>
      </trkpt>
      <trkpt lat="49.5278" lon="5.87443">
        <ele>406.44</ele>
        <time>2018-07-01T08:39:50Z</time>
      </trkpt>
      <trkpt lat="49.52783" lon="5.87448">
        <ele>406.11</ele>
        <time>2018-07-01T08:39:51Z</time>
      </trkpt>
      <trkpt lat="49.52786" lon="5.87453">
        <ele>405.66</ele>
        <time>2018-07-01T08:39:52Z</time>
      </trkpt>
      <trkpt lat="49.52789" lon="5.87458">
        <ele>405.32</ele>
        <time>2018-07-01T08:39:53Z</time>
      </trkpt>
      <trkpt lat="49.52792" lon="5.87463">
        <ele>405.04</ele>
        <time>2018-07-01T08:39:54Z</time>
      </trkpt>
      <trkpt lat="49.52794" lon="5.87468">
        <ele>404.69</ele>
        <time>2018-07-01T08:39:55Z</time>
      </trkpt>
      <trkpt lat="49.52807" lon="5.87489">
        <ele>404.42</ele>
        <time>2018-07-01T08:40:01Z</time>
      </trkpt>
      <trkpt lat="49.52828" lon="5.87525">
        <ele>404.88</ele>
        <time>2018-07-01T08:40:11Z</time>
      </trkpt>
      <trkpt lat="49.52847" lon="5.87558">
        <ele>404.75</ele>
        <time>2018-07-01T08:40:19Z</time>
      </trkpt>
      <trkpt lat="49.52863" lon="5.87594">
        <ele>404.4</ele>
        <time>2018-07-01T08:40:27Z</time>
      </trkpt>
      <trkpt lat="49.52882" lon="5.87614">
        <ele>404.31</ele>
        <time>2018-07-01T08:40:33Z</time>
      </trkpt>
      <trkpt lat="49.52906" lon="5.87615">
        <ele>404.97</ele>
        <time>2018-07-01T08:40:39Z</time>
      </trkpt>
      <trkpt lat="49.52922" lon="5.87608">
        <ele>404.66</ele>
        <time>2018-07-01T08:40:43Z</time>
      </trkpt>
      <trkpt lat="49.52938" lon="5.87596">
        <ele>403.73</ele>
        <time>2018-07-01T08:40:47Z</time>
      </trkpt>
      <trkpt lat="49.5297" lon="5.87564">
        <ele>401.39</ele>
        <time>2018-07-01T08:40:55Z</time>
      </trkpt>
      <trkpt lat="49.52991" lon="5.87543">
        <ele>400.53</ele>
        <time>2018-07-01T08:41:02Z</time>
      </trkpt>
      <trkpt lat="49.53011" lon="5.87522">
        <ele>398.91</ele>
        <time>2018-07-01T08:41:11Z</time>
      </trkpt>
      <trkpt lat="49.53027" lon="5.87507">
        <ele>396.51</ele>
        <time>2018-07-01T08:41:18Z</time>
      </trkpt>
      <trkpt lat="49.53044" lon="5.87492">
        <ele>394.6</ele>
        <time>2018-07-01T08:41:26Z</time>
      </trkpt>
      <trkpt lat="49.53049" lon="5.87484">
        <ele>393.93</ele>
        <time>2018-07-01T08:41:29Z</time>
      </trkpt>
      <trkpt lat="49.5305" lon="5.8748">
        <ele>393.86</ele>
        <time>2018-07-01T08:41:30Z</time>
      </trkpt>
      <trkpt lat="49.5305" lon="5.87477">
        <ele>393.82</ele>
        <time>2018-07-01T08:41:31Z</time>
      </trkpt>
      <trkpt lat="49.53049" lon="5.87473">
        <ele>394.04</ele>
        <time>2018-07-01T08:41:32Z</time>
      </trkpt>
      <trkpt lat="49.53048" lon="5.87468">
        <ele>394.76</ele>
        <time>2018-07-01T08:41:33Z</time>
      </trkpt>
      <trkpt lat="49.53047" lon="5.87465">
        <ele>395.16</ele>
        <time>2018-07-01T08:41:34Z</time>
      </trkpt>
      <trkpt lat="49.53047" lon="5.87461">
        <ele>395.19</ele>
        <time>2018-07-01T08:41:35Z</time>
      </trkpt>
      <trkpt lat="49.53047" lon="5.87458">
        <ele>394.98</ele>
        <time>2018-07-01T08:41:36Z</time>
      </trkpt>
      <trkpt lat="49.53048" lon="5.87455">
        <ele>394.94</ele>
        <time>2018-07-01T08:41:37Z</time>
      </trkpt>
      <trkpt lat="49.53049" lon="5.87453">
        <ele>394.8</ele>
        <time>2018-07-01T08:41:38Z</time>
      </trkpt>
      <trkpt lat="49.53052" lon="5.87428">
        <ele>393.25</ele>
        <time>2018-07-01T08:41:45Z</time>
      </trkpt>
      <trkpt lat="49.53048" lon="5.87405">
        <ele>392.57</ele>
        <time>2018-07-01T08:41:52Z</time>
      </trkpt>
      <trkpt lat="49.53039" lon="5.8738">
        <ele>392.97</ele>
        <time>2018-07-01T08:42:01Z</time>
      </trkpt>
      <trkpt lat="49.53034" lon="5.87358">
        <ele>393.29</ele>
        <time>2018-07-01T08:42:08Z</time>
      </trkpt>
      <trkpt lat="49.53031" lon="5.87339">
        <ele>394.94</ele>
        <time>2018-07-01T08:42:15Z</time>
      </trkpt>
      <trkpt lat="49.5303" lon="5.87336">
        <ele>395.32</ele>
        <time>2018-07-01T08:42:16Z</time>
      </trkpt>
      <trkpt lat="49.53029" lon="5.87333">
        <ele>395.34</ele>
        <time>2018-07-01T08:42:17Z</time>
      </trkpt>
      <trkpt lat="49.53024" lon="5.87302">
        <ele>398.14</ele>
        <time>2018-07-01T08:42:27Z</time>
      </trkpt>
      <trkpt lat="49.53022" lon="5.8727">
        <ele>399.7</ele>
        <time>2018-07-01T08:42:37Z</time>
      </trkpt>
      <trkpt lat="49.53024" lon="5.8724">
        <ele>400.48</ele>
        <time>2018-07-01T08:42:46Z</time>
      </trkpt>
      <trkpt lat="49.53024" lon="5.87215">
        <ele>401.35</ele>
        <time>2018-07-01T08:42:52Z</time>
      </trkpt>
      <trkpt lat="49.53018" lon="5.87179">
        <ele>405.57</ele>
        <time>2018-07-01T08:42:59Z</time>
      </trkpt>
      <trkpt lat="49.53003" lon="5.87131">
        <ele>408.07</ele>
        <time>2018-07-01T08:43:09Z</time>
      </trkpt>
      <trkpt lat="49.52985" lon="5.87079">
        <ele>409.07</ele>
        <time>2018-07-01T08:43:19Z</time>
      </trkpt>
      <trkpt lat="49.52971" lon="5.8704">
        <ele>408.74</ele>
        <time>2018-07-01T08:43:26Z</time>
      </trkpt>
      <trkpt lat="49.52965" lon="5.87018">
        <ele>409.13</ele>
        <time>2018-07-01T08:43:30Z</time>
      </trkpt>
      <trkpt lat="49.52949" lon="5.8694">
        <ele>408.04</ele>
        <time>2018-07-01T08:43:42Z</time>
      </trkpt>
      <trkpt lat="49.52944" lon="5.86879">
        <ele>406.07</ele>
        <time>2018-07-01T08:43:49Z</time>
      </trkpt>
      <trkpt lat="49.52942" lon="5.86847">
        <ele>404.42</ele>
        <time>2018-07-01T08:43:53Z</time>
      </trkpt>
      <trkpt lat="49.52942" lon="5.86841">
        <ele>404.65</ele>
        <time>2018-07-01T08:43:54Z</time>
      </trkpt>
      <trkpt lat="49.52944" lon="5.86804">
        <ele>403.84</ele>
        <time>2018-07-01T08:44:00Z</time>
      </trkpt>
      <trkpt lat="49.52945" lon="5.86799">
        <ele>403.65</ele>
        <time>2018-07-01T08:44:01Z</time>
      </trkpt>
      <trkpt lat="49.52945" lon="5.86793">
        <ele>403.43</ele>
        <time>2018-07-01T08:44:02Z</time>
      </trkpt>
      <trkpt lat="49.52946" lon="5.86787">
        <ele>403.25</ele>
        <time>2018-07-01T08:44:03Z</time>
      </trkpt>
      <trkpt lat="49.52947" lon="5.86781">
        <ele>402.94</ele>
        <time>2018-07-01T08:44:04Z</time>
      </trkpt>
      <trkpt lat="49.52947" lon="5.86774">
        <ele>402.49</ele>
        <time>2018-07-01T08:44:05Z</time>
      </trkpt>
      <trkpt lat="49.5295" lon="5.86736">
        <ele>398.37</ele>
        <time>2018-07-01T08:44:12Z</time>
      </trkpt>
      <trkpt lat="49.52953" lon="5.86704">
        <ele>395.42</ele>
        <time>2018-07-01T08:44:17Z</time>
      </trkpt>
      <trkpt lat="49.52955" lon="5.8669">
        <ele>393.96</ele>
        <time>2018-07-01T08:44:19Z</time>
      </trkpt>
      <trkpt lat="49.52956" lon="5.86683">
        <ele>393.13</ele>
        <time>2018-07-01T08:44:20Z</time>
      </trkpt>
      <trkpt lat="49.52957" lon="5.86632">
        <ele>388.5</ele>
        <time>2018-07-01T08:44:26Z</time>
      </trkpt>
      <trkpt lat="49.52956" lon="5.86623">
        <ele>388.32</ele>
        <time>2018-07-01T08:44:27Z</time>
      </trkpt>
      <trkpt lat="49.52956" lon="5.86613">
        <ele>387.48</ele>
        <time>2018-07-01T08:44:28Z</time>
      </trkpt>
      <trkpt lat="49.52956" lon="5.86562">
        <ele>383.62</ele>
        <time>2018-07-01T08:44:34Z</time>
      </trkpt>
      <trkpt lat="49.52957" lon="5.86534">
        <ele>381.7</ele>
        <time>2018-07-01T08:44:38Z</time>
      </trkpt>
      <trkpt lat="49.52958" lon="5.86507">
        <ele>379.85</ele>
        <time>2018-07-01T08:44:43Z</time>
      </trkpt>
      <trkpt lat="49.52959" lon="5.8648">
        <ele>377.97</ele>
        <time>2018-07-01T08:44:48Z</time>
      </trkpt>
      <trkpt lat="49.5297" lon="5.86467">
        <ele>375.69</ele>
        <time>2018-07-01T08:44:55Z</time>
      </trkpt>
      <trkpt lat="49.52988" lon="5.86464">
        <ele>378.94</ele>
        <time>2018-07-01T08:45:04Z</time>
      </trkpt>
      <trkpt lat="49.52999" lon="5.86462">
        <ele>385.28</ele>
        <time>2018-07-01T08:45:12Z</time>
      </trkpt>
      <trkpt lat="49.53012" lon="5.86458">
        <ele>391.88</ele>
        <time>2018-07-01T08:45:18Z</time>
      </trkpt>
      <trkpt lat="49.53019" lon="5.86456">
        <ele>395.19</ele>
        <time>2018-07-01T08:45:21Z</time>
      </trkpt>
      <trkpt lat="49.53031" lon="5.86455">
        <ele>401.37</ele>
        <time>2018-07-01T08:45:27Z</time>
      </trkpt>
      <trkpt lat="49.53045" lon="5.86454">
        <ele>406.09</ele>
        <time>2018-07-01T08:45:33Z</time>
      </trkpt>
      <trkpt lat="49.53058" lon="5.86453">
        <ele>410.41</ele>
        <time>2018-07-01T08:45:39Z</time>
      </trkpt>
      <trkpt lat="49.5307" lon="5.86451">
        <ele>411.57</ele>
        <time>2018-07-01T08:45:44Z</time>
      </trkpt>
      <trkpt lat="49.53097" lon="5.86454">
        <ele>409.36</ele>
        <time>2018-07-01T08:45:51Z</time>
      </trkpt>
      <trkpt lat="49.53117" lon="5.86455">
        <ele>407.6</ele>
        <time>2018-07-01T08:45:57Z</time>
      </trkpt>
      <trkpt lat="49.53123" lon="5.86449">
        <ele>406.53</ele>
        <time>2018-07-01T08:45:59Z</time>
      </trkpt>
      <trkpt lat="49.53125" lon="5.86444">
        <ele>406.16</ele>
        <time>2018-07-01T08:46:00Z</time>
      </trkpt>
      <trkpt lat="49.53128" lon="5.86439">
        <ele>405.74</ele>
        <time>2018-07-01T08:46:01Z</time>
      </trkpt>
      <trkpt lat="49.53131" lon="5.86434">
        <ele>405.37</ele>
        <time>2018-07-01T08:46:02Z</time>
      </trkpt>
      <trkpt lat="49.53142" lon="5.86403">
        <ele>403.1</ele>
        <time>2018-07-01T08:46:08Z</time>
      </trkpt>
      <trkpt lat="49.5314" lon="5.86388">
        <ele>402.66</ele>
        <time>2018-07-01T08:46:11Z</time>
      </trkpt>
      <trkpt lat="49.53142" lon="5.86362">
        <ele>400.45</ele>
        <time>2018-07-01T08:46:17Z</time>
      </trkpt>
      <trkpt lat="49.53146" lon="5.86349">
        <ele>399.37</ele>
        <time>2018-07-01T08:46:21Z</time>
      </trkpt>
      <trkpt lat="49.53159" lon="5.86356">
        <ele>400.36</ele>
        <time>2018-07-01T08:46:28Z</time>
      </trkpt>
      <trkpt lat="49.53173" lon="5.86369">
        <ele>402.7</ele>
        <time>2018-07-01T08:46:34Z</time>
      </trkpt>
      <trkpt lat="49.5319" lon="5.86387">
        <ele>404.43</ele>
        <time>2018-07-01T08:46:39Z</time>
      </trkpt>
      <trkpt lat="49.53203" lon="5.86405">
        <ele>405.16</ele>
        <time>2018-07-01T08:46:42Z</time>
      </trkpt>
      <trkpt lat="49.53214" lon="5.86415">
        <ele>405.1</ele>
        <time>2018-07-01T08:46:44Z</time>
      </trkpt>
      <trkpt lat="49.53231" lon="5.86432">
        <ele>405.79</ele>
        <time>2018-07-01T08:46:48Z</time>
      </trkpt>
      <trkpt lat="49.53247" lon="5.86466">
        <ele>408</ele>
        <time>2018-07-01T08:46:53Z</time>
      </trkpt>
      <trkpt lat="49.53264" lon="5.86491">
        <ele>411.01</ele>
        <time>2018-07-01T08:46:59Z</time>
      </trkpt>
      <trkpt lat="49.53263" lon="5.86483">
        <ele>411.91</ele>
        <time>2018-07-01T08:47:04Z</time>
      </trkpt>
      <trkpt lat="49.53245" lon="5.86442">
        <ele>413.18</ele>
        <time>2018-07-01T08:47:11Z</time>
      </trkpt>
      <trkpt lat="49.53229" lon="5.8641">
        <ele>413.92</ele>
        <time>2018-07-01T08:47:16Z</time>
      </trkpt>
      <trkpt lat="49.53208" lon="5.86378">
        <ele>414.17</ele>
        <time>2018-07-01T08:47:22Z</time>
      </trkpt>
      <trkpt lat="49.53195" lon="5.86349">
        <ele>414.42</ele>
        <time>2018-07-01T08:47:27Z</time>
      </trkpt>
      <trkpt lat="49.53179" lon="5.86315">
        <ele>413.26</ele>
        <time>2018-07-01T08:47:33Z</time>
      </trkpt>
      <trkpt lat="49.53169" lon="5.86301">
        <ele>413.18</ele>
        <time>2018-07-01T08:47:35Z</time>
      </trkpt>
      <trkpt lat="49.53148" lon="5.86264">
        <ele>411.84</ele>
        <time>2018-07-01T08:47:42Z</time>
      </trkpt>
      <trkpt lat="49.53142" lon="5.86257">
        <ele>408.65</ele>
        <time>2018-07-01T08:47:45Z</time>
      </trkpt>
      <trkpt lat="49.53149" lon="5.86244">
        <ele>409.53</ele>
        <time>2018-07-01T08:47:50Z</time>
      </trkpt>
      <trkpt lat="49.53151" lon="5.86244">
        <ele>409.3</ele>
        <time>2018-07-01T08:47:51Z</time>
      </trkpt>
      <trkpt lat="49.53154" lon="5.86246">
        <ele>409.73</ele>
        <time>2018-07-01T08:47:52Z</time>
      </trkpt>
      <trkpt lat="49.53156" lon="5.86248">
        <ele>410.41</ele>
        <time>2018-07-01T08:47:53Z</time>
      </trkpt>
      <trkpt lat="49.53158" lon="5.8625">
        <ele>411.19</ele>
        <time>2018-07-01T08:47:54Z</time>
      </trkpt>
      <trkpt lat="49.5316" lon="5.86252">
        <ele>411.97</ele>
        <time>2018-07-01T08:47:55Z</time>
      </trkpt>
      <trkpt lat="49.53164" lon="5.86253">
        <ele>411.54</ele>
        <time>2018-07-01T08:47:56Z</time>
      </trkpt>
      <trkpt lat="49.53179" lon="5.86263">
        <ele>413.79</ele>
        <time>2018-07-01T08:48:00Z</time>
      </trkpt>
      <trkpt lat="49.53215" lon="5.86281">
        <ele>416.43</ele>
        <time>2018-07-01T08:48:06Z</time>
      </trkpt>
      <trkpt lat="49.53227" lon="5.86291">
        <ele>416.43</ele>
        <time>2018-07-01T08:48:08Z</time>
      </trkpt>
      <trkpt lat="49.53233" lon="5.86298">
        <ele>416.15</ele>
        <time>2018-07-01T08:48:09Z</time>
      </trkpt>
      <trkpt lat="49.53261" lon="5.8632">
        <ele>417.88</ele>
        <time>2018-07-01T08:48:13Z</time>
      </trkpt>
      <trkpt lat="49.53269" lon="5.86326">
        <ele>417.94</ele>
        <time>2018-07-01T08:48:14Z</time>
      </trkpt>
      <trkpt lat="49.5331" lon="5.86351">
        <ele>417.07</ele>
        <time>2018-07-01T08:48:19Z</time>
      </trkpt>
      <trkpt lat="49.53321" lon="5.8637">
        <ele>418.01</ele>
        <time>2018-07-01T08:48:22Z</time>
      </trkpt>
      <trkpt lat="49.53323" lon="5.86368">
        <ele>418.55</ele>
        <time>2018-07-01T08:48:26Z</time>
      </trkpt>
      <trkpt lat="49.53324" lon="5.86364">
        <ele>418.21</ele>
        <time>2018-07-01T08:48:27Z</time>
      </trkpt>
      <trkpt lat="49.53326" lon="5.86362">
        <ele>418.78</ele>
        <time>2018-07-01T08:48:28Z</time>
      </trkpt>
      <trkpt lat="49.53328" lon="5.86361">
        <ele>419.47</ele>
        <time>2018-07-01T08:48:29Z</time>
      </trkpt>
      <trkpt lat="49.53331" lon="5.8636">
        <ele>420.28</ele>
        <time>2018-07-01T08:48:30Z</time>
      </trkpt>
      <trkpt lat="49.53343" lon="5.86354">
        <ele>422.41</ele>
        <time>2018-07-01T08:48:33Z</time>
      </trkpt>
      <trkpt lat="49.53347" lon="5.86349">
        <ele>422.87</ele>
        <time>2018-07-01T08:48:34Z</time>
      </trkpt>
      <trkpt lat="49.53365" lon="5.86329">
        <ele>424.44</ele>
        <time>2018-07-01T08:48:38Z</time>
      </trkpt>
      <trkpt lat="49.53373" lon="5.86317">
        <ele>424.95</ele>
        <time>2018-07-01T08:48:40Z</time>
      </trkpt>
      <trkpt lat="49.53376" lon="5.86311">
        <ele>425.46</ele>
        <time>2018-07-01T08:48:41Z</time>
      </trkpt>
      <trkpt lat="49.5338" lon="5.86305">
        <ele>425.79</ele>
        <time>2018-07-01T08:48:42Z</time>
      </trkpt>
      <trkpt lat="49.53384" lon="5.863">
        <ele>426.25</ele>
        <time>2018-07-01T08:48:43Z</time>
      </trkpt>
      <trkpt lat="49.53388" lon="5.86293">
        <ele>426.7</ele>
        <time>2018-07-01T08:48:44Z</time>
      </trkpt>
      <trkpt lat="49.534" lon="5.86275">
        <ele>427.68</ele>
        <time>2018-07-01T08:48:47Z</time>
      </trkpt>
      <trkpt lat="49.53403" lon="5.86272">
        <ele>428.15</ele>
        <time>2018-07-01T08:48:48Z</time>
      </trkpt>
      <trkpt lat="49.53414" lon="5.86257">
        <ele>427.45</ele>
        <time>2018-07-01T08:48:53Z</time>
      </trkpt>
      <trkpt lat="49.53412" lon="5.86252">
        <ele>428.26</ele>
        <time>2018-07-01T08:48:54Z</time>
      </trkpt>
      <trkpt lat="49.53411" lon="5.8625">
        <ele>427.82</ele>
        <time>2018-07-01T08:48:55Z</time>
      </trkpt>
      <trkpt lat="49.53411" lon="5.86238">
        <ele>426.3</ele>
        <time>2018-07-01T08:48:58Z</time>
      </trkpt>
      <trkpt lat="49.53412" lon="5.86232">
        <ele>426.6</ele>
        <time>2018-07-01T08:48:59Z</time>
      </trkpt>
      <trkpt lat="49.53413" lon="5.86226">
        <ele>426.04</ele>
        <time>2018-07-01T08:49:00Z</time>
      </trkpt>
      <trkpt lat="49.53416" lon="5.86221">
        <ele>425.79</ele>
        <time>2018-07-01T08:49:01Z</time>
      </trkpt>
      <trkpt lat="49.5342" lon="5.86216">
        <ele>426.17</ele>
        <time>2018-07-01T08:49:02Z</time>
      </trkpt>
      <trkpt lat="49.53432" lon="5.86195">
        <ele>428.48</ele>
        <time>2018-07-01T08:49:07Z</time>
      </trkpt>
      <trkpt lat="49.53437" lon="5.86185">
        <ele>428.76</ele>
        <time>2018-07-01T08:49:09Z</time>
      </trkpt>
      <trkpt lat="49.53441" lon="5.86175">
        <ele>429.72</ele>
        <time>2018-07-01T08:49:11Z</time>
      </trkpt>
      <trkpt lat="49.53442" lon="5.86171">
        <ele>429.53</ele>
        <time>2018-07-01T08:49:12Z</time>
      </trkpt>
      <trkpt lat="49.53442" lon="5.86168">
        <ele>429.91</ele>
        <time>2018-07-01T08:49:13Z</time>
      </trkpt>
      <trkpt lat="49.53443" lon="5.86165">
        <ele>430.17</ele>
        <time>2018-07-01T08:49:14Z</time>
      </trkpt>
      <trkpt lat="49.53444" lon="5.86163">
        <ele>430.46</ele>
        <time>2018-07-01T08:49:15Z</time>
      </trkpt>
      <trkpt lat="49.53446" lon="5.86154">
        <ele>431.68</ele>
        <time>2018-07-01T08:49:19Z</time>
      </trkpt>
      <trkpt lat="49.53459" lon="5.86127">
        <ele>433.12</ele>
        <time>2018-07-01T08:49:25Z</time>
      </trkpt>
      <trkpt lat="49.53463" lon="5.8612">
        <ele>433.6</ele>
        <time>2018-07-01T08:49:28Z</time>
      </trkpt>
      <trkpt lat="49.53464" lon="5.86116">
        <ele>433.8</ele>
        <time>2018-07-01T08:49:29Z</time>
      </trkpt>
      <trkpt lat="49.53466" lon="5.86112">
        <ele>433.97</ele>
        <time>2018-07-01T08:49:30Z</time>
      </trkpt>
      <trkpt lat="49.53467" lon="5.86108">
        <ele>434.14</ele>
        <time>2018-07-01T08:49:31Z</time>
      </trkpt>
      <trkpt lat="49.53468" lon="5.86106">
        <ele>434.43</ele>
        <time>2018-07-01T08:49:32Z</time>
      </trkpt>
      <trkpt lat="49.5347" lon="5.86103">
        <ele>434.71</ele>
        <time>2018-07-01T08:49:33Z</time>
      </trkpt>
      <trkpt lat="49.53472" lon="5.861">
        <ele>434.95</ele>
        <time>2018-07-01T08:49:34Z</time>
      </trkpt>
      <trkpt lat="49.53473" lon="5.86097">
        <ele>435.03</ele>
        <time>2018-07-01T08:49:35Z</time>
      </trkpt>
      <trkpt lat="49.53475" lon="5.86094">
        <ele>435.2</ele>
        <time>2018-07-01T08:49:36Z</time>
      </trkpt>
      <trkpt lat="49.53476" lon="5.86091">
        <ele>435.53</ele>
        <time>2018-07-01T08:49:37Z</time>
      </trkpt>
      <trkpt lat="49.53478" lon="5.86089">
        <ele>435.88</ele>
        <time>2018-07-01T08:49:38Z</time>
      </trkpt>
      <trkpt lat="49.53483" lon="5.86068">
        <ele>437.94</ele>
        <time>2018-07-01T08:49:44Z</time>
      </trkpt>
      <trkpt lat="49.53487" lon="5.8605">
        <ele>439.38</ele>
        <time>2018-07-01T08:49:49Z</time>
      </trkpt>
      <trkpt lat="49.53492" lon="5.86032">
        <ele>440.24</ele>
        <time>2018-07-01T08:49:54Z</time>
      </trkpt>
      <trkpt lat="49.53496" lon="5.86013">
        <ele>440</ele>
        <time>2018-07-01T08:50:00Z</time>
      </trkpt>
      <trkpt lat="49.53504" lon="5.85977">
        <ele>440.94</ele>
        <time>2018-07-01T08:50:08Z</time>
      </trkpt>
      <trkpt lat="49.53511" lon="5.85948">
        <ele>441.39</ele>
        <time>2018-07-01T08:50:15Z</time>
      </trkpt>
      <trkpt lat="49.53512" lon="5.85944">
        <ele>441.46</ele>
        <time>2018-07-01T08:50:16Z</time>
      </trkpt>
      <trkpt lat="49.53513" lon="5.85938">
        <ele>441.51</ele>
        <time>2018-07-01T08:50:17Z</time>
      </trkpt>
      <trkpt lat="49.53515" lon="5.85933">
        <ele>441.58</ele>
        <time>2018-07-01T08:50:18Z</time>
      </trkpt>
      <trkpt lat="49.53517" lon="5.85929">
        <ele>441.63</ele>
        <time>2018-07-01T08:50:19Z</time>
      </trkpt>
      <trkpt lat="49.53519" lon="5.85924">
        <ele>441.65</ele>
        <time>2018-07-01T08:50:20Z</time>
      </trkpt>
      <trkpt lat="49.5352" lon="5.85919">
        <ele>441.71</ele>
        <time>2018-07-01T08:50:21Z</time>
      </trkpt>
      <trkpt lat="49.53524" lon="5.85895">
        <ele>441.67</ele>
        <time>2018-07-01T08:50:27Z</time>
      </trkpt>
      <trkpt lat="49.53529" lon="5.8586">
        <ele>440.89</ele>
        <time>2018-07-01T08:50:33Z</time>
      </trkpt>
      <trkpt lat="49.53533" lon="5.85841">
        <ele>439.95</ele>
        <time>2018-07-01T08:50:38Z</time>
      </trkpt>
      <trkpt lat="49.53537" lon="5.85807">
        <ele>435.26</ele>
        <time>2018-07-01T08:50:45Z</time>
      </trkpt>
      <trkpt lat="49.53548" lon="5.85758">
        <ele>426.53</ele>
        <time>2018-07-01T08:50:54Z</time>
      </trkpt>
      <trkpt lat="49.53559" lon="5.85715">
        <ele>420.28</ele>
        <time>2018-07-01T08:51:01Z</time>
      </trkpt>
      <trkpt lat="49.53569" lon="5.85681">
        <ele>414.82</ele>
        <time>2018-07-01T08:51:07Z</time>
      </trkpt>
      <trkpt lat="49.53576" lon="5.85647">
        <ele>405.25</ele>
        <time>2018-07-01T08:51:12Z</time>
      </trkpt>
      <trkpt lat="49.53601" lon="5.85585">
        <ele>364.44</ele>
        <time>2018-07-01T08:51:18Z</time>
      </trkpt>
      <trkpt lat="49.53618" lon="5.85528">
        <ele>342.99</ele>
        <time>2018-07-01T08:51:27Z</time>
      </trkpt>
      <trkpt lat="49.53631" lon="5.85487">
        <ele>336.59</ele>
        <time>2018-07-01T08:51:33Z</time>
      </trkpt>
      <trkpt lat="49.53637" lon="5.85452">
        <ele>332.54</ele>
        <time>2018-07-01T08:51:39Z</time>
      </trkpt>
      <trkpt lat="49.53645" lon="5.85426">
        <ele>327.88</ele>
        <time>2018-07-01T08:51:45Z</time>
      </trkpt>
      <trkpt lat="49.53651" lon="5.85395">
        <ele>324.42</ele>
        <time>2018-07-01T08:51:52Z</time>
      </trkpt>
      <trkpt lat="49.53661" lon="5.8537">
        <ele>320.85</ele>
        <time>2018-07-01T08:51:58Z</time>
      </trkpt>
      <trkpt lat="49.53675" lon="5.85334">
        <ele>318.52</ele>
        <time>2018-07-01T08:52:05Z</time>
      </trkpt>
      <trkpt lat="49.53689" lon="5.85307">
        <ele>316.63</ele>
        <time>2018-07-01T08:52:12Z</time>
      </trkpt>
      <trkpt lat="49.53704" lon="5.85284">
        <ele>315.15</ele>
        <time>2018-07-01T08:52:18Z</time>
      </trkpt>
      <trkpt lat="49.53717" lon="5.85265">
        <ele>314.06</ele>
        <time>2018-07-01T08:52:24Z</time>
      </trkpt>
      <trkpt lat="49.53739" lon="5.85229">
        <ele>311.42</ele>
        <time>2018-07-01T08:52:33Z</time>
      </trkpt>
      <trkpt lat="49.53752" lon="5.85204">
        <ele>309.3</ele>
        <time>2018-07-01T08:52:39Z</time>
      </trkpt>
      <trkpt lat="49.53765" lon="5.85176">
        <ele>308.08</ele>
        <time>2018-07-01T08:52:46Z</time>
      </trkpt>
      <trkpt lat="49.53778" lon="5.85156">
        <ele>307.47</ele>
        <time>2018-07-01T08:52:52Z</time>
      </trkpt>
      <trkpt lat="49.53793" lon="5.8513">
        <ele>306.32</ele>
        <time>2018-07-01T08:52:58Z</time>
      </trkpt>
      <trkpt lat="49.53812" lon="5.851">
        <ele>306.07</ele>
        <time>2018-07-01T08:53:06Z</time>
      </trkpt>
      <trkpt lat="49.53826" lon="5.85077">
        <ele>307.43</ele>
        <time>2018-07-01T08:53:13Z</time>
      </trkpt>
      <trkpt lat="49.53838" lon="5.8506">
        <ele>307.58</ele>
        <time>2018-07-01T08:53:18Z</time>
      </trkpt>
      <trkpt lat="49.53853" lon="5.8504">
        <ele>307.67</ele>
        <time>2018-07-01T08:53:24Z</time>
      </trkpt>
      <trkpt lat="49.53865" lon="5.85019">
        <ele>307.76</ele>
        <time>2018-07-01T08:53:30Z</time>
      </trkpt>
      <trkpt lat="49.53879" lon="5.85001">
        <ele>307.64</ele>
        <time>2018-07-01T08:53:36Z</time>
      </trkpt>
      <trkpt lat="49.53899" lon="5.84988">
        <ele>305.3</ele>
        <time>2018-07-01T08:53:43Z</time>
      </trkpt>
      <trkpt lat="49.53919" lon="5.84971">
        <ele>302.91</ele>
        <time>2018-07-01T08:53:49Z</time>
      </trkpt>
      <trkpt lat="49.53941" lon="5.84962">
        <ele>300.41</ele>
        <time>2018-07-01T08:53:55Z</time>
      </trkpt>
      <trkpt lat="49.53962" lon="5.84957">
        <ele>296.32</ele>
        <time>2018-07-01T08:54:01Z</time>
      </trkpt>
      <trkpt lat="49.53981" lon="5.84964">
        <ele>292.82</ele>
        <time>2018-07-01T08:54:07Z</time>
      </trkpt>
      <trkpt lat="49.53986" lon="5.84967">
        <ele>291.81</ele>
        <time>2018-07-01T08:54:09Z</time>
      </trkpt>
      <trkpt lat="49.54008" lon="5.84984">
        <ele>288.15</ele>
        <time>2018-07-01T08:54:18Z</time>
      </trkpt>
      <trkpt lat="49.54023" lon="5.84995">
        <ele>286.22</ele>
        <time>2018-07-01T08:54:24Z</time>
      </trkpt>
      <trkpt lat="49.54026" lon="5.84996">
        <ele>285.87</ele>
        <time>2018-07-01T08:54:25Z</time>
      </trkpt>
      <trkpt lat="49.54031" lon="5.84999">
        <ele>285.03</ele>
        <time>2018-07-01T08:54:27Z</time>
      </trkpt>
      <trkpt lat="49.5405" lon="5.8501">
        <ele>283.7</ele>
        <time>2018-07-01T08:54:34Z</time>
      </trkpt>
      <trkpt lat="49.54072" lon="5.8502">
        <ele>283.39</ele>
        <time>2018-07-01T08:54:39Z</time>
      </trkpt>
      <trkpt lat="49.54087" lon="5.85028">
        <ele>283.73</ele>
        <time>2018-07-01T08:54:44Z</time>
      </trkpt>
      <trkpt lat="49.54114" lon="5.85041">
        <ele>286.09</ele>
        <time>2018-07-01T08:54:51Z</time>
      </trkpt>
      <trkpt lat="49.5413" lon="5.85049">
        <ele>287.95</ele>
        <time>2018-07-01T08:54:57Z</time>
      </trkpt>
      <trkpt lat="49.54143" lon="5.85056">
        <ele>291.53</ele>
        <time>2018-07-01T08:55:02Z</time>
      </trkpt>
      <trkpt lat="49.54164" lon="5.85044">
        <ele>306.69</ele>
        <time>2018-07-01T08:55:09Z</time>
      </trkpt>
      <trkpt lat="49.54167" lon="5.85043">
        <ele>309.28</ele>
        <time>2018-07-01T08:55:10Z</time>
      </trkpt>
      <trkpt lat="49.54183" lon="5.85044">
        <ele>320.43</ele>
        <time>2018-07-01T08:55:16Z</time>
      </trkpt>
      <trkpt lat="49.54197" lon="5.85052">
        <ele>326.74</ele>
        <time>2018-07-01T08:55:21Z</time>
      </trkpt>
      <trkpt lat="49.54212" lon="5.85063">
        <ele>331.69</ele>
        <time>2018-07-01T08:55:27Z</time>
      </trkpt>
      <trkpt lat="49.54226" lon="5.85073">
        <ele>335.36</ele>
        <time>2018-07-01T08:55:31Z</time>
      </trkpt>
      <trkpt lat="49.54242" lon="5.85083">
        <ele>339.57</ele>
        <time>2018-07-01T08:55:36Z</time>
      </trkpt>
      <trkpt lat="49.54271" lon="5.851">
        <ele>343.61</ele>
        <time>2018-07-01T08:55:43Z</time>
      </trkpt>
      <trkpt lat="49.5429" lon="5.85123">
        <ele>344.76</ele>
        <time>2018-07-01T08:55:50Z</time>
      </trkpt>
      <trkpt lat="49.54301" lon="5.85153">
        <ele>345.89</ele>
        <time>2018-07-01T08:55:56Z</time>
      </trkpt>
      <trkpt lat="49.54305" lon="5.85168">
        <ele>346.55</ele>
        <time>2018-07-01T08:55:59Z</time>
      </trkpt>
      <trkpt lat="49.54312" lon="5.85198">
        <ele>347.9</ele>
        <time>2018-07-01T08:56:04Z</time>
      </trkpt>
      <trkpt lat="49.54332" lon="5.85205">
        <ele>348.19</ele>
        <time>2018-07-01T08:56:09Z</time>
      </trkpt>
      <trkpt lat="49.54339" lon="5.85191">
        <ele>347.82</ele>
        <time>2018-07-01T08:56:11Z</time>
      </trkpt>
      <trkpt lat="49.54347" lon="5.85166">
        <ele>347.15</ele>
        <time>2018-07-01T08:56:14Z</time>
      </trkpt>
      <trkpt lat="49.54353" lon="5.85151">
        <ele>346.56</ele>
        <time>2018-07-01T08:56:16Z</time>
      </trkpt>
      <trkpt lat="49.54357" lon="5.85144">
        <ele>345.93</ele>
        <time>2018-07-01T08:56:17Z</time>
      </trkpt>
      <trkpt lat="49.5436" lon="5.85136">
        <ele>345.42</ele>
        <time>2018-07-01T08:56:18Z</time>
      </trkpt>
      <trkpt lat="49.54363" lon="5.85128">
        <ele>345.28</ele>
        <time>2018-07-01T08:56:19Z</time>
      </trkpt>
      <trkpt lat="49.54364" lon="5.8512">
        <ele>344.89</ele>
        <time>2018-07-01T08:56:20Z</time>
      </trkpt>
      <trkpt lat="49.54365" lon="5.85112">
        <ele>345.26</ele>
        <time>2018-07-01T08:56:21Z</time>
      </trkpt>
      <trkpt lat="49.54366" lon="5.85105">
        <ele>345.31</ele>
        <time>2018-07-01T08:56:22Z</time>
      </trkpt>
      <trkpt lat="49.54368" lon="5.851">
        <ele>345.46</ele>
        <time>2018-07-01T08:56:23Z</time>
      </trkpt>
      <trkpt lat="49.5437" lon="5.85095">
        <ele>345.35</ele>
        <time>2018-07-01T08:56:24Z</time>
      </trkpt>
      <trkpt lat="49.54373" lon="5.85091">
        <ele>345.42</ele>
        <time>2018-07-01T08:56:25Z</time>
      </trkpt>
      <trkpt lat="49.54376" lon="5.85088">
        <ele>345.54</ele>
        <time>2018-07-01T08:56:26Z</time>
      </trkpt>
      <trkpt lat="49.54379" lon="5.85086">
        <ele>345.43</ele>
        <time>2018-07-01T08:56:27Z</time>
      </trkpt>
      <trkpt lat="49.54394" lon="5.85089">
        <ele>343.6</ele>
        <time>2018-07-01T08:56:32Z</time>
      </trkpt>
      <trkpt lat="49.54404" lon="5.85114">
        <ele>342.14</ele>
        <time>2018-07-01T08:56:38Z</time>
      </trkpt>
      <trkpt lat="49.54411" lon="5.85126">
        <ele>340.71</ele>
        <time>2018-07-01T08:56:43Z</time>
      </trkpt>
      <trkpt lat="49.54419" lon="5.85141">
        <ele>338.51</ele>
        <time>2018-07-01T08:56:48Z</time>
      </trkpt>
      <trkpt lat="49.5442" lon="5.85145">
        <ele>338.39</ele>
        <time>2018-07-01T08:56:49Z</time>
      </trkpt>
      <trkpt lat="49.5442" lon="5.85149">
        <ele>338.38</ele>
        <time>2018-07-01T08:56:50Z</time>
      </trkpt>
      <trkpt lat="49.54419" lon="5.8517">
        <ele>337.91</ele>
        <time>2018-07-01T08:56:55Z</time>
      </trkpt>
      <trkpt lat="49.5442" lon="5.85202">
        <ele>336.18</ele>
        <time>2018-07-01T08:57:00Z</time>
      </trkpt>
      <trkpt lat="49.54417" lon="5.8523">
        <ele>333.4</ele>
        <time>2018-07-01T08:57:05Z</time>
      </trkpt>
      <trkpt lat="49.5441" lon="5.85245">
        <ele>331.01</ele>
        <time>2018-07-01T08:57:09Z</time>
      </trkpt>
      <trkpt lat="49.54404" lon="5.85274">
        <ele>328.72</ele>
        <time>2018-07-01T08:57:14Z</time>
      </trkpt>
      <trkpt lat="49.54396" lon="5.85287">
        <ele>326.57</ele>
        <time>2018-07-01T08:57:18Z</time>
      </trkpt>
      <trkpt lat="49.5439" lon="5.85302">
        <ele>324.76</ele>
        <time>2018-07-01T08:57:21Z</time>
      </trkpt>
      <trkpt lat="49.54386" lon="5.85315">
        <ele>323.29</ele>
        <time>2018-07-01T08:57:23Z</time>
      </trkpt>
      <trkpt lat="49.54378" lon="5.85342">
        <ele>320.86</ele>
        <time>2018-07-01T08:57:27Z</time>
      </trkpt>
      <trkpt lat="49.54364" lon="5.85383">
        <ele>317.52</ele>
        <time>2018-07-01T08:57:34Z</time>
      </trkpt>
      <trkpt lat="49.54351" lon="5.85419">
        <ele>314.34</ele>
        <time>2018-07-01T08:57:41Z</time>
      </trkpt>
      <trkpt lat="49.54343" lon="5.85445">
        <ele>312.39</ele>
        <time>2018-07-01T08:57:46Z</time>
      </trkpt>
      <trkpt lat="49.5434" lon="5.85452">
        <ele>312</ele>
        <time>2018-07-01T08:57:48Z</time>
      </trkpt>
      <trkpt lat="49.54336" lon="5.8547">
        <ele>309.91</ele>
        <time>2018-07-01T08:57:53Z</time>
      </trkpt>
      <trkpt lat="49.54335" lon="5.85476">
        <ele>309.66</ele>
        <time>2018-07-01T08:57:54Z</time>
      </trkpt>
      <trkpt lat="49.54324" lon="5.85531">
        <ele>306.84</ele>
        <time>2018-07-01T08:58:02Z</time>
      </trkpt>
      <trkpt lat="49.54325" lon="5.85558">
        <ele>305.87</ele>
        <time>2018-07-01T08:58:06Z</time>
      </trkpt>
      <trkpt lat="49.54324" lon="5.85584">
        <ele>305.11</ele>
        <time>2018-07-01T08:58:10Z</time>
      </trkpt>
      <trkpt lat="49.54316" lon="5.85611">
        <ele>303.78</ele>
        <time>2018-07-01T08:58:15Z</time>
      </trkpt>
      <trkpt lat="49.54315" lon="5.85617">
        <ele>303.47</ele>
        <time>2018-07-01T08:58:16Z</time>
      </trkpt>
      <trkpt lat="49.54305" lon="5.85656">
        <ele>301.6</ele>
        <time>2018-07-01T08:58:24Z</time>
      </trkpt>
      <trkpt lat="49.54296" lon="5.85675">
        <ele>300.8</ele>
        <time>2018-07-01T08:58:29Z</time>
      </trkpt>
      <trkpt lat="49.5429" lon="5.85696">
        <ele>301.35</ele>
        <time>2018-07-01T08:58:34Z</time>
      </trkpt>
      <trkpt lat="49.54283" lon="5.85724">
        <ele>301.6</ele>
        <time>2018-07-01T08:58:40Z</time>
      </trkpt>
      <trkpt lat="49.54276" lon="5.85753">
        <ele>304.74</ele>
        <time>2018-07-01T08:58:46Z</time>
      </trkpt>
      <trkpt lat="49.54272" lon="5.85771">
        <ele>307.25</ele>
        <time>2018-07-01T08:58:52Z</time>
      </trkpt>
      <trkpt lat="49.54273" lon="5.85774">
        <ele>308.39</ele>
        <time>2018-07-01T08:58:54Z</time>
      </trkpt>
      <trkpt lat="49.54278" lon="5.85784">
        <ele>313.68</ele>
        <time>2018-07-01T08:59:03Z</time>
      </trkpt>
      <trkpt lat="49.5428" lon="5.85803">
        <ele>319.63</ele>
        <time>2018-07-01T08:59:19Z</time>
      </trkpt>
      <trkpt lat="49.54281" lon="5.8581">
        <ele>320.34</ele>
        <time>2018-07-01T08:59:21Z</time>
      </trkpt>
      <trkpt lat="49.54284" lon="5.85822">
        <ele>322.2</ele>
        <time>2018-07-01T08:59:26Z</time>
      </trkpt>
      <trkpt lat="49.54285" lon="5.85835">
        <ele>324.1</ele>
        <time>2018-07-01T08:59:31Z</time>
      </trkpt>
      <trkpt lat="49.54293" lon="5.85855">
        <ele>327.99</ele>
        <time>2018-07-01T08:59:39Z</time>
      </trkpt>
      <trkpt lat="49.54295" lon="5.85866">
        <ele>330.85</ele>
        <time>2018-07-01T08:59:44Z</time>
      </trkpt>
      <trkpt lat="49.54301" lon="5.8588">
        <ele>333.08</ele>
        <time>2018-07-01T08:59:48Z</time>
      </trkpt>
      <trkpt lat="49.54318" lon="5.85913">
        <ele>335.56</ele>
        <time>2018-07-01T08:59:55Z</time>
      </trkpt>
      <trkpt lat="49.54329" lon="5.85932">
        <ele>337.42</ele>
        <time>2018-07-01T09:00:00Z</time>
      </trkpt>
      <trkpt lat="49.54339" lon="5.85943">
        <ele>338.27</ele>
        <time>2018-07-01T09:00:04Z</time>
      </trkpt>
      <trkpt lat="49.54353" lon="5.85955">
        <ele>340.07</ele>
        <time>2018-07-01T09:00:09Z</time>
      </trkpt>
      <trkpt lat="49.54368" lon="5.85978">
        <ele>341.77</ele>
        <time>2018-07-01T09:00:16Z</time>
      </trkpt>
      <trkpt lat="49.5437" lon="5.85982">
        <ele>341.87</ele>
        <time>2018-07-01T09:00:17Z</time>
      </trkpt>
      <trkpt lat="49.54384" lon="5.86007">
        <ele>341.96</ele>
        <time>2018-07-01T09:00:22Z</time>
      </trkpt>
      <trkpt lat="49.54391" lon="5.86036">
        <ele>343.22</ele>
        <time>2018-07-01T09:00:28Z</time>
      </trkpt>
      <trkpt lat="49.54391" lon="5.8605">
        <ele>343.5</ele>
        <time>2018-07-01T09:00:31Z</time>
      </trkpt>
      <trkpt lat="49.54393" lon="5.86074">
        <ele>343.61</ele>
        <time>2018-07-01T09:00:38Z</time>
      </trkpt>
      <trkpt lat="49.54392" lon="5.8609">
        <ele>343.49</ele>
        <time>2018-07-01T09:00:42Z</time>
      </trkpt>
      <trkpt lat="49.54389" lon="5.86108">
        <ele>342.65</ele>
        <time>2018-07-01T09:00:47Z</time>
      </trkpt>
      <trkpt lat="49.54383" lon="5.86148">
        <ele>342.18</ele>
        <time>2018-07-01T09:00:54Z</time>
      </trkpt>
      <trkpt lat="49.54378" lon="5.86174">
        <ele>341.11</ele>
        <time>2018-07-01T09:01:00Z</time>
      </trkpt>
      <trkpt lat="49.54377" lon="5.86185">
        <ele>340.37</ele>
        <time>2018-07-01T09:01:02Z</time>
      </trkpt>
      <trkpt lat="49.54366" lon="5.8622">
        <ele>338.87</ele>
        <time>2018-07-01T09:01:08Z</time>
      </trkpt>
      <trkpt lat="49.54363" lon="5.86234">
        <ele>338.2</ele>
        <time>2018-07-01T09:01:11Z</time>
      </trkpt>
      <trkpt lat="49.54357" lon="5.86252">
        <ele>337.56</ele>
        <time>2018-07-01T09:01:16Z</time>
      </trkpt>
      <trkpt lat="49.54357" lon="5.86254">
        <ele>337.42</ele>
        <time>2018-07-01T09:01:17Z</time>
      </trkpt>
      <trkpt lat="49.54343" lon="5.86274">
        <ele>336.39</ele>
        <time>2018-07-01T09:01:24Z</time>
      </trkpt>
      <trkpt lat="49.5433" lon="5.8629">
        <ele>336.18</ele>
        <time>2018-07-01T09:01:30Z</time>
      </trkpt>
      <trkpt lat="49.5432" lon="5.86304">
        <ele>336.88</ele>
        <time>2018-07-01T09:01:37Z</time>
      </trkpt>
      <trkpt lat="49.54308" lon="5.86315">
        <ele>336.91</ele>
        <time>2018-07-01T09:01:43Z</time>
      </trkpt>
      <trkpt lat="49.54296" lon="5.86324">
        <ele>336.07</ele>
        <time>2018-07-01T09:01:48Z</time>
      </trkpt>
      <trkpt lat="49.54282" lon="5.86332">
        <ele>335.27</ele>
        <time>2018-07-01T09:01:54Z</time>
      </trkpt>
      <trkpt lat="49.54278" lon="5.86335">
        <ele>335.27</ele>
        <time>2018-07-01T09:01:56Z</time>
      </trkpt>
      <trkpt lat="49.54259" lon="5.86341">
        <ele>333.61</ele>
        <time>2018-07-01T09:02:01Z</time>
      </trkpt>
      <trkpt lat="49.54247" lon="5.86345">
        <ele>333.01</ele>
        <time>2018-07-01T09:02:06Z</time>
      </trkpt>
      <trkpt lat="49.54229" lon="5.86348">
        <ele>329.4</ele>
        <time>2018-07-01T09:02:13Z</time>
      </trkpt>
      <trkpt lat="49.54208" lon="5.86351">
        <ele>325.26</ele>
        <time>2018-07-01T09:02:20Z</time>
      </trkpt>
      <trkpt lat="49.54182" lon="5.86356">
        <ele>322.14</ele>
        <time>2018-07-01T09:02:26Z</time>
      </trkpt>
      <trkpt lat="49.54151" lon="5.86365">
        <ele>317.9</ele>
        <time>2018-07-01T09:02:33Z</time>
      </trkpt>
      <trkpt lat="49.54133" lon="5.86363">
        <ele>314.52</ele>
        <time>2018-07-01T09:02:39Z</time>
      </trkpt>
      <trkpt lat="49.54128" lon="5.86357">
        <ele>312.09</ele>
        <time>2018-07-01T09:02:47Z</time>
      </trkpt>
      <trkpt lat="49.54132" lon="5.86377">
        <ele>352.42</ele>
        <time>2018-07-01T09:08:51Z</time>
      </trkpt>
      <trkpt lat="49.54131" lon="5.86377">
        <ele>352.3</ele>
        <time>2018-07-01T09:08:54Z</time>
      </trkpt>
      <trkpt lat="49.5411" lon="5.86386">
        <ele>347.88</ele>
        <time>2018-07-01T09:10:41Z</time>
      </trkpt>
      <trkpt lat="49.54096" lon="5.86401">
        <ele>345.81</ele>
        <time>2018-07-01T09:10:48Z</time>
      </trkpt>
      <trkpt lat="49.54079" lon="5.86423">
        <ele>342.08</ele>
        <time>2018-07-01T09:10:56Z</time>
      </trkpt>
      <trkpt lat="49.54062" lon="5.86443">
        <ele>338.45</ele>
        <time>2018-07-01T09:11:04Z</time>
      </trkpt>
      <trkpt lat="49.54052" lon="5.86455">
        <ele>336.07</ele>
        <time>2018-07-01T09:11:09Z</time>
      </trkpt>
      <trkpt lat="49.54047" lon="5.8646">
        <ele>334.87</ele>
        <time>2018-07-01T09:11:12Z</time>
      </trkpt>
      <trkpt lat="49.54042" lon="5.86466">
        <ele>333.46</ele>
        <time>2018-07-01T09:11:15Z</time>
      </trkpt>
      <trkpt lat="49.5404" lon="5.86468">
        <ele>332.98</ele>
        <time>2018-07-01T09:11:16Z</time>
      </trkpt>
      <trkpt lat="49.54038" lon="5.86469">
        <ele>332.39</ele>
        <time>2018-07-01T09:11:17Z</time>
      </trkpt>
      <trkpt lat="49.54036" lon="5.86471">
        <ele>331.62</ele>
        <time>2018-07-01T09:11:18Z</time>
      </trkpt>
      <trkpt lat="49.54034" lon="5.86473">
        <ele>331.05</ele>
        <time>2018-07-01T09:11:19Z</time>
      </trkpt>
      <trkpt lat="49.54032" lon="5.86476">
        <ele>330.38</ele>
        <time>2018-07-01T09:11:20Z</time>
      </trkpt>
      <trkpt lat="49.5403" lon="5.86477">
        <ele>329.85</ele>
        <time>2018-07-01T09:11:21Z</time>
      </trkpt>
      <trkpt lat="49.54019" lon="5.86487">
        <ele>327.05</ele>
        <time>2018-07-01T09:11:27Z</time>
      </trkpt>
      <trkpt lat="49.54017" lon="5.86488">
        <ele>326.74</ele>
        <time>2018-07-01T09:11:28Z</time>
      </trkpt>
      <trkpt lat="49.54015" lon="5.8649">
        <ele>326.35</ele>
        <time>2018-07-01T09:11:29Z</time>
      </trkpt>
      <trkpt lat="49.54014" lon="5.86491">
        <ele>325.92</ele>
        <time>2018-07-01T09:11:30Z</time>
      </trkpt>
      <trkpt lat="49.54012" lon="5.86493">
        <ele>325.78</ele>
        <time>2018-07-01T09:11:31Z</time>
      </trkpt>
      <trkpt lat="49.5401" lon="5.86495">
        <ele>325.56</ele>
        <time>2018-07-01T09:11:32Z</time>
      </trkpt>
      <trkpt lat="49.54009" lon="5.86498">
        <ele>325.22</ele>
        <time>2018-07-01T09:11:33Z</time>
      </trkpt>
      <trkpt lat="49.54" lon="5.86511">
        <ele>323.65</ele>
        <time>2018-07-01T09:11:39Z</time>
      </trkpt>
      <trkpt lat="49.53981" lon="5.86538">
        <ele>321.65</ele>
        <time>2018-07-01T09:11:47Z</time>
      </trkpt>
      <trkpt lat="49.5397" lon="5.86556">
        <ele>321.32</ele>
        <time>2018-07-01T09:11:53Z</time>
      </trkpt>
      <trkpt lat="49.53965" lon="5.86571">
        <ele>321.05</ele>
        <time>2018-07-01T09:11:57Z</time>
      </trkpt>
      <trkpt lat="49.53963" lon="5.86574">
        <ele>321.33</ele>
        <time>2018-07-01T09:11:58Z</time>
      </trkpt>
      <trkpt lat="49.53962" lon="5.86578">
        <ele>321.46</ele>
        <time>2018-07-01T09:11:59Z</time>
      </trkpt>
      <trkpt lat="49.53962" lon="5.86582">
        <ele>321.69</ele>
        <time>2018-07-01T09:12:00Z</time>
      </trkpt>
      <trkpt lat="49.53961" lon="5.86585">
        <ele>321.79</ele>
        <time>2018-07-01T09:12:01Z</time>
      </trkpt>
      <trkpt lat="49.5396" lon="5.86589">
        <ele>321.73</ele>
        <time>2018-07-01T09:12:02Z</time>
      </trkpt>
      <trkpt lat="49.5396" lon="5.86592">
        <ele>321.75</ele>
        <time>2018-07-01T09:12:03Z</time>
      </trkpt>
      <trkpt lat="49.53959" lon="5.86596">
        <ele>322.07</ele>
        <time>2018-07-01T09:12:04Z</time>
      </trkpt>
      <trkpt lat="49.53958" lon="5.866">
        <ele>322.3</ele>
        <time>2018-07-01T09:12:05Z</time>
      </trkpt>
      <trkpt lat="49.53958" lon="5.86605">
        <ele>322.48</ele>
        <time>2018-07-01T09:12:06Z</time>
      </trkpt>
      <trkpt lat="49.53956" lon="5.86619">
        <ele>323.06</ele>
        <time>2018-07-01T09:12:09Z</time>
      </trkpt>
      <trkpt lat="49.53956" lon="5.86623">
        <ele>323.18</ele>
        <time>2018-07-01T09:12:10Z</time>
      </trkpt>
      <trkpt lat="49.53955" lon="5.86628">
        <ele>323.32</ele>
        <time>2018-07-01T09:12:11Z</time>
      </trkpt>
      <trkpt lat="49.53952" lon="5.86662">
        <ele>325</ele>
        <time>2018-07-01T09:12:18Z</time>
      </trkpt>
      <trkpt lat="49.5395" lon="5.86691">
        <ele>326.03</ele>
        <time>2018-07-01T09:12:24Z</time>
      </trkpt>
      <trkpt lat="49.53949" lon="5.8671">
        <ele>327.74</ele>
        <time>2018-07-01T09:12:29Z</time>
      </trkpt>
      <trkpt lat="49.53949" lon="5.86714">
        <ele>328.14</ele>
        <time>2018-07-01T09:12:30Z</time>
      </trkpt>
      <trkpt lat="49.53948" lon="5.86718">
        <ele>328.55</ele>
        <time>2018-07-01T09:12:31Z</time>
      </trkpt>
      <trkpt lat="49.53948" lon="5.86723">
        <ele>329</ele>
        <time>2018-07-01T09:12:32Z</time>
      </trkpt>
      <trkpt lat="49.53947" lon="5.86728">
        <ele>329.45</ele>
        <time>2018-07-01T09:12:33Z</time>
      </trkpt>
      <trkpt lat="49.53947" lon="5.86733">
        <ele>329.83</ele>
        <time>2018-07-01T09:12:34Z</time>
      </trkpt>
      <trkpt lat="49.53947" lon="5.86737">
        <ele>330.34</ele>
        <time>2018-07-01T09:12:35Z</time>
      </trkpt>
      <trkpt lat="49.53947" lon="5.86742">
        <ele>330.74</ele>
        <time>2018-07-01T09:12:36Z</time>
      </trkpt>
      <trkpt lat="49.53948" lon="5.86746">
        <ele>331.09</ele>
        <time>2018-07-01T09:12:37Z</time>
      </trkpt>
      <trkpt lat="49.53947" lon="5.8675">
        <ele>331.26</ele>
        <time>2018-07-01T09:12:38Z</time>
      </trkpt>
      <trkpt lat="49.53946" lon="5.86792">
        <ele>333.12</ele>
        <time>2018-07-01T09:12:47Z</time>
      </trkpt>
      <trkpt lat="49.53938" lon="5.8682">
        <ele>335.9</ele>
        <time>2018-07-01T09:12:55Z</time>
      </trkpt>
      <trkpt lat="49.53929" lon="5.86846">
        <ele>338.67</ele>
        <time>2018-07-01T09:13:02Z</time>
      </trkpt>
      <trkpt lat="49.5392" lon="5.86869">
        <ele>340.64</ele>
        <time>2018-07-01T09:13:08Z</time>
      </trkpt>
      <trkpt lat="49.5391" lon="5.86891">
        <ele>343.68</ele>
        <time>2018-07-01T09:13:14Z</time>
      </trkpt>
      <trkpt lat="49.53901" lon="5.86912">
        <ele>346.48</ele>
        <time>2018-07-01T09:13:19Z</time>
      </trkpt>
      <trkpt lat="49.53896" lon="5.86931">
        <ele>349.01</ele>
        <time>2018-07-01T09:13:24Z</time>
      </trkpt>
      <trkpt lat="49.53888" lon="5.86953">
        <ele>351.47</ele>
        <time>2018-07-01T09:13:29Z</time>
      </trkpt>
      <trkpt lat="49.53877" lon="5.86981">
        <ele>351.68</ele>
        <time>2018-07-01T09:13:35Z</time>
      </trkpt>
      <trkpt lat="49.5387" lon="5.87">
        <ele>353.93</ele>
        <time>2018-07-01T09:13:40Z</time>
      </trkpt>
      <trkpt lat="49.53861" lon="5.87018">
        <ele>355.63</ele>
        <time>2018-07-01T09:13:45Z</time>
      </trkpt>
      <trkpt lat="49.53858" lon="5.8702">
        <ele>355.84</ele>
        <time>2018-07-01T09:13:46Z</time>
      </trkpt>
      <trkpt lat="49.53858" lon="5.87015">
        <ele>356.14</ele>
        <time>2018-07-01T09:13:49Z</time>
      </trkpt>
      <trkpt lat="49.5386" lon="5.87005">
        <ele>356.82</ele>
        <time>2018-07-01T09:13:52Z</time>
      </trkpt>
      <trkpt lat="49.5386" lon="5.87002">
        <ele>357.05</ele>
        <time>2018-07-01T09:13:53Z</time>
      </trkpt>
      <trkpt lat="49.53861" lon="5.86999">
        <ele>357.43</ele>
        <time>2018-07-01T09:13:54Z</time>
      </trkpt>
      <trkpt lat="49.53862" lon="5.86997">
        <ele>357.85</ele>
        <time>2018-07-01T09:13:55Z</time>
      </trkpt>
      <trkpt lat="49.53862" lon="5.86994">
        <ele>358.39</ele>
        <time>2018-07-01T09:13:56Z</time>
      </trkpt>
      <trkpt lat="49.53863" lon="5.86991">
        <ele>358.72</ele>
        <time>2018-07-01T09:13:57Z</time>
      </trkpt>
      <trkpt lat="49.53864" lon="5.86989">
        <ele>359.22</ele>
        <time>2018-07-01T09:13:58Z</time>
      </trkpt>
      <trkpt lat="49.53864" lon="5.86987">
        <ele>359.36</ele>
        <time>2018-07-01T09:13:59Z</time>
      </trkpt>
      <trkpt lat="49.53865" lon="5.86984">
        <ele>359.79</ele>
        <time>2018-07-01T09:14:00Z</time>
      </trkpt>
      <trkpt lat="49.53865" lon="5.86981">
        <ele>360.3</ele>
        <time>2018-07-01T09:14:01Z</time>
      </trkpt>
      <trkpt lat="49.53867" lon="5.86979">
        <ele>360.52</ele>
        <time>2018-07-01T09:14:02Z</time>
      </trkpt>
      <trkpt lat="49.53869" lon="5.86977">
        <ele>360.72</ele>
        <time>2018-07-01T09:14:03Z</time>
      </trkpt>
      <trkpt lat="49.5387" lon="5.86975">
        <ele>360.9</ele>
        <time>2018-07-01T09:14:04Z</time>
      </trkpt>
      <trkpt lat="49.5387" lon="5.86973">
        <ele>361</ele>
        <time>2018-07-01T09:14:05Z</time>
      </trkpt>
      <trkpt lat="49.5387" lon="5.86971">
        <ele>361.34</ele>
        <time>2018-07-01T09:14:06Z</time>
      </trkpt>
      <trkpt lat="49.53871" lon="5.86969">
        <ele>361.58</ele>
        <time>2018-07-01T09:14:07Z</time>
      </trkpt>
      <trkpt lat="49.53878" lon="5.86953">
        <ele>363.58</ele>
        <time>2018-07-01T09:14:15Z</time>
      </trkpt>
      <trkpt lat="49.53882" lon="5.86936">
        <ele>364.54</ele>
        <time>2018-07-01T09:14:23Z</time>
      </trkpt>
      <trkpt lat="49.53889" lon="5.86922">
        <ele>364.19</ele>
        <time>2018-07-01T09:14:30Z</time>
      </trkpt>
      <trkpt lat="49.53898" lon="5.86909">
        <ele>364.52</ele>
        <time>2018-07-01T09:14:37Z</time>
      </trkpt>
      <trkpt lat="49.53905" lon="5.86893">
        <ele>364.46</ele>
        <time>2018-07-01T09:14:44Z</time>
      </trkpt>
      <trkpt lat="49.53906" lon="5.86873">
        <ele>363.76</ele>
        <time>2018-07-01T09:14:52Z</time>
      </trkpt>
      <trkpt lat="49.53912" lon="5.86853">
        <ele>362.48</ele>
        <time>2018-07-01T09:15:00Z</time>
      </trkpt>
      <trkpt lat="49.53915" lon="5.86831">
        <ele>360.24</ele>
        <time>2018-07-01T09:15:08Z</time>
      </trkpt>
      <trkpt lat="49.53916" lon="5.86813">
        <ele>357.68</ele>
        <time>2018-07-01T09:15:14Z</time>
      </trkpt>
      <trkpt lat="49.53915" lon="5.86808">
        <ele>357.22</ele>
        <time>2018-07-01T09:15:16Z</time>
      </trkpt>
      <trkpt lat="49.53913" lon="5.86804">
        <ele>357.16</ele>
        <time>2018-07-01T09:15:18Z</time>
      </trkpt>
      <trkpt lat="49.53911" lon="5.86789">
        <ele>356.46</ele>
        <time>2018-07-01T09:15:24Z</time>
      </trkpt>
      <trkpt lat="49.53903" lon="5.86768">
        <ele>355.52</ele>
        <time>2018-07-01T09:15:32Z</time>
      </trkpt>
      <trkpt lat="49.53898" lon="5.86755">
        <ele>355.31</ele>
        <time>2018-07-01T09:15:37Z</time>
      </trkpt>
      <trkpt lat="49.5388" lon="5.86732">
        <ele>356.74</ele>
        <time>2018-07-01T09:15:46Z</time>
      </trkpt>
      <trkpt lat="49.53869" lon="5.8671">
        <ele>357.38</ele>
        <time>2018-07-01T09:15:52Z</time>
      </trkpt>
      <trkpt lat="49.53859" lon="5.8669">
        <ele>357.97</ele>
        <time>2018-07-01T09:15:59Z</time>
      </trkpt>
      <trkpt lat="49.53848" lon="5.86668">
        <ele>357.65</ele>
        <time>2018-07-01T09:16:07Z</time>
      </trkpt>
      <trkpt lat="49.5384" lon="5.8665">
        <ele>356.75</ele>
        <time>2018-07-01T09:16:14Z</time>
      </trkpt>
      <trkpt lat="49.53834" lon="5.86643">
        <ele>356.76</ele>
        <time>2018-07-01T09:16:18Z</time>
      </trkpt>
      <trkpt lat="49.53823" lon="5.86617">
        <ele>356.3</ele>
        <time>2018-07-01T09:16:26Z</time>
      </trkpt>
      <trkpt lat="49.53814" lon="5.866">
        <ele>355.86</ele>
        <time>2018-07-01T09:16:33Z</time>
      </trkpt>
      <trkpt lat="49.53807" lon="5.86584">
        <ele>355.07</ele>
        <time>2018-07-01T09:16:41Z</time>
      </trkpt>
      <trkpt lat="49.53797" lon="5.86571">
        <ele>354.98</ele>
        <time>2018-07-01T09:16:48Z</time>
      </trkpt>
      <trkpt lat="49.53788" lon="5.8656">
        <ele>355.12</ele>
        <time>2018-07-01T09:16:52Z</time>
      </trkpt>
      <trkpt lat="49.53784" lon="5.86542">
        <ele>355.55</ele>
        <time>2018-07-01T09:17:00Z</time>
      </trkpt>
      <trkpt lat="49.53779" lon="5.86534">
        <ele>356.63</ele>
        <time>2018-07-01T09:17:06Z</time>
      </trkpt>
      <trkpt lat="49.53777" lon="5.86532">
        <ele>357.15</ele>
        <time>2018-07-01T09:17:08Z</time>
      </trkpt>
      <trkpt lat="49.53768" lon="5.8652">
        <ele>358.64</ele>
        <time>2018-07-01T09:17:17Z</time>
      </trkpt>
      <trkpt lat="49.53755" lon="5.86502">
        <ele>359.49</ele>
        <time>2018-07-01T09:17:26Z</time>
      </trkpt>
      <trkpt lat="49.53751" lon="5.86485">
        <ele>359.99</ele>
        <time>2018-07-01T09:17:35Z</time>
      </trkpt>
      <trkpt lat="49.53751" lon="5.86483">
        <ele>359.86</ele>
        <time>2018-07-01T09:17:36Z</time>
      </trkpt>
      <trkpt lat="49.53756" lon="5.86477">
        <ele>359.46</ele>
        <time>2018-07-01T09:17:39Z</time>
      </trkpt>
      <trkpt lat="49.53759" lon="5.86476">
        <ele>359.41</ele>
        <time>2018-07-01T09:17:40Z</time>
      </trkpt>
      <trkpt lat="49.53761" lon="5.86475">
        <ele>359.26</ele>
        <time>2018-07-01T09:17:41Z</time>
      </trkpt>
      <trkpt lat="49.53765" lon="5.86471">
        <ele>358.97</ele>
        <time>2018-07-01T09:17:42Z</time>
      </trkpt>
      <trkpt lat="49.53769" lon="5.86468">
        <ele>358.7</ele>
        <time>2018-07-01T09:17:43Z</time>
      </trkpt>
      <trkpt lat="49.53786" lon="5.86454">
        <ele>358.11</ele>
        <time>2018-07-01T09:17:47Z</time>
      </trkpt>
      <trkpt lat="49.53796" lon="5.8645">
        <ele>357.78</ele>
        <time>2018-07-01T09:17:49Z</time>
      </trkpt>
      <trkpt lat="49.53819" lon="5.86443">
        <ele>357.58</ele>
        <time>2018-07-01T09:17:55Z</time>
      </trkpt>
      <trkpt lat="49.53824" lon="5.86442">
        <ele>357.78</ele>
        <time>2018-07-01T09:17:56Z</time>
      </trkpt>
      <trkpt lat="49.53844" lon="5.86447">
        <ele>357.88</ele>
        <time>2018-07-01T09:18:02Z</time>
      </trkpt>
      <trkpt lat="49.53858" lon="5.86449">
        <ele>357.95</ele>
        <time>2018-07-01T09:18:07Z</time>
      </trkpt>
      <trkpt lat="49.53882" lon="5.86451">
        <ele>358.4</ele>
        <time>2018-07-01T09:18:13Z</time>
      </trkpt>
      <trkpt lat="49.53905" lon="5.86452">
        <ele>358.06</ele>
        <time>2018-07-01T09:18:16Z</time>
      </trkpt>
      <trkpt lat="49.53943" lon="5.86458">
        <ele>357.75</ele>
        <time>2018-07-01T09:18:21Z</time>
      </trkpt>
      <trkpt lat="49.53959" lon="5.86456">
        <ele>356.79</ele>
        <time>2018-07-01T09:18:23Z</time>
      </trkpt>
      <trkpt lat="49.53981" lon="5.86439">
        <ele>356.15</ele>
        <time>2018-07-01T09:18:28Z</time>
      </trkpt>
      <trkpt lat="49.53985" lon="5.86429">
        <ele>356.09</ele>
        <time>2018-07-01T09:18:30Z</time>
      </trkpt>
      <trkpt lat="49.53989" lon="5.86423">
        <ele>356.82</ele>
        <time>2018-07-01T09:18:32Z</time>
      </trkpt>
      <trkpt lat="49.53999" lon="5.8641">
        <ele>357.96</ele>
        <time>2018-07-01T09:18:37Z</time>
      </trkpt>
      <trkpt lat="49.54013" lon="5.86384">
        <ele>358.57</ele>
        <time>2018-07-01T09:18:45Z</time>
      </trkpt>
      <trkpt lat="49.54026" lon="5.86366">
        <ele>359.87</ele>
        <time>2018-07-01T09:18:52Z</time>
      </trkpt>
      <trkpt lat="49.5404" lon="5.86344">
        <ele>360.68</ele>
        <time>2018-07-01T09:18:57Z</time>
      </trkpt>
      <trkpt lat="49.54053" lon="5.86324">
        <ele>361.76</ele>
        <time>2018-07-01T09:19:03Z</time>
      </trkpt>
      <trkpt lat="49.54062" lon="5.86312">
        <ele>362.94</ele>
        <time>2018-07-01T09:19:09Z</time>
      </trkpt>
      <trkpt lat="49.54074" lon="5.86296">
        <ele>365.13</ele>
        <time>2018-07-01T09:19:15Z</time>
      </trkpt>
      <trkpt lat="49.54092" lon="5.86279">
        <ele>368.8</ele>
        <time>2018-07-01T09:19:24Z</time>
      </trkpt>
      <trkpt lat="49.54103" lon="5.86271">
        <ele>370.53</ele>
        <time>2018-07-01T09:19:32Z</time>
      </trkpt>
      <trkpt lat="49.54117" lon="5.8626">
        <ele>372.48</ele>
        <time>2018-07-01T09:19:41Z</time>
      </trkpt>
      <trkpt lat="49.54132" lon="5.86245">
        <ele>373.79</ele>
        <time>2018-07-01T09:19:50Z</time>
      </trkpt>
      <trkpt lat="49.54146" lon="5.86227">
        <ele>374.99</ele>
        <time>2018-07-01T09:19:59Z</time>
      </trkpt>
      <trkpt lat="49.54158" lon="5.86211">
        <ele>375.94</ele>
        <time>2018-07-01T09:20:08Z</time>
      </trkpt>
      <trkpt lat="49.54172" lon="5.86198">
        <ele>376.33</ele>
        <time>2018-07-01T09:20:17Z</time>
      </trkpt>
      <trkpt lat="49.54184" lon="5.86188">
        <ele>376.38</ele>
        <time>2018-07-01T09:20:26Z</time>
      </trkpt>
      <trkpt lat="49.54189" lon="5.86184">
        <ele>376.35</ele>
        <time>2018-07-01T09:20:29Z</time>
      </trkpt>
      <trkpt lat="49.5421" lon="5.86162">
        <ele>373.9</ele>
        <time>2018-07-01T09:20:37Z</time>
      </trkpt>
      <trkpt lat="49.54225" lon="5.86143">
        <ele>370.94</ele>
        <time>2018-07-01T09:20:45Z</time>
      </trkpt>
      <trkpt lat="49.54236" lon="5.86117">
        <ele>367.3</ele>
        <time>2018-07-01T09:20:53Z</time>
      </trkpt>
      <trkpt lat="49.54236" lon="5.86104">
        <ele>365.8</ele>
        <time>2018-07-01T09:20:56Z</time>
      </trkpt>
      <trkpt lat="49.54243" lon="5.86095">
        <ele>365.36</ele>
        <time>2018-07-01T09:21:01Z</time>
      </trkpt>
      <trkpt lat="49.5425" lon="5.86089">
        <ele>364.15</ele>
        <time>2018-07-01T09:21:05Z</time>
      </trkpt>
      <trkpt lat="49.54269" lon="5.86059">
        <ele>361.19</ele>
        <time>2018-07-01T09:21:10Z</time>
      </trkpt>
      <trkpt lat="49.54265" lon="5.86045">
        <ele>359.62</ele>
        <time>2018-07-01T09:21:13Z</time>
      </trkpt>
      <trkpt lat="49.5426" lon="5.86034">
        <ele>357.89</ele>
        <time>2018-07-01T09:21:17Z</time>
      </trkpt>
      <trkpt lat="49.54252" lon="5.8602">
        <ele>355.63</ele>
        <time>2018-07-01T09:21:23Z</time>
      </trkpt>
      <trkpt lat="49.54253" lon="5.86003">
        <ele>354.2</ele>
        <time>2018-07-01T09:21:29Z</time>
      </trkpt>
      <trkpt lat="49.54247" lon="5.85986">
        <ele>352.99</ele>
        <time>2018-07-01T09:21:33Z</time>
      </trkpt>
      <trkpt lat="49.54243" lon="5.85963">
        <ele>350.28</ele>
        <time>2018-07-01T09:21:38Z</time>
      </trkpt>
      <trkpt lat="49.54238" lon="5.85953">
        <ele>348.74</ele>
        <time>2018-07-01T09:21:41Z</time>
      </trkpt>
      <trkpt lat="49.54224" lon="5.85946">
        <ele>347.15</ele>
        <time>2018-07-01T09:21:46Z</time>
      </trkpt>
      <trkpt lat="49.54211" lon="5.85928">
        <ele>346.12</ele>
        <time>2018-07-01T09:21:52Z</time>
      </trkpt>
      <trkpt lat="49.54207" lon="5.85918">
        <ele>345.68</ele>
        <time>2018-07-01T09:21:56Z</time>
      </trkpt>
      <trkpt lat="49.54203" lon="5.85904">
        <ele>345.29</ele>
        <time>2018-07-01T09:22:00Z</time>
      </trkpt>
      <trkpt lat="49.542" lon="5.85895">
        <ele>345.24</ele>
        <time>2018-07-01T09:22:03Z</time>
      </trkpt>
      <trkpt lat="49.54199" lon="5.85875">
        <ele>344.41</ele>
        <time>2018-07-01T09:22:08Z</time>
      </trkpt>
      <trkpt lat="49.54198" lon="5.85847">
        <ele>344.02</ele>
        <time>2018-07-01T09:22:15Z</time>
      </trkpt>
      <trkpt lat="49.54202" lon="5.8582">
        <ele>343.57</ele>
        <time>2018-07-01T09:22:20Z</time>
      </trkpt>
      <trkpt lat="49.54209" lon="5.85795">
        <ele>344.82</ele>
        <time>2018-07-01T09:22:27Z</time>
      </trkpt>
      <trkpt lat="49.54214" lon="5.85785">
        <ele>344.96</ele>
        <time>2018-07-01T09:22:30Z</time>
      </trkpt>
      <trkpt lat="49.54211" lon="5.85748">
        <ele>347.02</ele>
        <time>2018-07-01T09:22:39Z</time>
      </trkpt>
      <trkpt lat="49.54216" lon="5.85738">
        <ele>348.72</ele>
        <time>2018-07-01T09:22:43Z</time>
      </trkpt>
      <trkpt lat="49.5422" lon="5.85726">
        <ele>351.43</ele>
        <time>2018-07-01T09:22:48Z</time>
      </trkpt>
      <trkpt lat="49.54222" lon="5.85712">
        <ele>354.14</ele>
        <time>2018-07-01T09:22:52Z</time>
      </trkpt>
      <trkpt lat="49.54221" lon="5.85703">
        <ele>356.32</ele>
        <time>2018-07-01T09:22:56Z</time>
      </trkpt>
      <trkpt lat="49.54228" lon="5.85673">
        <ele>359.39</ele>
        <time>2018-07-01T09:23:03Z</time>
      </trkpt>
      <trkpt lat="49.54232" lon="5.85646">
        <ele>361.93</ele>
        <time>2018-07-01T09:23:09Z</time>
      </trkpt>
      <trkpt lat="49.5424" lon="5.85622">
        <ele>363.37</ele>
        <time>2018-07-01T09:23:15Z</time>
      </trkpt>
      <trkpt lat="49.54243" lon="5.85605">
        <ele>363.74</ele>
        <time>2018-07-01T09:23:19Z</time>
      </trkpt>
      <trkpt lat="49.54241" lon="5.85594">
        <ele>363.88</ele>
        <time>2018-07-01T09:23:23Z</time>
      </trkpt>
      <trkpt lat="49.54243" lon="5.85576">
        <ele>366.07</ele>
        <time>2018-07-01T09:23:29Z</time>
      </trkpt>
      <trkpt lat="49.5424" lon="5.85572">
        <ele>368.43</ele>
        <time>2018-07-01T09:23:39Z</time>
      </trkpt>
      <trkpt lat="49.54229" lon="5.85566">
        <ele>368.5</ele>
        <time>2018-07-01T09:24:32Z</time>
      </trkpt>
      <trkpt lat="49.54227" lon="5.85565">
        <ele>368.56</ele>
        <time>2018-07-01T09:24:33Z</time>
      </trkpt>
      <trkpt lat="49.54218" lon="5.85568">
        <ele>370.64</ele>
        <time>2018-07-01T09:24:38Z</time>
      </trkpt>
      <trkpt lat="49.54212" lon="5.85563">
        <ele>372.65</ele>
        <time>2018-07-01T09:24:45Z</time>
      </trkpt>
      <trkpt lat="49.54212" lon="5.85559">
        <ele>373.14</ele>
        <time>2018-07-01T09:24:48Z</time>
      </trkpt>
      <trkpt lat="49.54214" lon="5.85546">
        <ele>373.47</ele>
        <time>2018-07-01T09:24:53Z</time>
      </trkpt>
      <trkpt lat="49.54216" lon="5.85525">
        <ele>373.9</ele>
        <time>2018-07-01T09:24:59Z</time>
      </trkpt>
      <trkpt lat="49.54216" lon="5.85493">
        <ele>374.03</ele>
        <time>2018-07-01T09:25:05Z</time>
      </trkpt>
      <trkpt lat="49.54214" lon="5.85485">
        <ele>374.02</ele>
        <time>2018-07-01T09:25:08Z</time>
      </trkpt>
      <trkpt lat="49.54215" lon="5.85455">
        <ele>373.66</ele>
        <time>2018-07-01T09:25:16Z</time>
      </trkpt>
      <trkpt lat="49.54219" lon="5.85433">
        <ele>374.59</ele>
        <time>2018-07-01T09:25:23Z</time>
      </trkpt>
      <trkpt lat="49.54222" lon="5.85422">
        <ele>375.39</ele>
        <time>2018-07-01T09:25:27Z</time>
      </trkpt>
      <trkpt lat="49.54221" lon="5.85415">
        <ele>375.9</ele>
        <time>2018-07-01T09:25:29Z</time>
      </trkpt>
      <trkpt lat="49.5422" lon="5.85404">
        <ele>376.51</ele>
        <time>2018-07-01T09:25:33Z</time>
      </trkpt>
      <trkpt lat="49.54219" lon="5.85375">
        <ele>376.71</ele>
        <time>2018-07-01T09:25:39Z</time>
      </trkpt>
      <trkpt lat="49.54222" lon="5.8536">
        <ele>376.65</ele>
        <time>2018-07-01T09:25:43Z</time>
      </trkpt>
      <trkpt lat="49.54219" lon="5.85345">
        <ele>377.35</ele>
        <time>2018-07-01T09:25:47Z</time>
      </trkpt>
      <trkpt lat="49.54216" lon="5.85321">
        <ele>376.86</ele>
        <time>2018-07-01T09:25:53Z</time>
      </trkpt>
      <trkpt lat="49.54212" lon="5.853">
        <ele>377.33</ele>
        <time>2018-07-01T09:26:00Z</time>
      </trkpt>
      <trkpt lat="49.54202" lon="5.85283">
        <ele>378.05</ele>
        <time>2018-07-01T09:26:06Z</time>
      </trkpt>
      <trkpt lat="49.54183" lon="5.85263">
        <ele>377.31</ele>
        <time>2018-07-01T09:26:13Z</time>
      </trkpt>
      <trkpt lat="49.54169" lon="5.85246">
        <ele>377.28</ele>
        <time>2018-07-01T09:26:18Z</time>
      </trkpt>
      <trkpt lat="49.54151" lon="5.85216">
        <ele>374.83</ele>
        <time>2018-07-01T09:26:23Z</time>
      </trkpt>
      <trkpt lat="49.54138" lon="5.85204">
        <ele>374.06</ele>
        <time>2018-07-01T09:26:26Z</time>
      </trkpt>
      <trkpt lat="49.54118" lon="5.85181">
        <ele>372.28</ele>
        <time>2018-07-01T09:26:32Z</time>
      </trkpt>
      <trkpt lat="49.5411" lon="5.85156">
        <ele>369.16</ele>
        <time>2018-07-01T09:26:39Z</time>
      </trkpt>
      <trkpt lat="49.54094" lon="5.8513">
        <ele>366.83</ele>
        <time>2018-07-01T09:26:45Z</time>
      </trkpt>
      <trkpt lat="49.54076" lon="5.85108">
        <ele>365.34</ele>
        <time>2018-07-01T09:26:49Z</time>
      </trkpt>
      <trkpt lat="49.54062" lon="5.85091">
        <ele>363.57</ele>
        <time>2018-07-01T09:26:52Z</time>
      </trkpt>
      <trkpt lat="49.54043" lon="5.8506">
        <ele>361.96</ele>
        <time>2018-07-01T09:26:57Z</time>
      </trkpt>
      <trkpt lat="49.54037" lon="5.85054">
        <ele>361.69</ele>
        <time>2018-07-01T09:26:58Z</time>
      </trkpt>
      <trkpt lat="49.54026" lon="5.8504">
        <ele>361.24</ele>
        <time>2018-07-01T09:27:00Z</time>
      </trkpt>
      <trkpt lat="49.53997" lon="5.85021">
        <ele>360.4</ele>
        <time>2018-07-01T09:27:05Z</time>
      </trkpt>
      <trkpt lat="49.53992" lon="5.8502">
        <ele>360.49</ele>
        <time>2018-07-01T09:27:06Z</time>
      </trkpt>
      <trkpt lat="49.53966" lon="5.85021">
        <ele>360.83</ele>
        <time>2018-07-01T09:27:12Z</time>
      </trkpt>
      <trkpt lat="49.5395" lon="5.8503">
        <ele>363.43</ele>
        <time>2018-07-01T09:27:20Z</time>
      </trkpt>
      <trkpt lat="49.53948" lon="5.85032">
        <ele>363.62</ele>
        <time>2018-07-01T09:27:21Z</time>
      </trkpt>
      <trkpt lat="49.53936" lon="5.85048">
        <ele>365.55</ele>
        <time>2018-07-01T09:27:27Z</time>
      </trkpt>
      <trkpt lat="49.53926" lon="5.85068">
        <ele>367.63</ele>
        <time>2018-07-01T09:27:33Z</time>
      </trkpt>
      <trkpt lat="49.53917" lon="5.85094">
        <ele>368</ele>
        <time>2018-07-01T09:27:38Z</time>
      </trkpt>
      <trkpt lat="49.53917" lon="5.85127">
        <ele>370.26</ele>
        <time>2018-07-01T09:27:43Z</time>
      </trkpt>
      <trkpt lat="49.53917" lon="5.85143">
        <ele>372.33</ele>
        <time>2018-07-01T09:27:47Z</time>
      </trkpt>
      <trkpt lat="49.53907" lon="5.85175">
        <ele>373.98</ele>
        <time>2018-07-01T09:27:52Z</time>
      </trkpt>
      <trkpt lat="49.53905" lon="5.85204">
        <ele>376.45</ele>
        <time>2018-07-01T09:27:57Z</time>
      </trkpt>
      <trkpt lat="49.53903" lon="5.85219">
        <ele>377.43</ele>
        <time>2018-07-01T09:28:01Z</time>
      </trkpt>
      <trkpt lat="49.53907" lon="5.8525">
        <ele>381.45</ele>
        <time>2018-07-01T09:28:09Z</time>
      </trkpt>
      <trkpt lat="49.53894" lon="5.85279">
        <ele>382.52</ele>
        <time>2018-07-01T09:28:13Z</time>
      </trkpt>
      <trkpt lat="49.5389" lon="5.85286">
        <ele>382.71</ele>
        <time>2018-07-01T09:28:16Z</time>
      </trkpt>
      <trkpt lat="49.53881" lon="5.85306">
        <ele>381.99</ele>
        <time>2018-07-01T09:28:23Z</time>
      </trkpt>
      <trkpt lat="49.53879" lon="5.85309">
        <ele>382.02</ele>
        <time>2018-07-01T09:28:24Z</time>
      </trkpt>
      <trkpt lat="49.53874" lon="5.85319">
        <ele>382.15</ele>
        <time>2018-07-01T09:28:26Z</time>
      </trkpt>
      <trkpt lat="49.53868" lon="5.85331">
        <ele>381.95</ele>
        <time>2018-07-01T09:28:28Z</time>
      </trkpt>
      <trkpt lat="49.53859" lon="5.85341">
        <ele>381.61</ele>
        <time>2018-07-01T09:28:31Z</time>
      </trkpt>
      <trkpt lat="49.53837" lon="5.85355">
        <ele>382.54</ele>
        <time>2018-07-01T09:28:37Z</time>
      </trkpt>
      <trkpt lat="49.53819" lon="5.85362">
        <ele>382.7</ele>
        <time>2018-07-01T09:28:43Z</time>
      </trkpt>
      <trkpt lat="49.53809" lon="5.85365">
        <ele>383.63</ele>
        <time>2018-07-01T09:28:49Z</time>
      </trkpt>
      <trkpt lat="49.53801" lon="5.8536">
        <ele>384.6</ele>
        <time>2018-07-01T09:28:56Z</time>
      </trkpt>
      <trkpt lat="49.53791" lon="5.85357">
        <ele>384.34</ele>
        <time>2018-07-01T09:29:01Z</time>
      </trkpt>
      <trkpt lat="49.53784" lon="5.85359">
        <ele>385.09</ele>
        <time>2018-07-01T09:29:05Z</time>
      </trkpt>
      <trkpt lat="49.53783" lon="5.8536">
        <ele>385.5</ele>
        <time>2018-07-01T09:29:06Z</time>
      </trkpt>
      <trkpt lat="49.5377" lon="5.85363">
        <ele>386.71</ele>
        <time>2018-07-01T09:29:14Z</time>
      </trkpt>
      <trkpt lat="49.53767" lon="5.85366">
        <ele>386.88</ele>
        <time>2018-07-01T09:29:16Z</time>
      </trkpt>
      <trkpt lat="49.53732" lon="5.85416">
        <ele>388.81</ele>
        <time>2018-07-01T09:29:48Z</time>
      </trkpt>
      <trkpt lat="49.53724" lon="5.8543">
        <ele>388.25</ele>
        <time>2018-07-01T09:29:56Z</time>
      </trkpt>
      <trkpt lat="49.53722" lon="5.85446">
        <ele>388.07</ele>
        <time>2018-07-01T09:30:04Z</time>
      </trkpt>
      <trkpt lat="49.53714" lon="5.85486">
        <ele>387.53</ele>
        <time>2018-07-01T09:30:17Z</time>
      </trkpt>
      <trkpt lat="49.53713" lon="5.85492">
        <ele>387.64</ele>
        <time>2018-07-01T09:30:19Z</time>
      </trkpt>
      <trkpt lat="49.53712" lon="5.8551">
        <ele>388.68</ele>
        <time>2018-07-01T09:30:27Z</time>
      </trkpt>
      <trkpt lat="49.5371" lon="5.8553">
        <ele>388.65</ele>
        <time>2018-07-01T09:30:35Z</time>
      </trkpt>
      <trkpt lat="49.537" lon="5.85547">
        <ele>388.59</ele>
        <time>2018-07-01T09:30:39Z</time>
      </trkpt>
      <trkpt lat="49.53683" lon="5.8557">
        <ele>387.06</ele>
        <time>2018-07-01T09:30:44Z</time>
      </trkpt>
      <trkpt lat="49.53679" lon="5.85574">
        <ele>386.61</ele>
        <time>2018-07-01T09:30:45Z</time>
      </trkpt>
      <trkpt lat="49.53671" lon="5.85596">
        <ele>384.9</ele>
        <time>2018-07-01T09:30:49Z</time>
      </trkpt>
      <trkpt lat="49.53652" lon="5.85613">
        <ele>382.01</ele>
        <time>2018-07-01T09:30:54Z</time>
      </trkpt>
      <trkpt lat="49.53649" lon="5.85616">
        <ele>381.48</ele>
        <time>2018-07-01T09:30:55Z</time>
      </trkpt>
      <trkpt lat="49.53637" lon="5.85638">
        <ele>379.94</ele>
        <time>2018-07-01T09:31:00Z</time>
      </trkpt>
      <trkpt lat="49.5363" lon="5.85659">
        <ele>378.55</ele>
        <time>2018-07-01T09:31:05Z</time>
      </trkpt>
      <trkpt lat="49.53635" lon="5.8568">
        <ele>378.15</ele>
        <time>2018-07-01T09:31:10Z</time>
      </trkpt>
      <trkpt lat="49.53637" lon="5.85689">
        <ele>377.66</ele>
        <time>2018-07-01T09:31:13Z</time>
      </trkpt>
      <trkpt lat="49.53644" lon="5.85715">
        <ele>377.54</ele>
        <time>2018-07-01T09:31:20Z</time>
      </trkpt>
      <trkpt lat="49.53646" lon="5.85735">
        <ele>377.48</ele>
        <time>2018-07-01T09:31:26Z</time>
      </trkpt>
      <trkpt lat="49.53644" lon="5.85753">
        <ele>378.07</ele>
        <time>2018-07-01T09:31:31Z</time>
      </trkpt>
      <trkpt lat="49.5364" lon="5.85785">
        <ele>378.61</ele>
        <time>2018-07-01T09:31:42Z</time>
      </trkpt>
      <trkpt lat="49.53639" lon="5.85812">
        <ele>379.25</ele>
        <time>2018-07-01T09:31:49Z</time>
      </trkpt>
      <trkpt lat="49.53637" lon="5.85841">
        <ele>382.68</ele>
        <time>2018-07-01T09:32:00Z</time>
      </trkpt>
      <trkpt lat="49.53634" lon="5.85861">
        <ele>385.92</ele>
        <time>2018-07-01T09:32:09Z</time>
      </trkpt>
      <trkpt lat="49.53632" lon="5.85886">
        <ele>390.08</ele>
        <time>2018-07-01T09:32:22Z</time>
      </trkpt>
      <trkpt lat="49.53629" lon="5.85908">
        <ele>392.59</ele>
        <time>2018-07-01T09:32:33Z</time>
      </trkpt>
      <trkpt lat="49.53629" lon="5.85929">
        <ele>386.6</ele>
        <time>2018-07-01T09:33:05Z</time>
      </trkpt>
      <trkpt lat="49.53628" lon="5.85938">
        <ele>386.45</ele>
        <time>2018-07-01T09:33:07Z</time>
      </trkpt>
      <trkpt lat="49.53622" lon="5.85945">
        <ele>385.11</ele>
        <time>2018-07-01T09:33:16Z</time>
      </trkpt>
      <trkpt lat="49.53624" lon="5.85953">
        <ele>384.42</ele>
        <time>2018-07-01T09:33:19Z</time>
      </trkpt>
      <trkpt lat="49.53625" lon="5.85967">
        <ele>383.66</ele>
        <time>2018-07-01T09:33:23Z</time>
      </trkpt>
      <trkpt lat="49.53613" lon="5.85992">
        <ele>384.39</ele>
        <time>2018-07-01T09:33:29Z</time>
      </trkpt>
      <trkpt lat="49.53611" lon="5.8603">
        <ele>383.48</ele>
        <time>2018-07-01T09:33:40Z</time>
      </trkpt>
      <trkpt lat="49.53611" lon="5.86047">
        <ele>381.24</ele>
        <time>2018-07-01T09:36:49Z</time>
      </trkpt>
      <trkpt lat="49.5361" lon="5.86049">
        <ele>381.28</ele>
        <time>2018-07-01T09:36:50Z</time>
      </trkpt>
      <trkpt lat="49.53616" lon="5.86064">
        <ele>379.56</ele>
        <time>2018-07-01T09:36:55Z</time>
      </trkpt>
      <trkpt lat="49.53615" lon="5.8607">
        <ele>379.32</ele>
        <time>2018-07-01T09:36:56Z</time>
      </trkpt>
      <trkpt lat="49.53613" lon="5.86114">
        <ele>377.51</ele>
        <time>2018-07-01T09:37:03Z</time>
      </trkpt>
      <trkpt lat="49.53614" lon="5.86143">
        <ele>375.94</ele>
        <time>2018-07-01T09:37:09Z</time>
      </trkpt>
      <trkpt lat="49.53604" lon="5.86178">
        <ele>371.95</ele>
        <time>2018-07-01T09:37:17Z</time>
      </trkpt>
      <trkpt lat="49.53594" lon="5.86224">
        <ele>369.93</ele>
        <time>2018-07-01T09:37:22Z</time>
      </trkpt>
      <trkpt lat="49.53592" lon="5.86235">
        <ele>369.96</ele>
        <time>2018-07-01T09:37:23Z</time>
      </trkpt>
      <trkpt lat="49.5358" lon="5.86263">
        <ele>369.72</ele>
        <time>2018-07-01T09:37:28Z</time>
      </trkpt>
      <trkpt lat="49.53575" lon="5.86269">
        <ele>369.43</ele>
        <time>2018-07-01T09:37:30Z</time>
      </trkpt>
      <trkpt lat="49.53572" lon="5.86278">
        <ele>370.06</ele>
        <time>2018-07-01T09:37:34Z</time>
      </trkpt>
      <trkpt lat="49.53566" lon="5.86287">
        <ele>369.23</ele>
        <time>2018-07-01T09:37:39Z</time>
      </trkpt>
      <trkpt lat="49.53563" lon="5.86303">
        <ele>369.07</ele>
        <time>2018-07-01T09:37:45Z</time>
      </trkpt>
      <trkpt lat="49.5356" lon="5.86312">
        <ele>368.75</ele>
        <time>2018-07-01T09:37:47Z</time>
      </trkpt>
      <trkpt lat="49.53558" lon="5.86342">
        <ele>368.09</ele>
        <time>2018-07-01T09:37:57Z</time>
      </trkpt>
      <trkpt lat="49.53558" lon="5.86351">
        <ele>368.55</ele>
        <time>2018-07-01T09:38:01Z</time>
      </trkpt>
      <trkpt lat="49.53558" lon="5.86363">
        <ele>368.02</ele>
        <time>2018-07-01T09:38:10Z</time>
      </trkpt>
      <trkpt lat="49.5355" lon="5.86367">
        <ele>367.59</ele>
        <time>2018-07-01T09:38:15Z</time>
      </trkpt>
      <trkpt lat="49.53529" lon="5.86383">
        <ele>366.76</ele>
        <time>2018-07-01T09:38:20Z</time>
      </trkpt>
      <trkpt lat="49.53496" lon="5.86405">
        <ele>364.51</ele>
        <time>2018-07-01T09:38:27Z</time>
      </trkpt>
      <trkpt lat="49.53475" lon="5.86422">
        <ele>363.78</ele>
        <time>2018-07-01T09:38:30Z</time>
      </trkpt>
      <trkpt lat="49.53467" lon="5.86433">
        <ele>362.97</ele>
        <time>2018-07-01T09:38:32Z</time>
      </trkpt>
      <trkpt lat="49.53437" lon="5.86464">
        <ele>362.39</ele>
        <time>2018-07-01T09:38:37Z</time>
      </trkpt>
      <trkpt lat="49.53413" lon="5.86488">
        <ele>361.28</ele>
        <time>2018-07-01T09:38:42Z</time>
      </trkpt>
      <trkpt lat="49.534" lon="5.86487">
        <ele>359.57</ele>
        <time>2018-07-01T09:38:45Z</time>
      </trkpt>
      <trkpt lat="49.53373" lon="5.86495">
        <ele>356.42</ele>
        <time>2018-07-01T09:38:51Z</time>
      </trkpt>
      <trkpt lat="49.53371" lon="5.86498">
        <ele>356.57</ele>
        <time>2018-07-01T09:38:52Z</time>
      </trkpt>
      <trkpt lat="49.53369" lon="5.86501">
        <ele>356.85</ele>
        <time>2018-07-01T09:38:53Z</time>
      </trkpt>
      <trkpt lat="49.53368" lon="5.86504">
        <ele>357.22</ele>
        <time>2018-07-01T09:38:54Z</time>
      </trkpt>
      <trkpt lat="49.53367" lon="5.86507">
        <ele>357.13</ele>
        <time>2018-07-01T09:38:55Z</time>
      </trkpt>
      <trkpt lat="49.53366" lon="5.86508">
        <ele>356.97</ele>
        <time>2018-07-01T09:38:56Z</time>
      </trkpt>
      <trkpt lat="49.53364" lon="5.86508">
        <ele>357.12</ele>
        <time>2018-07-01T09:38:57Z</time>
      </trkpt>
      <trkpt lat="49.5336" lon="5.86499">
        <ele>358.17</ele>
        <time>2018-07-01T09:39:01Z</time>
      </trkpt>
      <trkpt lat="49.53356" lon="5.86481">
        <ele>360.52</ele>
        <time>2018-07-01T09:39:09Z</time>
      </trkpt>
      <trkpt lat="49.53354" lon="5.86477">
        <ele>361.19</ele>
        <time>2018-07-01T09:39:11Z</time>
      </trkpt>
      <trkpt lat="49.53341" lon="5.86467">
        <ele>364.33</ele>
        <time>2018-07-01T09:39:19Z</time>
      </trkpt>
      <trkpt lat="49.53335" lon="5.86457">
        <ele>367.85</ele>
        <time>2018-07-01T09:39:26Z</time>
      </trkpt>
      <trkpt lat="49.5333" lon="5.86451">
        <ele>370.24</ele>
        <time>2018-07-01T09:39:30Z</time>
      </trkpt>
      <trkpt lat="49.53323" lon="5.86442">
        <ele>373.03</ele>
        <time>2018-07-01T09:39:35Z</time>
      </trkpt>
      <trkpt lat="49.53316" lon="5.86435">
        <ele>375.69</ele>
        <time>2018-07-01T09:39:40Z</time>
      </trkpt>
      <trkpt lat="49.53301" lon="5.86419">
        <ele>380.47</ele>
        <time>2018-07-01T09:39:50Z</time>
      </trkpt>
      <trkpt lat="49.53288" lon="5.86402">
        <ele>386.51</ele>
        <time>2018-07-01T09:40:01Z</time>
      </trkpt>
      <trkpt lat="49.53279" lon="5.86392">
        <ele>389.85</ele>
        <time>2018-07-01T09:40:07Z</time>
      </trkpt>
      <trkpt lat="49.53279" lon="5.86391">
        <ele>390.28</ele>
        <time>2018-07-01T09:40:08Z</time>
      </trkpt>
      <trkpt lat="49.53276" lon="5.86384">
        <ele>391.88</ele>
        <time>2018-07-01T09:40:11Z</time>
      </trkpt>
      <trkpt lat="49.53258" lon="5.86361">
        <ele>396.53</ele>
        <time>2018-07-01T09:40:20Z</time>
      </trkpt>
      <trkpt lat="49.5325" lon="5.86347">
        <ele>401.13</ele>
        <time>2018-07-01T09:40:29Z</time>
      </trkpt>
      <trkpt lat="49.53241" lon="5.8634">
        <ele>404.45</ele>
        <time>2018-07-01T09:40:37Z</time>
      </trkpt>
      <trkpt lat="49.53234" lon="5.86332">
        <ele>404.39</ele>
        <time>2018-07-01T09:40:44Z</time>
      </trkpt>
      <trkpt lat="49.53218" lon="5.86324">
        <ele>404.92</ele>
        <time>2018-07-01T09:40:53Z</time>
      </trkpt>
      <trkpt lat="49.53206" lon="5.8631">
        <ele>402.74</ele>
        <time>2018-07-01T09:41:00Z</time>
      </trkpt>
      <trkpt lat="49.532" lon="5.86303">
        <ele>402.24</ele>
        <time>2018-07-01T09:41:05Z</time>
      </trkpt>
      <trkpt lat="49.53185" lon="5.86294">
        <ele>404.11</ele>
        <time>2018-07-01T09:41:16Z</time>
      </trkpt>
      <trkpt lat="49.53161" lon="5.86281">
        <ele>406.22</ele>
        <time>2018-07-01T09:41:26Z</time>
      </trkpt>
      <trkpt lat="49.5315" lon="5.86267">
        <ele>405.96</ele>
        <time>2018-07-01T09:41:36Z</time>
      </trkpt>
      <trkpt lat="49.53139" lon="5.86263">
        <ele>406.65</ele>
        <time>2018-07-01T09:41:43Z</time>
      </trkpt>
      <trkpt lat="49.53127" lon="5.86252">
        <ele>410.69</ele>
        <time>2018-07-01T09:41:55Z</time>
      </trkpt>
      <trkpt lat="49.53121" lon="5.86247">
        <ele>410.13</ele>
        <time>2018-07-01T09:42:05Z</time>
      </trkpt>
      <trkpt lat="49.53116" lon="5.86244">
        <ele>410.46</ele>
        <time>2018-07-01T09:42:08Z</time>
      </trkpt>
      <trkpt lat="49.5311" lon="5.86239">
        <ele>409.99</ele>
        <time>2018-07-01T09:42:13Z</time>
      </trkpt>
      <trkpt lat="49.53101" lon="5.86234">
        <ele>410.71</ele>
        <time>2018-07-01T09:42:18Z</time>
      </trkpt>
      <trkpt lat="49.53092" lon="5.8623">
        <ele>410.37</ele>
        <time>2018-07-01T09:42:25Z</time>
      </trkpt>
      <trkpt lat="49.53068" lon="5.86228">
        <ele>411.78</ele>
        <time>2018-07-01T09:42:35Z</time>
      </trkpt>
      <trkpt lat="49.53062" lon="5.8623">
        <ele>412.02</ele>
        <time>2018-07-01T09:42:37Z</time>
      </trkpt>
      <trkpt lat="49.53043" lon="5.86229">
        <ele>412.74</ele>
        <time>2018-07-01T09:42:42Z</time>
      </trkpt>
      <trkpt lat="49.53039" lon="5.8623">
        <ele>413.56</ele>
        <time>2018-07-01T09:42:45Z</time>
      </trkpt>
      <trkpt lat="49.53035" lon="5.86229">
        <ele>413.81</ele>
        <time>2018-07-01T09:42:47Z</time>
      </trkpt>
      <trkpt lat="49.5303" lon="5.86229">
        <ele>415.16</ele>
        <time>2018-07-01T09:42:51Z</time>
      </trkpt>
      <trkpt lat="49.5302" lon="5.8623">
        <ele>417.8</ele>
        <time>2018-07-01T09:42:59Z</time>
      </trkpt>
      <trkpt lat="49.53018" lon="5.86231">
        <ele>417.92</ele>
        <time>2018-07-01T09:43:01Z</time>
      </trkpt>
      <trkpt lat="49.53013" lon="5.86233">
        <ele>419.02</ele>
        <time>2018-07-01T09:43:08Z</time>
      </trkpt>
      <trkpt lat="49.53008" lon="5.8624">
        <ele>419.08</ele>
        <time>2018-07-01T09:43:22Z</time>
      </trkpt>
      <trkpt lat="49.53007" lon="5.8624">
        <ele>419.1</ele>
        <time>2018-07-01T09:43:25Z</time>
      </trkpt>
      <trkpt lat="49.52977" lon="5.86217">
        <ele>403.58</ele>
        <time>2018-07-01T09:46:14Z</time>
      </trkpt>
      <trkpt lat="49.52988" lon="5.86202">
        <ele>402.51</ele>
        <time>2018-07-01T09:46:19Z</time>
      </trkpt>
      <trkpt lat="49.53001" lon="5.8617">
        <ele>399.56</ele>
        <time>2018-07-01T09:46:26Z</time>
      </trkpt>
      <trkpt lat="49.52998" lon="5.86158">
        <ele>396.01</ele>
        <time>2018-07-01T09:46:32Z</time>
      </trkpt>
      <trkpt lat="49.52996" lon="5.86153">
        <ele>393.51</ele>
        <time>2018-07-01T09:46:36Z</time>
      </trkpt>
      <trkpt lat="49.53" lon="5.86143">
        <ele>390.99</ele>
        <time>2018-07-01T09:46:40Z</time>
      </trkpt>
      <trkpt lat="49.53005" lon="5.8613">
        <ele>388.62</ele>
        <time>2018-07-01T09:46:44Z</time>
      </trkpt>
      <trkpt lat="49.53007" lon="5.86125">
        <ele>387.97</ele>
        <time>2018-07-01T09:46:45Z</time>
      </trkpt>
      <trkpt lat="49.53008" lon="5.8612">
        <ele>387.35</ele>
        <time>2018-07-01T09:46:46Z</time>
      </trkpt>
      <trkpt lat="49.53009" lon="5.86116">
        <ele>386.53</ele>
        <time>2018-07-01T09:46:47Z</time>
      </trkpt>
      <trkpt lat="49.53007" lon="5.86112">
        <ele>385.74</ele>
        <time>2018-07-01T09:46:48Z</time>
      </trkpt>
      <trkpt lat="49.53005" lon="5.86108">
        <ele>384.85</ele>
        <time>2018-07-01T09:46:49Z</time>
      </trkpt>
      <trkpt lat="49.53003" lon="5.86102">
        <ele>383.77</ele>
        <time>2018-07-01T09:46:51Z</time>
      </trkpt>
      <trkpt lat="49.53004" lon="5.86099">
        <ele>383.75</ele>
        <time>2018-07-01T09:46:52Z</time>
      </trkpt>
      <trkpt lat="49.53007" lon="5.86095">
        <ele>383.2</ele>
        <time>2018-07-01T09:46:53Z</time>
      </trkpt>
      <trkpt lat="49.5301" lon="5.86091">
        <ele>382.63</ele>
        <time>2018-07-01T09:46:54Z</time>
      </trkpt>
      <trkpt lat="49.53014" lon="5.86089">
        <ele>382.01</ele>
        <time>2018-07-01T09:46:55Z</time>
      </trkpt>
      <trkpt lat="49.5303" lon="5.86078">
        <ele>376.02</ele>
        <time>2018-07-01T09:47:02Z</time>
      </trkpt>
      <trkpt lat="49.53043" lon="5.86073">
        <ele>372.03</ele>
        <time>2018-07-01T09:47:09Z</time>
      </trkpt>
      <trkpt lat="49.5306" lon="5.86071">
        <ele>369.64</ele>
        <time>2018-07-01T09:47:17Z</time>
      </trkpt>
      <trkpt lat="49.53078" lon="5.86068">
        <ele>370.41</ele>
        <time>2018-07-01T09:47:25Z</time>
      </trkpt>
      <trkpt lat="49.53092" lon="5.86067">
        <ele>370.75</ele>
        <time>2018-07-01T09:47:32Z</time>
      </trkpt>
      <trkpt lat="49.53108" lon="5.86067">
        <ele>371.5</ele>
        <time>2018-07-01T09:47:41Z</time>
      </trkpt>
      <trkpt lat="49.53115" lon="5.86067">
        <ele>374.62</ele>
        <time>2018-07-01T09:47:46Z</time>
      </trkpt>
      <trkpt lat="49.53129" lon="5.86076">
        <ele>375.95</ele>
        <time>2018-07-01T09:47:53Z</time>
      </trkpt>
      <trkpt lat="49.53149" lon="5.86094">
        <ele>378.51</ele>
        <time>2018-07-01T09:48:01Z</time>
      </trkpt>
      <trkpt lat="49.5316" lon="5.86097">
        <ele>377.34</ele>
        <time>2018-07-01T09:48:05Z</time>
      </trkpt>
      <trkpt lat="49.53162" lon="5.86095">
        <ele>376.91</ele>
        <time>2018-07-01T09:48:06Z</time>
      </trkpt>
      <trkpt lat="49.53164" lon="5.86094">
        <ele>378.53</ele>
        <time>2018-07-01T09:48:07Z</time>
      </trkpt>
      <trkpt lat="49.53166" lon="5.86092">
        <ele>378.68</ele>
        <time>2018-07-01T09:48:08Z</time>
      </trkpt>
      <trkpt lat="49.53169" lon="5.8609">
        <ele>379.99</ele>
        <time>2018-07-01T09:48:09Z</time>
      </trkpt>
      <trkpt lat="49.53171" lon="5.86088">
        <ele>380.86</ele>
        <time>2018-07-01T09:48:10Z</time>
      </trkpt>
      <trkpt lat="49.53173" lon="5.86087">
        <ele>381.74</ele>
        <time>2018-07-01T09:48:11Z</time>
      </trkpt>
      <trkpt lat="49.53173" lon="5.86082">
        <ele>383.29</ele>
        <time>2018-07-01T09:48:14Z</time>
      </trkpt>
      <trkpt lat="49.53172" lon="5.8608">
        <ele>383.37</ele>
        <time>2018-07-01T09:48:15Z</time>
      </trkpt>
      <trkpt lat="49.53171" lon="5.86068">
        <ele>383.42</ele>
        <time>2018-07-01T09:48:20Z</time>
      </trkpt>
      <trkpt lat="49.53174" lon="5.86063">
        <ele>383.2</ele>
        <time>2018-07-01T09:48:22Z</time>
      </trkpt>
      <trkpt lat="49.53176" lon="5.86037">
        <ele>383.27</ele>
        <time>2018-07-01T09:48:29Z</time>
      </trkpt>
      <trkpt lat="49.53177" lon="5.86033">
        <ele>383.11</ele>
        <time>2018-07-01T09:48:30Z</time>
      </trkpt>
      <trkpt lat="49.53175" lon="5.8603">
        <ele>383.08</ele>
        <time>2018-07-01T09:48:31Z</time>
      </trkpt>
      <trkpt lat="49.53174" lon="5.86026">
        <ele>382.89</ele>
        <time>2018-07-01T09:48:32Z</time>
      </trkpt>
      <trkpt lat="49.53174" lon="5.86023">
        <ele>382.59</ele>
        <time>2018-07-01T09:48:33Z</time>
      </trkpt>
      <trkpt lat="49.53173" lon="5.86018">
        <ele>382.43</ele>
        <time>2018-07-01T09:48:34Z</time>
      </trkpt>
      <trkpt lat="49.53175" lon="5.86014">
        <ele>382.26</ele>
        <time>2018-07-01T09:48:35Z</time>
      </trkpt>
      <trkpt lat="49.53175" lon="5.86011">
        <ele>381.83</ele>
        <time>2018-07-01T09:48:36Z</time>
      </trkpt>
      <trkpt lat="49.53174" lon="5.86008">
        <ele>382.02</ele>
        <time>2018-07-01T09:48:37Z</time>
      </trkpt>
      <trkpt lat="49.53179" lon="5.85992">
        <ele>383.03</ele>
        <time>2018-07-01T09:48:42Z</time>
      </trkpt>
      <trkpt lat="49.5318" lon="5.85989">
        <ele>383.23</ele>
        <time>2018-07-01T09:48:43Z</time>
      </trkpt>
      <trkpt lat="49.53192" lon="5.85965">
        <ele>383.08</ele>
        <time>2018-07-01T09:48:51Z</time>
      </trkpt>
      <trkpt lat="49.53208" lon="5.85941">
        <ele>384.33</ele>
        <time>2018-07-01T09:48:58Z</time>
      </trkpt>
      <trkpt lat="49.53215" lon="5.85922">
        <ele>384.17</ele>
        <time>2018-07-01T09:49:03Z</time>
      </trkpt>
      <trkpt lat="49.53218" lon="5.8589">
        <ele>385</ele>
        <time>2018-07-01T09:49:09Z</time>
      </trkpt>
      <trkpt lat="49.53216" lon="5.85881">
        <ele>385.38</ele>
        <time>2018-07-01T09:49:11Z</time>
      </trkpt>
      <trkpt lat="49.53209" lon="5.8586">
        <ele>385.31</ele>
        <time>2018-07-01T09:49:15Z</time>
      </trkpt>
      <trkpt lat="49.53201" lon="5.85847">
        <ele>385.76</ele>
        <time>2018-07-01T09:49:18Z</time>
      </trkpt>
      <trkpt lat="49.53199" lon="5.85842">
        <ele>385.81</ele>
        <time>2018-07-01T09:49:19Z</time>
      </trkpt>
      <trkpt lat="49.53198" lon="5.85837">
        <ele>385.74</ele>
        <time>2018-07-01T09:49:20Z</time>
      </trkpt>
      <trkpt lat="49.53194" lon="5.8583">
        <ele>385.76</ele>
        <time>2018-07-01T09:49:22Z</time>
      </trkpt>
      <trkpt lat="49.53187" lon="5.85802">
        <ele>388.73</ele>
        <time>2018-07-01T09:49:29Z</time>
      </trkpt>
      <trkpt lat="49.53181" lon="5.85766">
        <ele>391.04</ele>
        <time>2018-07-01T09:49:36Z</time>
      </trkpt>
      <trkpt lat="49.53172" lon="5.85741">
        <ele>392.6</ele>
        <time>2018-07-01T09:49:42Z</time>
      </trkpt>
      <trkpt lat="49.53171" lon="5.8571">
        <ele>394.93</ele>
        <time>2018-07-01T09:49:48Z</time>
      </trkpt>
      <trkpt lat="49.53165" lon="5.85683">
        <ele>397.15</ele>
        <time>2018-07-01T09:49:53Z</time>
      </trkpt>
      <trkpt lat="49.5316" lon="5.85654">
        <ele>399.87</ele>
        <time>2018-07-01T09:49:58Z</time>
      </trkpt>
      <trkpt lat="49.53156" lon="5.85614">
        <ele>402.67</ele>
        <time>2018-07-01T09:50:04Z</time>
      </trkpt>
      <trkpt lat="49.53153" lon="5.8558">
        <ele>404.86</ele>
        <time>2018-07-01T09:50:10Z</time>
      </trkpt>
      <trkpt lat="49.53151" lon="5.8555">
        <ele>407.17</ele>
        <time>2018-07-01T09:50:16Z</time>
      </trkpt>
      <trkpt lat="49.53141" lon="5.85512">
        <ele>409.89</ele>
        <time>2018-07-01T09:50:23Z</time>
      </trkpt>
      <trkpt lat="49.53143" lon="5.85497">
        <ele>412.08</ele>
        <time>2018-07-01T09:50:26Z</time>
      </trkpt>
      <trkpt lat="49.53144" lon="5.85491">
        <ele>412.96</ele>
        <time>2018-07-01T09:50:27Z</time>
      </trkpt>
      <trkpt lat="49.53145" lon="5.85485">
        <ele>413.11</ele>
        <time>2018-07-01T09:50:28Z</time>
      </trkpt>
      <trkpt lat="49.5315" lon="5.85444">
        <ele>416.37</ele>
        <time>2018-07-01T09:50:35Z</time>
      </trkpt>
      <trkpt lat="49.53152" lon="5.85437">
        <ele>416.86</ele>
        <time>2018-07-01T09:50:36Z</time>
      </trkpt>
      <trkpt lat="49.53155" lon="5.85425">
        <ele>417.94</ele>
        <time>2018-07-01T09:50:38Z</time>
      </trkpt>
      <trkpt lat="49.53159" lon="5.85393">
        <ele>419.35</ele>
        <time>2018-07-01T09:50:42Z</time>
      </trkpt>
      <trkpt lat="49.53168" lon="5.85372">
        <ele>421.61</ele>
        <time>2018-07-01T09:50:46Z</time>
      </trkpt>
      <trkpt lat="49.53172" lon="5.85366">
        <ele>422.16</ele>
        <time>2018-07-01T09:50:47Z</time>
      </trkpt>
      <trkpt lat="49.53179" lon="5.85356">
        <ele>423.17</ele>
        <time>2018-07-01T09:50:49Z</time>
      </trkpt>
      <trkpt lat="49.53185" lon="5.85351">
        <ele>423.72</ele>
        <time>2018-07-01T09:50:50Z</time>
      </trkpt>
      <trkpt lat="49.5322" lon="5.85314">
        <ele>426.89</ele>
        <time>2018-07-01T09:50:56Z</time>
      </trkpt>
      <trkpt lat="49.53234" lon="5.85294">
        <ele>428.73</ele>
        <time>2018-07-01T09:50:59Z</time>
      </trkpt>
      <trkpt lat="49.53237" lon="5.85288">
        <ele>428.52</ele>
        <time>2018-07-01T09:51:00Z</time>
      </trkpt>
      <trkpt lat="49.53254" lon="5.8525">
        <ele>430.42</ele>
        <time>2018-07-01T09:51:06Z</time>
      </trkpt>
      <trkpt lat="49.53258" lon="5.85245">
        <ele>430.49</ele>
        <time>2018-07-01T09:51:07Z</time>
      </trkpt>
      <trkpt lat="49.53261" lon="5.85239">
        <ele>431.32</ele>
        <time>2018-07-01T09:51:08Z</time>
      </trkpt>
      <trkpt lat="49.53259" lon="5.85229">
        <ele>429.76</ele>
        <time>2018-07-01T09:51:09Z</time>
      </trkpt>
      <trkpt lat="49.53258" lon="5.85222">
        <ele>429.15</ele>
        <time>2018-07-01T09:51:10Z</time>
      </trkpt>
      <trkpt lat="49.53256" lon="5.85215">
        <ele>428.74</ele>
        <time>2018-07-01T09:51:11Z</time>
      </trkpt>
      <trkpt lat="49.53256" lon="5.85205">
        <ele>428.69</ele>
        <time>2018-07-01T09:51:12Z</time>
      </trkpt>
      <trkpt lat="49.53254" lon="5.85196">
        <ele>428.7</ele>
        <time>2018-07-01T09:51:13Z</time>
      </trkpt>
      <trkpt lat="49.53253" lon="5.85189">
        <ele>428.8</ele>
        <time>2018-07-01T09:51:14Z</time>
      </trkpt>
      <trkpt lat="49.5325" lon="5.85183">
        <ele>428.55</ele>
        <time>2018-07-01T09:51:15Z</time>
      </trkpt>
      <trkpt lat="49.53232" lon="5.85157">
        <ele>429.09</ele>
        <time>2018-07-01T09:51:22Z</time>
      </trkpt>
      <trkpt lat="49.53197" lon="5.85135">
        <ele>423.67</ele>
        <time>2018-07-01T09:51:29Z</time>
      </trkpt>
      <trkpt lat="49.53195" lon="5.85132">
        <ele>423.09</ele>
        <time>2018-07-01T09:51:30Z</time>
      </trkpt>
      <trkpt lat="49.53195" lon="5.851">
        <ele>423.46</ele>
        <time>2018-07-01T09:51:36Z</time>
      </trkpt>
      <trkpt lat="49.532" lon="5.85083">
        <ele>424.37</ele>
        <time>2018-07-01T09:51:40Z</time>
      </trkpt>
      <trkpt lat="49.53211" lon="5.85045">
        <ele>427.65</ele>
        <time>2018-07-01T09:51:47Z</time>
      </trkpt>
      <trkpt lat="49.53212" lon="5.85029">
        <ele>428.39</ele>
        <time>2018-07-01T09:51:50Z</time>
      </trkpt>
      <trkpt lat="49.53209" lon="5.84993">
        <ele>430.76</ele>
        <time>2018-07-01T09:51:57Z</time>
      </trkpt>
      <trkpt lat="49.53206" lon="5.84981">
        <ele>431.38</ele>
        <time>2018-07-01T09:51:59Z</time>
      </trkpt>
      <trkpt lat="49.53201" lon="5.84959">
        <ele>431.6</ele>
        <time>2018-07-01T09:52:03Z</time>
      </trkpt>
      <trkpt lat="49.53201" lon="5.84935">
        <ele>433.56</ele>
        <time>2018-07-01T09:52:08Z</time>
      </trkpt>
      <trkpt lat="49.53186" lon="5.84896">
        <ele>434.67</ele>
        <time>2018-07-01T09:52:15Z</time>
      </trkpt>
      <trkpt lat="49.53182" lon="5.84872">
        <ele>436.84</ele>
        <time>2018-07-01T09:52:20Z</time>
      </trkpt>
      <trkpt lat="49.53178" lon="5.8485">
        <ele>436.35</ele>
        <time>2018-07-01T09:52:23Z</time>
      </trkpt>
      <trkpt lat="49.53168" lon="5.84807">
        <ele>435.65</ele>
        <time>2018-07-01T09:52:28Z</time>
      </trkpt>
      <trkpt lat="49.53164" lon="5.84786">
        <ele>436.4</ele>
        <time>2018-07-01T09:52:31Z</time>
      </trkpt>
      <trkpt lat="49.53167" lon="5.84761">
        <ele>435.71</ele>
        <time>2018-07-01T09:52:35Z</time>
      </trkpt>
      <trkpt lat="49.53135" lon="5.84725">
        <ele>434.08</ele>
        <time>2018-07-01T09:52:42Z</time>
      </trkpt>
      <trkpt lat="49.53131" lon="5.8472">
        <ele>433.42</ele>
        <time>2018-07-01T09:52:43Z</time>
      </trkpt>
      <trkpt lat="49.53126" lon="5.84716">
        <ele>433.23</ele>
        <time>2018-07-01T09:52:44Z</time>
      </trkpt>
      <trkpt lat="49.53123" lon="5.84712">
        <ele>433.01</ele>
        <time>2018-07-01T09:52:45Z</time>
      </trkpt>
      <trkpt lat="49.53118" lon="5.84711">
        <ele>432.9</ele>
        <time>2018-07-01T09:52:46Z</time>
      </trkpt>
      <trkpt lat="49.53114" lon="5.84712">
        <ele>432.39</ele>
        <time>2018-07-01T09:52:47Z</time>
      </trkpt>
      <trkpt lat="49.53113" lon="5.84715">
        <ele>430.29</ele>
        <time>2018-07-01T09:52:48Z</time>
      </trkpt>
      <trkpt lat="49.53112" lon="5.84719">
        <ele>428.8</ele>
        <time>2018-07-01T09:52:49Z</time>
      </trkpt>
      <trkpt lat="49.5311" lon="5.84726">
        <ele>426.82</ele>
        <time>2018-07-01T09:52:50Z</time>
      </trkpt>
      <trkpt lat="49.53094" lon="5.84757">
        <ele>421.68</ele>
        <time>2018-07-01T09:52:56Z</time>
      </trkpt>
      <trkpt lat="49.5309" lon="5.84773">
        <ele>421.22</ele>
        <time>2018-07-01T09:52:59Z</time>
      </trkpt>
      <trkpt lat="49.53093" lon="5.84776">
        <ele>420.53</ele>
        <time>2018-07-01T09:53:00Z</time>
      </trkpt>
      <trkpt lat="49.53092" lon="5.84781">
        <ele>420.64</ele>
        <time>2018-07-01T09:53:01Z</time>
      </trkpt>
      <trkpt lat="49.53092" lon="5.84784">
        <ele>420.27</ele>
        <time>2018-07-01T09:53:02Z</time>
      </trkpt>
      <trkpt lat="49.53088" lon="5.84789">
        <ele>419.55</ele>
        <time>2018-07-01T09:53:03Z</time>
      </trkpt>
      <trkpt lat="49.53085" lon="5.84793">
        <ele>419.13</ele>
        <time>2018-07-01T09:53:04Z</time>
      </trkpt>
      <trkpt lat="49.53083" lon="5.84799">
        <ele>417.59</ele>
        <time>2018-07-01T09:53:05Z</time>
      </trkpt>
      <trkpt lat="49.53073" lon="5.84828">
        <ele>411.18</ele>
        <time>2018-07-01T09:53:11Z</time>
      </trkpt>
      <trkpt lat="49.53074" lon="5.84858">
        <ele>403.77</ele>
        <time>2018-07-01T09:53:20Z</time>
      </trkpt>
      <trkpt lat="49.53073" lon="5.84875">
        <ele>400.79</ele>
        <time>2018-07-01T09:53:27Z</time>
      </trkpt>
      <trkpt lat="49.53067" lon="5.84893">
        <ele>397.56</ele>
        <time>2018-07-01T09:53:35Z</time>
      </trkpt>
      <trkpt lat="49.53066" lon="5.84895">
        <ele>396.16</ele>
        <time>2018-07-01T09:53:40Z</time>
      </trkpt>
      <trkpt lat="49.53059" lon="5.84903">
        <ele>390.9</ele>
        <time>2018-07-01T09:55:19Z</time>
      </trkpt>
      <trkpt lat="49.53058" lon="5.84905">
        <ele>390.99</ele>
        <time>2018-07-01T09:55:20Z</time>
      </trkpt>
      <trkpt lat="49.5305" lon="5.84928">
        <ele>390.89</ele>
        <time>2018-07-01T09:55:30Z</time>
      </trkpt>
      <trkpt lat="49.5304" lon="5.84957">
        <ele>390.81</ele>
        <time>2018-07-01T09:55:41Z</time>
      </trkpt>
      <trkpt lat="49.5303" lon="5.84987">
        <ele>390.08</ele>
        <time>2018-07-01T09:55:51Z</time>
      </trkpt>
      <trkpt lat="49.53023" lon="5.85005">
        <ele>388.56</ele>
        <time>2018-07-01T09:55:58Z</time>
      </trkpt>
      <trkpt lat="49.53019" lon="5.8502">
        <ele>385.5</ele>
        <time>2018-07-01T09:56:05Z</time>
      </trkpt>
      <trkpt lat="49.53012" lon="5.85039">
        <ele>383.91</ele>
        <time>2018-07-01T09:56:11Z</time>
      </trkpt>
      <trkpt lat="49.53006" lon="5.85068">
        <ele>382.15</ele>
        <time>2018-07-01T09:56:19Z</time>
      </trkpt>
      <trkpt lat="49.53004" lon="5.85073">
        <ele>382.27</ele>
        <time>2018-07-01T09:56:20Z</time>
      </trkpt>
      <trkpt lat="49.53003" lon="5.85076">
        <ele>381.77</ele>
        <time>2018-07-01T09:56:21Z</time>
      </trkpt>
      <trkpt lat="49.53001" lon="5.85083">
        <ele>380.92</ele>
        <time>2018-07-01T09:56:24Z</time>
      </trkpt>
      <trkpt lat="49.53001" lon="5.85087">
        <ele>380.65</ele>
        <time>2018-07-01T09:56:25Z</time>
      </trkpt>
      <trkpt lat="49.53001" lon="5.8509">
        <ele>380.46</ele>
        <time>2018-07-01T09:56:26Z</time>
      </trkpt>
      <trkpt lat="49.52999" lon="5.85115">
        <ele>379.55</ele>
        <time>2018-07-01T09:56:33Z</time>
      </trkpt>
      <trkpt lat="49.52994" lon="5.85137">
        <ele>378</ele>
        <time>2018-07-01T09:56:40Z</time>
      </trkpt>
      <trkpt lat="49.52989" lon="5.85152">
        <ele>377.06</ele>
        <time>2018-07-01T09:56:46Z</time>
      </trkpt>
      <trkpt lat="49.52984" lon="5.85167">
        <ele>377.17</ele>
        <time>2018-07-01T09:56:51Z</time>
      </trkpt>
      <trkpt lat="49.5298" lon="5.85194">
        <ele>378.26</ele>
        <time>2018-07-01T09:56:58Z</time>
      </trkpt>
      <trkpt lat="49.52978" lon="5.8522">
        <ele>379.27</ele>
        <time>2018-07-01T09:57:08Z</time>
      </trkpt>
      <trkpt lat="49.52973" lon="5.85231">
        <ele>379.66</ele>
        <time>2018-07-01T09:57:14Z</time>
      </trkpt>
      <trkpt lat="49.52967" lon="5.85242">
        <ele>380.21</ele>
        <time>2018-07-01T09:57:18Z</time>
      </trkpt>
      <trkpt lat="49.52948" lon="5.85287">
        <ele>383.59</ele>
        <time>2018-07-01T09:57:35Z</time>
      </trkpt>
      <trkpt lat="49.52948" lon="5.85289">
        <ele>383.9</ele>
        <time>2018-07-01T09:57:36Z</time>
      </trkpt>
      <trkpt lat="49.52947" lon="5.85295">
        <ele>385.35</ele>
        <time>2018-07-01T09:57:39Z</time>
      </trkpt>
      <trkpt lat="49.52943" lon="5.85311">
        <ele>388.91</ele>
        <time>2018-07-01T09:57:46Z</time>
      </trkpt>
      <trkpt lat="49.52944" lon="5.85315">
        <ele>390.52</ele>
        <time>2018-07-01T09:57:47Z</time>
      </trkpt>
      <trkpt lat="49.52944" lon="5.85318">
        <ele>391.5</ele>
        <time>2018-07-01T09:57:48Z</time>
      </trkpt>
      <trkpt lat="49.52943" lon="5.85336">
        <ele>397.31</ele>
        <time>2018-07-01T09:57:56Z</time>
      </trkpt>
      <trkpt lat="49.52943" lon="5.85343">
        <ele>399.57</ele>
        <time>2018-07-01T09:57:58Z</time>
      </trkpt>
      <trkpt lat="49.52932" lon="5.85368">
        <ele>405.91</ele>
        <time>2018-07-01T09:58:05Z</time>
      </trkpt>
      <trkpt lat="49.52931" lon="5.85383">
        <ele>410.75</ele>
        <time>2018-07-01T09:58:11Z</time>
      </trkpt>
      <trkpt lat="49.52925" lon="5.85405">
        <ele>415.29</ele>
        <time>2018-07-01T09:58:18Z</time>
      </trkpt>
      <trkpt lat="49.52923" lon="5.85429">
        <ele>419.05</ele>
        <time>2018-07-01T09:58:25Z</time>
      </trkpt>
      <trkpt lat="49.52925" lon="5.85449">
        <ele>423.55</ele>
        <time>2018-07-01T09:58:31Z</time>
      </trkpt>
      <trkpt lat="49.52921" lon="5.85465">
        <ele>427.48</ele>
        <time>2018-07-01T09:58:37Z</time>
      </trkpt>
      <trkpt lat="49.52912" lon="5.85484">
        <ele>429.93</ele>
        <time>2018-07-01T09:58:44Z</time>
      </trkpt>
      <trkpt lat="49.52906" lon="5.855">
        <ele>431.82</ele>
        <time>2018-07-01T09:58:50Z</time>
      </trkpt>
      <trkpt lat="49.52897" lon="5.85531">
        <ele>433.35</ele>
        <time>2018-07-01T09:58:58Z</time>
      </trkpt>
      <trkpt lat="49.52897" lon="5.85545">
        <ele>433.03</ele>
        <time>2018-07-01T09:59:02Z</time>
      </trkpt>
      <trkpt lat="49.52898" lon="5.85548">
        <ele>432.58</ele>
        <time>2018-07-01T09:59:03Z</time>
      </trkpt>
      <trkpt lat="49.52898" lon="5.85551">
        <ele>432.83</ele>
        <time>2018-07-01T09:59:04Z</time>
      </trkpt>
      <trkpt lat="49.52899" lon="5.85554">
        <ele>432.45</ele>
        <time>2018-07-01T09:59:05Z</time>
      </trkpt>
      <trkpt lat="49.52899" lon="5.85556">
        <ele>432.58</ele>
        <time>2018-07-01T09:59:06Z</time>
      </trkpt>
      <trkpt lat="49.52898" lon="5.85558">
        <ele>432.64</ele>
        <time>2018-07-01T09:59:07Z</time>
      </trkpt>
      <trkpt lat="49.52896" lon="5.8556">
        <ele>432.88</ele>
        <time>2018-07-01T09:59:08Z</time>
      </trkpt>
      <trkpt lat="49.52894" lon="5.85562">
        <ele>433.05</ele>
        <time>2018-07-01T09:59:09Z</time>
      </trkpt>
      <trkpt lat="49.52891" lon="5.85564">
        <ele>433.32</ele>
        <time>2018-07-01T09:59:10Z</time>
      </trkpt>
      <trkpt lat="49.52889" lon="5.85567">
        <ele>433.52</ele>
        <time>2018-07-01T09:59:11Z</time>
      </trkpt>
      <trkpt lat="49.52883" lon="5.85587">
        <ele>434</ele>
        <time>2018-07-01T09:59:18Z</time>
      </trkpt>
      <trkpt lat="49.52884" lon="5.8559">
        <ele>433.62</ele>
        <time>2018-07-01T09:59:19Z</time>
      </trkpt>
      <trkpt lat="49.52885" lon="5.85593">
        <ele>433.3</ele>
        <time>2018-07-01T09:59:20Z</time>
      </trkpt>
      <trkpt lat="49.52886" lon="5.85597">
        <ele>432.33</ele>
        <time>2018-07-01T09:59:21Z</time>
      </trkpt>
      <trkpt lat="49.52885" lon="5.85601">
        <ele>432.32</ele>
        <time>2018-07-01T09:59:22Z</time>
      </trkpt>
      <trkpt lat="49.52883" lon="5.85604">
        <ele>432.38</ele>
        <time>2018-07-01T09:59:23Z</time>
      </trkpt>
      <trkpt lat="49.52882" lon="5.85607">
        <ele>432.11</ele>
        <time>2018-07-01T09:59:24Z</time>
      </trkpt>
      <trkpt lat="49.52871" lon="5.85635">
        <ele>431.18</ele>
        <time>2018-07-01T09:59:32Z</time>
      </trkpt>
      <trkpt lat="49.5287" lon="5.8564">
        <ele>431.02</ele>
        <time>2018-07-01T09:59:33Z</time>
      </trkpt>
      <trkpt lat="49.52868" lon="5.85644">
        <ele>431.28</ele>
        <time>2018-07-01T09:59:34Z</time>
      </trkpt>
      <trkpt lat="49.5286" lon="5.85664">
        <ele>430.89</ele>
        <time>2018-07-01T09:59:40Z</time>
      </trkpt>
      <trkpt lat="49.52855" lon="5.85692">
        <ele>429.73</ele>
        <time>2018-07-01T09:59:48Z</time>
      </trkpt>
      <trkpt lat="49.52849" lon="5.85718">
        <ele>430</ele>
        <time>2018-07-01T09:59:55Z</time>
      </trkpt>
      <trkpt lat="49.52849" lon="5.85723">
        <ele>430.03</ele>
        <time>2018-07-01T09:59:57Z</time>
      </trkpt>
      <trkpt lat="49.52849" lon="5.85726">
        <ele>430.3</ele>
        <time>2018-07-01T09:59:58Z</time>
      </trkpt>
      <trkpt lat="49.52848" lon="5.85731">
        <ele>430.49</ele>
        <time>2018-07-01T09:59:59Z</time>
      </trkpt>
      <trkpt lat="49.52847" lon="5.85734">
        <ele>430.73</ele>
        <time>2018-07-01T10:00:00Z</time>
      </trkpt>
      <trkpt lat="49.52846" lon="5.85738">
        <ele>430.93</ele>
        <time>2018-07-01T10:00:01Z</time>
      </trkpt>
      <trkpt lat="49.52844" lon="5.85742">
        <ele>431.25</ele>
        <time>2018-07-01T10:00:02Z</time>
      </trkpt>
      <trkpt lat="49.52836" lon="5.85765">
        <ele>431.59</ele>
        <time>2018-07-01T10:00:08Z</time>
      </trkpt>
      <trkpt lat="49.52832" lon="5.85788">
        <ele>430.63</ele>
        <time>2018-07-01T10:00:14Z</time>
      </trkpt>
      <trkpt lat="49.52827" lon="5.85819">
        <ele>429.45</ele>
        <time>2018-07-01T10:00:20Z</time>
      </trkpt>
      <trkpt lat="49.52821" lon="5.85854">
        <ele>425.93</ele>
        <time>2018-07-01T10:00:27Z</time>
      </trkpt>
      <trkpt lat="49.52823" lon="5.85878">
        <ele>423.43</ele>
        <time>2018-07-01T10:00:33Z</time>
      </trkpt>
      <trkpt lat="49.52824" lon="5.85911">
        <ele>419.1</ele>
        <time>2018-07-01T10:00:41Z</time>
      </trkpt>
      <trkpt lat="49.52823" lon="5.85949">
        <ele>413.93</ele>
        <time>2018-07-01T10:00:48Z</time>
      </trkpt>
      <trkpt lat="49.52824" lon="5.85956">
        <ele>413.09</ele>
        <time>2018-07-01T10:00:49Z</time>
      </trkpt>
      <trkpt lat="49.52823" lon="5.85985">
        <ele>409.88</ele>
        <time>2018-07-01T10:00:53Z</time>
      </trkpt>
      <trkpt lat="49.52821" lon="5.86016">
        <ele>407.76</ele>
        <time>2018-07-01T10:00:57Z</time>
      </trkpt>
      <trkpt lat="49.5282" lon="5.86021">
        <ele>407.05</ele>
        <time>2018-07-01T10:00:58Z</time>
      </trkpt>
      <trkpt lat="49.52818" lon="5.86024">
        <ele>406.62</ele>
        <time>2018-07-01T10:00:59Z</time>
      </trkpt>
      <trkpt lat="49.52817" lon="5.86025">
        <ele>406.2</ele>
        <time>2018-07-01T10:01:00Z</time>
      </trkpt>
      <trkpt lat="49.52817" lon="5.86023">
        <ele>405.85</ele>
        <time>2018-07-01T10:01:05Z</time>
      </trkpt>
      <trkpt lat="49.5281" lon="5.8602">
        <ele>404.86</ele>
        <time>2018-07-01T10:02:03Z</time>
      </trkpt>
      <trkpt lat="49.52791" lon="5.86008">
        <ele>404.72</ele>
        <time>2018-07-01T10:02:14Z</time>
      </trkpt>
      <trkpt lat="49.52789" lon="5.86007">
        <ele>404.97</ele>
        <time>2018-07-01T10:02:15Z</time>
      </trkpt>
      <trkpt lat="49.52787" lon="5.86006">
        <ele>405.14</ele>
        <time>2018-07-01T10:02:16Z</time>
      </trkpt>
      <trkpt lat="49.52785" lon="5.86005">
        <ele>405.31</ele>
        <time>2018-07-01T10:02:17Z</time>
      </trkpt>
      <trkpt lat="49.52783" lon="5.86004">
        <ele>405.39</ele>
        <time>2018-07-01T10:02:18Z</time>
      </trkpt>
      <trkpt lat="49.52781" lon="5.86003">
        <ele>405.5</ele>
        <time>2018-07-01T10:02:19Z</time>
      </trkpt>
      <trkpt lat="49.5278" lon="5.86002">
        <ele>405.55</ele>
        <time>2018-07-01T10:02:20Z</time>
      </trkpt>
      <trkpt lat="49.5277" lon="5.85994">
        <ele>405.1</ele>
        <time>2018-07-01T10:02:29Z</time>
      </trkpt>
      <trkpt lat="49.5276" lon="5.85988">
        <ele>404.63</ele>
        <time>2018-07-01T10:02:35Z</time>
      </trkpt>
      <trkpt lat="49.52748" lon="5.85982">
        <ele>405.04</ele>
        <time>2018-07-01T10:02:42Z</time>
      </trkpt>
      <trkpt lat="49.52732" lon="5.85972">
        <ele>404.24</ele>
        <time>2018-07-01T10:02:50Z</time>
      </trkpt>
      <trkpt lat="49.52721" lon="5.85964">
        <ele>404.47</ele>
        <time>2018-07-01T10:02:56Z</time>
      </trkpt>
      <trkpt lat="49.52719" lon="5.85963">
        <ele>404.5</ele>
        <time>2018-07-01T10:02:57Z</time>
      </trkpt>
      <trkpt lat="49.52718" lon="5.85961">
        <ele>404.52</ele>
        <time>2018-07-01T10:02:58Z</time>
      </trkpt>
      <trkpt lat="49.52713" lon="5.85959">
        <ele>404.88</ele>
        <time>2018-07-01T10:03:01Z</time>
      </trkpt>
      <trkpt lat="49.52701" lon="5.85949">
        <ele>405.46</ele>
        <time>2018-07-01T10:03:08Z</time>
      </trkpt>
      <trkpt lat="49.5269" lon="5.8594">
        <ele>406.22</ele>
        <time>2018-07-01T10:03:14Z</time>
      </trkpt>
      <trkpt lat="49.52665" lon="5.85924">
        <ele>406.95</ele>
        <time>2018-07-01T10:03:21Z</time>
      </trkpt>
      <trkpt lat="49.52638" lon="5.85907">
        <ele>408.15</ele>
        <time>2018-07-01T10:03:28Z</time>
      </trkpt>
      <trkpt lat="49.52616" lon="5.8589">
        <ele>410.12</ele>
        <time>2018-07-01T10:03:35Z</time>
      </trkpt>
      <trkpt lat="49.5261" lon="5.85881">
        <ele>410.32</ele>
        <time>2018-07-01T10:03:37Z</time>
      </trkpt>
      <trkpt lat="49.52592" lon="5.85842">
        <ele>409.29</ele>
        <time>2018-07-01T10:03:44Z</time>
      </trkpt>
      <trkpt lat="49.5259" lon="5.85835">
        <ele>409.28</ele>
        <time>2018-07-01T10:03:45Z</time>
      </trkpt>
      <trkpt lat="49.52569" lon="5.85786">
        <ele>407.17</ele>
        <time>2018-07-01T10:03:52Z</time>
      </trkpt>
      <trkpt lat="49.52548" lon="5.85733">
        <ele>405.25</ele>
        <time>2018-07-01T10:03:59Z</time>
      </trkpt>
      <trkpt lat="49.52528" lon="5.85677">
        <ele>404.49</ele>
        <time>2018-07-01T10:04:06Z</time>
      </trkpt>
      <trkpt lat="49.52503" lon="5.8561">
        <ele>404.34</ele>
        <time>2018-07-01T10:04:15Z</time>
      </trkpt>
      <trkpt lat="49.525" lon="5.85603">
        <ele>404.26</ele>
        <time>2018-07-01T10:04:16Z</time>
      </trkpt>
      <trkpt lat="49.52498" lon="5.85596">
        <ele>403.95</ele>
        <time>2018-07-01T10:04:17Z</time>
      </trkpt>
      <trkpt lat="49.52496" lon="5.85589">
        <ele>404.03</ele>
        <time>2018-07-01T10:04:18Z</time>
      </trkpt>
      <trkpt lat="49.52493" lon="5.85583">
        <ele>404.27</ele>
        <time>2018-07-01T10:04:19Z</time>
      </trkpt>
      <trkpt lat="49.5249" lon="5.85575">
        <ele>404.48</ele>
        <time>2018-07-01T10:04:20Z</time>
      </trkpt>
      <trkpt lat="49.52488" lon="5.85568">
        <ele>404.84</ele>
        <time>2018-07-01T10:04:21Z</time>
      </trkpt>
      <trkpt lat="49.52486" lon="5.85561">
        <ele>405.24</ele>
        <time>2018-07-01T10:04:22Z</time>
      </trkpt>
      <trkpt lat="49.52473" lon="5.8552">
        <ele>404.9</ele>
        <time>2018-07-01T10:04:28Z</time>
      </trkpt>
      <trkpt lat="49.52468" lon="5.85499">
        <ele>404.72</ele>
        <time>2018-07-01T10:04:31Z</time>
      </trkpt>
      <trkpt lat="49.52466" lon="5.85492">
        <ele>404.58</ele>
        <time>2018-07-01T10:04:32Z</time>
      </trkpt>
      <trkpt lat="49.52452" lon="5.85452">
        <ele>402.68</ele>
        <time>2018-07-01T10:04:38Z</time>
      </trkpt>
      <trkpt lat="49.52439" lon="5.85407">
        <ele>401.67</ele>
        <time>2018-07-01T10:04:43Z</time>
      </trkpt>
      <trkpt lat="49.52424" lon="5.85355">
        <ele>400.81</ele>
        <time>2018-07-01T10:04:49Z</time>
      </trkpt>
      <trkpt lat="49.52422" lon="5.85348">
        <ele>400.99</ele>
        <time>2018-07-01T10:04:50Z</time>
      </trkpt>
      <trkpt lat="49.52419" lon="5.85335">
        <ele>401.9</ele>
        <time>2018-07-01T10:04:52Z</time>
      </trkpt>
      <trkpt lat="49.52418" lon="5.85329">
        <ele>402.26</ele>
        <time>2018-07-01T10:04:53Z</time>
      </trkpt>
      <trkpt lat="49.52417" lon="5.85324">
        <ele>402.19</ele>
        <time>2018-07-01T10:04:54Z</time>
      </trkpt>
      <trkpt lat="49.52416" lon="5.85318">
        <ele>401.73</ele>
        <time>2018-07-01T10:04:55Z</time>
      </trkpt>
      <trkpt lat="49.52414" lon="5.85313">
        <ele>401.71</ele>
        <time>2018-07-01T10:04:56Z</time>
      </trkpt>
      <trkpt lat="49.52414" lon="5.85308">
        <ele>401.44</ele>
        <time>2018-07-01T10:04:57Z</time>
      </trkpt>
      <trkpt lat="49.52413" lon="5.85302">
        <ele>401.13</ele>
        <time>2018-07-01T10:04:58Z</time>
      </trkpt>
      <trkpt lat="49.52409" lon="5.85284">
        <ele>400.94</ele>
        <time>2018-07-01T10:05:03Z</time>
      </trkpt>
      <trkpt lat="49.52407" lon="5.85278">
        <ele>401.17</ele>
        <time>2018-07-01T10:05:08Z</time>
      </trkpt>
      <trkpt lat="49.52405" lon="5.85275">
        <ele>400.79</ele>
        <time>2018-07-01T10:05:09Z</time>
      </trkpt>
      <trkpt lat="49.52402" lon="5.85272">
        <ele>400.53</ele>
        <time>2018-07-01T10:05:10Z</time>
      </trkpt>
      <trkpt lat="49.524" lon="5.85269">
        <ele>400.28</ele>
        <time>2018-07-01T10:05:11Z</time>
      </trkpt>
      <trkpt lat="49.52397" lon="5.85267">
        <ele>400.1</ele>
        <time>2018-07-01T10:05:12Z</time>
      </trkpt>
      <trkpt lat="49.52393" lon="5.85265">
        <ele>400.12</ele>
        <time>2018-07-01T10:05:13Z</time>
      </trkpt>
      <trkpt lat="49.52391" lon="5.85261">
        <ele>400.15</ele>
        <time>2018-07-01T10:05:14Z</time>
      </trkpt>
      <trkpt lat="49.52388" lon="5.85257">
        <ele>400.06</ele>
        <time>2018-07-01T10:05:15Z</time>
      </trkpt>
      <trkpt lat="49.52376" lon="5.85241">
        <ele>399.41</ele>
        <time>2018-07-01T10:05:21Z</time>
      </trkpt>
      <trkpt lat="49.52367" lon="5.85224">
        <ele>399.02</ele>
        <time>2018-07-01T10:05:26Z</time>
      </trkpt>
      <trkpt lat="49.5235" lon="5.85198">
        <ele>398.55</ele>
        <time>2018-07-01T10:05:32Z</time>
      </trkpt>
      <trkpt lat="49.52345" lon="5.85186">
        <ele>398.11</ele>
        <time>2018-07-01T10:05:34Z</time>
      </trkpt>
      <trkpt lat="49.52339" lon="5.85166">
        <ele>397.59</ele>
        <time>2018-07-01T10:05:37Z</time>
      </trkpt>
      <trkpt lat="49.52336" lon="5.85152">
        <ele>397.26</ele>
        <time>2018-07-01T10:05:39Z</time>
      </trkpt>
      <trkpt lat="49.52333" lon="5.85144">
        <ele>397.18</ele>
        <time>2018-07-01T10:05:40Z</time>
      </trkpt>
      <trkpt lat="49.52331" lon="5.85137">
        <ele>396.91</ele>
        <time>2018-07-01T10:05:41Z</time>
      </trkpt>
      <trkpt lat="49.52323" lon="5.85117">
        <ele>396.57</ele>
        <time>2018-07-01T10:05:44Z</time>
      </trkpt>
      <trkpt lat="49.52321" lon="5.8511">
        <ele>396.56</ele>
        <time>2018-07-01T10:05:45Z</time>
      </trkpt>
      <trkpt lat="49.52316" lon="5.85098">
        <ele>395.76</ele>
        <time>2018-07-01T10:05:47Z</time>
      </trkpt>
      <trkpt lat="49.52314" lon="5.85092">
        <ele>395.26</ele>
        <time>2018-07-01T10:05:48Z</time>
      </trkpt>
      <trkpt lat="49.52308" lon="5.85075">
        <ele>394.48</ele>
        <time>2018-07-01T10:05:51Z</time>
      </trkpt>
      <trkpt lat="49.52295" lon="5.8504">
        <ele>392.27</ele>
        <time>2018-07-01T10:05:56Z</time>
      </trkpt>
      <trkpt lat="49.52293" lon="5.85033">
        <ele>391.94</ele>
        <time>2018-07-01T10:05:57Z</time>
      </trkpt>
      <trkpt lat="49.5229" lon="5.85025">
        <ele>391.59</ele>
        <time>2018-07-01T10:05:58Z</time>
      </trkpt>
      <trkpt lat="49.52288" lon="5.85018">
        <ele>391.29</ele>
        <time>2018-07-01T10:05:59Z</time>
      </trkpt>
      <trkpt lat="49.52285" lon="5.8501">
        <ele>390.98</ele>
        <time>2018-07-01T10:06:00Z</time>
      </trkpt>
      <trkpt lat="49.52273" lon="5.8497">
        <ele>389.23</ele>
        <time>2018-07-01T10:06:05Z</time>
      </trkpt>
      <trkpt lat="49.52271" lon="5.84963">
        <ele>389.03</ele>
        <time>2018-07-01T10:06:06Z</time>
      </trkpt>
      <trkpt lat="49.52268" lon="5.84955">
        <ele>388.55</ele>
        <time>2018-07-01T10:06:07Z</time>
      </trkpt>
      <trkpt lat="49.52251" lon="5.84902">
        <ele>386.72</ele>
        <time>2018-07-01T10:06:13Z</time>
      </trkpt>
      <trkpt lat="49.52245" lon="5.84862">
        <ele>384.88</ele>
        <time>2018-07-01T10:06:17Z</time>
      </trkpt>
      <trkpt lat="49.52245" lon="5.84852">
        <ele>384.48</ele>
        <time>2018-07-01T10:06:18Z</time>
      </trkpt>
      <trkpt lat="49.52244" lon="5.84842">
        <ele>384.21</ele>
        <time>2018-07-01T10:06:19Z</time>
      </trkpt>
      <trkpt lat="49.52241" lon="5.84831">
        <ele>383.99</ele>
        <time>2018-07-01T10:06:20Z</time>
      </trkpt>
      <trkpt lat="49.52239" lon="5.84819">
        <ele>383.56</ele>
        <time>2018-07-01T10:06:21Z</time>
      </trkpt>
      <trkpt lat="49.52238" lon="5.84807">
        <ele>383.03</ele>
        <time>2018-07-01T10:06:22Z</time>
      </trkpt>
      <trkpt lat="49.52236" lon="5.84769">
        <ele>382.04</ele>
        <time>2018-07-01T10:06:25Z</time>
      </trkpt>
      <trkpt lat="49.52236" lon="5.84707">
        <ele>379.21</ele>
        <time>2018-07-01T10:06:30Z</time>
      </trkpt>
      <trkpt lat="49.52238" lon="5.84686">
        <ele>377.66</ele>
        <time>2018-07-01T10:06:32Z</time>
      </trkpt>
      <trkpt lat="49.52243" lon="5.84627">
        <ele>374</ele>
        <time>2018-07-01T10:06:37Z</time>
      </trkpt>
      <trkpt lat="49.52252" lon="5.84559">
        <ele>370.8</ele>
        <time>2018-07-01T10:06:42Z</time>
      </trkpt>
      <trkpt lat="49.52266" lon="5.84494">
        <ele>367.89</ele>
        <time>2018-07-01T10:06:47Z</time>
      </trkpt>
      <trkpt lat="49.52276" lon="5.84437">
        <ele>364.6</ele>
        <time>2018-07-01T10:06:52Z</time>
      </trkpt>
      <trkpt lat="49.52275" lon="5.84426">
        <ele>363.89</ele>
        <time>2018-07-01T10:06:53Z</time>
      </trkpt>
      <trkpt lat="49.5228" lon="5.84366">
        <ele>360.75</ele>
        <time>2018-07-01T10:06:59Z</time>
      </trkpt>
      <trkpt lat="49.52285" lon="5.84322">
        <ele>358.27</ele>
        <time>2018-07-01T10:07:05Z</time>
      </trkpt>
      <trkpt lat="49.52287" lon="5.8428">
        <ele>355.85</ele>
        <time>2018-07-01T10:07:12Z</time>
      </trkpt>
      <trkpt lat="49.52291" lon="5.84244">
        <ele>354.28</ele>
        <time>2018-07-01T10:07:18Z</time>
      </trkpt>
      <trkpt lat="49.52295" lon="5.84198">
        <ele>353.35</ele>
        <time>2018-07-01T10:07:24Z</time>
      </trkpt>
      <trkpt lat="49.52296" lon="5.84182">
        <ele>352.98</ele>
        <time>2018-07-01T10:07:26Z</time>
      </trkpt>
      <trkpt lat="49.52296" lon="5.84114">
        <ele>352.5</ele>
        <time>2018-07-01T10:07:34Z</time>
      </trkpt>
      <trkpt lat="49.52293" lon="5.84085">
        <ele>353.43</ele>
        <time>2018-07-01T10:07:40Z</time>
      </trkpt>
      <trkpt lat="49.52291" lon="5.84056">
        <ele>355.23</ele>
        <time>2018-07-01T10:07:45Z</time>
      </trkpt>
      <trkpt lat="49.52283" lon="5.8401">
        <ele>358.76</ele>
        <time>2018-07-01T10:07:53Z</time>
      </trkpt>
      <trkpt lat="49.52276" lon="5.83957">
        <ele>362.69</ele>
        <time>2018-07-01T10:08:00Z</time>
      </trkpt>
      <trkpt lat="49.52275" lon="5.83936">
        <ele>364.78</ele>
        <time>2018-07-01T10:08:03Z</time>
      </trkpt>
      <trkpt lat="49.52277" lon="5.83928">
        <ele>365.36</ele>
        <time>2018-07-01T10:08:04Z</time>
      </trkpt>
      <trkpt lat="49.52278" lon="5.8392">
        <ele>365.82</ele>
        <time>2018-07-01T10:08:05Z</time>
      </trkpt>
      <trkpt lat="49.5228" lon="5.83913">
        <ele>366.76</ele>
        <time>2018-07-01T10:08:06Z</time>
      </trkpt>
      <trkpt lat="49.52282" lon="5.83907">
        <ele>367.53</ele>
        <time>2018-07-01T10:08:07Z</time>
      </trkpt>
      <trkpt lat="49.52291" lon="5.83883">
        <ele>371.83</ele>
        <time>2018-07-01T10:08:12Z</time>
      </trkpt>
      <trkpt lat="49.52295" lon="5.83874">
        <ele>373.63</ele>
        <time>2018-07-01T10:08:15Z</time>
      </trkpt>
      <trkpt lat="49.52295" lon="5.83871">
        <ele>374.13</ele>
        <time>2018-07-01T10:08:16Z</time>
      </trkpt>
      <trkpt lat="49.52294" lon="5.83864">
        <ele>375.11</ele>
        <time>2018-07-01T10:08:18Z</time>
      </trkpt>
      <trkpt lat="49.52289" lon="5.83858">
        <ele>376.55</ele>
        <time>2018-07-01T10:08:21Z</time>
      </trkpt>
      <trkpt lat="49.52287" lon="5.83859">
        <ele>376.66</ele>
        <time>2018-07-01T10:08:22Z</time>
      </trkpt>
      <trkpt lat="49.52285" lon="5.8386">
        <ele>376.82</ele>
        <time>2018-07-01T10:08:23Z</time>
      </trkpt>
      <trkpt lat="49.52283" lon="5.83861">
        <ele>377.56</ele>
        <time>2018-07-01T10:08:24Z</time>
      </trkpt>
      <trkpt lat="49.52281" lon="5.83863">
        <ele>377.73</ele>
        <time>2018-07-01T10:08:25Z</time>
      </trkpt>
      <trkpt lat="49.52266" lon="5.8388">
        <ele>380.32</ele>
        <time>2018-07-01T10:08:31Z</time>
      </trkpt>
      <trkpt lat="49.52252" lon="5.83929">
        <ele>379.77</ele>
        <time>2018-07-01T10:08:37Z</time>
      </trkpt>
      <trkpt lat="49.52246" lon="5.83987">
        <ele>381.84</ele>
        <time>2018-07-01T10:08:43Z</time>
      </trkpt>
      <trkpt lat="49.52247" lon="5.84017">
        <ele>383.98</ele>
        <time>2018-07-01T10:08:46Z</time>
      </trkpt>
      <trkpt lat="49.5224" lon="5.84094">
        <ele>389.01</ele>
        <time>2018-07-01T10:08:53Z</time>
      </trkpt>
      <trkpt lat="49.52231" lon="5.84164">
        <ele>390.55</ele>
        <time>2018-07-01T10:08:59Z</time>
      </trkpt>
      <trkpt lat="49.52223" lon="5.84231">
        <ele>391.81</ele>
        <time>2018-07-01T10:09:05Z</time>
      </trkpt>
      <trkpt lat="49.52218" lon="5.84281">
        <ele>393.5</ele>
        <time>2018-07-01T10:09:11Z</time>
      </trkpt>
      <trkpt lat="49.52208" lon="5.84316">
        <ele>396.37</ele>
        <time>2018-07-01T10:09:16Z</time>
      </trkpt>
      <trkpt lat="49.52204" lon="5.84345">
        <ele>399.57</ele>
        <time>2018-07-01T10:09:22Z</time>
      </trkpt>
      <trkpt lat="49.52207" lon="5.84343">
        <ele>400.11</ele>
        <time>2018-07-01T10:09:23Z</time>
      </trkpt>
      <trkpt lat="49.5221" lon="5.84316">
        <ele>400.73</ele>
        <time>2018-07-01T10:09:27Z</time>
      </trkpt>
      <trkpt lat="49.52216" lon="5.84263">
        <ele>401.89</ele>
        <time>2018-07-01T10:09:32Z</time>
      </trkpt>
      <trkpt lat="49.52211" lon="5.84193">
        <ele>404.19</ele>
        <time>2018-07-01T10:09:38Z</time>
      </trkpt>
      <trkpt lat="49.52194" lon="5.84119">
        <ele>405.44</ele>
        <time>2018-07-01T10:09:44Z</time>
      </trkpt>
      <trkpt lat="49.52185" lon="5.84093">
        <ele>406.03</ele>
        <time>2018-07-01T10:09:46Z</time>
      </trkpt>
      <trkpt lat="49.5218" lon="5.84081">
        <ele>405.59</ele>
        <time>2018-07-01T10:09:47Z</time>
      </trkpt>
      <trkpt lat="49.52171" lon="5.84048">
        <ele>404.5</ele>
        <time>2018-07-01T10:09:50Z</time>
      </trkpt>
      <trkpt lat="49.52168" lon="5.84037">
        <ele>405.19</ele>
        <time>2018-07-01T10:09:51Z</time>
      </trkpt>
      <trkpt lat="49.52169" lon="5.84013">
        <ele>405.01</ele>
        <time>2018-07-01T10:09:53Z</time>
      </trkpt>
      <trkpt lat="49.52168" lon="5.83986">
        <ele>402.61</ele>
        <time>2018-07-01T10:09:56Z</time>
      </trkpt>
      <trkpt lat="49.52162" lon="5.83976">
        <ele>402.68</ele>
        <time>2018-07-01T10:09:57Z</time>
      </trkpt>
      <trkpt lat="49.52148" lon="5.83954">
        <ele>401.42</ele>
        <time>2018-07-01T10:10:00Z</time>
      </trkpt>
      <trkpt lat="49.52139" lon="5.83925">
        <ele>402.23</ele>
        <time>2018-07-01T10:10:05Z</time>
      </trkpt>
      <trkpt lat="49.5213" lon="5.83884">
        <ele>403.4</ele>
        <time>2018-07-01T10:10:12Z</time>
      </trkpt>
      <trkpt lat="49.52127" lon="5.83865">
        <ele>403.16</ele>
        <time>2018-07-01T10:10:16Z</time>
      </trkpt>
      <trkpt lat="49.52125" lon="5.83829">
        <ele>402.66</ele>
        <time>2018-07-01T10:10:23Z</time>
      </trkpt>
      <trkpt lat="49.52126" lon="5.83804">
        <ele>403.13</ele>
        <time>2018-07-01T10:10:29Z</time>
      </trkpt>
      <trkpt lat="49.52127" lon="5.83799">
        <ele>401.71</ele>
        <time>2018-07-01T10:10:30Z</time>
      </trkpt>
      <trkpt lat="49.52133" lon="5.8378">
        <ele>402.22</ele>
        <time>2018-07-01T10:10:34Z</time>
      </trkpt>
      <trkpt lat="49.5214" lon="5.83758">
        <ele>403.67</ele>
        <time>2018-07-01T10:10:38Z</time>
      </trkpt>
      <trkpt lat="49.52168" lon="5.83726">
        <ele>396.85</ele>
        <time>2018-07-01T10:10:43Z</time>
      </trkpt>
      <trkpt lat="49.52203" lon="5.83695">
        <ele>391.31</ele>
        <time>2018-07-01T10:10:48Z</time>
      </trkpt>
      <trkpt lat="49.52245" lon="5.83667">
        <ele>389.65</ele>
        <time>2018-07-01T10:10:54Z</time>
      </trkpt>
      <trkpt lat="49.52259" lon="5.83652">
        <ele>388.65</ele>
        <time>2018-07-01T10:10:57Z</time>
      </trkpt>
      <trkpt lat="49.52264" lon="5.83647">
        <ele>388.58</ele>
        <time>2018-07-01T10:10:58Z</time>
      </trkpt>
      <trkpt lat="49.52266" lon="5.83641">
        <ele>388.39</ele>
        <time>2018-07-01T10:10:59Z</time>
      </trkpt>
      <trkpt lat="49.52274" lon="5.83633">
        <ele>388.2</ele>
        <time>2018-07-01T10:11:01Z</time>
      </trkpt>
      <trkpt lat="49.52301" lon="5.83622">
        <ele>387.2</ele>
        <time>2018-07-01T10:11:06Z</time>
      </trkpt>
      <trkpt lat="49.5231" lon="5.83623">
        <ele>387.09</ele>
        <time>2018-07-01T10:11:08Z</time>
      </trkpt>
      <trkpt lat="49.5235" lon="5.83628">
        <ele>390.09</ele>
        <time>2018-07-01T10:11:15Z</time>
      </trkpt>
      <trkpt lat="49.52356" lon="5.83628">
        <ele>390.57</ele>
        <time>2018-07-01T10:11:16Z</time>
      </trkpt>
      <trkpt lat="49.52363" lon="5.83631">
        <ele>390.32</ele>
        <time>2018-07-01T10:11:17Z</time>
      </trkpt>
      <trkpt lat="49.52369" lon="5.83632">
        <ele>389.7</ele>
        <time>2018-07-01T10:11:18Z</time>
      </trkpt>
      <trkpt lat="49.52398" lon="5.8364">
        <ele>385.13</ele>
        <time>2018-07-01T10:11:25Z</time>
      </trkpt>
      <trkpt lat="49.52415" lon="5.83646">
        <ele>379.41</ele>
        <time>2018-07-01T10:11:30Z</time>
      </trkpt>
      <trkpt lat="49.52418" lon="5.83646">
        <ele>378.22</ele>
        <time>2018-07-01T10:11:31Z</time>
      </trkpt>
      <trkpt lat="49.52421" lon="5.83646">
        <ele>376.78</ele>
        <time>2018-07-01T10:11:32Z</time>
      </trkpt>
      <trkpt lat="49.52444" lon="5.83648">
        <ele>367.88</ele>
        <time>2018-07-01T10:11:37Z</time>
      </trkpt>
      <trkpt lat="49.52448" lon="5.83649">
        <ele>366.02</ele>
        <time>2018-07-01T10:11:38Z</time>
      </trkpt>
      <trkpt lat="49.52472" lon="5.83654">
        <ele>355.1</ele>
        <time>2018-07-01T10:11:44Z</time>
      </trkpt>
      <trkpt lat="49.52487" lon="5.83655">
        <ele>344.21</ele>
        <time>2018-07-01T10:11:51Z</time>
      </trkpt>
      <trkpt lat="49.52501" lon="5.83657">
        <ele>336.53</ele>
        <time>2018-07-01T10:11:57Z</time>
      </trkpt>
      <trkpt lat="49.52538" lon="5.83683">
        <ele>322.57</ele>
        <time>2018-07-01T10:12:04Z</time>
      </trkpt>
      <trkpt lat="49.52543" lon="5.83687">
        <ele>320.92</ele>
        <time>2018-07-01T10:12:05Z</time>
      </trkpt>
      <trkpt lat="49.52562" lon="5.83704">
        <ele>316.12</ele>
        <time>2018-07-01T10:12:10Z</time>
      </trkpt>
      <trkpt lat="49.52566" lon="5.83705">
        <ele>315.31</ele>
        <time>2018-07-01T10:12:11Z</time>
      </trkpt>
      <trkpt lat="49.52571" lon="5.83707">
        <ele>314.08</ele>
        <time>2018-07-01T10:12:12Z</time>
      </trkpt>
      <trkpt lat="49.52576" lon="5.8371">
        <ele>312.95</ele>
        <time>2018-07-01T10:12:13Z</time>
      </trkpt>
      <trkpt lat="49.52582" lon="5.83716">
        <ele>313.02</ele>
        <time>2018-07-01T10:12:14Z</time>
      </trkpt>
      <trkpt lat="49.52584" lon="5.83721">
        <ele>312.37</ele>
        <time>2018-07-01T10:12:15Z</time>
      </trkpt>
      <trkpt lat="49.52596" lon="5.83729">
        <ele>310.8</ele>
        <time>2018-07-01T10:12:17Z</time>
      </trkpt>
      <trkpt lat="49.52603" lon="5.83734">
        <ele>310</ele>
        <time>2018-07-01T10:12:18Z</time>
      </trkpt>
      <trkpt lat="49.52607" lon="5.83738">
        <ele>309.39</ele>
        <time>2018-07-01T10:12:19Z</time>
      </trkpt>
      <trkpt lat="49.52621" lon="5.83756">
        <ele>308.62</ele>
        <time>2018-07-01T10:12:24Z</time>
      </trkpt>
      <trkpt lat="49.52637" lon="5.8376">
        <ele>308.78</ele>
        <time>2018-07-01T10:12:28Z</time>
      </trkpt>
      <trkpt lat="49.52641" lon="5.83762">
        <ele>308.12</ele>
        <time>2018-07-01T10:12:29Z</time>
      </trkpt>
      <trkpt lat="49.52665" lon="5.83775">
        <ele>308.45</ele>
        <time>2018-07-01T10:12:36Z</time>
      </trkpt>
      <trkpt lat="49.5268" lon="5.83776">
        <ele>309.04</ele>
        <time>2018-07-01T10:12:42Z</time>
      </trkpt>
      <trkpt lat="49.52693" lon="5.8376">
        <ele>310.2</ele>
        <time>2018-07-01T10:12:48Z</time>
      </trkpt>
      <trkpt lat="49.52697" lon="5.83755">
        <ele>310.4</ele>
        <time>2018-07-01T10:12:49Z</time>
      </trkpt>
      <trkpt lat="49.527" lon="5.8375">
        <ele>310.57</ele>
        <time>2018-07-01T10:12:50Z</time>
      </trkpt>
      <trkpt lat="49.52722" lon="5.8371">
        <ele>312.59</ele>
        <time>2018-07-01T10:12:59Z</time>
      </trkpt>
      <trkpt lat="49.52739" lon="5.8368">
        <ele>314.72</ele>
        <time>2018-07-01T10:13:05Z</time>
      </trkpt>
      <trkpt lat="49.52754" lon="5.8365">
        <ele>315.78</ele>
        <time>2018-07-01T10:13:12Z</time>
      </trkpt>
      <trkpt lat="49.52753" lon="5.83624">
        <ele>316.56</ele>
        <time>2018-07-01T10:13:18Z</time>
      </trkpt>
      <trkpt lat="49.52747" lon="5.83619">
        <ele>315.71</ele>
        <time>2018-07-01T10:13:22Z</time>
      </trkpt>
      <trkpt lat="49.52746" lon="5.83605">
        <ele>315.04</ele>
        <time>2018-07-01T10:13:27Z</time>
      </trkpt>
      <trkpt lat="49.5275" lon="5.83576">
        <ele>313.98</ele>
        <time>2018-07-01T10:13:36Z</time>
      </trkpt>
      <trkpt lat="49.52754" lon="5.83558">
        <ele>312.6</ele>
        <time>2018-07-01T10:13:43Z</time>
      </trkpt>
      <trkpt lat="49.52755" lon="5.83544">
        <ele>310.7</ele>
        <time>2018-07-01T10:13:48Z</time>
      </trkpt>
      <trkpt lat="49.52751" lon="5.83532">
        <ele>307.53</ele>
        <time>2018-07-01T10:13:54Z</time>
      </trkpt>
      <trkpt lat="49.52734" lon="5.83511">
        <ele>304.09</ele>
        <time>2018-07-01T10:14:00Z</time>
      </trkpt>
      <trkpt lat="49.52713" lon="5.83487">
        <ele>299.06</ele>
        <time>2018-07-01T10:14:07Z</time>
      </trkpt>
      <trkpt lat="49.52696" lon="5.83468">
        <ele>296.03</ele>
        <time>2018-07-01T10:14:13Z</time>
      </trkpt>
      <trkpt lat="49.52679" lon="5.83449">
        <ele>294.81</ele>
        <time>2018-07-01T10:14:19Z</time>
      </trkpt>
      <trkpt lat="49.52653" lon="5.83419">
        <ele>294.21</ele>
        <time>2018-07-01T10:14:28Z</time>
      </trkpt>
      <trkpt lat="49.52643" lon="5.83406">
        <ele>294.17</ele>
        <time>2018-07-01T10:14:32Z</time>
      </trkpt>
      <trkpt lat="49.52635" lon="5.83391">
        <ele>292.91</ele>
        <time>2018-07-01T10:14:37Z</time>
      </trkpt>
      <trkpt lat="49.52633" lon="5.83384">
        <ele>290.9</ele>
        <time>2018-07-01T10:14:40Z</time>
      </trkpt>
      <trkpt lat="49.52621" lon="5.83369">
        <ele>288.02</ele>
        <time>2018-07-01T10:14:46Z</time>
      </trkpt>
      <trkpt lat="49.5262" lon="5.83355">
        <ele>285.71</ele>
        <time>2018-07-01T10:14:49Z</time>
      </trkpt>
      <trkpt lat="49.52624" lon="5.83333">
        <ele>282.98</ele>
        <time>2018-07-01T10:14:55Z</time>
      </trkpt>
      <trkpt lat="49.52634" lon="5.83328">
        <ele>281.62</ele>
        <time>2018-07-01T10:15:00Z</time>
      </trkpt>
      <trkpt lat="49.52651" lon="5.83317">
        <ele>280.14</ele>
        <time>2018-07-01T10:15:06Z</time>
      </trkpt>
      <trkpt lat="49.52657" lon="5.83315">
        <ele>279.46</ele>
        <time>2018-07-01T10:15:09Z</time>
      </trkpt>
      <trkpt lat="49.52659" lon="5.83314">
        <ele>279.49</ele>
        <time>2018-07-01T10:15:10Z</time>
      </trkpt>
      <trkpt lat="49.52666" lon="5.83306">
        <ele>279.5</ele>
        <time>2018-07-01T10:15:16Z</time>
      </trkpt>
      <trkpt lat="49.52684" lon="5.83329">
        <ele>280.65</ele>
        <time>2018-07-01T10:15:41Z</time>
      </trkpt>
      <trkpt lat="49.52691" lon="5.83365">
        <ele>279.21</ele>
        <time>2018-07-01T10:15:43Z</time>
      </trkpt>
      <trkpt lat="49.52693" lon="5.83378">
        <ele>278.67</ele>
        <time>2018-07-01T10:15:44Z</time>
      </trkpt>
      <trkpt lat="49.52694" lon="5.83388">
        <ele>278.58</ele>
        <time>2018-07-01T10:15:45Z</time>
      </trkpt>
      <trkpt lat="49.52693" lon="5.83392">
        <ele>278.42</ele>
        <time>2018-07-01T10:15:46Z</time>
      </trkpt>
      <trkpt lat="49.52693" lon="5.83392">
        <ele>278.55</ele>
        <time>2018-07-01T10:15:47Z</time>
      </trkpt>
      <trkpt lat="49.52696" lon="5.83389">
        <ele>278.64</ele>
        <time>2018-07-01T10:15:48Z</time>
      </trkpt>
      <trkpt lat="49.52697" lon="5.83386">
        <ele>278.96</ele>
        <time>2018-07-01T10:15:49Z</time>
      </trkpt>
      <trkpt lat="49.52707" lon="5.83377">
        <ele>282.18</ele>
        <time>2018-07-01T10:15:56Z</time>
      </trkpt>
      <trkpt lat="49.52722" lon="5.8337">
        <ele>284.79</ele>
        <time>2018-07-01T10:16:03Z</time>
      </trkpt>
      <trkpt lat="49.52754" lon="5.83357">
        <ele>286.04</ele>
        <time>2018-07-01T10:16:12Z</time>
      </trkpt>
      <trkpt lat="49.52784" lon="5.83347">
        <ele>286.46</ele>
        <time>2018-07-01T10:16:19Z</time>
      </trkpt>
      <trkpt lat="49.52803" lon="5.83345">
        <ele>286.8</ele>
        <time>2018-07-01T10:16:24Z</time>
      </trkpt>
      <trkpt lat="49.52822" lon="5.83333">
        <ele>287.08</ele>
        <time>2018-07-01T10:16:29Z</time>
      </trkpt>
      <trkpt lat="49.52857" lon="5.83314">
        <ele>286.41</ele>
        <time>2018-07-01T10:16:37Z</time>
      </trkpt>
      <trkpt lat="49.52885" lon="5.83301">
        <ele>284.21</ele>
        <time>2018-07-01T10:16:45Z</time>
      </trkpt>
      <trkpt lat="49.52911" lon="5.83283">
        <ele>281.49</ele>
        <time>2018-07-01T10:16:52Z</time>
      </trkpt>
      <trkpt lat="49.5294" lon="5.83268">
        <ele>280.34</ele>
        <time>2018-07-01T10:16:56Z</time>
      </trkpt>
      <trkpt lat="49.52968" lon="5.83252">
        <ele>277.6</ele>
        <time>2018-07-01T10:17:02Z</time>
      </trkpt>
      <trkpt lat="49.52984" lon="5.83234">
        <ele>275.27</ele>
        <time>2018-07-01T10:17:06Z</time>
      </trkpt>
      <trkpt lat="49.5301" lon="5.83213">
        <ele>271.57</ele>
        <time>2018-07-01T10:17:12Z</time>
      </trkpt>
      <trkpt lat="49.5303" lon="5.83181">
        <ele>270.13</ele>
        <time>2018-07-01T10:17:18Z</time>
      </trkpt>
      <trkpt lat="49.53061" lon="5.83126">
        <ele>268.62</ele>
        <time>2018-07-01T10:17:27Z</time>
      </trkpt>
      <trkpt lat="49.53081" lon="5.83083">
        <ele>267.01</ele>
        <time>2018-07-01T10:17:35Z</time>
      </trkpt>
      <trkpt lat="49.53092" lon="5.8305">
        <ele>269.61</ele>
        <time>2018-07-01T10:17:40Z</time>
      </trkpt>
      <trkpt lat="49.53104" lon="5.8302">
        <ele>270.37</ele>
        <time>2018-07-01T10:17:45Z</time>
      </trkpt>
      <trkpt lat="49.53112" lon="5.83003">
        <ele>271.85</ele>
        <time>2018-07-01T10:17:48Z</time>
      </trkpt>
      <trkpt lat="49.53131" lon="5.82962">
        <ele>274.49</ele>
        <time>2018-07-01T10:17:55Z</time>
      </trkpt>
      <trkpt lat="49.53144" lon="5.82932">
        <ele>276.66</ele>
        <time>2018-07-01T10:18:00Z</time>
      </trkpt>
      <trkpt lat="49.53154" lon="5.829">
        <ele>278.27</ele>
        <time>2018-07-01T10:18:05Z</time>
      </trkpt>
      <trkpt lat="49.53164" lon="5.82859">
        <ele>279.81</ele>
        <time>2018-07-01T10:18:11Z</time>
      </trkpt>
      <trkpt lat="49.53176" lon="5.82846">
        <ele>280.66</ele>
        <time>2018-07-01T10:18:15Z</time>
      </trkpt>
      <trkpt lat="49.5319" lon="5.82847">
        <ele>283.49</ele>
        <time>2018-07-01T10:18:19Z</time>
      </trkpt>
      <trkpt lat="49.53194" lon="5.82843">
        <ele>283.42</ele>
        <time>2018-07-01T10:18:20Z</time>
      </trkpt>
      <trkpt lat="49.53196" lon="5.82839">
        <ele>283.83</ele>
        <time>2018-07-01T10:18:21Z</time>
      </trkpt>
      <trkpt lat="49.5321" lon="5.82815">
        <ele>284.61</ele>
        <time>2018-07-01T10:18:28Z</time>
      </trkpt>
      <trkpt lat="49.53218" lon="5.82787">
        <ele>284.75</ele>
        <time>2018-07-01T10:18:35Z</time>
      </trkpt>
      <trkpt lat="49.53218" lon="5.82763">
        <ele>284.68</ele>
        <time>2018-07-01T10:18:41Z</time>
      </trkpt>
      <trkpt lat="49.53213" lon="5.8272">
        <ele>283.3</ele>
        <time>2018-07-01T10:18:48Z</time>
      </trkpt>
      <trkpt lat="49.53213" lon="5.82713">
        <ele>282.99</ele>
        <time>2018-07-01T10:18:49Z</time>
      </trkpt>
      <trkpt lat="49.53212" lon="5.82698">
        <ele>282.35</ele>
        <time>2018-07-01T10:18:51Z</time>
      </trkpt>
      <trkpt lat="49.53213" lon="5.82691">
        <ele>282.07</ele>
        <time>2018-07-01T10:18:52Z</time>
      </trkpt>
      <trkpt lat="49.53214" lon="5.82688">
        <ele>282.71</ele>
        <time>2018-07-01T10:18:53Z</time>
      </trkpt>
      <trkpt lat="49.53216" lon="5.82685">
        <ele>282.88</ele>
        <time>2018-07-01T10:18:54Z</time>
      </trkpt>
      <trkpt lat="49.53219" lon="5.82684">
        <ele>282.85</ele>
        <time>2018-07-01T10:18:55Z</time>
      </trkpt>
      <trkpt lat="49.53233" lon="5.82674">
        <ele>284.69</ele>
        <time>2018-07-01T10:19:03Z</time>
      </trkpt>
      <trkpt lat="49.53241" lon="5.82669">
        <ele>285.82</ele>
        <time>2018-07-01T10:19:07Z</time>
      </trkpt>
      <trkpt lat="49.53255" lon="5.82658">
        <ele>289.59</ele>
        <time>2018-07-01T10:19:15Z</time>
      </trkpt>
      <trkpt lat="49.53259" lon="5.82651">
        <ele>291.08</ele>
        <time>2018-07-01T10:19:21Z</time>
      </trkpt>
      <trkpt lat="49.53267" lon="5.82654">
        <ele>291.29</ele>
        <time>2018-07-01T10:19:25Z</time>
      </trkpt>
      <trkpt lat="49.53278" lon="5.82657">
        <ele>292.45</ele>
        <time>2018-07-01T10:19:31Z</time>
      </trkpt>
      <trkpt lat="49.53283" lon="5.8266">
        <ele>293.07</ele>
        <time>2018-07-01T10:19:35Z</time>
      </trkpt>
      <trkpt lat="49.53283" lon="5.82667">
        <ele>295.45</ele>
        <time>2018-07-01T10:19:43Z</time>
      </trkpt>
    </trkseg>
  </trk>
</gpx>